﻿<?xml version="1.0" encoding="utf-8" standalone="yes"?>
<gpx version="1.0" creator="CanWay - http://www.canwaygps.com" xmlns:xsi="http://www.w3.org/2001/XMLSchema-instance" xmlns="http://www.topografix.com/GPX/1/0" xsi:schemaLocation="http://www.topografix.com/GPX/1/0 http://www.topografix.com/GPX/1/0/gpx.xsd">
<time>2020-06-02T20:47:11Z</time>
<bounds minlat="48.820870" minlon="8.913106" maxlat="48.837152" maxlon="8.959846" />
<trk>
<name>2020-06-02 15-32_IVV-PW Friedensweg_Flacht_12 KM</name>
<trkseg>
<trkpt lat="48.837002" lon="8.914134">
<ele>400.1</ele>
<time>2020-06-02T15:32:06Z</time>
<speed>0.0</speed>
</trkpt>
<trkpt lat="48.837018" lon="8.914127">
<ele>397.3</ele>
<time>2020-06-02T15:32:11Z</time>
<speed>0.0</speed>
</trkpt>
<trkpt lat="48.837018" lon="8.914127">
<ele>397.3</ele>
<time>2020-06-02T15:32:16Z</time>
<speed>0.0</speed>
</trkpt>
<trkpt lat="48.837012" lon="8.914127">
<ele>396.5</ele>
<time>2020-06-02T15:32:21Z</time>
<speed>0.0</speed>
</trkpt>
<trkpt lat="48.837045" lon="8.914106">
<ele>386.6</ele>
<time>2020-06-02T15:32:29Z</time>
<speed>0.0</speed>
</trkpt>
<trkpt lat="48.837040" lon="8.914090">
<ele>387.1</ele>
<time>2020-06-02T15:32:34Z</time>
<speed>0.0</speed>
</trkpt>
<trkpt lat="48.837046" lon="8.914090">
<ele>387.9</ele>
<time>2020-06-02T15:32:39Z</time>
<speed>0.0</speed>
</trkpt>
<trkpt lat="48.837057" lon="8.914106">
<ele>388.1</ele>
<time>2020-06-02T15:32:44Z</time>
<speed>0.3</speed>
</trkpt>
<trkpt lat="48.837038" lon="8.914184">
<ele>388.6</ele>
<time>2020-06-02T15:32:49Z</time>
<speed>1.4</speed>
</trkpt>
<trkpt lat="48.837020" lon="8.914249">
<ele>389.0</ele>
<time>2020-06-02T15:32:54Z</time>
<speed>0.8</speed>
</trkpt>
<trkpt lat="48.836978" lon="8.914297">
<ele>389.1</ele>
<time>2020-06-02T15:32:59Z</time>
<speed>0.8</speed>
</trkpt>
<trkpt lat="48.836964" lon="8.914322">
<ele>389.2</ele>
<time>2020-06-02T15:33:04Z</time>
<speed>0.0</speed>
</trkpt>
<trkpt lat="48.836961" lon="8.914362">
<ele>389.5</ele>
<time>2020-06-02T15:33:09Z</time>
<speed>0.3</speed>
</trkpt>
<trkpt lat="48.836939" lon="8.914400">
<ele>389.0</ele>
<time>2020-06-02T15:33:14Z</time>
<speed>0.3</speed>
</trkpt>
<trkpt lat="48.836930" lon="8.914425">
<ele>389.8</ele>
<time>2020-06-02T15:33:19Z</time>
<speed>0.6</speed>
</trkpt>
<trkpt lat="48.836941" lon="8.914456">
<ele>388.7</ele>
<time>2020-06-02T15:33:24Z</time>
<speed>0.6</speed>
</trkpt>
<trkpt lat="48.836945" lon="8.914499">
<ele>388.4</ele>
<time>2020-06-02T15:33:29Z</time>
<speed>0.6</speed>
</trkpt>
<trkpt lat="48.836955" lon="8.914543">
<ele>387.4</ele>
<time>2020-06-02T15:33:34Z</time>
<speed>0.6</speed>
</trkpt>
<trkpt lat="48.836976" lon="8.914601">
<ele>388.0</ele>
<time>2020-06-02T15:33:39Z</time>
<speed>0.8</speed>
</trkpt>
<trkpt lat="48.836961" lon="8.914642">
<ele>386.8</ele>
<time>2020-06-02T15:33:44Z</time>
<speed>0.3</speed>
</trkpt>
<trkpt lat="48.836950" lon="8.914628">
<ele>385.2</ele>
<time>2020-06-02T15:33:49Z</time>
<speed>0.3</speed>
</trkpt>
<trkpt lat="48.836895" lon="8.914591">
<ele>385.2</ele>
<time>2020-06-02T15:33:54Z</time>
<speed>1.1</speed>
</trkpt>
<trkpt lat="48.836849" lon="8.914544">
<ele>383.1</ele>
<time>2020-06-02T15:33:59Z</time>
<speed>1.1</speed>
</trkpt>
<trkpt lat="48.836809" lon="8.914500">
<ele>380.4</ele>
<time>2020-06-02T15:34:04Z</time>
<speed>1.1</speed>
</trkpt>
<trkpt lat="48.836773" lon="8.914466">
<ele>379.8</ele>
<time>2020-06-02T15:34:09Z</time>
<speed>0.0</speed>
</trkpt>
<trkpt lat="48.836756" lon="8.914451">
<ele>378.9</ele>
<time>2020-06-02T15:34:14Z</time>
<speed>1.1</speed>
</trkpt>
<trkpt lat="48.836720" lon="8.914417">
<ele>378.4</ele>
<time>2020-06-02T15:34:19Z</time>
<speed>0.8</speed>
</trkpt>
<trkpt lat="48.836674" lon="8.914355">
<ele>377.6</ele>
<time>2020-06-02T15:34:24Z</time>
<speed>1.1</speed>
</trkpt>
<trkpt lat="48.836627" lon="8.914306">
<ele>376.8</ele>
<time>2020-06-02T15:34:29Z</time>
<speed>1.1</speed>
</trkpt>
<trkpt lat="48.836585" lon="8.914258">
<ele>376.9</ele>
<time>2020-06-02T15:34:34Z</time>
<speed>0.8</speed>
</trkpt>
<trkpt lat="48.836538" lon="8.914289">
<ele>377.5</ele>
<time>2020-06-02T15:34:39Z</time>
<speed>0.8</speed>
</trkpt>
<trkpt lat="48.836502" lon="8.914337">
<ele>378.4</ele>
<time>2020-06-02T15:34:44Z</time>
<speed>0.8</speed>
</trkpt>
<trkpt lat="48.836442" lon="8.914351">
<ele>380.2</ele>
<time>2020-06-02T15:34:49Z</time>
<speed>1.1</speed>
</trkpt>
<trkpt lat="48.836385" lon="8.914325">
<ele>381.8</ele>
<time>2020-06-02T15:34:54Z</time>
<speed>1.1</speed>
</trkpt>
<trkpt lat="48.836328" lon="8.914299">
<ele>383.3</ele>
<time>2020-06-02T15:34:59Z</time>
<speed>1.1</speed>
</trkpt>
<trkpt lat="48.836272" lon="8.914275">
<ele>383.4</ele>
<time>2020-06-02T15:35:04Z</time>
<speed>1.1</speed>
</trkpt>
<trkpt lat="48.836220" lon="8.914278">
<ele>384.5</ele>
<time>2020-06-02T15:35:09Z</time>
<speed>0.8</speed>
</trkpt>
<trkpt lat="48.836186" lon="8.914298">
<ele>385.2</ele>
<time>2020-06-02T15:35:14Z</time>
<speed>0.8</speed>
</trkpt>
<trkpt lat="48.836172" lon="8.914310">
<ele>385.2</ele>
<time>2020-06-02T15:35:19Z</time>
<speed>0.0</speed>
</trkpt>
<trkpt lat="48.836146" lon="8.914319">
<ele>385.1</ele>
<time>2020-06-02T15:35:24Z</time>
<speed>0.8</speed>
</trkpt>
<trkpt lat="48.836110" lon="8.914369">
<ele>384.5</ele>
<time>2020-06-02T15:35:29Z</time>
<speed>0.8</speed>
</trkpt>
<trkpt lat="48.836076" lon="8.914389">
<ele>385.2</ele>
<time>2020-06-02T15:35:34Z</time>
<speed>0.6</speed>
</trkpt>
<trkpt lat="48.836030" lon="8.914408">
<ele>385.7</ele>
<time>2020-06-02T15:35:39Z</time>
<speed>0.8</speed>
</trkpt>
<trkpt lat="48.835983" lon="8.914426">
<ele>386.3</ele>
<time>2020-06-02T15:35:44Z</time>
<speed>0.8</speed>
</trkpt>
<trkpt lat="48.835931" lon="8.914445">
<ele>386.1</ele>
<time>2020-06-02T15:35:49Z</time>
<speed>0.8</speed>
</trkpt>
<trkpt lat="48.835885" lon="8.914465">
<ele>385.2</ele>
<time>2020-06-02T15:35:54Z</time>
<speed>0.8</speed>
</trkpt>
<trkpt lat="48.835837" lon="8.914513">
<ele>384.6</ele>
<time>2020-06-02T15:35:59Z</time>
<speed>1.1</speed>
</trkpt>
<trkpt lat="48.835773" lon="8.914516">
<ele>384.1</ele>
<time>2020-06-02T15:36:04Z</time>
<speed>1.1</speed>
</trkpt>
<trkpt lat="48.835715" lon="8.914519">
<ele>384.5</ele>
<time>2020-06-02T15:36:09Z</time>
<speed>1.1</speed>
</trkpt>
<trkpt lat="48.835662" lon="8.914521">
<ele>385.6</ele>
<time>2020-06-02T15:36:14Z</time>
<speed>0.8</speed>
</trkpt>
<trkpt lat="48.835610" lon="8.914509">
<ele>388.0</ele>
<time>2020-06-02T15:36:19Z</time>
<speed>1.1</speed>
</trkpt>
<trkpt lat="48.835555" lon="8.914469">
<ele>389.4</ele>
<time>2020-06-02T15:36:24Z</time>
<speed>1.1</speed>
</trkpt>
<trkpt lat="48.835500" lon="8.914432">
<ele>389.5</ele>
<time>2020-06-02T15:36:29Z</time>
<speed>1.1</speed>
</trkpt>
<trkpt lat="48.835456" lon="8.914392">
<ele>392.4</ele>
<time>2020-06-02T15:36:34Z</time>
<speed>1.1</speed>
</trkpt>
<trkpt lat="48.835406" lon="8.914368">
<ele>393.3</ele>
<time>2020-06-02T15:36:39Z</time>
<speed>1.1</speed>
</trkpt>
<trkpt lat="48.835344" lon="8.914329">
<ele>394.0</ele>
<time>2020-06-02T15:36:44Z</time>
<speed>1.1</speed>
</trkpt>
<trkpt lat="48.835298" lon="8.914266">
<ele>393.2</ele>
<time>2020-06-02T15:36:49Z</time>
<speed>1.1</speed>
</trkpt>
<trkpt lat="48.835250" lon="8.914215">
<ele>393.8</ele>
<time>2020-06-02T15:36:54Z</time>
<speed>1.1</speed>
</trkpt>
<trkpt lat="48.835202" lon="8.914164">
<ele>394.5</ele>
<time>2020-06-02T15:36:59Z</time>
<speed>1.1</speed>
</trkpt>
<trkpt lat="48.835164" lon="8.914125">
<ele>398.2</ele>
<time>2020-06-02T15:37:04Z</time>
<speed>1.1</speed>
</trkpt>
<trkpt lat="48.835128" lon="8.914060">
<ele>400.3</ele>
<time>2020-06-02T15:37:09Z</time>
<speed>1.1</speed>
</trkpt>
<trkpt lat="48.835085" lon="8.914023">
<ele>401.9</ele>
<time>2020-06-02T15:37:14Z</time>
<speed>1.1</speed>
</trkpt>
<trkpt lat="48.835037" lon="8.913988">
<ele>401.2</ele>
<time>2020-06-02T15:37:19Z</time>
<speed>1.1</speed>
</trkpt>
<trkpt lat="48.835004" lon="8.913914">
<ele>400.4</ele>
<time>2020-06-02T15:37:24Z</time>
<speed>1.1</speed>
</trkpt>
<trkpt lat="48.834971" lon="8.913854">
<ele>399.7</ele>
<time>2020-06-02T15:37:29Z</time>
<speed>1.1</speed>
</trkpt>
<trkpt lat="48.834937" lon="8.913794">
<ele>399.0</ele>
<time>2020-06-02T15:37:34Z</time>
<speed>1.1</speed>
</trkpt>
<trkpt lat="48.834890" lon="8.913745">
<ele>398.3</ele>
<time>2020-06-02T15:37:39Z</time>
<speed>1.1</speed>
</trkpt>
<trkpt lat="48.834840" lon="8.913723">
<ele>397.8</ele>
<time>2020-06-02T15:37:44Z</time>
<speed>0.8</speed>
</trkpt>
<trkpt lat="48.834825" lon="8.913665">
<ele>397.9</ele>
<time>2020-06-02T15:37:49Z</time>
<speed>0.6</speed>
</trkpt>
<trkpt lat="48.834809" lon="8.913620">
<ele>398.2</ele>
<time>2020-06-02T15:37:54Z</time>
<speed>0.8</speed>
</trkpt>
<trkpt lat="48.834746" lon="8.913594">
<ele>398.9</ele>
<time>2020-06-02T15:37:59Z</time>
<speed>0.8</speed>
</trkpt>
<trkpt lat="48.834667" lon="8.913572">
<ele>394.7</ele>
<time>2020-06-02T15:38:04Z</time>
<speed>1.1</speed>
</trkpt>
<trkpt lat="48.834627" lon="8.913609">
<ele>393.3</ele>
<time>2020-06-02T15:38:09Z</time>
<speed>0.8</speed>
</trkpt>
<trkpt lat="48.834584" lon="8.913669">
<ele>393.5</ele>
<time>2020-06-02T15:38:14Z</time>
<speed>0.8</speed>
</trkpt>
<trkpt lat="48.834540" lon="8.913744">
<ele>393.8</ele>
<time>2020-06-02T15:38:19Z</time>
<speed>1.1</speed>
</trkpt>
<trkpt lat="48.834483" lon="8.913749">
<ele>392.7</ele>
<time>2020-06-02T15:38:24Z</time>
<speed>0.8</speed>
</trkpt>
<trkpt lat="48.834423" lon="8.913698">
<ele>391.9</ele>
<time>2020-06-02T15:38:29Z</time>
<speed>1.1</speed>
</trkpt>
<trkpt lat="48.834373" lon="8.913674">
<ele>392.8</ele>
<time>2020-06-02T15:38:34Z</time>
<speed>1.1</speed>
</trkpt>
<trkpt lat="48.834316" lon="8.913663">
<ele>393.0</ele>
<time>2020-06-02T15:38:39Z</time>
<speed>0.8</speed>
</trkpt>
<trkpt lat="48.834259" lon="8.913639">
<ele>393.2</ele>
<time>2020-06-02T15:38:44Z</time>
<speed>0.8</speed>
</trkpt>
<trkpt lat="48.834208" lon="8.913629">
<ele>394.2</ele>
<time>2020-06-02T15:38:49Z</time>
<speed>1.1</speed>
</trkpt>
<trkpt lat="48.834170" lon="8.913620">
<ele>395.2</ele>
<time>2020-06-02T15:38:54Z</time>
<speed>0.8</speed>
</trkpt>
<trkpt lat="48.834127" lon="8.913583">
<ele>396.8</ele>
<time>2020-06-02T15:38:59Z</time>
<speed>0.8</speed>
</trkpt>
<trkpt lat="48.834059" lon="8.913543">
<ele>396.7</ele>
<time>2020-06-02T15:39:04Z</time>
<speed>1.1</speed>
</trkpt>
<trkpt lat="48.834014" lon="8.913535">
<ele>397.1</ele>
<time>2020-06-02T15:39:09Z</time>
<speed>0.0</speed>
</trkpt>
<trkpt lat="48.834008" lon="8.913550">
<ele>395.0</ele>
<time>2020-06-02T15:39:14Z</time>
<speed>0.6</speed>
</trkpt>
<trkpt lat="48.834023" lon="8.913609">
<ele>394.9</ele>
<time>2020-06-02T15:39:19Z</time>
<speed>0.8</speed>
</trkpt>
<trkpt lat="48.834027" lon="8.913667">
<ele>393.2</ele>
<time>2020-06-02T15:39:24Z</time>
<speed>1.1</speed>
</trkpt>
<trkpt lat="48.834039" lon="8.913749">
<ele>394.7</ele>
<time>2020-06-02T15:39:29Z</time>
<speed>1.1</speed>
</trkpt>
<trkpt lat="48.834032" lon="8.913830">
<ele>395.3</ele>
<time>2020-06-02T15:39:34Z</time>
<speed>1.1</speed>
</trkpt>
<trkpt lat="48.834033" lon="8.913897">
<ele>396.6</ele>
<time>2020-06-02T15:39:39Z</time>
<speed>1.1</speed>
</trkpt>
<trkpt lat="48.834003" lon="8.913963">
<ele>395.5</ele>
<time>2020-06-02T15:39:44Z</time>
<speed>0.6</speed>
</trkpt>
<trkpt lat="48.833954" lon="8.913956">
<ele>393.7</ele>
<time>2020-06-02T15:39:49Z</time>
<speed>0.8</speed>
</trkpt>
<trkpt lat="48.833973" lon="8.913878">
<ele>393.1</ele>
<time>2020-06-02T15:39:54Z</time>
<speed>1.1</speed>
</trkpt>
<trkpt lat="48.833999" lon="8.913786">
<ele>393.3</ele>
<time>2020-06-02T15:39:59Z</time>
<speed>1.1</speed>
</trkpt>
<trkpt lat="48.833978" lon="8.913712">
<ele>394.0</ele>
<time>2020-06-02T15:40:04Z</time>
<speed>1.1</speed>
</trkpt>
<trkpt lat="48.833931" lon="8.913648">
<ele>394.6</ele>
<time>2020-06-02T15:40:09Z</time>
<speed>1.1</speed>
</trkpt>
<trkpt lat="48.833894" lon="8.913612">
<ele>395.5</ele>
<time>2020-06-02T15:40:14Z</time>
<speed>0.8</speed>
</trkpt>
<trkpt lat="48.833877" lon="8.913514">
<ele>394.5</ele>
<time>2020-06-02T15:40:19Z</time>
<speed>1.1</speed>
</trkpt>
<trkpt lat="48.833869" lon="8.913429">
<ele>395.2</ele>
<time>2020-06-02T15:40:24Z</time>
<speed>1.1</speed>
</trkpt>
<trkpt lat="48.833851" lon="8.913344">
<ele>394.4</ele>
<time>2020-06-02T15:40:29Z</time>
<speed>0.8</speed>
</trkpt>
<trkpt lat="48.833822" lon="8.913297">
<ele>394.5</ele>
<time>2020-06-02T15:40:34Z</time>
<speed>1.1</speed>
</trkpt>
<trkpt lat="48.833765" lon="8.913271">
<ele>396.1</ele>
<time>2020-06-02T15:40:39Z</time>
<speed>1.1</speed>
</trkpt>
<trkpt lat="48.833691" lon="8.913214">
<ele>398.0</ele>
<time>2020-06-02T15:40:44Z</time>
<speed>1.1</speed>
</trkpt>
<trkpt lat="48.833654" lon="8.913176">
<ele>400.3</ele>
<time>2020-06-02T15:40:49Z</time>
<speed>0.6</speed>
</trkpt>
<trkpt lat="48.833643" lon="8.913130">
<ele>402.7</ele>
<time>2020-06-02T15:40:54Z</time>
<speed>0.3</speed>
</trkpt>
<trkpt lat="48.833592" lon="8.913106">
<ele>403.6</ele>
<time>2020-06-02T15:40:59Z</time>
<speed>0.6</speed>
</trkpt>
<trkpt lat="48.833547" lon="8.913176">
<ele>406.7</ele>
<time>2020-06-02T15:41:04Z</time>
<speed>0.6</speed>
</trkpt>
<trkpt lat="48.833521" lon="8.913252">
<ele>407.8</ele>
<time>2020-06-02T15:41:09Z</time>
<speed>0.8</speed>
</trkpt>
<trkpt lat="48.833504" lon="8.913351">
<ele>404.2</ele>
<time>2020-06-02T15:41:14Z</time>
<speed>1.1</speed>
</trkpt>
<trkpt lat="48.833445" lon="8.913369">
<ele>403.3</ele>
<time>2020-06-02T15:41:19Z</time>
<speed>1.1</speed>
</trkpt>
<trkpt lat="48.833390" lon="8.913363">
<ele>400.7</ele>
<time>2020-06-02T15:41:24Z</time>
<speed>1.1</speed>
</trkpt>
<trkpt lat="48.833331" lon="8.913366">
<ele>401.0</ele>
<time>2020-06-02T15:41:29Z</time>
<speed>1.1</speed>
</trkpt>
<trkpt lat="48.833275" lon="8.913357">
<ele>399.9</ele>
<time>2020-06-02T15:41:34Z</time>
<speed>1.1</speed>
</trkpt>
<trkpt lat="48.833218" lon="8.913362">
<ele>398.8</ele>
<time>2020-06-02T15:41:39Z</time>
<speed>0.8</speed>
</trkpt>
<trkpt lat="48.833168" lon="8.913356">
<ele>397.0</ele>
<time>2020-06-02T15:41:44Z</time>
<speed>1.1</speed>
</trkpt>
<trkpt lat="48.833116" lon="8.913375">
<ele>396.8</ele>
<time>2020-06-02T15:41:49Z</time>
<speed>1.1</speed>
</trkpt>
<trkpt lat="48.833057" lon="8.913377">
<ele>397.1</ele>
<time>2020-06-02T15:41:54Z</time>
<speed>1.1</speed>
</trkpt>
<trkpt lat="48.833017" lon="8.913398">
<ele>397.0</ele>
<time>2020-06-02T15:41:59Z</time>
<speed>1.1</speed>
</trkpt>
<trkpt lat="48.832970" lon="8.913430">
<ele>397.7</ele>
<time>2020-06-02T15:42:04Z</time>
<speed>0.8</speed>
</trkpt>
<trkpt lat="48.832937" lon="8.913453">
<ele>396.9</ele>
<time>2020-06-02T15:42:09Z</time>
<speed>0.8</speed>
</trkpt>
<trkpt lat="48.832904" lon="8.913462">
<ele>396.1</ele>
<time>2020-06-02T15:42:14Z</time>
<speed>0.8</speed>
</trkpt>
<trkpt lat="48.832870" lon="8.913498">
<ele>395.4</ele>
<time>2020-06-02T15:42:19Z</time>
<speed>1.1</speed>
</trkpt>
<trkpt lat="48.832824" lon="8.913516">
<ele>396.0</ele>
<time>2020-06-02T15:42:24Z</time>
<speed>1.1</speed>
</trkpt>
<trkpt lat="48.832795" lon="8.913553">
<ele>396.1</ele>
<time>2020-06-02T15:42:29Z</time>
<speed>1.1</speed>
</trkpt>
<trkpt lat="48.832771" lon="8.913616">
<ele>397.1</ele>
<time>2020-06-02T15:42:34Z</time>
<speed>0.8</speed>
</trkpt>
<trkpt lat="48.832740" lon="8.913663">
<ele>398.7</ele>
<time>2020-06-02T15:42:39Z</time>
<speed>0.8</speed>
</trkpt>
<trkpt lat="48.832698" lon="8.913711">
<ele>398.8</ele>
<time>2020-06-02T15:42:44Z</time>
<speed>0.8</speed>
</trkpt>
<trkpt lat="48.832650" lon="8.913758">
<ele>398.2</ele>
<time>2020-06-02T15:42:49Z</time>
<speed>0.8</speed>
</trkpt>
<trkpt lat="48.832610" lon="8.913792">
<ele>398.2</ele>
<time>2020-06-02T15:42:54Z</time>
<speed>0.8</speed>
</trkpt>
<trkpt lat="48.832575" lon="8.913828">
<ele>397.5</ele>
<time>2020-06-02T15:42:59Z</time>
<speed>0.8</speed>
</trkpt>
<trkpt lat="48.832528" lon="8.913860">
<ele>398.2</ele>
<time>2020-06-02T15:43:04Z</time>
<speed>0.8</speed>
</trkpt>
<trkpt lat="48.832469" lon="8.913879">
<ele>397.2</ele>
<time>2020-06-02T15:43:09Z</time>
<speed>1.1</speed>
</trkpt>
<trkpt lat="48.832417" lon="8.913897">
<ele>397.0</ele>
<time>2020-06-02T15:43:14Z</time>
<speed>0.8</speed>
</trkpt>
<trkpt lat="48.832365" lon="8.913918">
<ele>395.4</ele>
<time>2020-06-02T15:43:19Z</time>
<speed>0.8</speed>
</trkpt>
<trkpt lat="48.832323" lon="8.913950">
<ele>396.8</ele>
<time>2020-06-02T15:43:24Z</time>
<speed>1.1</speed>
</trkpt>
<trkpt lat="48.832276" lon="8.913984">
<ele>396.1</ele>
<time>2020-06-02T15:43:29Z</time>
<speed>1.1</speed>
</trkpt>
<trkpt lat="48.832241" lon="8.914018">
<ele>396.8</ele>
<time>2020-06-02T15:43:34Z</time>
<speed>0.8</speed>
</trkpt>
<trkpt lat="48.832218" lon="8.914067">
<ele>397.8</ele>
<time>2020-06-02T15:43:39Z</time>
<speed>0.8</speed>
</trkpt>
<trkpt lat="48.832183" lon="8.914101">
<ele>398.5</ele>
<time>2020-06-02T15:43:44Z</time>
<speed>0.6</speed>
</trkpt>
<trkpt lat="48.832159" lon="8.914151">
<ele>399.5</ele>
<time>2020-06-02T15:43:49Z</time>
<speed>0.8</speed>
</trkpt>
<trkpt lat="48.832137" lon="8.914187">
<ele>400.3</ele>
<time>2020-06-02T15:43:54Z</time>
<speed>0.6</speed>
</trkpt>
<trkpt lat="48.832107" lon="8.914235">
<ele>401.9</ele>
<time>2020-06-02T15:43:59Z</time>
<speed>0.6</speed>
</trkpt>
<trkpt lat="48.832078" lon="8.914271">
<ele>402.0</ele>
<time>2020-06-02T15:44:04Z</time>
<speed>0.6</speed>
</trkpt>
<trkpt lat="48.832056" lon="8.914307">
<ele>402.9</ele>
<time>2020-06-02T15:44:09Z</time>
<speed>0.0</speed>
</trkpt>
<trkpt lat="48.832062" lon="8.914307">
<ele>403.6</ele>
<time>2020-06-02T15:44:14Z</time>
<speed>0.8</speed>
</trkpt>
<trkpt lat="48.832045" lon="8.914359">
<ele>403.9</ele>
<time>2020-06-02T15:44:19Z</time>
<speed>0.8</speed>
</trkpt>
<trkpt lat="48.832010" lon="8.914393">
<ele>404.7</ele>
<time>2020-06-02T15:44:24Z</time>
<speed>0.8</speed>
</trkpt>
<trkpt lat="48.831975" lon="8.914427">
<ele>405.4</ele>
<time>2020-06-02T15:44:29Z</time>
<speed>0.8</speed>
</trkpt>
<trkpt lat="48.831934" lon="8.914461">
<ele>405.4</ele>
<time>2020-06-02T15:44:34Z</time>
<speed>0.8</speed>
</trkpt>
<trkpt lat="48.831893" lon="8.914495">
<ele>405.4</ele>
<time>2020-06-02T15:44:39Z</time>
<speed>0.8</speed>
</trkpt>
<trkpt lat="48.831845" lon="8.914527">
<ele>406.1</ele>
<time>2020-06-02T15:44:44Z</time>
<speed>0.8</speed>
</trkpt>
<trkpt lat="48.831805" lon="8.914547">
<ele>406.0</ele>
<time>2020-06-02T15:44:49Z</time>
<speed>0.8</speed>
</trkpt>
<trkpt lat="48.831771" lon="8.914583">
<ele>405.3</ele>
<time>2020-06-02T15:44:54Z</time>
<speed>0.8</speed>
</trkpt>
<trkpt lat="48.831742" lon="8.914617">
<ele>406.8</ele>
<time>2020-06-02T15:44:59Z</time>
<speed>0.8</speed>
</trkpt>
<trkpt lat="48.831702" lon="8.914638">
<ele>406.7</ele>
<time>2020-06-02T15:45:04Z</time>
<speed>0.8</speed>
</trkpt>
<trkpt lat="48.831661" lon="8.914672">
<ele>406.7</ele>
<time>2020-06-02T15:45:09Z</time>
<speed>0.8</speed>
</trkpt>
<trkpt lat="48.831631" lon="8.914720">
<ele>408.3</ele>
<time>2020-06-02T15:45:14Z</time>
<speed>0.8</speed>
</trkpt>
<trkpt lat="48.831590" lon="8.914754">
<ele>408.3</ele>
<time>2020-06-02T15:45:19Z</time>
<speed>0.8</speed>
</trkpt>
<trkpt lat="48.831556" lon="8.914774">
<ele>409.0</ele>
<time>2020-06-02T15:45:24Z</time>
<speed>0.0</speed>
</trkpt>
<trkpt lat="48.831536" lon="8.914786">
<ele>408.2</ele>
<time>2020-06-02T15:45:29Z</time>
<speed>0.8</speed>
</trkpt>
<trkpt lat="48.831500" lon="8.914833">
<ele>409.1</ele>
<time>2020-06-02T15:45:34Z</time>
<speed>0.8</speed>
</trkpt>
<trkpt lat="48.831472" lon="8.914869">
<ele>409.2</ele>
<time>2020-06-02T15:45:39Z</time>
<speed>0.8</speed>
</trkpt>
<trkpt lat="48.831437" lon="8.914903">
<ele>409.9</ele>
<time>2020-06-02T15:45:44Z</time>
<speed>0.6</speed>
</trkpt>
<trkpt lat="48.831396" lon="8.914937">
<ele>409.9</ele>
<time>2020-06-02T15:45:49Z</time>
<speed>0.8</speed>
</trkpt>
<trkpt lat="48.831368" lon="8.914973">
<ele>410.0</ele>
<time>2020-06-02T15:45:54Z</time>
<speed>0.8</speed>
</trkpt>
<trkpt lat="48.831338" lon="8.915007">
<ele>411.6</ele>
<time>2020-06-02T15:45:59Z</time>
<speed>0.8</speed>
</trkpt>
<trkpt lat="48.831296" lon="8.915055">
<ele>411.7</ele>
<time>2020-06-02T15:46:04Z</time>
<speed>0.8</speed>
</trkpt>
<trkpt lat="48.831268" lon="8.915091">
<ele>411.8</ele>
<time>2020-06-02T15:46:09Z</time>
<speed>0.8</speed>
</trkpt>
<trkpt lat="48.831233" lon="8.915125">
<ele>412.5</ele>
<time>2020-06-02T15:46:14Z</time>
<speed>0.8</speed>
</trkpt>
<trkpt lat="48.831198" lon="8.915159">
<ele>413.3</ele>
<time>2020-06-02T15:46:19Z</time>
<speed>0.8</speed>
</trkpt>
<trkpt lat="48.831164" lon="8.915195">
<ele>412.6</ele>
<time>2020-06-02T15:46:24Z</time>
<speed>0.6</speed>
</trkpt>
<trkpt lat="48.831122" lon="8.915243">
<ele>412.7</ele>
<time>2020-06-02T15:46:29Z</time>
<speed>0.8</speed>
</trkpt>
<trkpt lat="48.831093" lon="8.915279">
<ele>412.8</ele>
<time>2020-06-02T15:46:34Z</time>
<speed>0.8</speed>
</trkpt>
<trkpt lat="48.831065" lon="8.915315">
<ele>412.9</ele>
<time>2020-06-02T15:46:39Z</time>
<speed>0.8</speed>
</trkpt>
<trkpt lat="48.831035" lon="8.915363">
<ele>414.5</ele>
<time>2020-06-02T15:46:44Z</time>
<speed>0.6</speed>
</trkpt>
<trkpt lat="48.831012" lon="8.915399">
<ele>415.4</ele>
<time>2020-06-02T15:46:49Z</time>
<speed>0.8</speed>
</trkpt>
<trkpt lat="48.830977" lon="8.915433">
<ele>416.1</ele>
<time>2020-06-02T15:46:54Z</time>
<speed>0.8</speed>
</trkpt>
<trkpt lat="48.830948" lon="8.915482">
<ele>416.3</ele>
<time>2020-06-02T15:46:59Z</time>
<speed>0.8</speed>
</trkpt>
<trkpt lat="48.830919" lon="8.915516">
<ele>417.8</ele>
<time>2020-06-02T15:47:04Z</time>
<speed>0.8</speed>
</trkpt>
<trkpt lat="48.830889" lon="8.915566">
<ele>418.0</ele>
<time>2020-06-02T15:47:09Z</time>
<speed>0.8</speed>
</trkpt>
<trkpt lat="48.830867" lon="8.915602">
<ele>418.9</ele>
<time>2020-06-02T15:47:14Z</time>
<speed>0.6</speed>
</trkpt>
<trkpt lat="48.830831" lon="8.915650">
<ele>419.7</ele>
<time>2020-06-02T15:47:19Z</time>
<speed>0.8</speed>
</trkpt>
<trkpt lat="48.830802" lon="8.915686">
<ele>419.8</ele>
<time>2020-06-02T15:47:24Z</time>
<speed>0.8</speed>
</trkpt>
<trkpt lat="48.830766" lon="8.915733">
<ele>420.7</ele>
<time>2020-06-02T15:47:29Z</time>
<speed>0.8</speed>
</trkpt>
<trkpt lat="48.830738" lon="8.915769">
<ele>420.8</ele>
<time>2020-06-02T15:47:34Z</time>
<speed>0.0</speed>
</trkpt>
<trkpt lat="48.830732" lon="8.915769">
<ele>420.0</ele>
<time>2020-06-02T15:47:39Z</time>
<speed>0.6</speed>
</trkpt>
<trkpt lat="48.830697" lon="8.915819">
<ele>419.5</ele>
<time>2020-06-02T15:47:44Z</time>
<speed>0.8</speed>
</trkpt>
<trkpt lat="48.830673" lon="8.915869">
<ele>420.4</ele>
<time>2020-06-02T15:47:49Z</time>
<speed>0.8</speed>
</trkpt>
<trkpt lat="48.830644" lon="8.915918">
<ele>420.6</ele>
<time>2020-06-02T15:47:54Z</time>
<speed>0.8</speed>
</trkpt>
<trkpt lat="48.830621" lon="8.915954">
<ele>421.5</ele>
<time>2020-06-02T15:47:59Z</time>
<speed>0.6</speed>
</trkpt>
<trkpt lat="48.830593" lon="8.915990">
<ele>421.6</ele>
<time>2020-06-02T15:48:04Z</time>
<speed>0.6</speed>
</trkpt>
<trkpt lat="48.830570" lon="8.916040">
<ele>422.6</ele>
<time>2020-06-02T15:48:09Z</time>
<speed>1.1</speed>
</trkpt>
<trkpt lat="48.830534" lon="8.916074">
<ele>423.3</ele>
<time>2020-06-02T15:48:14Z</time>
<speed>0.8</speed>
</trkpt>
<trkpt lat="48.830500" lon="8.916110">
<ele>422.7</ele>
<time>2020-06-02T15:48:19Z</time>
<speed>0.8</speed>
</trkpt>
<trkpt lat="48.830471" lon="8.916160">
<ele>422.9</ele>
<time>2020-06-02T15:48:24Z</time>
<speed>0.8</speed>
</trkpt>
<trkpt lat="48.830441" lon="8.916209">
<ele>423.1</ele>
<time>2020-06-02T15:48:29Z</time>
<speed>0.6</speed>
</trkpt>
<trkpt lat="48.830425" lon="8.916246">
<ele>424.7</ele>
<time>2020-06-02T15:48:34Z</time>
<speed>0.8</speed>
</trkpt>
<trkpt lat="48.830390" lon="8.916295">
<ele>424.1</ele>
<time>2020-06-02T15:48:39Z</time>
<speed>0.8</speed>
</trkpt>
<trkpt lat="48.830366" lon="8.916345">
<ele>425.1</ele>
<time>2020-06-02T15:48:44Z</time>
<speed>0.6</speed>
</trkpt>
<trkpt lat="48.830331" lon="8.916379">
<ele>425.8</ele>
<time>2020-06-02T15:48:49Z</time>
<speed>0.8</speed>
</trkpt>
<trkpt lat="48.830297" lon="8.916415">
<ele>425.2</ele>
<time>2020-06-02T15:48:54Z</time>
<speed>0.8</speed>
</trkpt>
<trkpt lat="48.830260" lon="8.916478">
<ele>424.7</ele>
<time>2020-06-02T15:48:59Z</time>
<speed>0.8</speed>
</trkpt>
<trkpt lat="48.830232" lon="8.916514">
<ele>424.8</ele>
<time>2020-06-02T15:49:04Z</time>
<speed>0.8</speed>
</trkpt>
<trkpt lat="48.830213" lon="8.916577">
<ele>426.6</ele>
<time>2020-06-02T15:49:09Z</time>
<speed>0.8</speed>
</trkpt>
<trkpt lat="48.830185" lon="8.916613">
<ele>426.7</ele>
<time>2020-06-02T15:49:14Z</time>
<speed>0.6</speed>
</trkpt>
<trkpt lat="48.830171" lon="8.916625">
<ele>426.7</ele>
<time>2020-06-02T15:49:19Z</time>
<speed>0.0</speed>
</trkpt>
<trkpt lat="48.830171" lon="8.916625">
<ele>426.7</ele>
<time>2020-06-02T15:49:24Z</time>
<speed>0.0</speed>
</trkpt>
<trkpt lat="48.830165" lon="8.916625">
<ele>426.0</ele>
<time>2020-06-02T15:49:29Z</time>
<speed>0.0</speed>
</trkpt>
<trkpt lat="48.830137" lon="8.916661">
<ele>426.1</ele>
<time>2020-06-02T15:49:34Z</time>
<speed>0.8</speed>
</trkpt>
<trkpt lat="48.830108" lon="8.916695">
<ele>427.6</ele>
<time>2020-06-02T15:49:39Z</time>
<speed>0.6</speed>
</trkpt>
<trkpt lat="48.830079" lon="8.916744">
<ele>427.8</ele>
<time>2020-06-02T15:49:44Z</time>
<speed>0.8</speed>
</trkpt>
<trkpt lat="48.830056" lon="8.916781">
<ele>428.7</ele>
<time>2020-06-02T15:49:49Z</time>
<speed>0.6</speed>
</trkpt>
<trkpt lat="48.830027" lon="8.916830">
<ele>428.9</ele>
<time>2020-06-02T15:49:54Z</time>
<speed>0.6</speed>
</trkpt>
<trkpt lat="48.830010" lon="8.916866">
<ele>430.5</ele>
<time>2020-06-02T15:49:59Z</time>
<speed>0.8</speed>
</trkpt>
<trkpt lat="48.829987" lon="8.916916">
<ele>431.4</ele>
<time>2020-06-02T15:50:04Z</time>
<speed>0.8</speed>
</trkpt>
<trkpt lat="48.829976" lon="8.916968">
<ele>432.5</ele>
<time>2020-06-02T15:50:09Z</time>
<speed>0.8</speed>
</trkpt>
<trkpt lat="48.829946" lon="8.917017">
<ele>432.7</ele>
<time>2020-06-02T15:50:14Z</time>
<speed>0.8</speed>
</trkpt>
<trkpt lat="48.829917" lon="8.917067">
<ele>432.9</ele>
<time>2020-06-02T15:50:19Z</time>
<speed>0.8</speed>
</trkpt>
<trkpt lat="48.829893" lon="8.917116">
<ele>433.8</ele>
<time>2020-06-02T15:50:24Z</time>
<speed>0.8</speed>
</trkpt>
<trkpt lat="48.829877" lon="8.917168">
<ele>434.1</ele>
<time>2020-06-02T15:50:29Z</time>
<speed>0.0</speed>
</trkpt>
<trkpt lat="48.829877" lon="8.917168">
<ele>434.1</ele>
<time>2020-06-02T15:50:34Z</time>
<speed>0.0</speed>
</trkpt>
<trkpt lat="48.829877" lon="8.917168">
<ele>434.1</ele>
<time>2020-06-02T15:50:39Z</time>
<speed>0.0</speed>
</trkpt>
<trkpt lat="48.829856" lon="8.917193">
<ele>433.5</ele>
<time>2020-06-02T15:50:44Z</time>
<speed>0.8</speed>
</trkpt>
<trkpt lat="48.829832" lon="8.917240">
<ele>435.9</ele>
<time>2020-06-02T15:50:49Z</time>
<speed>0.8</speed>
</trkpt>
<trkpt lat="48.829813" lon="8.917303">
<ele>437.7</ele>
<time>2020-06-02T15:50:54Z</time>
<speed>0.6</speed>
</trkpt>
<trkpt lat="48.829807" lon="8.917369">
<ele>439.6</ele>
<time>2020-06-02T15:50:59Z</time>
<speed>0.8</speed>
</trkpt>
<trkpt lat="48.829785" lon="8.917405">
<ele>440.4</ele>
<time>2020-06-02T15:51:04Z</time>
<speed>0.8</speed>
</trkpt>
<trkpt lat="48.829767" lon="8.917470">
<ele>440.8</ele>
<time>2020-06-02T15:51:09Z</time>
<speed>0.8</speed>
</trkpt>
<trkpt lat="48.829756" lon="8.917522">
<ele>441.9</ele>
<time>2020-06-02T15:51:14Z</time>
<speed>0.8</speed>
</trkpt>
<trkpt lat="48.829731" lon="8.917585">
<ele>443.0</ele>
<time>2020-06-02T15:51:19Z</time>
<speed>0.8</speed>
</trkpt>
<trkpt lat="48.829702" lon="8.917634">
<ele>443.2</ele>
<time>2020-06-02T15:51:24Z</time>
<speed>0.8</speed>
</trkpt>
<trkpt lat="48.829672" lon="8.917697">
<ele>443.5</ele>
<time>2020-06-02T15:51:29Z</time>
<speed>0.8</speed>
</trkpt>
<trkpt lat="48.829664" lon="8.917724">
<ele>442.9</ele>
<time>2020-06-02T15:51:34Z</time>
<speed>0.0</speed>
</trkpt>
<trkpt lat="48.829658" lon="8.917724">
<ele>442.2</ele>
<time>2020-06-02T15:51:39Z</time>
<speed>0.0</speed>
</trkpt>
<trkpt lat="48.829612" lon="8.917745">
<ele>441.3</ele>
<time>2020-06-02T15:51:44Z</time>
<speed>0.8</speed>
</trkpt>
<trkpt lat="48.829589" lon="8.917796">
<ele>440.9</ele>
<time>2020-06-02T15:51:49Z</time>
<speed>0.8</speed>
</trkpt>
<trkpt lat="48.829572" lon="8.917848">
<ele>441.2</ele>
<time>2020-06-02T15:51:54Z</time>
<speed>0.8</speed>
</trkpt>
<trkpt lat="48.829543" lon="8.917898">
<ele>441.4</ele>
<time>2020-06-02T15:51:59Z</time>
<speed>0.8</speed>
</trkpt>
<trkpt lat="48.829525" lon="8.917963">
<ele>441.8</ele>
<time>2020-06-02T15:52:04Z</time>
<speed>0.8</speed>
</trkpt>
<trkpt lat="48.829503" lon="8.917999">
<ele>442.6</ele>
<time>2020-06-02T15:52:09Z</time>
<speed>0.8</speed>
</trkpt>
<trkpt lat="48.829472" lon="8.918062">
<ele>442.9</ele>
<time>2020-06-02T15:52:14Z</time>
<speed>0.8</speed>
</trkpt>
<trkpt lat="48.829455" lon="8.918114">
<ele>443.2</ele>
<time>2020-06-02T15:52:19Z</time>
<speed>0.8</speed>
</trkpt>
<trkpt lat="48.829437" lon="8.918179">
<ele>443.7</ele>
<time>2020-06-02T15:52:24Z</time>
<speed>0.8</speed>
</trkpt>
<trkpt lat="48.829408" lon="8.918229">
<ele>443.9</ele>
<time>2020-06-02T15:52:29Z</time>
<speed>0.8</speed>
</trkpt>
<trkpt lat="48.829391" lon="8.918280">
<ele>444.2</ele>
<time>2020-06-02T15:52:34Z</time>
<speed>0.8</speed>
</trkpt>
<trkpt lat="48.829367" lon="8.918343">
<ele>445.2</ele>
<time>2020-06-02T15:52:39Z</time>
<speed>0.8</speed>
</trkpt>
<trkpt lat="48.829350" lon="8.918395">
<ele>445.5</ele>
<time>2020-06-02T15:52:44Z</time>
<speed>0.8</speed>
</trkpt>
<trkpt lat="48.829319" lon="8.918458">
<ele>445.8</ele>
<time>2020-06-02T15:52:49Z</time>
<speed>0.8</speed>
</trkpt>
<trkpt lat="48.829290" lon="8.918508">
<ele>446.0</ele>
<time>2020-06-02T15:52:54Z</time>
<speed>0.8</speed>
</trkpt>
<trkpt lat="48.829286" lon="8.918562">
<ele>446.4</ele>
<time>2020-06-02T15:52:59Z</time>
<speed>0.8</speed>
</trkpt>
<trkpt lat="48.829268" lon="8.918627">
<ele>446.9</ele>
<time>2020-06-02T15:53:04Z</time>
<speed>0.8</speed>
</trkpt>
<trkpt lat="48.829239" lon="8.918676">
<ele>447.1</ele>
<time>2020-06-02T15:53:09Z</time>
<speed>0.8</speed>
</trkpt>
<trkpt lat="48.829215" lon="8.918741">
<ele>446.7</ele>
<time>2020-06-02T15:53:14Z</time>
<speed>0.8</speed>
</trkpt>
<trkpt lat="48.829192" lon="8.918793">
<ele>446.3</ele>
<time>2020-06-02T15:53:19Z</time>
<speed>0.8</speed>
</trkpt>
<trkpt lat="48.829162" lon="8.918856">
<ele>446.6</ele>
<time>2020-06-02T15:53:24Z</time>
<speed>1.1</speed>
</trkpt>
<trkpt lat="48.829144" lon="8.918921">
<ele>447.0</ele>
<time>2020-06-02T15:53:29Z</time>
<speed>0.8</speed>
</trkpt>
<trkpt lat="48.829113" lon="8.918984">
<ele>447.3</ele>
<time>2020-06-02T15:53:34Z</time>
<speed>0.8</speed>
</trkpt>
<trkpt lat="48.829097" lon="8.919036">
<ele>447.6</ele>
<time>2020-06-02T15:53:39Z</time>
<speed>0.8</speed>
</trkpt>
<trkpt lat="48.829079" lon="8.919101">
<ele>448.0</ele>
<time>2020-06-02T15:53:44Z</time>
<speed>0.8</speed>
</trkpt>
<trkpt lat="48.829055" lon="8.919166">
<ele>447.7</ele>
<time>2020-06-02T15:53:49Z</time>
<speed>0.6</speed>
</trkpt>
<trkpt lat="48.829016" lon="8.919174">
<ele>447.4</ele>
<time>2020-06-02T15:53:54Z</time>
<speed>0.3</speed>
</trkpt>
<trkpt lat="48.828991" lon="8.919169">
<ele>447.2</ele>
<time>2020-06-02T15:53:59Z</time>
<speed>0.3</speed>
</trkpt>
<trkpt lat="48.828991" lon="8.919169">
<ele>447.2</ele>
<time>2020-06-02T15:54:04Z</time>
<speed>0.0</speed>
</trkpt>
<trkpt lat="48.828991" lon="8.919169">
<ele>447.2</ele>
<time>2020-06-02T15:54:09Z</time>
<speed>0.0</speed>
</trkpt>
<trkpt lat="48.828991" lon="8.919169">
<ele>447.2</ele>
<time>2020-06-02T15:54:14Z</time>
<speed>0.0</speed>
</trkpt>
<trkpt lat="48.828991" lon="8.919169">
<ele>447.2</ele>
<time>2020-06-02T15:54:19Z</time>
<speed>0.0</speed>
</trkpt>
<trkpt lat="48.828991" lon="8.919169">
<ele>447.2</ele>
<time>2020-06-02T15:54:24Z</time>
<speed>0.0</speed>
</trkpt>
<trkpt lat="48.828991" lon="8.919169">
<ele>447.2</ele>
<time>2020-06-02T15:54:29Z</time>
<speed>0.0</speed>
</trkpt>
<trkpt lat="48.828991" lon="8.919169">
<ele>447.2</ele>
<time>2020-06-02T15:54:34Z</time>
<speed>0.0</speed>
</trkpt>
<trkpt lat="48.828991" lon="8.919169">
<ele>447.2</ele>
<time>2020-06-02T15:54:39Z</time>
<speed>0.0</speed>
</trkpt>
<trkpt lat="48.828991" lon="8.919169">
<ele>447.2</ele>
<time>2020-06-02T15:54:44Z</time>
<speed>0.0</speed>
</trkpt>
<trkpt lat="48.828991" lon="8.919169">
<ele>447.2</ele>
<time>2020-06-02T15:54:49Z</time>
<speed>0.0</speed>
</trkpt>
<trkpt lat="48.828991" lon="8.919169">
<ele>447.2</ele>
<time>2020-06-02T15:54:54Z</time>
<speed>0.0</speed>
</trkpt>
<trkpt lat="48.828991" lon="8.919169">
<ele>447.2</ele>
<time>2020-06-02T15:54:59Z</time>
<speed>0.0</speed>
</trkpt>
<trkpt lat="48.828991" lon="8.919169">
<ele>447.2</ele>
<time>2020-06-02T15:55:04Z</time>
<speed>0.0</speed>
</trkpt>
<trkpt lat="48.828991" lon="8.919169">
<ele>447.2</ele>
<time>2020-06-02T15:55:09Z</time>
<speed>0.0</speed>
</trkpt>
<trkpt lat="48.828991" lon="8.919169">
<ele>447.2</ele>
<time>2020-06-02T15:55:14Z</time>
<speed>0.0</speed>
</trkpt>
<trkpt lat="48.828991" lon="8.919169">
<ele>447.2</ele>
<time>2020-06-02T15:55:19Z</time>
<speed>0.0</speed>
</trkpt>
<trkpt lat="48.828991" lon="8.919169">
<ele>447.2</ele>
<time>2020-06-02T15:55:24Z</time>
<speed>0.0</speed>
</trkpt>
<trkpt lat="48.828991" lon="8.919169">
<ele>447.2</ele>
<time>2020-06-02T15:55:29Z</time>
<speed>0.0</speed>
</trkpt>
<trkpt lat="48.828991" lon="8.919169">
<ele>447.2</ele>
<time>2020-06-02T15:55:34Z</time>
<speed>0.0</speed>
</trkpt>
<trkpt lat="48.828991" lon="8.919169">
<ele>447.2</ele>
<time>2020-06-02T15:55:39Z</time>
<speed>0.0</speed>
</trkpt>
<trkpt lat="48.828991" lon="8.919169">
<ele>447.2</ele>
<time>2020-06-02T15:55:44Z</time>
<speed>0.0</speed>
</trkpt>
<trkpt lat="48.828991" lon="8.919169">
<ele>447.2</ele>
<time>2020-06-02T15:55:49Z</time>
<speed>0.0</speed>
</trkpt>
<trkpt lat="48.828991" lon="8.919169">
<ele>447.2</ele>
<time>2020-06-02T15:55:54Z</time>
<speed>0.0</speed>
</trkpt>
<trkpt lat="48.828991" lon="8.919169">
<ele>447.2</ele>
<time>2020-06-02T15:55:59Z</time>
<speed>0.0</speed>
</trkpt>
<trkpt lat="48.828991" lon="8.919169">
<ele>447.2</ele>
<time>2020-06-02T15:56:04Z</time>
<speed>0.0</speed>
</trkpt>
<trkpt lat="48.828991" lon="8.919169">
<ele>447.2</ele>
<time>2020-06-02T15:56:09Z</time>
<speed>0.0</speed>
</trkpt>
<trkpt lat="48.828991" lon="8.919169">
<ele>447.2</ele>
<time>2020-06-02T15:56:14Z</time>
<speed>0.0</speed>
</trkpt>
<trkpt lat="48.828992" lon="8.919171">
<ele>445.8</ele>
<time>2020-06-02T15:56:19Z</time>
<speed>0.3</speed>
</trkpt>
<trkpt lat="48.829008" lon="8.919216">
<ele>445.6</ele>
<time>2020-06-02T15:56:24Z</time>
<speed>1.1</speed>
</trkpt>
<trkpt lat="48.828995" lon="8.919295">
<ele>446.9</ele>
<time>2020-06-02T15:56:29Z</time>
<speed>0.8</speed>
</trkpt>
<trkpt lat="48.828977" lon="8.919360">
<ele>447.3</ele>
<time>2020-06-02T15:56:34Z</time>
<speed>0.8</speed>
</trkpt>
<trkpt lat="48.828971" lon="8.919360">
<ele>446.5</ele>
<time>2020-06-02T15:56:39Z</time>
<speed>0.0</speed>
</trkpt>
<trkpt lat="48.828955" lon="8.919398">
<ele>446.7</ele>
<time>2020-06-02T15:56:44Z</time>
<speed>0.8</speed>
</trkpt>
<trkpt lat="48.828937" lon="8.919463">
<ele>447.1</ele>
<time>2020-06-02T15:56:49Z</time>
<speed>0.8</speed>
</trkpt>
<trkpt lat="48.828920" lon="8.919528">
<ele>447.5</ele>
<time>2020-06-02T15:56:54Z</time>
<speed>0.8</speed>
</trkpt>
<trkpt lat="48.828895" lon="8.919591">
<ele>448.6</ele>
<time>2020-06-02T15:56:59Z</time>
<speed>1.1</speed>
</trkpt>
<trkpt lat="48.828865" lon="8.919654">
<ele>448.9</ele>
<time>2020-06-02T15:57:04Z</time>
<speed>1.1</speed>
</trkpt>
<trkpt lat="48.828846" lon="8.919733">
<ele>449.4</ele>
<time>2020-06-02T15:57:09Z</time>
<speed>1.1</speed>
</trkpt>
<trkpt lat="48.828821" lon="8.919796">
<ele>450.5</ele>
<time>2020-06-02T15:57:14Z</time>
<speed>1.1</speed>
</trkpt>
<trkpt lat="48.828803" lon="8.919861">
<ele>450.9</ele>
<time>2020-06-02T15:57:19Z</time>
<speed>0.8</speed>
</trkpt>
<trkpt lat="48.828783" lon="8.919886">
<ele>450.2</ele>
<time>2020-06-02T15:57:24Z</time>
<speed>0.0</speed>
</trkpt>
<trkpt lat="48.828759" lon="8.919936">
<ele>451.2</ele>
<time>2020-06-02T15:57:29Z</time>
<speed>1.1</speed>
</trkpt>
<trkpt lat="48.828729" lon="8.919999">
<ele>451.5</ele>
<time>2020-06-02T15:57:34Z</time>
<speed>0.8</speed>
</trkpt>
<trkpt lat="48.828711" lon="8.920064">
<ele>451.9</ele>
<time>2020-06-02T15:57:39Z</time>
<speed>0.8</speed>
</trkpt>
<trkpt lat="48.828693" lon="8.920129">
<ele>452.3</ele>
<time>2020-06-02T15:57:44Z</time>
<speed>1.1</speed>
</trkpt>
<trkpt lat="48.828662" lon="8.920192">
<ele>452.6</ele>
<time>2020-06-02T15:57:49Z</time>
<speed>1.1</speed>
</trkpt>
<trkpt lat="48.828639" lon="8.920257">
<ele>452.3</ele>
<time>2020-06-02T15:57:54Z</time>
<speed>0.8</speed>
</trkpt>
<trkpt lat="48.828614" lon="8.920320">
<ele>453.3</ele>
<time>2020-06-02T15:57:59Z</time>
<speed>0.8</speed>
</trkpt>
<trkpt lat="48.828585" lon="8.920370">
<ele>453.5</ele>
<time>2020-06-02T15:58:04Z</time>
<speed>0.8</speed>
</trkpt>
<trkpt lat="48.828548" lon="8.920433">
<ele>453.1</ele>
<time>2020-06-02T15:58:09Z</time>
<speed>0.8</speed>
</trkpt>
<trkpt lat="48.828518" lon="8.920496">
<ele>453.4</ele>
<time>2020-06-02T15:58:14Z</time>
<speed>0.8</speed>
</trkpt>
<trkpt lat="48.828518" lon="8.920496">
<ele>453.4</ele>
<time>2020-06-02T15:58:19Z</time>
<speed>0.0</speed>
</trkpt>
<trkpt lat="48.828491" lon="8.920519">
<ele>453.4</ele>
<time>2020-06-02T15:58:24Z</time>
<speed>0.8</speed>
</trkpt>
<trkpt lat="48.828467" lon="8.920584">
<ele>453.0</ele>
<time>2020-06-02T15:58:29Z</time>
<speed>0.8</speed>
</trkpt>
<trkpt lat="48.828443" lon="8.920649">
<ele>452.7</ele>
<time>2020-06-02T15:58:34Z</time>
<speed>0.8</speed>
</trkpt>
<trkpt lat="48.828413" lon="8.920712">
<ele>453.0</ele>
<time>2020-06-02T15:58:39Z</time>
<speed>0.8</speed>
</trkpt>
<trkpt lat="48.828370" lon="8.920773">
<ele>453.2</ele>
<time>2020-06-02T15:58:44Z</time>
<speed>0.8</speed>
</trkpt>
<trkpt lat="48.828346" lon="8.920838">
<ele>452.9</ele>
<time>2020-06-02T15:58:49Z</time>
<speed>0.8</speed>
</trkpt>
<trkpt lat="48.828322" lon="8.920888">
<ele>453.8</ele>
<time>2020-06-02T15:58:54Z</time>
<speed>0.8</speed>
</trkpt>
<trkpt lat="48.828292" lon="8.920951">
<ele>454.1</ele>
<time>2020-06-02T15:58:59Z</time>
<speed>0.8</speed>
</trkpt>
<trkpt lat="48.828267" lon="8.921014">
<ele>455.2</ele>
<time>2020-06-02T15:59:04Z</time>
<speed>1.1</speed>
</trkpt>
<trkpt lat="48.828238" lon="8.921063">
<ele>455.4</ele>
<time>2020-06-02T15:59:09Z</time>
<speed>1.1</speed>
</trkpt>
<trkpt lat="48.828213" lon="8.921142">
<ele>455.1</ele>
<time>2020-06-02T15:59:14Z</time>
<speed>1.1</speed>
</trkpt>
<trkpt lat="48.828178" lon="8.921192">
<ele>454.6</ele>
<time>2020-06-02T15:59:19Z</time>
<speed>1.1</speed>
</trkpt>
<trkpt lat="48.828153" lon="8.921255">
<ele>455.6</ele>
<time>2020-06-02T15:59:24Z</time>
<speed>0.8</speed>
</trkpt>
<trkpt lat="48.828146" lon="8.921268">
<ele>455.0</ele>
<time>2020-06-02T15:59:29Z</time>
<speed>0.0</speed>
</trkpt>
<trkpt lat="48.828146" lon="8.921268">
<ele>455.0</ele>
<time>2020-06-02T15:59:34Z</time>
<speed>0.0</speed>
</trkpt>
<trkpt lat="48.828146" lon="8.921268">
<ele>455.0</ele>
<time>2020-06-02T15:59:39Z</time>
<speed>0.0</speed>
</trkpt>
<trkpt lat="48.828125" lon="8.921291">
<ele>455.7</ele>
<time>2020-06-02T15:59:44Z</time>
<speed>0.8</speed>
</trkpt>
<trkpt lat="48.828101" lon="8.921356">
<ele>455.4</ele>
<time>2020-06-02T15:59:49Z</time>
<speed>0.8</speed>
</trkpt>
<trkpt lat="48.828071" lon="8.921419">
<ele>455.7</ele>
<time>2020-06-02T15:59:54Z</time>
<speed>1.1</speed>
</trkpt>
<trkpt lat="48.828054" lon="8.921471">
<ele>456.0</ele>
<time>2020-06-02T15:59:59Z</time>
<speed>0.8</speed>
</trkpt>
<trkpt lat="48.828023" lon="8.921534">
<ele>456.3</ele>
<time>2020-06-02T16:00:04Z</time>
<speed>0.8</speed>
</trkpt>
<trkpt lat="48.828000" lon="8.921599">
<ele>456.0</ele>
<time>2020-06-02T16:00:09Z</time>
<speed>1.1</speed>
</trkpt>
<trkpt lat="48.827975" lon="8.921662">
<ele>457.0</ele>
<time>2020-06-02T16:00:14Z</time>
<speed>1.1</speed>
</trkpt>
<trkpt lat="48.827945" lon="8.921725">
<ele>457.3</ele>
<time>2020-06-02T16:00:19Z</time>
<speed>0.8</speed>
</trkpt>
<trkpt lat="48.827922" lon="8.921761">
<ele>458.2</ele>
<time>2020-06-02T16:00:24Z</time>
<speed>0.0</speed>
</trkpt>
<trkpt lat="48.827922" lon="8.921761">
<ele>458.2</ele>
<time>2020-06-02T16:00:29Z</time>
<speed>0.0</speed>
</trkpt>
<trkpt lat="48.827915" lon="8.921775">
<ele>457.5</ele>
<time>2020-06-02T16:00:34Z</time>
<speed>0.8</speed>
</trkpt>
<trkpt lat="48.827892" lon="8.921824">
<ele>458.5</ele>
<time>2020-06-02T16:00:39Z</time>
<speed>0.8</speed>
</trkpt>
<trkpt lat="48.827868" lon="8.921874">
<ele>459.5</ele>
<time>2020-06-02T16:00:44Z</time>
<speed>0.8</speed>
</trkpt>
<trkpt lat="48.827838" lon="8.921937">
<ele>459.8</ele>
<time>2020-06-02T16:00:49Z</time>
<speed>0.8</speed>
</trkpt>
<trkpt lat="48.827814" lon="8.922002">
<ele>459.4</ele>
<time>2020-06-02T16:00:54Z</time>
<speed>1.1</speed>
</trkpt>
<trkpt lat="48.827778" lon="8.922065">
<ele>459.0</ele>
<time>2020-06-02T16:00:59Z</time>
<speed>1.1</speed>
</trkpt>
<trkpt lat="48.827747" lon="8.922128">
<ele>459.3</ele>
<time>2020-06-02T16:01:04Z</time>
<speed>1.1</speed>
</trkpt>
<trkpt lat="48.827718" lon="8.922178">
<ele>459.5</ele>
<time>2020-06-02T16:01:09Z</time>
<speed>1.1</speed>
</trkpt>
<trkpt lat="48.827687" lon="8.922241">
<ele>459.8</ele>
<time>2020-06-02T16:01:14Z</time>
<speed>1.1</speed>
</trkpt>
<trkpt lat="48.827658" lon="8.922290">
<ele>460.0</ele>
<time>2020-06-02T16:01:19Z</time>
<speed>0.0</speed>
</trkpt>
<trkpt lat="48.827658" lon="8.922290">
<ele>460.0</ele>
<time>2020-06-02T16:01:24Z</time>
<speed>0.0</speed>
</trkpt>
<trkpt lat="48.827658" lon="8.922290">
<ele>460.0</ele>
<time>2020-06-02T16:01:29Z</time>
<speed>0.0</speed>
</trkpt>
<trkpt lat="48.827630" lon="8.922313">
<ele>460.0</ele>
<time>2020-06-02T16:01:34Z</time>
<speed>1.1</speed>
</trkpt>
<trkpt lat="48.827600" lon="8.922376">
<ele>460.3</ele>
<time>2020-06-02T16:01:39Z</time>
<speed>0.8</speed>
</trkpt>
<trkpt lat="48.827576" lon="8.922441">
<ele>460.0</ele>
<time>2020-06-02T16:01:44Z</time>
<speed>0.8</speed>
</trkpt>
<trkpt lat="48.827552" lon="8.922504">
<ele>461.0</ele>
<time>2020-06-02T16:01:49Z</time>
<speed>1.1</speed>
</trkpt>
<trkpt lat="48.827528" lon="8.922569">
<ele>460.7</ele>
<time>2020-06-02T16:01:54Z</time>
<speed>1.1</speed>
</trkpt>
<trkpt lat="48.827503" lon="8.922632">
<ele>461.7</ele>
<time>2020-06-02T16:01:59Z</time>
<speed>1.1</speed>
</trkpt>
<trkpt lat="48.827473" lon="8.922695">
<ele>462.0</ele>
<time>2020-06-02T16:02:04Z</time>
<speed>1.1</speed>
</trkpt>
<trkpt lat="48.827442" lon="8.922758">
<ele>462.3</ele>
<time>2020-06-02T16:02:09Z</time>
<speed>1.1</speed>
</trkpt>
<trkpt lat="48.827412" lon="8.922822">
<ele>462.6</ele>
<time>2020-06-02T16:02:14Z</time>
<speed>1.1</speed>
</trkpt>
<trkpt lat="48.827397" lon="8.922846">
<ele>462.7</ele>
<time>2020-06-02T16:02:19Z</time>
<speed>0.0</speed>
</trkpt>
<trkpt lat="48.827396" lon="8.922860">
<ele>462.8</ele>
<time>2020-06-02T16:02:24Z</time>
<speed>0.8</speed>
</trkpt>
<trkpt lat="48.827378" lon="8.922925">
<ele>463.3</ele>
<time>2020-06-02T16:02:29Z</time>
<speed>1.1</speed>
</trkpt>
<trkpt lat="48.827360" lon="8.923004">
<ele>463.8</ele>
<time>2020-06-02T16:02:34Z</time>
<speed>1.1</speed>
</trkpt>
<trkpt lat="48.827336" lon="8.923069">
<ele>463.4</ele>
<time>2020-06-02T16:02:39Z</time>
<speed>1.1</speed>
</trkpt>
<trkpt lat="48.827310" lon="8.923145">
<ele>464.6</ele>
<time>2020-06-02T16:02:44Z</time>
<speed>0.8</speed>
</trkpt>
<trkpt lat="48.827292" lon="8.923210">
<ele>465.0</ele>
<time>2020-06-02T16:02:49Z</time>
<speed>0.8</speed>
</trkpt>
<trkpt lat="48.827262" lon="8.923273">
<ele>465.3</ele>
<time>2020-06-02T16:02:54Z</time>
<speed>1.1</speed>
</trkpt>
<trkpt lat="48.827232" lon="8.923323">
<ele>465.5</ele>
<time>2020-06-02T16:02:59Z</time>
<speed>1.1</speed>
</trkpt>
<trkpt lat="48.827220" lon="8.923404">
<ele>465.4</ele>
<time>2020-06-02T16:03:04Z</time>
<speed>1.1</speed>
</trkpt>
<trkpt lat="48.827202" lon="8.923469">
<ele>465.8</ele>
<time>2020-06-02T16:03:09Z</time>
<speed>1.1</speed>
</trkpt>
<trkpt lat="48.827184" lon="8.923534">
<ele>466.2</ele>
<time>2020-06-02T16:03:14Z</time>
<speed>1.1</speed>
</trkpt>
<trkpt lat="48.827171" lon="8.923613">
<ele>467.4</ele>
<time>2020-06-02T16:03:19Z</time>
<speed>1.1</speed>
</trkpt>
<trkpt lat="48.827141" lon="8.923676">
<ele>467.7</ele>
<time>2020-06-02T16:03:24Z</time>
<speed>1.1</speed>
</trkpt>
<trkpt lat="48.827124" lon="8.923743">
<ele>466.7</ele>
<time>2020-06-02T16:03:29Z</time>
<speed>0.8</speed>
</trkpt>
<trkpt lat="48.827112" lon="8.923808">
<ele>467.9</ele>
<time>2020-06-02T16:03:34Z</time>
<speed>0.8</speed>
</trkpt>
<trkpt lat="48.827093" lon="8.923887">
<ele>468.4</ele>
<time>2020-06-02T16:03:39Z</time>
<speed>0.8</speed>
</trkpt>
<trkpt lat="48.827069" lon="8.923952">
<ele>468.1</ele>
<time>2020-06-02T16:03:44Z</time>
<speed>0.8</speed>
</trkpt>
<trkpt lat="48.827069" lon="8.923952">
<ele>468.1</ele>
<time>2020-06-02T16:03:49Z</time>
<speed>0.0</speed>
</trkpt>
<trkpt lat="48.827056" lon="8.923963">
<ele>468.1</ele>
<time>2020-06-02T16:03:54Z</time>
<speed>0.8</speed>
</trkpt>
<trkpt lat="48.827038" lon="8.924028">
<ele>468.5</ele>
<time>2020-06-02T16:03:59Z</time>
<speed>0.8</speed>
</trkpt>
<trkpt lat="48.827019" lon="8.924107">
<ele>469.0</ele>
<time>2020-06-02T16:04:04Z</time>
<speed>1.1</speed>
</trkpt>
<trkpt lat="48.826995" lon="8.924172">
<ele>468.6</ele>
<time>2020-06-02T16:04:09Z</time>
<speed>1.1</speed>
</trkpt>
<trkpt lat="48.826976" lon="8.924251">
<ele>469.2</ele>
<time>2020-06-02T16:04:14Z</time>
<speed>1.1</speed>
</trkpt>
<trkpt lat="48.826965" lon="8.924318">
<ele>468.9</ele>
<time>2020-06-02T16:04:19Z</time>
<speed>1.1</speed>
</trkpt>
<trkpt lat="48.826946" lon="8.924397">
<ele>469.4</ele>
<time>2020-06-02T16:04:24Z</time>
<speed>1.1</speed>
</trkpt>
<trkpt lat="48.826935" lon="8.924464">
<ele>469.2</ele>
<time>2020-06-02T16:04:29Z</time>
<speed>1.1</speed>
</trkpt>
<trkpt lat="48.826923" lon="8.924545">
<ele>469.0</ele>
<time>2020-06-02T16:04:34Z</time>
<speed>1.1</speed>
</trkpt>
<trkpt lat="48.826904" lon="8.924623">
<ele>469.6</ele>
<time>2020-06-02T16:04:39Z</time>
<speed>1.1</speed>
</trkpt>
<trkpt lat="48.826899" lon="8.924690">
<ele>470.1</ele>
<time>2020-06-02T16:04:44Z</time>
<speed>1.1</speed>
</trkpt>
<trkpt lat="48.826886" lon="8.924771">
<ele>469.9</ele>
<time>2020-06-02T16:04:49Z</time>
<speed>1.1</speed>
</trkpt>
<trkpt lat="48.826874" lon="8.924852">
<ele>469.8</ele>
<time>2020-06-02T16:04:54Z</time>
<speed>1.1</speed>
</trkpt>
<trkpt lat="48.826865" lon="8.924892">
<ele>469.3</ele>
<time>2020-06-02T16:04:59Z</time>
<speed>0.0</speed>
</trkpt>
<trkpt lat="48.826855" lon="8.924931">
<ele>470.3</ele>
<time>2020-06-02T16:05:04Z</time>
<speed>1.1</speed>
</trkpt>
<trkpt lat="48.826851" lon="8.925000">
<ele>469.4</ele>
<time>2020-06-02T16:05:09Z</time>
<speed>1.1</speed>
</trkpt>
<trkpt lat="48.826844" lon="8.925081">
<ele>470.0</ele>
<time>2020-06-02T16:05:14Z</time>
<speed>0.8</speed>
</trkpt>
<trkpt lat="48.826832" lon="8.925161">
<ele>469.9</ele>
<time>2020-06-02T16:05:19Z</time>
<speed>1.1</speed>
</trkpt>
<trkpt lat="48.826826" lon="8.925242">
<ele>470.5</ele>
<time>2020-06-02T16:05:24Z</time>
<speed>1.1</speed>
</trkpt>
<trkpt lat="48.826815" lon="8.925309">
<ele>470.2</ele>
<time>2020-06-02T16:05:29Z</time>
<speed>0.8</speed>
</trkpt>
<trkpt lat="48.826796" lon="8.925388">
<ele>470.8</ele>
<time>2020-06-02T16:05:34Z</time>
<speed>1.1</speed>
</trkpt>
<trkpt lat="48.826790" lon="8.925469">
<ele>471.4</ele>
<time>2020-06-02T16:05:39Z</time>
<speed>1.1</speed>
</trkpt>
<trkpt lat="48.826777" lon="8.925549">
<ele>471.2</ele>
<time>2020-06-02T16:05:44Z</time>
<speed>1.1</speed>
</trkpt>
<trkpt lat="48.826772" lon="8.925617">
<ele>471.7</ele>
<time>2020-06-02T16:05:49Z</time>
<speed>1.1</speed>
</trkpt>
<trkpt lat="48.826766" lon="8.925697">
<ele>472.4</ele>
<time>2020-06-02T16:05:54Z</time>
<speed>1.1</speed>
</trkpt>
<trkpt lat="48.826754" lon="8.925778">
<ele>472.2</ele>
<time>2020-06-02T16:05:59Z</time>
<speed>1.1</speed>
</trkpt>
<trkpt lat="48.826735" lon="8.925857">
<ele>472.7</ele>
<time>2020-06-02T16:06:04Z</time>
<speed>1.1</speed>
</trkpt>
<trkpt lat="48.826722" lon="8.925937">
<ele>472.6</ele>
<time>2020-06-02T16:06:09Z</time>
<speed>1.1</speed>
</trkpt>
<trkpt lat="48.826692" lon="8.926034">
<ele>478.2</ele>
<time>2020-06-02T16:06:11Z</time>
<speed>1.1</speed>
</trkpt>
<trkpt lat="48.826680" lon="8.926115">
<ele>478.0</ele>
<time>2020-06-02T16:06:16Z</time>
<speed>1.1</speed>
</trkpt>
<trkpt lat="48.826668" lon="8.926196">
<ele>477.9</ele>
<time>2020-06-02T16:06:21Z</time>
<speed>1.1</speed>
</trkpt>
<trkpt lat="48.826637" lon="8.926275">
<ele>476.9</ele>
<time>2020-06-02T16:06:26Z</time>
<speed>1.1</speed>
</trkpt>
<trkpt lat="48.826607" lon="8.926338">
<ele>477.2</ele>
<time>2020-06-02T16:06:31Z</time>
<speed>1.1</speed>
</trkpt>
<trkpt lat="48.826582" lon="8.926416">
<ele>477.0</ele>
<time>2020-06-02T16:06:36Z</time>
<speed>1.1</speed>
</trkpt>
<trkpt lat="48.826550" lon="8.926493">
<ele>477.4</ele>
<time>2020-06-02T16:06:41Z</time>
<speed>1.1</speed>
</trkpt>
<trkpt lat="48.826527" lon="8.926558">
<ele>477.0</ele>
<time>2020-06-02T16:06:46Z</time>
<speed>1.1</speed>
</trkpt>
<trkpt lat="48.826508" lon="8.926636">
<ele>477.5</ele>
<time>2020-06-02T16:06:51Z</time>
<speed>1.1</speed>
</trkpt>
<trkpt lat="48.826472" lon="8.926686">
<ele>477.0</ele>
<time>2020-06-02T16:06:56Z</time>
<speed>1.1</speed>
</trkpt>
<trkpt lat="48.826436" lon="8.926749">
<ele>476.5</ele>
<time>2020-06-02T16:07:01Z</time>
<speed>1.1</speed>
</trkpt>
<trkpt lat="48.826411" lon="8.926828">
<ele>476.3</ele>
<time>2020-06-02T16:07:06Z</time>
<speed>1.1</speed>
</trkpt>
<trkpt lat="48.826386" lon="8.926906">
<ele>476.0</ele>
<time>2020-06-02T16:07:11Z</time>
<speed>1.1</speed>
</trkpt>
<trkpt lat="48.826357" lon="8.926971">
<ele>474.9</ele>
<time>2020-06-02T16:07:16Z</time>
<speed>1.1</speed>
</trkpt>
<trkpt lat="48.826319" lon="8.927048">
<ele>474.6</ele>
<time>2020-06-02T16:07:21Z</time>
<speed>1.1</speed>
</trkpt>
<trkpt lat="48.826307" lon="8.927129">
<ele>474.5</ele>
<time>2020-06-02T16:07:26Z</time>
<speed>1.1</speed>
</trkpt>
<trkpt lat="48.826282" lon="8.927207">
<ele>474.2</ele>
<time>2020-06-02T16:07:31Z</time>
<speed>1.1</speed>
</trkpt>
<trkpt lat="48.826263" lon="8.927286">
<ele>474.7</ele>
<time>2020-06-02T16:07:36Z</time>
<speed>1.1</speed>
</trkpt>
<trkpt lat="48.826246" lon="8.927353">
<ele>473.7</ele>
<time>2020-06-02T16:07:41Z</time>
<speed>1.1</speed>
</trkpt>
<trkpt lat="48.826215" lon="8.927430">
<ele>474.1</ele>
<time>2020-06-02T16:07:46Z</time>
<speed>1.1</speed>
</trkpt>
<trkpt lat="48.826203" lon="8.927510">
<ele>474.0</ele>
<time>2020-06-02T16:07:51Z</time>
<speed>1.1</speed>
</trkpt>
<trkpt lat="48.826190" lon="8.927591">
<ele>473.9</ele>
<time>2020-06-02T16:07:56Z</time>
<speed>1.1</speed>
</trkpt>
<trkpt lat="48.826154" lon="8.927654">
<ele>473.4</ele>
<time>2020-06-02T16:08:01Z</time>
<speed>1.1</speed>
</trkpt>
<trkpt lat="48.826136" lon="8.927719">
<ele>473.8</ele>
<time>2020-06-02T16:08:06Z</time>
<speed>1.1</speed>
</trkpt>
<trkpt lat="48.826117" lon="8.927798">
<ele>474.3</ele>
<time>2020-06-02T16:08:11Z</time>
<speed>1.1</speed>
</trkpt>
<trkpt lat="48.826106" lon="8.927865">
<ele>474.1</ele>
<time>2020-06-02T16:08:16Z</time>
<speed>1.1</speed>
</trkpt>
<trkpt lat="48.826087" lon="8.927944">
<ele>474.6</ele>
<time>2020-06-02T16:08:21Z</time>
<speed>1.1</speed>
</trkpt>
<trkpt lat="48.826082" lon="8.928011">
<ele>475.1</ele>
<time>2020-06-02T16:08:26Z</time>
<speed>0.8</speed>
</trkpt>
<trkpt lat="48.826064" lon="8.928076">
<ele>475.5</ele>
<time>2020-06-02T16:08:31Z</time>
<speed>0.8</speed>
</trkpt>
<trkpt lat="48.826035" lon="8.928126">
<ele>475.7</ele>
<time>2020-06-02T16:08:36Z</time>
<speed>0.8</speed>
</trkpt>
<trkpt lat="48.826017" lon="8.928191">
<ele>476.1</ele>
<time>2020-06-02T16:08:41Z</time>
<speed>0.8</speed>
</trkpt>
<trkpt lat="48.826030" lon="8.928260">
<ele>477.5</ele>
<time>2020-06-02T16:08:46Z</time>
<speed>0.6</speed>
</trkpt>
<trkpt lat="48.826028" lon="8.928272">
<ele>479.0</ele>
<time>2020-06-02T16:08:51Z</time>
<speed>0.3</speed>
</trkpt>
<trkpt lat="48.826016" lon="8.928269">
<ele>478.9</ele>
<time>2020-06-02T16:08:56Z</time>
<speed>0.0</speed>
</trkpt>
<trkpt lat="48.826004" lon="8.928269">
<ele>477.4</ele>
<time>2020-06-02T16:09:01Z</time>
<speed>0.0</speed>
</trkpt>
<trkpt lat="48.826004" lon="8.928269">
<ele>477.4</ele>
<time>2020-06-02T16:09:06Z</time>
<speed>0.0</speed>
</trkpt>
<trkpt lat="48.826004" lon="8.928269">
<ele>477.4</ele>
<time>2020-06-02T16:09:11Z</time>
<speed>0.0</speed>
</trkpt>
<trkpt lat="48.826004" lon="8.928269">
<ele>477.4</ele>
<time>2020-06-02T16:09:16Z</time>
<speed>0.0</speed>
</trkpt>
<trkpt lat="48.826004" lon="8.928269">
<ele>477.4</ele>
<time>2020-06-02T16:09:21Z</time>
<speed>0.0</speed>
</trkpt>
<trkpt lat="48.825998" lon="8.928269">
<ele>476.7</ele>
<time>2020-06-02T16:09:26Z</time>
<speed>0.0</speed>
</trkpt>
<trkpt lat="48.825998" lon="8.928269">
<ele>476.7</ele>
<time>2020-06-02T16:09:31Z</time>
<speed>0.0</speed>
</trkpt>
<trkpt lat="48.825998" lon="8.928269">
<ele>476.7</ele>
<time>2020-06-02T16:09:36Z</time>
<speed>0.0</speed>
</trkpt>
<trkpt lat="48.825998" lon="8.928269">
<ele>476.7</ele>
<time>2020-06-02T16:09:41Z</time>
<speed>0.0</speed>
</trkpt>
<trkpt lat="48.825998" lon="8.928269">
<ele>476.7</ele>
<time>2020-06-02T16:09:46Z</time>
<speed>0.0</speed>
</trkpt>
<trkpt lat="48.825998" lon="8.928269">
<ele>476.7</ele>
<time>2020-06-02T16:09:51Z</time>
<speed>0.0</speed>
</trkpt>
<trkpt lat="48.825998" lon="8.928269">
<ele>476.7</ele>
<time>2020-06-02T16:09:56Z</time>
<speed>0.0</speed>
</trkpt>
<trkpt lat="48.825991" lon="8.928267">
<ele>477.3</ele>
<time>2020-06-02T16:10:01Z</time>
<speed>0.0</speed>
</trkpt>
<trkpt lat="48.825991" lon="8.928267">
<ele>477.3</ele>
<time>2020-06-02T16:10:06Z</time>
<speed>0.0</speed>
</trkpt>
<trkpt lat="48.825990" lon="8.928281">
<ele>477.4</ele>
<time>2020-06-02T16:10:11Z</time>
<speed>0.0</speed>
</trkpt>
<trkpt lat="48.825990" lon="8.928281">
<ele>477.4</ele>
<time>2020-06-02T16:10:16Z</time>
<speed>0.0</speed>
</trkpt>
<trkpt lat="48.825990" lon="8.928281">
<ele>477.4</ele>
<time>2020-06-02T16:10:21Z</time>
<speed>0.0</speed>
</trkpt>
<trkpt lat="48.825990" lon="8.928281">
<ele>477.4</ele>
<time>2020-06-02T16:10:26Z</time>
<speed>0.0</speed>
</trkpt>
<trkpt lat="48.825990" lon="8.928281">
<ele>477.4</ele>
<time>2020-06-02T16:10:31Z</time>
<speed>0.0</speed>
</trkpt>
<trkpt lat="48.825984" lon="8.928281">
<ele>476.7</ele>
<time>2020-06-02T16:10:36Z</time>
<speed>0.0</speed>
</trkpt>
<trkpt lat="48.825972" lon="8.928279">
<ele>476.5</ele>
<time>2020-06-02T16:10:41Z</time>
<speed>0.3</speed>
</trkpt>
<trkpt lat="48.825943" lon="8.928315">
<ele>476.7</ele>
<time>2020-06-02T16:10:46Z</time>
<speed>0.8</speed>
</trkpt>
<trkpt lat="48.825914" lon="8.928364">
<ele>476.9</ele>
<time>2020-06-02T16:10:51Z</time>
<speed>0.6</speed>
</trkpt>
<trkpt lat="48.825877" lon="8.928427">
<ele>476.4</ele>
<time>2020-06-02T16:10:56Z</time>
<speed>1.1</speed>
</trkpt>
<trkpt lat="48.825866" lon="8.928495">
<ele>476.2</ele>
<time>2020-06-02T16:11:01Z</time>
<speed>1.1</speed>
</trkpt>
<trkpt lat="48.825842" lon="8.928558">
<ele>477.2</ele>
<time>2020-06-02T16:11:06Z</time>
<speed>0.8</speed>
</trkpt>
<trkpt lat="48.825830" lon="8.928623">
<ele>478.4</ele>
<time>2020-06-02T16:11:11Z</time>
<speed>0.3</speed>
</trkpt>
<trkpt lat="48.825819" lon="8.928675">
<ele>479.4</ele>
<time>2020-06-02T16:11:16Z</time>
<speed>0.6</speed>
</trkpt>
<trkpt lat="48.825741" lon="8.928704">
<ele>477.7</ele>
<time>2020-06-02T16:11:21Z</time>
<speed>0.8</speed>
</trkpt>
<trkpt lat="48.825719" lon="8.928743">
<ele>477.2</ele>
<time>2020-06-02T16:11:26Z</time>
<speed>0.6</speed>
</trkpt>
<trkpt lat="48.825715" lon="8.928796">
<ele>477.6</ele>
<time>2020-06-02T16:11:31Z</time>
<speed>0.8</speed>
</trkpt>
<trkpt lat="48.825698" lon="8.928833">
<ele>479.2</ele>
<time>2020-06-02T16:11:36Z</time>
<speed>0.8</speed>
</trkpt>
<trkpt lat="48.825674" lon="8.928896">
<ele>480.3</ele>
<time>2020-06-02T16:11:41Z</time>
<speed>0.8</speed>
</trkpt>
<trkpt lat="48.825639" lon="8.928945">
<ele>479.7</ele>
<time>2020-06-02T16:11:46Z</time>
<speed>0.8</speed>
</trkpt>
<trkpt lat="48.825598" lon="8.928981">
<ele>478.3</ele>
<time>2020-06-02T16:11:51Z</time>
<speed>0.6</speed>
</trkpt>
<trkpt lat="48.825578" lon="8.929006">
<ele>477.7</ele>
<time>2020-06-02T16:11:56Z</time>
<speed>0.3</speed>
</trkpt>
<trkpt lat="48.825564" lon="8.929017">
<ele>477.7</ele>
<time>2020-06-02T16:12:01Z</time>
<speed>0.0</speed>
</trkpt>
<trkpt lat="48.825564" lon="8.929017">
<ele>477.7</ele>
<time>2020-06-02T16:12:06Z</time>
<speed>0.0</speed>
</trkpt>
<trkpt lat="48.825564" lon="8.929017">
<ele>477.7</ele>
<time>2020-06-02T16:12:11Z</time>
<speed>0.0</speed>
</trkpt>
<trkpt lat="48.825564" lon="8.929017">
<ele>477.7</ele>
<time>2020-06-02T16:12:16Z</time>
<speed>0.0</speed>
</trkpt>
<trkpt lat="48.825564" lon="8.929017">
<ele>477.7</ele>
<time>2020-06-02T16:12:21Z</time>
<speed>0.0</speed>
</trkpt>
<trkpt lat="48.825558" lon="8.929017">
<ele>476.9</ele>
<time>2020-06-02T16:12:26Z</time>
<speed>0.0</speed>
</trkpt>
<trkpt lat="48.825558" lon="8.929017">
<ele>476.9</ele>
<time>2020-06-02T16:12:31Z</time>
<speed>0.0</speed>
</trkpt>
<trkpt lat="48.825540" lon="8.929017">
<ele>474.6</ele>
<time>2020-06-02T16:12:36Z</time>
<speed>0.0</speed>
</trkpt>
<trkpt lat="48.825532" lon="8.929044">
<ele>474.1</ele>
<time>2020-06-02T16:12:41Z</time>
<speed>0.0</speed>
</trkpt>
<trkpt lat="48.825516" lon="8.929096">
<ele>474.4</ele>
<time>2020-06-02T16:12:46Z</time>
<speed>0.6</speed>
</trkpt>
<trkpt lat="48.825474" lon="8.929146">
<ele>473.1</ele>
<time>2020-06-02T16:12:51Z</time>
<speed>1.1</speed>
</trkpt>
<trkpt lat="48.825438" lon="8.929209">
<ele>472.7</ele>
<time>2020-06-02T16:12:56Z</time>
<speed>0.6</speed>
</trkpt>
<trkpt lat="48.825389" lon="8.929270">
<ele>472.1</ele>
<time>2020-06-02T16:13:01Z</time>
<speed>1.1</speed>
</trkpt>
<trkpt lat="48.825332" lon="8.929326">
<ele>473.6</ele>
<time>2020-06-02T16:13:06Z</time>
<speed>0.6</speed>
</trkpt>
<trkpt lat="48.825296" lon="8.929389">
<ele>473.2</ele>
<time>2020-06-02T16:13:11Z</time>
<speed>0.8</speed>
</trkpt>
<trkpt lat="48.825243" lon="8.929423">
<ele>471.7</ele>
<time>2020-06-02T16:13:16Z</time>
<speed>0.0</speed>
</trkpt>
<trkpt lat="48.825196" lon="8.929457">
<ele>470.9</ele>
<time>2020-06-02T16:13:21Z</time>
<speed>0.6</speed>
</trkpt>
<trkpt lat="48.825180" lon="8.929494">
<ele>472.5</ele>
<time>2020-06-02T16:13:26Z</time>
<speed>0.6</speed>
</trkpt>
<trkpt lat="48.825169" lon="8.929545">
<ele>473.6</ele>
<time>2020-06-02T16:13:31Z</time>
<speed>0.6</speed>
</trkpt>
<trkpt lat="48.825152" lon="8.929597">
<ele>473.9</ele>
<time>2020-06-02T16:13:36Z</time>
<speed>0.6</speed>
</trkpt>
<trkpt lat="48.825127" lon="8.929673">
<ele>475.0</ele>
<time>2020-06-02T16:13:41Z</time>
<speed>0.8</speed>
</trkpt>
<trkpt lat="48.825085" lon="8.929721">
<ele>475.1</ele>
<time>2020-06-02T16:13:46Z</time>
<speed>0.8</speed>
</trkpt>
<trkpt lat="48.825054" lon="8.929784">
<ele>475.5</ele>
<time>2020-06-02T16:13:51Z</time>
<speed>0.6</speed>
</trkpt>
<trkpt lat="48.825000" lon="8.929831">
<ele>474.0</ele>
<time>2020-06-02T16:13:56Z</time>
<speed>0.8</speed>
</trkpt>
<trkpt lat="48.824957" lon="8.929892">
<ele>474.3</ele>
<time>2020-06-02T16:14:01Z</time>
<speed>1.1</speed>
</trkpt>
<trkpt lat="48.824903" lon="8.929940">
<ele>472.8</ele>
<time>2020-06-02T16:14:06Z</time>
<speed>0.8</speed>
</trkpt>
<trkpt lat="48.824855" lon="8.929987">
<ele>472.2</ele>
<time>2020-06-02T16:14:11Z</time>
<speed>0.8</speed>
</trkpt>
<trkpt lat="48.824795" lon="8.930033">
<ele>471.4</ele>
<time>2020-06-02T16:14:16Z</time>
<speed>0.8</speed>
</trkpt>
<trkpt lat="48.824740" lon="8.930078">
<ele>471.4</ele>
<time>2020-06-02T16:14:21Z</time>
<speed>0.6</speed>
</trkpt>
<trkpt lat="48.824680" lon="8.930125">
<ele>469.3</ele>
<time>2020-06-02T16:14:26Z</time>
<speed>1.1</speed>
</trkpt>
<trkpt lat="48.824628" lon="8.930159">
<ele>467.8</ele>
<time>2020-06-02T16:14:31Z</time>
<speed>0.8</speed>
</trkpt>
<trkpt lat="48.824574" lon="8.930191">
<ele>467.7</ele>
<time>2020-06-02T16:14:36Z</time>
<speed>0.8</speed>
</trkpt>
<trkpt lat="48.824501" lon="8.930235">
<ele>466.8</ele>
<time>2020-06-02T16:14:41Z</time>
<speed>0.8</speed>
</trkpt>
<trkpt lat="48.824459" lon="8.930266">
<ele>468.2</ele>
<time>2020-06-02T16:14:46Z</time>
<speed>0.8</speed>
</trkpt>
<trkpt lat="48.824410" lon="8.930312">
<ele>469.0</ele>
<time>2020-06-02T16:14:51Z</time>
<speed>0.8</speed>
</trkpt>
<trkpt lat="48.824350" lon="8.930342">
<ele>469.5</ele>
<time>2020-06-02T16:14:56Z</time>
<speed>1.1</speed>
</trkpt>
<trkpt lat="48.824308" lon="8.930374">
<ele>470.9</ele>
<time>2020-06-02T16:15:01Z</time>
<speed>0.8</speed>
</trkpt>
<trkpt lat="48.824287" lon="8.930412">
<ele>470.4</ele>
<time>2020-06-02T16:15:06Z</time>
<speed>0.3</speed>
</trkpt>
<trkpt lat="48.824246" lon="8.930446">
<ele>470.4</ele>
<time>2020-06-02T16:15:11Z</time>
<speed>0.6</speed>
</trkpt>
<trkpt lat="48.824202" lon="8.930489">
<ele>473.3</ele>
<time>2020-06-02T16:15:16Z</time>
<speed>0.8</speed>
</trkpt>
<trkpt lat="48.824155" lon="8.930521">
<ele>473.9</ele>
<time>2020-06-02T16:15:21Z</time>
<speed>0.8</speed>
</trkpt>
<trkpt lat="48.824101" lon="8.930568">
<ele>472.5</ele>
<time>2020-06-02T16:15:26Z</time>
<speed>1.1</speed>
</trkpt>
<trkpt lat="48.824065" lon="8.930616">
<ele>473.4</ele>
<time>2020-06-02T16:15:31Z</time>
<speed>0.8</speed>
</trkpt>
<trkpt lat="48.824024" lon="8.930650">
<ele>473.4</ele>
<time>2020-06-02T16:15:36Z</time>
<speed>0.8</speed>
</trkpt>
<trkpt lat="48.823983" lon="8.930686">
<ele>472.0</ele>
<time>2020-06-02T16:15:41Z</time>
<speed>0.3</speed>
</trkpt>
<trkpt lat="48.823949" lon="8.930707">
<ele>472.6</ele>
<time>2020-06-02T16:15:46Z</time>
<speed>0.6</speed>
</trkpt>
<trkpt lat="48.823903" lon="8.930741">
<ele>471.9</ele>
<time>2020-06-02T16:15:51Z</time>
<speed>0.6</speed>
</trkpt>
<trkpt lat="48.823862" lon="8.930777">
<ele>470.5</ele>
<time>2020-06-02T16:15:56Z</time>
<speed>0.8</speed>
</trkpt>
<trkpt lat="48.823809" lon="8.930809">
<ele>470.4</ele>
<time>2020-06-02T16:16:01Z</time>
<speed>0.8</speed>
</trkpt>
<trkpt lat="48.823736" lon="8.930854">
<ele>468.1</ele>
<time>2020-06-02T16:16:06Z</time>
<speed>0.8</speed>
</trkpt>
<trkpt lat="48.823684" lon="8.930888">
<ele>466.6</ele>
<time>2020-06-02T16:16:11Z</time>
<speed>0.8</speed>
</trkpt>
<trkpt lat="48.823622" lon="8.930947">
<ele>466.0</ele>
<time>2020-06-02T16:16:16Z</time>
<speed>0.6</speed>
</trkpt>
<trkpt lat="48.823574" lon="8.930994">
<ele>465.3</ele>
<time>2020-06-02T16:16:21Z</time>
<speed>1.1</speed>
</trkpt>
<trkpt lat="48.823514" lon="8.931042">
<ele>463.2</ele>
<time>2020-06-02T16:16:26Z</time>
<speed>0.8</speed>
</trkpt>
<trkpt lat="48.823433" lon="8.931096">
<ele>463.1</ele>
<time>2020-06-02T16:16:31Z</time>
<speed>1.1</speed>
</trkpt>
<trkpt lat="48.823379" lon="8.931126">
<ele>464.4</ele>
<time>2020-06-02T16:16:36Z</time>
<speed>0.6</speed>
</trkpt>
<trkpt lat="48.823335" lon="8.931185">
<ele>466.0</ele>
<time>2020-06-02T16:16:41Z</time>
<speed>0.8</speed>
</trkpt>
<trkpt lat="48.823294" lon="8.931219">
<ele>466.0</ele>
<time>2020-06-02T16:16:46Z</time>
<speed>0.8</speed>
</trkpt>
<trkpt lat="48.823258" lon="8.931266">
<ele>466.8</ele>
<time>2020-06-02T16:16:51Z</time>
<speed>0.8</speed>
</trkpt>
<trkpt lat="48.823198" lon="8.931312">
<ele>466.1</ele>
<time>2020-06-02T16:16:56Z</time>
<speed>0.8</speed>
</trkpt>
<trkpt lat="48.823157" lon="8.931346">
<ele>466.1</ele>
<time>2020-06-02T16:17:01Z</time>
<speed>0.8</speed>
</trkpt>
<trkpt lat="48.823090" lon="8.931376">
<ele>465.9</ele>
<time>2020-06-02T16:17:06Z</time>
<speed>0.6</speed>
</trkpt>
<trkpt lat="48.823044" lon="8.931410">
<ele>465.1</ele>
<time>2020-06-02T16:17:11Z</time>
<speed>0.8</speed>
</trkpt>
<trkpt lat="48.823003" lon="8.931428">
<ele>466.4</ele>
<time>2020-06-02T16:17:16Z</time>
<speed>0.0</speed>
</trkpt>
<trkpt lat="48.823003" lon="8.931428">
<ele>466.4</ele>
<time>2020-06-02T16:17:21Z</time>
<speed>0.0</speed>
</trkpt>
<trkpt lat="48.823016" lon="8.931415">
<ele>467.8</ele>
<time>2020-06-02T16:17:26Z</time>
<speed>0.3</speed>
</trkpt>
<trkpt lat="48.822988" lon="8.931437">
<ele>467.8</ele>
<time>2020-06-02T16:17:31Z</time>
<speed>0.6</speed>
</trkpt>
<trkpt lat="48.822935" lon="8.931469">
<ele>467.7</ele>
<time>2020-06-02T16:17:36Z</time>
<speed>0.6</speed>
</trkpt>
<trkpt lat="48.822893" lon="8.931517">
<ele>467.8</ele>
<time>2020-06-02T16:17:41Z</time>
<speed>0.8</speed>
</trkpt>
<trkpt lat="48.822832" lon="8.931562">
<ele>467.1</ele>
<time>2020-06-02T16:17:46Z</time>
<speed>0.8</speed>
</trkpt>
<trkpt lat="48.822785" lon="8.931596">
<ele>466.3</ele>
<time>2020-06-02T16:17:51Z</time>
<speed>0.6</speed>
</trkpt>
<trkpt lat="48.822751" lon="8.931632">
<ele>465.7</ele>
<time>2020-06-02T16:17:56Z</time>
<speed>0.6</speed>
</trkpt>
<trkpt lat="48.822718" lon="8.931655">
<ele>464.9</ele>
<time>2020-06-02T16:18:01Z</time>
<speed>0.6</speed>
</trkpt>
<trkpt lat="48.822675" lon="8.931700">
<ele>466.4</ele>
<time>2020-06-02T16:18:06Z</time>
<speed>0.8</speed>
</trkpt>
<trkpt lat="48.822609" lon="8.931730">
<ele>466.2</ele>
<time>2020-06-02T16:18:11Z</time>
<speed>0.8</speed>
</trkpt>
<trkpt lat="48.822553" lon="8.931787">
<ele>467.7</ele>
<time>2020-06-02T16:18:16Z</time>
<speed>0.8</speed>
</trkpt>
<trkpt lat="48.822496" lon="8.931843">
<ele>469.2</ele>
<time>2020-06-02T16:18:21Z</time>
<speed>1.1</speed>
</trkpt>
<trkpt lat="48.822441" lon="8.931886">
<ele>470.6</ele>
<time>2020-06-02T16:18:26Z</time>
<speed>1.1</speed>
</trkpt>
<trkpt lat="48.822387" lon="8.931918">
<ele>470.5</ele>
<time>2020-06-02T16:18:31Z</time>
<speed>1.1</speed>
</trkpt>
<trkpt lat="48.822339" lon="8.931950">
<ele>471.2</ele>
<time>2020-06-02T16:18:36Z</time>
<speed>0.8</speed>
</trkpt>
<trkpt lat="48.822291" lon="8.931998">
<ele>470.5</ele>
<time>2020-06-02T16:18:41Z</time>
<speed>0.8</speed>
</trkpt>
<trkpt lat="48.822243" lon="8.932059">
<ele>470.0</ele>
<time>2020-06-02T16:18:46Z</time>
<speed>1.1</speed>
</trkpt>
<trkpt lat="48.822208" lon="8.932077">
<ele>472.0</ele>
<time>2020-06-02T16:18:51Z</time>
<speed>1.1</speed>
</trkpt>
<trkpt lat="48.822160" lon="8.932109">
<ele>472.7</ele>
<time>2020-06-02T16:18:56Z</time>
<speed>0.6</speed>
</trkpt>
<trkpt lat="48.822112" lon="8.932141">
<ele>473.3</ele>
<time>2020-06-02T16:19:01Z</time>
<speed>0.6</speed>
</trkpt>
<trkpt lat="48.822070" lon="8.932188">
<ele>473.4</ele>
<time>2020-06-02T16:19:06Z</time>
<speed>0.6</speed>
</trkpt>
<trkpt lat="48.822016" lon="8.932234">
<ele>473.4</ele>
<time>2020-06-02T16:19:11Z</time>
<speed>0.8</speed>
</trkpt>
<trkpt lat="48.821956" lon="8.932281">
<ele>471.3</ele>
<time>2020-06-02T16:19:16Z</time>
<speed>0.8</speed>
</trkpt>
<trkpt lat="48.821910" lon="8.932317">
<ele>469.1</ele>
<time>2020-06-02T16:19:21Z</time>
<speed>0.6</speed>
</trkpt>
<trkpt lat="48.821875" lon="8.932369">
<ele>467.2</ele>
<time>2020-06-02T16:19:26Z</time>
<speed>0.8</speed>
</trkpt>
<trkpt lat="48.821847" lon="8.932405">
<ele>467.3</ele>
<time>2020-06-02T16:19:31Z</time>
<speed>0.8</speed>
</trkpt>
<trkpt lat="48.821849" lon="8.932461">
<ele>467.0</ele>
<time>2020-06-02T16:19:36Z</time>
<speed>0.8</speed>
</trkpt>
<trkpt lat="48.821839" lon="8.932515">
<ele>466.7</ele>
<time>2020-06-02T16:19:41Z</time>
<speed>0.8</speed>
</trkpt>
<trkpt lat="48.821809" lon="8.932562">
<ele>468.3</ele>
<time>2020-06-02T16:19:46Z</time>
<speed>0.8</speed>
</trkpt>
<trkpt lat="48.821792" lon="8.932614">
<ele>468.6</ele>
<time>2020-06-02T16:19:51Z</time>
<speed>0.8</speed>
</trkpt>
<trkpt lat="48.821768" lon="8.932695">
<ele>466.9</ele>
<time>2020-06-02T16:19:56Z</time>
<speed>1.1</speed>
</trkpt>
<trkpt lat="48.821757" lon="8.932746">
<ele>468.0</ele>
<time>2020-06-02T16:20:01Z</time>
<speed>0.6</speed>
</trkpt>
<trkpt lat="48.821746" lon="8.932814">
<ele>467.8</ele>
<time>2020-06-02T16:20:06Z</time>
<speed>0.8</speed>
</trkpt>
<trkpt lat="48.821742" lon="8.932868">
<ele>468.2</ele>
<time>2020-06-02T16:20:11Z</time>
<speed>0.8</speed>
</trkpt>
<trkpt lat="48.821736" lon="8.932950">
<ele>467.4</ele>
<time>2020-06-02T16:20:16Z</time>
<speed>0.8</speed>
</trkpt>
<trkpt lat="48.821718" lon="8.933031">
<ele>466.5</ele>
<time>2020-06-02T16:20:21Z</time>
<speed>0.8</speed>
</trkpt>
<trkpt lat="48.821718" lon="8.933031">
<ele>466.5</ele>
<time>2020-06-02T16:20:26Z</time>
<speed>0.0</speed>
</trkpt>
<trkpt lat="48.821718" lon="8.933031">
<ele>466.5</ele>
<time>2020-06-02T16:20:31Z</time>
<speed>0.0</speed>
</trkpt>
<trkpt lat="48.821714" lon="8.933085">
<ele>466.9</ele>
<time>2020-06-02T16:20:36Z</time>
<speed>0.8</speed>
</trkpt>
<trkpt lat="48.821728" lon="8.933156">
<ele>466.9</ele>
<time>2020-06-02T16:20:41Z</time>
<speed>1.1</speed>
</trkpt>
<trkpt lat="48.821735" lon="8.933226">
<ele>467.5</ele>
<time>2020-06-02T16:20:46Z</time>
<speed>0.8</speed>
</trkpt>
<trkpt lat="48.821731" lon="8.933295">
<ele>466.6</ele>
<time>2020-06-02T16:20:51Z</time>
<speed>0.8</speed>
</trkpt>
<trkpt lat="48.821719" lon="8.933376">
<ele>466.4</ele>
<time>2020-06-02T16:20:56Z</time>
<speed>0.8</speed>
</trkpt>
<trkpt lat="48.821713" lon="8.933459">
<ele>465.7</ele>
<time>2020-06-02T16:21:01Z</time>
<speed>0.8</speed>
</trkpt>
<trkpt lat="48.821707" lon="8.933555">
<ele>465.0</ele>
<time>2020-06-02T16:21:06Z</time>
<speed>1.1</speed>
</trkpt>
<trkpt lat="48.821694" lon="8.933636">
<ele>464.8</ele>
<time>2020-06-02T16:21:11Z</time>
<speed>0.8</speed>
</trkpt>
<trkpt lat="48.821690" lon="8.933705">
<ele>463.9</ele>
<time>2020-06-02T16:21:16Z</time>
<speed>1.1</speed>
</trkpt>
<trkpt lat="48.821697" lon="8.933774">
<ele>464.5</ele>
<time>2020-06-02T16:21:21Z</time>
<speed>0.8</speed>
</trkpt>
<trkpt lat="48.821700" lon="8.933815">
<ele>465.6</ele>
<time>2020-06-02T16:21:26Z</time>
<speed>0.6</speed>
</trkpt>
<trkpt lat="48.821706" lon="8.933898">
<ele>466.3</ele>
<time>2020-06-02T16:21:31Z</time>
<speed>1.1</speed>
</trkpt>
<trkpt lat="48.821688" lon="8.933978">
<ele>465.4</ele>
<time>2020-06-02T16:21:36Z</time>
<speed>1.1</speed>
</trkpt>
<trkpt lat="48.821676" lon="8.934059">
<ele>465.3</ele>
<time>2020-06-02T16:21:41Z</time>
<speed>0.8</speed>
</trkpt>
<trkpt lat="48.821651" lon="8.934122">
<ele>466.3</ele>
<time>2020-06-02T16:21:46Z</time>
<speed>0.6</speed>
</trkpt>
<trkpt lat="48.821639" lon="8.934203">
<ele>466.2</ele>
<time>2020-06-02T16:21:51Z</time>
<speed>0.8</speed>
</trkpt>
<trkpt lat="48.821625" lon="8.934310">
<ele>466.3</ele>
<time>2020-06-02T16:21:56Z</time>
<speed>0.8</speed>
</trkpt>
<trkpt lat="48.821601" lon="8.934360">
<ele>467.2</ele>
<time>2020-06-02T16:22:01Z</time>
<speed>0.8</speed>
</trkpt>
<trkpt lat="48.821594" lon="8.934454">
<ele>467.9</ele>
<time>2020-06-02T16:22:06Z</time>
<speed>0.8</speed>
</trkpt>
<trkpt lat="48.821595" lon="8.934539">
<ele>466.5</ele>
<time>2020-06-02T16:22:11Z</time>
<speed>1.1</speed>
</trkpt>
<trkpt lat="48.821596" lon="8.934622">
<ele>466.5</ele>
<time>2020-06-02T16:22:16Z</time>
<speed>0.8</speed>
</trkpt>
<trkpt lat="48.821597" lon="8.934707">
<ele>465.0</ele>
<time>2020-06-02T16:22:21Z</time>
<speed>0.8</speed>
</trkpt>
<trkpt lat="48.821583" lon="8.934799">
<ele>466.4</ele>
<time>2020-06-02T16:22:26Z</time>
<speed>1.1</speed>
</trkpt>
<trkpt lat="48.821583" lon="8.934866">
<ele>467.7</ele>
<time>2020-06-02T16:22:31Z</time>
<speed>0.8</speed>
</trkpt>
<trkpt lat="48.821581" lon="8.934893">
<ele>467.9</ele>
<time>2020-06-02T16:22:36Z</time>
<speed>0.0</speed>
</trkpt>
<trkpt lat="48.821580" lon="8.934906">
<ele>468.0</ele>
<time>2020-06-02T16:22:41Z</time>
<speed>0.0</speed>
</trkpt>
<trkpt lat="48.821580" lon="8.934906">
<ele>468.0</ele>
<time>2020-06-02T16:22:46Z</time>
<speed>0.0</speed>
</trkpt>
<trkpt lat="48.821580" lon="8.934906">
<ele>468.0</ele>
<time>2020-06-02T16:22:51Z</time>
<speed>0.0</speed>
</trkpt>
<trkpt lat="48.821580" lon="8.934906">
<ele>468.0</ele>
<time>2020-06-02T16:22:56Z</time>
<speed>0.0</speed>
</trkpt>
<trkpt lat="48.821580" lon="8.934906">
<ele>468.0</ele>
<time>2020-06-02T16:23:01Z</time>
<speed>0.0</speed>
</trkpt>
<trkpt lat="48.821580" lon="8.934906">
<ele>468.0</ele>
<time>2020-06-02T16:23:06Z</time>
<speed>0.0</speed>
</trkpt>
<trkpt lat="48.821580" lon="8.934906">
<ele>468.0</ele>
<time>2020-06-02T16:23:11Z</time>
<speed>0.0</speed>
</trkpt>
<trkpt lat="48.821580" lon="8.934906">
<ele>468.0</ele>
<time>2020-06-02T16:23:16Z</time>
<speed>0.0</speed>
</trkpt>
<trkpt lat="48.821580" lon="8.934906">
<ele>468.0</ele>
<time>2020-06-02T16:23:21Z</time>
<speed>0.0</speed>
</trkpt>
<trkpt lat="48.821580" lon="8.934906">
<ele>468.0</ele>
<time>2020-06-02T16:23:26Z</time>
<speed>0.0</speed>
</trkpt>
<trkpt lat="48.821580" lon="8.934906">
<ele>468.0</ele>
<time>2020-06-02T16:23:31Z</time>
<speed>0.0</speed>
</trkpt>
<trkpt lat="48.821580" lon="8.934906">
<ele>468.0</ele>
<time>2020-06-02T16:23:36Z</time>
<speed>0.0</speed>
</trkpt>
<trkpt lat="48.821580" lon="8.934906">
<ele>468.0</ele>
<time>2020-06-02T16:23:41Z</time>
<speed>0.0</speed>
</trkpt>
<trkpt lat="48.821579" lon="8.934920">
<ele>468.1</ele>
<time>2020-06-02T16:23:46Z</time>
<speed>0.3</speed>
</trkpt>
<trkpt lat="48.821569" lon="8.934974">
<ele>467.7</ele>
<time>2020-06-02T16:23:51Z</time>
<speed>0.8</speed>
</trkpt>
<trkpt lat="48.821536" lon="8.935064">
<ele>468.2</ele>
<time>2020-06-02T16:23:56Z</time>
<speed>0.6</speed>
</trkpt>
<trkpt lat="48.821532" lon="8.935117">
<ele>468.6</ele>
<time>2020-06-02T16:24:01Z</time>
<speed>0.8</speed>
</trkpt>
<trkpt lat="48.821518" lon="8.935209">
<ele>470.0</ele>
<time>2020-06-02T16:24:06Z</time>
<speed>0.8</speed>
</trkpt>
<trkpt lat="48.821519" lon="8.935292">
<ele>470.0</ele>
<time>2020-06-02T16:24:11Z</time>
<speed>0.8</speed>
</trkpt>
<trkpt lat="48.821519" lon="8.935375">
<ele>469.9</ele>
<time>2020-06-02T16:24:16Z</time>
<speed>1.1</speed>
</trkpt>
<trkpt lat="48.821506" lon="8.935454">
<ele>471.2</ele>
<time>2020-06-02T16:24:21Z</time>
<speed>1.1</speed>
</trkpt>
<trkpt lat="48.821519" lon="8.935554">
<ele>470.0</ele>
<time>2020-06-02T16:24:26Z</time>
<speed>1.1</speed>
</trkpt>
<trkpt lat="48.821539" lon="8.935628">
<ele>469.3</ele>
<time>2020-06-02T16:24:31Z</time>
<speed>1.1</speed>
</trkpt>
<trkpt lat="48.821534" lon="8.935711">
<ele>468.5</ele>
<time>2020-06-02T16:24:36Z</time>
<speed>0.8</speed>
</trkpt>
<trkpt lat="48.821527" lon="8.935791">
<ele>469.1</ele>
<time>2020-06-02T16:24:41Z</time>
<speed>0.8</speed>
</trkpt>
<trkpt lat="48.821532" lon="8.935820">
<ele>468.7</ele>
<time>2020-06-02T16:24:46Z</time>
<speed>0.0</speed>
</trkpt>
<trkpt lat="48.821531" lon="8.935834">
<ele>468.8</ele>
<time>2020-06-02T16:24:51Z</time>
<speed>0.0</speed>
</trkpt>
<trkpt lat="48.821534" lon="8.935890">
<ele>468.5</ele>
<time>2020-06-02T16:24:56Z</time>
<speed>0.6</speed>
</trkpt>
<trkpt lat="48.821528" lon="8.935957">
<ele>469.0</ele>
<time>2020-06-02T16:25:01Z</time>
<speed>0.6</speed>
</trkpt>
<trkpt lat="48.821522" lon="8.936038">
<ele>469.6</ele>
<time>2020-06-02T16:25:06Z</time>
<speed>1.1</speed>
</trkpt>
<trkpt lat="48.821521" lon="8.936134">
<ele>469.7</ele>
<time>2020-06-02T16:25:11Z</time>
<speed>1.1</speed>
</trkpt>
<trkpt lat="48.821522" lon="8.936217">
<ele>469.7</ele>
<time>2020-06-02T16:25:16Z</time>
<speed>1.1</speed>
</trkpt>
<trkpt lat="48.821508" lon="8.936311">
<ele>469.6</ele>
<time>2020-06-02T16:25:21Z</time>
<speed>1.1</speed>
</trkpt>
<trkpt lat="48.821509" lon="8.936394">
<ele>469.6</ele>
<time>2020-06-02T16:25:26Z</time>
<speed>0.8</speed>
</trkpt>
<trkpt lat="48.821502" lon="8.936474">
<ele>470.2</ele>
<time>2020-06-02T16:25:31Z</time>
<speed>1.1</speed>
</trkpt>
<trkpt lat="48.821490" lon="8.936540">
<ele>471.4</ele>
<time>2020-06-02T16:25:36Z</time>
<speed>0.8</speed>
</trkpt>
<trkpt lat="48.821499" lon="8.936611">
<ele>470.6</ele>
<time>2020-06-02T16:25:41Z</time>
<speed>0.8</speed>
</trkpt>
<trkpt lat="48.821487" lon="8.936678">
<ele>470.3</ele>
<time>2020-06-02T16:25:46Z</time>
<speed>0.6</speed>
</trkpt>
<trkpt lat="48.821489" lon="8.936748">
<ele>470.2</ele>
<time>2020-06-02T16:25:51Z</time>
<speed>0.6</speed>
</trkpt>
<trkpt lat="48.821488" lon="8.936844">
<ele>470.3</ele>
<time>2020-06-02T16:25:56Z</time>
<speed>0.8</speed>
</trkpt>
<trkpt lat="48.821471" lon="8.936911">
<ele>469.3</ele>
<time>2020-06-02T16:26:01Z</time>
<speed>0.6</speed>
</trkpt>
<trkpt lat="48.821471" lon="8.936994">
<ele>469.2</ele>
<time>2020-06-02T16:26:06Z</time>
<speed>0.8</speed>
</trkpt>
<trkpt lat="48.821473" lon="8.937079">
<ele>467.8</ele>
<time>2020-06-02T16:26:11Z</time>
<speed>1.1</speed>
</trkpt>
<trkpt lat="48.821465" lon="8.937189">
<ele>467.2</ele>
<time>2020-06-02T16:26:16Z</time>
<speed>1.1</speed>
</trkpt>
<trkpt lat="48.821470" lon="8.937285">
<ele>468.0</ele>
<time>2020-06-02T16:26:21Z</time>
<speed>0.8</speed>
</trkpt>
<trkpt lat="48.821477" lon="8.937370">
<ele>467.3</ele>
<time>2020-06-02T16:26:26Z</time>
<speed>0.8</speed>
</trkpt>
<trkpt lat="48.821489" lon="8.937453">
<ele>468.8</ele>
<time>2020-06-02T16:26:31Z</time>
<speed>1.1</speed>
</trkpt>
<trkpt lat="48.821496" lon="8.937536">
<ele>469.5</ele>
<time>2020-06-02T16:26:36Z</time>
<speed>0.8</speed>
</trkpt>
<trkpt lat="48.821502" lon="8.937618">
<ele>470.2</ele>
<time>2020-06-02T16:26:41Z</time>
<speed>0.8</speed>
</trkpt>
<trkpt lat="48.821502" lon="8.937701">
<ele>470.2</ele>
<time>2020-06-02T16:26:46Z</time>
<speed>1.1</speed>
</trkpt>
<trkpt lat="48.821485" lon="8.937766">
<ele>470.6</ele>
<time>2020-06-02T16:26:51Z</time>
<speed>0.8</speed>
</trkpt>
<trkpt lat="48.821479" lon="8.937849">
<ele>469.8</ele>
<time>2020-06-02T16:26:56Z</time>
<speed>1.1</speed>
</trkpt>
<trkpt lat="48.821498" lon="8.937950">
<ele>469.3</ele>
<time>2020-06-02T16:27:01Z</time>
<speed>1.4</speed>
</trkpt>
<trkpt lat="48.821511" lon="8.938035">
<ele>469.4</ele>
<time>2020-06-02T16:27:06Z</time>
<speed>1.1</speed>
</trkpt>
<trkpt lat="48.821505" lon="8.938100">
<ele>471.3</ele>
<time>2020-06-02T16:27:11Z</time>
<speed>0.8</speed>
</trkpt>
<trkpt lat="48.821492" lon="8.938181">
<ele>471.2</ele>
<time>2020-06-02T16:27:16Z</time>
<speed>1.1</speed>
</trkpt>
<trkpt lat="48.821511" lon="8.938266">
<ele>472.0</ele>
<time>2020-06-02T16:27:21Z</time>
<speed>0.6</speed>
</trkpt>
<trkpt lat="48.821525" lon="8.938337">
<ele>472.0</ele>
<time>2020-06-02T16:27:26Z</time>
<speed>0.8</speed>
</trkpt>
<trkpt lat="48.821530" lon="8.938449">
<ele>471.5</ele>
<time>2020-06-02T16:27:31Z</time>
<speed>1.1</speed>
</trkpt>
<trkpt lat="48.821537" lon="8.938534">
<ele>470.8</ele>
<time>2020-06-02T16:27:36Z</time>
<speed>0.8</speed>
</trkpt>
<trkpt lat="48.821538" lon="8.938601">
<ele>472.1</ele>
<time>2020-06-02T16:27:41Z</time>
<speed>0.8</speed>
</trkpt>
<trkpt lat="48.821539" lon="8.938670">
<ele>471.9</ele>
<time>2020-06-02T16:27:46Z</time>
<speed>0.8</speed>
</trkpt>
<trkpt lat="48.821551" lon="8.938784">
<ele>470.8</ele>
<time>2020-06-02T16:27:51Z</time>
<speed>1.1</speed>
</trkpt>
<trkpt lat="48.821555" lon="8.938827">
<ele>470.5</ele>
<time>2020-06-02T16:27:56Z</time>
<speed>0.0</speed>
</trkpt>
<trkpt lat="48.821555" lon="8.938827">
<ele>470.5</ele>
<time>2020-06-02T16:28:01Z</time>
<speed>0.0</speed>
</trkpt>
<trkpt lat="48.821553" lon="8.938856">
<ele>469.3</ele>
<time>2020-06-02T16:28:06Z</time>
<speed>0.6</speed>
</trkpt>
<trkpt lat="48.821562" lon="8.938914">
<ele>468.4</ele>
<time>2020-06-02T16:28:11Z</time>
<speed>0.8</speed>
</trkpt>
<trkpt lat="48.821558" lon="8.938983">
<ele>467.5</ele>
<time>2020-06-02T16:28:16Z</time>
<speed>0.8</speed>
</trkpt>
<trkpt lat="48.821546" lon="8.939048">
<ele>468.6</ele>
<time>2020-06-02T16:28:21Z</time>
<speed>0.6</speed>
</trkpt>
<trkpt lat="48.821546" lon="8.939131">
<ele>468.6</ele>
<time>2020-06-02T16:28:26Z</time>
<speed>0.8</speed>
</trkpt>
<trkpt lat="48.821552" lon="8.939230">
<ele>468.0</ele>
<time>2020-06-02T16:28:31Z</time>
<speed>1.1</speed>
</trkpt>
<trkpt lat="48.821559" lon="8.939315">
<ele>467.3</ele>
<time>2020-06-02T16:28:36Z</time>
<speed>0.6</speed>
</trkpt>
<trkpt lat="48.821567" lon="8.939384">
<ele>467.9</ele>
<time>2020-06-02T16:28:41Z</time>
<speed>0.6</speed>
</trkpt>
<trkpt lat="48.821580" lon="8.939469">
<ele>468.0</ele>
<time>2020-06-02T16:28:46Z</time>
<speed>0.8</speed>
</trkpt>
<trkpt lat="48.821574" lon="8.939534">
<ele>469.9</ele>
<time>2020-06-02T16:28:51Z</time>
<speed>0.8</speed>
</trkpt>
<trkpt lat="48.821574" lon="8.939617">
<ele>469.9</ele>
<time>2020-06-02T16:28:56Z</time>
<speed>0.8</speed>
</trkpt>
<trkpt lat="48.821561" lon="8.939695">
<ele>471.1</ele>
<time>2020-06-02T16:29:01Z</time>
<speed>0.6</speed>
</trkpt>
<trkpt lat="48.821563" lon="8.939749">
<ele>472.3</ele>
<time>2020-06-02T16:29:06Z</time>
<speed>0.6</speed>
</trkpt>
<trkpt lat="48.821557" lon="8.939832">
<ele>471.5</ele>
<time>2020-06-02T16:29:11Z</time>
<speed>0.8</speed>
</trkpt>
<trkpt lat="48.821565" lon="8.939904">
<ele>470.7</ele>
<time>2020-06-02T16:29:16Z</time>
<speed>0.6</speed>
</trkpt>
<trkpt lat="48.821582" lon="8.940015">
<ele>471.8</ele>
<time>2020-06-02T16:29:21Z</time>
<speed>0.8</speed>
</trkpt>
<trkpt lat="48.821594" lon="8.940114">
<ele>471.9</ele>
<time>2020-06-02T16:29:26Z</time>
<speed>0.6</speed>
</trkpt>
<trkpt lat="48.821618" lon="8.940230">
<ele>470.9</ele>
<time>2020-06-02T16:29:31Z</time>
<speed>1.1</speed>
</trkpt>
<trkpt lat="48.821617" lon="8.940324">
<ele>472.4</ele>
<time>2020-06-02T16:29:36Z</time>
<speed>1.1</speed>
</trkpt>
<trkpt lat="48.821622" lon="8.940420">
<ele>473.2</ele>
<time>2020-06-02T16:29:41Z</time>
<speed>1.1</speed>
</trkpt>
<trkpt lat="48.821642" lon="8.940507">
<ele>472.6</ele>
<time>2020-06-02T16:29:46Z</time>
<speed>0.6</speed>
</trkpt>
<trkpt lat="48.821644" lon="8.940563">
<ele>472.4</ele>
<time>2020-06-02T16:29:51Z</time>
<speed>0.0</speed>
</trkpt>
<trkpt lat="48.821645" lon="8.940631">
<ele>473.6</ele>
<time>2020-06-02T16:29:56Z</time>
<speed>0.8</speed>
</trkpt>
<trkpt lat="48.821651" lon="8.940729">
<ele>473.0</ele>
<time>2020-06-02T16:30:01Z</time>
<speed>1.1</speed>
</trkpt>
<trkpt lat="48.821669" lon="8.940827">
<ele>474.0</ele>
<time>2020-06-02T16:30:06Z</time>
<speed>1.1</speed>
</trkpt>
<trkpt lat="48.821676" lon="8.940897">
<ele>474.6</ele>
<time>2020-06-02T16:30:11Z</time>
<speed>0.3</speed>
</trkpt>
<trkpt lat="48.821689" lon="8.940964">
<ele>477.3</ele>
<time>2020-06-02T16:30:16Z</time>
<speed>0.8</speed>
</trkpt>
<trkpt lat="48.821700" lon="8.941076">
<ele>477.6</ele>
<time>2020-06-02T16:30:21Z</time>
<speed>1.1</speed>
</trkpt>
<trkpt lat="48.821706" lon="8.941174">
<ele>477.0</ele>
<time>2020-06-02T16:30:26Z</time>
<speed>1.1</speed>
</trkpt>
<trkpt lat="48.821719" lon="8.941259">
<ele>477.1</ele>
<time>2020-06-02T16:30:31Z</time>
<speed>1.1</speed>
</trkpt>
<trkpt lat="48.821712" lon="8.941355">
<ele>476.4</ele>
<time>2020-06-02T16:30:36Z</time>
<speed>1.4</speed>
</trkpt>
<trkpt lat="48.821731" lon="8.941440">
<ele>477.2</ele>
<time>2020-06-02T16:30:41Z</time>
<speed>1.1</speed>
</trkpt>
<trkpt lat="48.821737" lon="8.941523">
<ele>477.9</ele>
<time>2020-06-02T16:30:46Z</time>
<speed>0.8</speed>
</trkpt>
<trkpt lat="48.821740" lon="8.941564">
<ele>479.0</ele>
<time>2020-06-02T16:30:51Z</time>
<speed>0.8</speed>
</trkpt>
<trkpt lat="48.821723" lon="8.941615">
<ele>479.3</ele>
<time>2020-06-02T16:30:56Z</time>
<speed>0.3</speed>
</trkpt>
<trkpt lat="48.821706" lon="8.941667">
<ele>479.6</ele>
<time>2020-06-02T16:31:01Z</time>
<speed>0.6</speed>
</trkpt>
<trkpt lat="48.821726" lon="8.941754">
<ele>479.0</ele>
<time>2020-06-02T16:31:06Z</time>
<speed>0.8</speed>
</trkpt>
<trkpt lat="48.821733" lon="8.941839">
<ele>478.3</ele>
<time>2020-06-02T16:31:11Z</time>
<speed>0.6</speed>
</trkpt>
<trkpt lat="48.821729" lon="8.941908">
<ele>477.4</ele>
<time>2020-06-02T16:31:16Z</time>
<speed>0.3</speed>
</trkpt>
<trkpt lat="48.821731" lon="8.941980">
<ele>475.9</ele>
<time>2020-06-02T16:31:21Z</time>
<speed>0.6</speed>
</trkpt>
<trkpt lat="48.821717" lon="8.942074">
<ele>475.9</ele>
<time>2020-06-02T16:31:26Z</time>
<speed>0.8</speed>
</trkpt>
<trkpt lat="48.821716" lon="8.942103">
<ele>474.7</ele>
<time>2020-06-02T16:31:31Z</time>
<speed>0.0</speed>
</trkpt>
<trkpt lat="48.821714" lon="8.942148">
<ele>472.2</ele>
<time>2020-06-02T16:31:36Z</time>
<speed>0.6</speed>
</trkpt>
<trkpt lat="48.821737" lon="8.942192">
<ele>472.7</ele>
<time>2020-06-02T16:31:41Z</time>
<speed>0.3</speed>
</trkpt>
<trkpt lat="48.821708" lon="8.942228">
<ele>472.8</ele>
<time>2020-06-02T16:31:46Z</time>
<speed>0.3</speed>
</trkpt>
<trkpt lat="48.821730" lon="8.942304">
<ele>470.7</ele>
<time>2020-06-02T16:31:51Z</time>
<speed>0.3</speed>
</trkpt>
<trkpt lat="48.821749" lon="8.942391">
<ele>470.1</ele>
<time>2020-06-02T16:31:56Z</time>
<speed>0.8</speed>
</trkpt>
<trkpt lat="48.821750" lon="8.942476">
<ele>468.7</ele>
<time>2020-06-02T16:32:01Z</time>
<speed>0.8</speed>
</trkpt>
<trkpt lat="48.821727" lon="8.942526">
<ele>469.6</ele>
<time>2020-06-02T16:32:06Z</time>
<speed>0.3</speed>
</trkpt>
<trkpt lat="48.821728" lon="8.942593">
<ele>470.9</ele>
<time>2020-06-02T16:32:11Z</time>
<speed>0.6</speed>
</trkpt>
<trkpt lat="48.821728" lon="8.942660">
<ele>472.2</ele>
<time>2020-06-02T16:32:16Z</time>
<speed>0.6</speed>
</trkpt>
<trkpt lat="48.821728" lon="8.942741">
<ele>473.5</ele>
<time>2020-06-02T16:32:21Z</time>
<speed>0.6</speed>
</trkpt>
<trkpt lat="48.821719" lon="8.942864">
<ele>473.0</ele>
<time>2020-06-02T16:32:26Z</time>
<speed>0.6</speed>
</trkpt>
<trkpt lat="48.821718" lon="8.942976">
<ele>471.8</ele>
<time>2020-06-02T16:32:31Z</time>
<speed>0.8</speed>
</trkpt>
<trkpt lat="48.821711" lon="8.943054">
<ele>473.8</ele>
<time>2020-06-02T16:32:36Z</time>
<speed>0.6</speed>
</trkpt>
<trkpt lat="48.821699" lon="8.943135">
<ele>473.7</ele>
<time>2020-06-02T16:32:41Z</time>
<speed>0.8</speed>
</trkpt>
<trkpt lat="48.821699" lon="8.943216">
<ele>475.1</ele>
<time>2020-06-02T16:32:46Z</time>
<speed>0.8</speed>
</trkpt>
<trkpt lat="48.821716" lon="8.943330">
<ele>474.7</ele>
<time>2020-06-02T16:32:51Z</time>
<speed>0.8</speed>
</trkpt>
<trkpt lat="48.821711" lon="8.943397">
<ele>475.2</ele>
<time>2020-06-02T16:32:56Z</time>
<speed>0.8</speed>
</trkpt>
<trkpt lat="48.821698" lon="8.943491">
<ele>475.1</ele>
<time>2020-06-02T16:33:01Z</time>
<speed>0.8</speed>
</trkpt>
<trkpt lat="48.821700" lon="8.943532">
<ele>476.2</ele>
<time>2020-06-02T16:33:06Z</time>
<speed>0.8</speed>
</trkpt>
<trkpt lat="48.821701" lon="8.943599">
<ele>477.5</ele>
<time>2020-06-02T16:33:11Z</time>
<speed>0.6</speed>
</trkpt>
<trkpt lat="48.821701" lon="8.943682">
<ele>477.4</ele>
<time>2020-06-02T16:33:16Z</time>
<speed>0.8</speed>
</trkpt>
<trkpt lat="48.821702" lon="8.943767">
<ele>476.0</ele>
<time>2020-06-02T16:33:21Z</time>
<speed>0.8</speed>
</trkpt>
<trkpt lat="48.821727" lon="8.943885">
<ele>473.6</ele>
<time>2020-06-02T16:33:26Z</time>
<speed>1.1</speed>
</trkpt>
<trkpt lat="48.821715" lon="8.943965">
<ele>473.4</ele>
<time>2020-06-02T16:33:31Z</time>
<speed>1.1</speed>
</trkpt>
<trkpt lat="48.821715" lon="8.944062">
<ele>473.5</ele>
<time>2020-06-02T16:33:36Z</time>
<speed>1.1</speed>
</trkpt>
<trkpt lat="48.821702" lon="8.944142">
<ele>473.4</ele>
<time>2020-06-02T16:33:41Z</time>
<speed>1.1</speed>
</trkpt>
<trkpt lat="48.821683" lon="8.944221">
<ele>473.9</ele>
<time>2020-06-02T16:33:46Z</time>
<speed>0.8</speed>
</trkpt>
<trkpt lat="48.821647" lon="8.944284">
<ele>473.4</ele>
<time>2020-06-02T16:33:51Z</time>
<speed>0.8</speed>
</trkpt>
<trkpt lat="48.821621" lon="8.944376">
<ele>473.3</ele>
<time>2020-06-02T16:33:56Z</time>
<speed>1.1</speed>
</trkpt>
<trkpt lat="48.821616" lon="8.944461">
<ele>471.1</ele>
<time>2020-06-02T16:34:01Z</time>
<speed>1.1</speed>
</trkpt>
<trkpt lat="48.821598" lon="8.944542">
<ele>470.2</ele>
<time>2020-06-02T16:34:06Z</time>
<speed>1.1</speed>
</trkpt>
<trkpt lat="48.821579" lon="8.944636">
<ele>469.4</ele>
<time>2020-06-02T16:34:11Z</time>
<speed>0.8</speed>
</trkpt>
<trkpt lat="48.821561" lon="8.944717">
<ele>468.5</ele>
<time>2020-06-02T16:34:16Z</time>
<speed>1.1</speed>
</trkpt>
<trkpt lat="48.821523" lon="8.944791">
<ele>469.6</ele>
<time>2020-06-02T16:34:21Z</time>
<speed>0.8</speed>
</trkpt>
<trkpt lat="48.821503" lon="8.944885">
<ele>468.8</ele>
<time>2020-06-02T16:34:26Z</time>
<speed>1.1</speed>
</trkpt>
<trkpt lat="48.821486" lon="8.944950">
<ele>469.2</ele>
<time>2020-06-02T16:34:31Z</time>
<speed>0.8</speed>
</trkpt>
<trkpt lat="48.821453" lon="8.945040">
<ele>469.7</ele>
<time>2020-06-02T16:34:36Z</time>
<speed>1.1</speed>
</trkpt>
<trkpt lat="48.821434" lon="8.945119">
<ele>470.2</ele>
<time>2020-06-02T16:34:41Z</time>
<speed>0.8</speed>
</trkpt>
<trkpt lat="48.821423" lon="8.945186">
<ele>470.0</ele>
<time>2020-06-02T16:34:46Z</time>
<speed>0.0</speed>
</trkpt>
<trkpt lat="48.821421" lon="8.945213">
<ele>470.2</ele>
<time>2020-06-02T16:34:51Z</time>
<speed>0.8</speed>
</trkpt>
<trkpt lat="48.821414" lon="8.945309">
<ele>469.5</ele>
<time>2020-06-02T16:34:56Z</time>
<speed>1.1</speed>
</trkpt>
<trkpt lat="48.821409" lon="8.945392">
<ele>468.7</ele>
<time>2020-06-02T16:35:01Z</time>
<speed>0.8</speed>
</trkpt>
<trkpt lat="48.821390" lon="8.945471">
<ele>469.2</ele>
<time>2020-06-02T16:35:06Z</time>
<speed>1.1</speed>
</trkpt>
<trkpt lat="48.821382" lon="8.945563">
<ele>471.3</ele>
<time>2020-06-02T16:35:11Z</time>
<speed>0.8</speed>
</trkpt>
<trkpt lat="48.821368" lon="8.945655">
<ele>472.7</ele>
<time>2020-06-02T16:35:16Z</time>
<speed>1.1</speed>
</trkpt>
<trkpt lat="48.821362" lon="8.945722">
<ele>473.2</ele>
<time>2020-06-02T16:35:21Z</time>
<speed>0.0</speed>
</trkpt>
<trkpt lat="48.821338" lon="8.945785">
<ele>474.3</ele>
<time>2020-06-02T16:35:26Z</time>
<speed>0.6</speed>
</trkpt>
<trkpt lat="48.821310" lon="8.945823">
<ele>473.0</ele>
<time>2020-06-02T16:35:31Z</time>
<speed>0.6</speed>
</trkpt>
<trkpt lat="48.821287" lon="8.945890">
<ele>471.2</ele>
<time>2020-06-02T16:35:36Z</time>
<speed>0.6</speed>
</trkpt>
<trkpt lat="48.821268" lon="8.945969">
<ele>471.7</ele>
<time>2020-06-02T16:35:41Z</time>
<speed>0.8</speed>
</trkpt>
<trkpt lat="48.821248" lon="8.946061">
<ele>472.4</ele>
<time>2020-06-02T16:35:46Z</time>
<speed>1.1</speed>
</trkpt>
<trkpt lat="48.821228" lon="8.946153">
<ele>473.0</ele>
<time>2020-06-02T16:35:51Z</time>
<speed>1.1</speed>
</trkpt>
<trkpt lat="48.821208" lon="8.946245">
<ele>473.6</ele>
<time>2020-06-02T16:35:56Z</time>
<speed>0.8</speed>
</trkpt>
<trkpt lat="48.821177" lon="8.946322">
<ele>474.0</ele>
<time>2020-06-02T16:36:01Z</time>
<speed>1.1</speed>
</trkpt>
<trkpt lat="48.821134" lon="8.946383">
<ele>474.2</ele>
<time>2020-06-02T16:36:06Z</time>
<speed>0.8</speed>
</trkpt>
<trkpt lat="48.821102" lon="8.946459">
<ele>474.6</ele>
<time>2020-06-02T16:36:11Z</time>
<speed>0.6</speed>
</trkpt>
<trkpt lat="48.821077" lon="8.946536">
<ele>475.8</ele>
<time>2020-06-02T16:36:16Z</time>
<speed>0.8</speed>
</trkpt>
<trkpt lat="48.821065" lon="8.946618">
<ele>474.2</ele>
<time>2020-06-02T16:36:21Z</time>
<speed>1.1</speed>
</trkpt>
<trkpt lat="48.821038" lon="8.946643">
<ele>472.8</ele>
<time>2020-06-02T16:36:26Z</time>
<speed>0.0</speed>
</trkpt>
<trkpt lat="48.821019" lon="8.946654">
<ele>472.1</ele>
<time>2020-06-02T16:36:31Z</time>
<speed>0.8</speed>
</trkpt>
<trkpt lat="48.820988" lon="8.946717">
<ele>472.4</ele>
<time>2020-06-02T16:36:36Z</time>
<speed>0.6</speed>
</trkpt>
<trkpt lat="48.820945" lon="8.946778">
<ele>472.6</ele>
<time>2020-06-02T16:36:41Z</time>
<speed>0.8</speed>
</trkpt>
<trkpt lat="48.820929" lon="8.946830">
<ele>472.9</ele>
<time>2020-06-02T16:36:46Z</time>
<speed>0.3</speed>
</trkpt>
<trkpt lat="48.820928" lon="8.946846">
<ele>471.6</ele>
<time>2020-06-02T16:36:51Z</time>
<speed>0.3</speed>
</trkpt>
<trkpt lat="48.820893" lon="8.946895">
<ele>471.1</ele>
<time>2020-06-02T16:36:56Z</time>
<speed>1.1</speed>
</trkpt>
<trkpt lat="48.820887" lon="8.946978">
<ele>470.3</ele>
<time>2020-06-02T16:37:01Z</time>
<speed>1.1</speed>
</trkpt>
<trkpt lat="48.820880" lon="8.947072">
<ele>471.0</ele>
<time>2020-06-02T16:37:06Z</time>
<speed>1.1</speed>
</trkpt>
<trkpt lat="48.820881" lon="8.947142">
<ele>470.8</ele>
<time>2020-06-02T16:37:11Z</time>
<speed>1.1</speed>
</trkpt>
<trkpt lat="48.820881" lon="8.947222">
<ele>472.2</ele>
<time>2020-06-02T16:37:16Z</time>
<speed>0.6</speed>
</trkpt>
<trkpt lat="48.820870" lon="8.947274">
<ele>473.3</ele>
<time>2020-06-02T16:37:21Z</time>
<speed>0.8</speed>
</trkpt>
<trkpt lat="48.820871" lon="8.947341">
<ele>474.5</ele>
<time>2020-06-02T16:37:26Z</time>
<speed>0.8</speed>
</trkpt>
<trkpt lat="48.820877" lon="8.947424">
<ele>475.3</ele>
<time>2020-06-02T16:37:31Z</time>
<speed>0.8</speed>
</trkpt>
<trkpt lat="48.820903" lon="8.947511">
<ele>475.4</ele>
<time>2020-06-02T16:37:36Z</time>
<speed>0.8</speed>
</trkpt>
<trkpt lat="48.820903" lon="8.947511">
<ele>475.4</ele>
<time>2020-06-02T16:37:41Z</time>
<speed>0.0</speed>
</trkpt>
<trkpt lat="48.820916" lon="8.947598">
<ele>474.1</ele>
<time>2020-06-02T16:37:46Z</time>
<speed>0.8</speed>
</trkpt>
<trkpt lat="48.820923" lon="8.947683">
<ele>473.4</ele>
<time>2020-06-02T16:37:51Z</time>
<speed>0.6</speed>
</trkpt>
<trkpt lat="48.820919" lon="8.947737">
<ele>473.8</ele>
<time>2020-06-02T16:37:56Z</time>
<speed>0.8</speed>
</trkpt>
<trkpt lat="48.820919" lon="8.947833">
<ele>473.9</ele>
<time>2020-06-02T16:38:01Z</time>
<speed>0.8</speed>
</trkpt>
<trkpt lat="48.820932" lon="8.947918">
<ele>473.9</ele>
<time>2020-06-02T16:38:06Z</time>
<speed>0.8</speed>
</trkpt>
<trkpt lat="48.820957" lon="8.948021">
<ele>472.8</ele>
<time>2020-06-02T16:38:11Z</time>
<speed>1.1</speed>
</trkpt>
<trkpt lat="48.820975" lon="8.948121">
<ele>472.3</ele>
<time>2020-06-02T16:38:16Z</time>
<speed>1.1</speed>
</trkpt>
<trkpt lat="48.820982" lon="8.948222">
<ele>470.3</ele>
<time>2020-06-02T16:38:21Z</time>
<speed>0.8</speed>
</trkpt>
<trkpt lat="48.820989" lon="8.948307">
<ele>469.7</ele>
<time>2020-06-02T16:38:26Z</time>
<speed>1.1</speed>
</trkpt>
<trkpt lat="48.821008" lon="8.948392">
<ele>470.5</ele>
<time>2020-06-02T16:38:31Z</time>
<speed>0.8</speed>
</trkpt>
<trkpt lat="48.821016" lon="8.948463">
<ele>469.7</ele>
<time>2020-06-02T16:38:36Z</time>
<speed>0.8</speed>
</trkpt>
<trkpt lat="48.821029" lon="8.948548">
<ele>469.7</ele>
<time>2020-06-02T16:38:41Z</time>
<speed>1.1</speed>
</trkpt>
<trkpt lat="48.821031" lon="8.948617">
<ele>469.6</ele>
<time>2020-06-02T16:38:46Z</time>
<speed>1.1</speed>
</trkpt>
<trkpt lat="48.821031" lon="8.948685">
<ele>470.9</ele>
<time>2020-06-02T16:38:51Z</time>
<speed>0.6</speed>
</trkpt>
<trkpt lat="48.821037" lon="8.948765">
<ele>473.0</ele>
<time>2020-06-02T16:38:56Z</time>
<speed>0.8</speed>
</trkpt>
<trkpt lat="48.821051" lon="8.948855">
<ele>470.3</ele>
<time>2020-06-02T16:39:01Z</time>
<speed>0.0</speed>
</trkpt>
<trkpt lat="48.821051" lon="8.948855">
<ele>470.3</ele>
<time>2020-06-02T16:39:06Z</time>
<speed>0.0</speed>
</trkpt>
<trkpt lat="48.821051" lon="8.948855">
<ele>470.3</ele>
<time>2020-06-02T16:39:11Z</time>
<speed>0.0</speed>
</trkpt>
<trkpt lat="48.821051" lon="8.948855">
<ele>470.3</ele>
<time>2020-06-02T16:39:16Z</time>
<speed>0.0</speed>
</trkpt>
<trkpt lat="48.821065" lon="8.948926">
<ele>470.2</ele>
<time>2020-06-02T16:39:21Z</time>
<speed>0.8</speed>
</trkpt>
<trkpt lat="48.821092" lon="8.949015">
<ele>469.0</ele>
<time>2020-06-02T16:39:26Z</time>
<speed>1.4</speed>
</trkpt>
<trkpt lat="48.821099" lon="8.949100">
<ele>468.3</ele>
<time>2020-06-02T16:39:31Z</time>
<speed>1.1</speed>
</trkpt>
<trkpt lat="48.821113" lon="8.949172">
<ele>468.3</ele>
<time>2020-06-02T16:39:36Z</time>
<speed>0.8</speed>
</trkpt>
<trkpt lat="48.821110" lon="8.949212">
<ele>468.6</ele>
<time>2020-06-02T16:39:41Z</time>
<speed>0.0</speed>
</trkpt>
<trkpt lat="48.821110" lon="8.949212">
<ele>468.6</ele>
<time>2020-06-02T16:39:46Z</time>
<speed>0.0</speed>
</trkpt>
<trkpt lat="48.821112" lon="8.949268">
<ele>468.3</ele>
<time>2020-06-02T16:39:51Z</time>
<speed>0.8</speed>
</trkpt>
<trkpt lat="48.821112" lon="8.949351">
<ele>468.3</ele>
<time>2020-06-02T16:39:56Z</time>
<speed>0.8</speed>
</trkpt>
<trkpt lat="48.821124" lon="8.949449">
<ele>468.5</ele>
<time>2020-06-02T16:40:01Z</time>
<speed>1.1</speed>
</trkpt>
<trkpt lat="48.821151" lon="8.949538">
<ele>467.2</ele>
<time>2020-06-02T16:40:06Z</time>
<speed>0.8</speed>
</trkpt>
<trkpt lat="48.821156" lon="8.949635">
<ele>468.0</ele>
<time>2020-06-02T16:40:11Z</time>
<speed>0.8</speed>
</trkpt>
<trkpt lat="48.821183" lon="8.949708">
<ele>468.1</ele>
<time>2020-06-02T16:40:16Z</time>
<speed>1.1</speed>
</trkpt>
<trkpt lat="48.821196" lon="8.949793">
<ele>468.2</ele>
<time>2020-06-02T16:40:21Z</time>
<speed>1.1</speed>
</trkpt>
<trkpt lat="48.821196" lon="8.949876">
<ele>468.1</ele>
<time>2020-06-02T16:40:26Z</time>
<speed>0.8</speed>
</trkpt>
<trkpt lat="48.821209" lon="8.949961">
<ele>468.2</ele>
<time>2020-06-02T16:40:31Z</time>
<speed>1.1</speed>
</trkpt>
<trkpt lat="48.821235" lon="8.950048">
<ele>468.4</ele>
<time>2020-06-02T16:40:36Z</time>
<speed>1.1</speed>
</trkpt>
<trkpt lat="48.821261" lon="8.950106">
<ele>469.7</ele>
<time>2020-06-02T16:40:41Z</time>
<speed>0.8</speed>
</trkpt>
<trkpt lat="48.821263" lon="8.950175">
<ele>469.6</ele>
<time>2020-06-02T16:40:46Z</time>
<speed>0.8</speed>
</trkpt>
<trkpt lat="48.821270" lon="8.950260">
<ele>468.9</ele>
<time>2020-06-02T16:40:51Z</time>
<speed>0.8</speed>
</trkpt>
<trkpt lat="48.821277" lon="8.950345">
<ele>468.2</ele>
<time>2020-06-02T16:40:56Z</time>
<speed>0.8</speed>
</trkpt>
<trkpt lat="48.821290" lon="8.950430">
<ele>468.3</ele>
<time>2020-06-02T16:41:01Z</time>
<speed>1.1</speed>
</trkpt>
<trkpt lat="48.821317" lon="8.950504">
<ele>468.4</ele>
<time>2020-06-02T16:41:06Z</time>
<speed>0.8</speed>
</trkpt>
<trkpt lat="48.821335" lon="8.950589">
<ele>469.2</ele>
<time>2020-06-02T16:41:11Z</time>
<speed>1.1</speed>
</trkpt>
<trkpt lat="48.821348" lon="8.950672">
<ele>470.7</ele>
<time>2020-06-02T16:41:16Z</time>
<speed>1.1</speed>
</trkpt>
<trkpt lat="48.821368" lon="8.950743">
<ele>471.4</ele>
<time>2020-06-02T16:41:21Z</time>
<speed>0.8</speed>
</trkpt>
<trkpt lat="48.821375" lon="8.950828">
<ele>470.7</ele>
<time>2020-06-02T16:41:26Z</time>
<speed>1.1</speed>
</trkpt>
<trkpt lat="48.821388" lon="8.950915">
<ele>469.4</ele>
<time>2020-06-02T16:41:31Z</time>
<speed>1.1</speed>
</trkpt>
<trkpt lat="48.821421" lon="8.951004">
<ele>468.9</ele>
<time>2020-06-02T16:41:36Z</time>
<speed>0.8</speed>
</trkpt>
<trkpt lat="48.821432" lon="8.951035">
<ele>467.8</ele>
<time>2020-06-02T16:41:41Z</time>
<speed>0.0</speed>
</trkpt>
<trkpt lat="48.821432" lon="8.951035">
<ele>467.8</ele>
<time>2020-06-02T16:41:46Z</time>
<speed>0.0</speed>
</trkpt>
<trkpt lat="48.821432" lon="8.951035">
<ele>467.8</ele>
<time>2020-06-02T16:41:51Z</time>
<speed>0.0</speed>
</trkpt>
<trkpt lat="48.821441" lon="8.951078">
<ele>468.2</ele>
<time>2020-06-02T16:41:56Z</time>
<speed>0.8</speed>
</trkpt>
<trkpt lat="48.821462" lon="8.951136">
<ele>468.8</ele>
<time>2020-06-02T16:42:01Z</time>
<speed>0.8</speed>
</trkpt>
<trkpt lat="48.821478" lon="8.951178">
<ele>470.0</ele>
<time>2020-06-02T16:42:06Z</time>
<speed>0.6</speed>
</trkpt>
<trkpt lat="48.821485" lon="8.951263">
<ele>469.3</ele>
<time>2020-06-02T16:42:11Z</time>
<speed>0.8</speed>
</trkpt>
<trkpt lat="48.821498" lon="8.951348">
<ele>469.3</ele>
<time>2020-06-02T16:42:16Z</time>
<speed>1.1</speed>
</trkpt>
<trkpt lat="48.821512" lon="8.951420">
<ele>469.3</ele>
<time>2020-06-02T16:42:21Z</time>
<speed>1.1</speed>
</trkpt>
<trkpt lat="48.821532" lon="8.951493">
<ele>468.6</ele>
<time>2020-06-02T16:42:26Z</time>
<speed>0.8</speed>
</trkpt>
<trkpt lat="48.821539" lon="8.951576">
<ele>469.3</ele>
<time>2020-06-02T16:42:31Z</time>
<speed>1.1</speed>
</trkpt>
<trkpt lat="48.821553" lon="8.951648">
<ele>469.3</ele>
<time>2020-06-02T16:42:36Z</time>
<speed>0.8</speed>
</trkpt>
<trkpt lat="48.821574" lon="8.951721">
<ele>468.6</ele>
<time>2020-06-02T16:42:41Z</time>
<speed>0.8</speed>
</trkpt>
<trkpt lat="48.821583" lon="8.951764">
<ele>469.0</ele>
<time>2020-06-02T16:42:46Z</time>
<speed>0.3</speed>
</trkpt>
<trkpt lat="48.821589" lon="8.951764">
<ele>469.8</ele>
<time>2020-06-02T16:42:51Z</time>
<speed>0.0</speed>
</trkpt>
<trkpt lat="48.821588" lon="8.951777">
<ele>469.9</ele>
<time>2020-06-02T16:42:56Z</time>
<speed>0.0</speed>
</trkpt>
<trkpt lat="48.821618" lon="8.951795">
<ele>470.9</ele>
<time>2020-06-02T16:43:01Z</time>
<speed>0.8</speed>
</trkpt>
<trkpt lat="48.821661" lon="8.951815">
<ele>472.1</ele>
<time>2020-06-02T16:43:06Z</time>
<speed>0.8</speed>
</trkpt>
<trkpt lat="48.821697" lon="8.951832">
<ele>473.9</ele>
<time>2020-06-02T16:43:11Z</time>
<speed>0.8</speed>
</trkpt>
<trkpt lat="48.821732" lon="8.951866">
<ele>474.4</ele>
<time>2020-06-02T16:43:16Z</time>
<speed>0.8</speed>
</trkpt>
<trkpt lat="48.821762" lon="8.951881">
<ele>476.9</ele>
<time>2020-06-02T16:43:21Z</time>
<speed>0.8</speed>
</trkpt>
<trkpt lat="48.821809" lon="8.951915">
<ele>478.9</ele>
<time>2020-06-02T16:43:26Z</time>
<speed>0.8</speed>
</trkpt>
<trkpt lat="48.821844" lon="8.951961">
<ele>479.5</ele>
<time>2020-06-02T16:43:31Z</time>
<speed>0.6</speed>
</trkpt>
<trkpt lat="48.821878" lon="8.952008">
<ele>480.1</ele>
<time>2020-06-02T16:43:36Z</time>
<speed>0.6</speed>
</trkpt>
<trkpt lat="48.821913" lon="8.952055">
<ele>480.7</ele>
<time>2020-06-02T16:43:41Z</time>
<speed>0.8</speed>
</trkpt>
<trkpt lat="48.821948" lon="8.952101">
<ele>481.4</ele>
<time>2020-06-02T16:43:46Z</time>
<speed>0.8</speed>
</trkpt>
<trkpt lat="48.821984" lon="8.952135">
<ele>481.9</ele>
<time>2020-06-02T16:43:51Z</time>
<speed>0.8</speed>
</trkpt>
<trkpt lat="48.822030" lon="8.952181">
<ele>484.0</ele>
<time>2020-06-02T16:43:56Z</time>
<speed>0.8</speed>
</trkpt>
<trkpt lat="48.822053" lon="8.952213">
<ele>484.4</ele>
<time>2020-06-02T16:44:01Z</time>
<speed>0.8</speed>
</trkpt>
<trkpt lat="48.822100" lon="8.952277">
<ele>483.8</ele>
<time>2020-06-02T16:44:06Z</time>
<speed>0.6</speed>
</trkpt>
<trkpt lat="48.822119" lon="8.952312">
<ele>480.7</ele>
<time>2020-06-02T16:44:11Z</time>
<speed>0.0</speed>
</trkpt>
<trkpt lat="48.822119" lon="8.952312">
<ele>480.7</ele>
<time>2020-06-02T16:44:16Z</time>
<speed>0.0</speed>
</trkpt>
<trkpt lat="48.822147" lon="8.952375">
<ele>479.2</ele>
<time>2020-06-02T16:44:21Z</time>
<speed>0.6</speed>
</trkpt>
<trkpt lat="48.822168" lon="8.952448">
<ele>478.5</ele>
<time>2020-06-02T16:44:26Z</time>
<speed>1.1</speed>
</trkpt>
<trkpt lat="48.822208" lon="8.952510">
<ele>478.6</ele>
<time>2020-06-02T16:44:31Z</time>
<speed>0.8</speed>
</trkpt>
<trkpt lat="48.822242" lon="8.952571">
<ele>479.3</ele>
<time>2020-06-02T16:44:36Z</time>
<speed>0.8</speed>
</trkpt>
<trkpt lat="48.822289" lon="8.952635">
<ele>478.7</ele>
<time>2020-06-02T16:44:41Z</time>
<speed>1.1</speed>
</trkpt>
<trkpt lat="48.822335" lon="8.952713">
<ele>478.3</ele>
<time>2020-06-02T16:44:46Z</time>
<speed>0.8</speed>
</trkpt>
<trkpt lat="48.822361" lon="8.952802">
<ele>477.0</ele>
<time>2020-06-02T16:44:51Z</time>
<speed>1.1</speed>
</trkpt>
<trkpt lat="48.822381" lon="8.952889">
<ele>476.4</ele>
<time>2020-06-02T16:44:56Z</time>
<speed>1.1</speed>
</trkpt>
<trkpt lat="48.822420" lon="8.952980">
<ele>475.3</ele>
<time>2020-06-02T16:45:01Z</time>
<speed>0.8</speed>
</trkpt>
<trkpt lat="48.822447" lon="8.953072">
<ele>472.7</ele>
<time>2020-06-02T16:45:06Z</time>
<speed>0.3</speed>
</trkpt>
<trkpt lat="48.822459" lon="8.953089">
<ele>471.5</ele>
<time>2020-06-02T16:45:11Z</time>
<speed>0.0</speed>
</trkpt>
<trkpt lat="48.822464" lon="8.953103">
<ele>472.3</ele>
<time>2020-06-02T16:45:16Z</time>
<speed>0.6</speed>
</trkpt>
<trkpt lat="48.822464" lon="8.953087">
<ele>473.6</ele>
<time>2020-06-02T16:45:21Z</time>
<speed>0.0</speed>
</trkpt>
<trkpt lat="48.822465" lon="8.953074">
<ele>473.5</ele>
<time>2020-06-02T16:45:26Z</time>
<speed>0.0</speed>
</trkpt>
<trkpt lat="48.822465" lon="8.953074">
<ele>473.5</ele>
<time>2020-06-02T16:45:31Z</time>
<speed>0.0</speed>
</trkpt>
<trkpt lat="48.822465" lon="8.953074">
<ele>473.5</ele>
<time>2020-06-02T16:45:36Z</time>
<speed>0.0</speed>
</trkpt>
<trkpt lat="48.822443" lon="8.953110">
<ele>474.4</ele>
<time>2020-06-02T16:45:41Z</time>
<speed>0.6</speed>
</trkpt>
<trkpt lat="48.822443" lon="8.953193">
<ele>474.3</ele>
<time>2020-06-02T16:45:46Z</time>
<speed>1.1</speed>
</trkpt>
<trkpt lat="48.822489" lon="8.953271">
<ele>473.9</ele>
<time>2020-06-02T16:45:51Z</time>
<speed>1.1</speed>
</trkpt>
<trkpt lat="48.822515" lon="8.953358">
<ele>474.0</ele>
<time>2020-06-02T16:45:56Z</time>
<speed>0.8</speed>
</trkpt>
<trkpt lat="48.822523" lon="8.953429">
<ele>473.2</ele>
<time>2020-06-02T16:46:01Z</time>
<speed>0.0</speed>
</trkpt>
<trkpt lat="48.822523" lon="8.953429">
<ele>473.2</ele>
<time>2020-06-02T16:46:06Z</time>
<speed>0.3</speed>
</trkpt>
<trkpt lat="48.822513" lon="8.953483">
<ele>472.9</ele>
<time>2020-06-02T16:46:11Z</time>
<speed>0.8</speed>
</trkpt>
<trkpt lat="48.822514" lon="8.953535">
<ele>475.5</ele>
<time>2020-06-02T16:46:16Z</time>
<speed>0.8</speed>
</trkpt>
<trkpt lat="48.822521" lon="8.953604">
<ele>476.1</ele>
<time>2020-06-02T16:46:21Z</time>
<speed>0.8</speed>
</trkpt>
<trkpt lat="48.822539" lon="8.953718">
<ele>475.7</ele>
<time>2020-06-02T16:46:26Z</time>
<speed>0.8</speed>
</trkpt>
<trkpt lat="48.822538" lon="8.953830">
<ele>474.5</ele>
<time>2020-06-02T16:46:31Z</time>
<speed>0.8</speed>
</trkpt>
<trkpt lat="48.822549" lon="8.953928">
<ele>474.6</ele>
<time>2020-06-02T16:46:36Z</time>
<speed>1.1</speed>
</trkpt>
<trkpt lat="48.822550" lon="8.954011">
<ele>474.6</ele>
<time>2020-06-02T16:46:41Z</time>
<speed>1.1</speed>
</trkpt>
<trkpt lat="48.822556" lon="8.954094">
<ele>475.3</ele>
<time>2020-06-02T16:46:46Z</time>
<speed>0.8</speed>
</trkpt>
<trkpt lat="48.822550" lon="8.954175">
<ele>475.9</ele>
<time>2020-06-02T16:46:51Z</time>
<speed>1.1</speed>
</trkpt>
<trkpt lat="48.822539" lon="8.954242">
<ele>475.7</ele>
<time>2020-06-02T16:46:56Z</time>
<speed>0.8</speed>
</trkpt>
<trkpt lat="48.822545" lon="8.954325">
<ele>476.4</ele>
<time>2020-06-02T16:47:01Z</time>
<speed>0.6</speed>
</trkpt>
<trkpt lat="48.822543" lon="8.954352">
<ele>476.6</ele>
<time>2020-06-02T16:47:06Z</time>
<speed>0.3</speed>
</trkpt>
<trkpt lat="48.822537" lon="8.954352">
<ele>475.9</ele>
<time>2020-06-02T16:47:11Z</time>
<speed>0.6</speed>
</trkpt>
<trkpt lat="48.822575" lon="8.954342">
<ele>477.5</ele>
<time>2020-06-02T16:47:16Z</time>
<speed>0.8</speed>
</trkpt>
<trkpt lat="48.822614" lon="8.954353">
<ele>475.0</ele>
<time>2020-06-02T16:47:21Z</time>
<speed>0.8</speed>
</trkpt>
<trkpt lat="48.822654" lon="8.954332">
<ele>475.1</ele>
<time>2020-06-02T16:47:26Z</time>
<speed>0.6</speed>
</trkpt>
<trkpt lat="48.822712" lon="8.954330">
<ele>474.7</ele>
<time>2020-06-02T16:47:31Z</time>
<speed>0.8</speed>
</trkpt>
<trkpt lat="48.822758" lon="8.954309">
<ele>475.6</ele>
<time>2020-06-02T16:47:36Z</time>
<speed>0.8</speed>
</trkpt>
<trkpt lat="48.822796" lon="8.954300">
<ele>477.2</ele>
<time>2020-06-02T16:47:41Z</time>
<speed>0.8</speed>
</trkpt>
<trkpt lat="48.822848" lon="8.954295">
<ele>477.5</ele>
<time>2020-06-02T16:47:46Z</time>
<speed>0.6</speed>
</trkpt>
<trkpt lat="48.822885" lon="8.954299">
<ele>479.2</ele>
<time>2020-06-02T16:47:51Z</time>
<speed>0.8</speed>
</trkpt>
<trkpt lat="48.822936" lon="8.954294">
<ele>479.5</ele>
<time>2020-06-02T16:47:56Z</time>
<speed>0.8</speed>
</trkpt>
<trkpt lat="48.822986" lon="8.954301">
<ele>481.3</ele>
<time>2020-06-02T16:48:01Z</time>
<speed>0.8</speed>
</trkpt>
<trkpt lat="48.823008" lon="8.954327">
<ele>484.5</ele>
<time>2020-06-02T16:48:06Z</time>
<speed>0.3</speed>
</trkpt>
<trkpt lat="48.823039" lon="8.954332">
<ele>485.5</ele>
<time>2020-06-02T16:48:11Z</time>
<speed>0.3</speed>
</trkpt>
<trkpt lat="48.823025" lon="8.954343">
<ele>485.5</ele>
<time>2020-06-02T16:48:16Z</time>
<speed>0.0</speed>
</trkpt>
<trkpt lat="48.823025" lon="8.954343">
<ele>485.5</ele>
<time>2020-06-02T16:48:21Z</time>
<speed>0.0</speed>
</trkpt>
<trkpt lat="48.823031" lon="8.954343">
<ele>486.3</ele>
<time>2020-06-02T16:48:26Z</time>
<speed>0.0</speed>
</trkpt>
<trkpt lat="48.823031" lon="8.954343">
<ele>486.3</ele>
<time>2020-06-02T16:48:31Z</time>
<speed>0.0</speed>
</trkpt>
<trkpt lat="48.823024" lon="8.954356">
<ele>485.6</ele>
<time>2020-06-02T16:48:36Z</time>
<speed>0.0</speed>
</trkpt>
<trkpt lat="48.823024" lon="8.954356">
<ele>485.6</ele>
<time>2020-06-02T16:48:41Z</time>
<speed>0.0</speed>
</trkpt>
<trkpt lat="48.823044" lon="8.954363">
<ele>483.7</ele>
<time>2020-06-02T16:48:46Z</time>
<speed>0.6</speed>
</trkpt>
<trkpt lat="48.823087" lon="8.954335">
<ele>479.4</ele>
<time>2020-06-02T16:48:51Z</time>
<speed>0.8</speed>
</trkpt>
<trkpt lat="48.823140" lon="8.954332">
<ele>478.4</ele>
<time>2020-06-02T16:48:56Z</time>
<speed>0.3</speed>
</trkpt>
<trkpt lat="48.823183" lon="8.954354">
<ele>478.1</ele>
<time>2020-06-02T16:49:01Z</time>
<speed>0.8</speed>
</trkpt>
<trkpt lat="48.823232" lon="8.954376">
<ele>478.6</ele>
<time>2020-06-02T16:49:06Z</time>
<speed>0.8</speed>
</trkpt>
<trkpt lat="48.823278" lon="8.954371">
<ele>478.2</ele>
<time>2020-06-02T16:49:11Z</time>
<speed>1.1</speed>
</trkpt>
<trkpt lat="48.823315" lon="8.954391">
<ele>478.6</ele>
<time>2020-06-02T16:49:16Z</time>
<speed>0.6</speed>
</trkpt>
<trkpt lat="48.823358" lon="8.954397">
<ele>479.6</ele>
<time>2020-06-02T16:49:21Z</time>
<speed>0.8</speed>
</trkpt>
<trkpt lat="48.823364" lon="8.954397">
<ele>480.4</ele>
<time>2020-06-02T16:49:26Z</time>
<speed>0.0</speed>
</trkpt>
<trkpt lat="48.823404" lon="8.954377">
<ele>480.5</ele>
<time>2020-06-02T16:49:31Z</time>
<speed>0.8</speed>
</trkpt>
<trkpt lat="48.823462" lon="8.954372">
<ele>481.6</ele>
<time>2020-06-02T16:49:36Z</time>
<speed>0.8</speed>
</trkpt>
<trkpt lat="48.823512" lon="8.954365">
<ele>483.3</ele>
<time>2020-06-02T16:49:41Z</time>
<speed>0.8</speed>
</trkpt>
<trkpt lat="48.823557" lon="8.954358">
<ele>484.2</ele>
<time>2020-06-02T16:49:46Z</time>
<speed>0.8</speed>
</trkpt>
<trkpt lat="48.823593" lon="8.954375">
<ele>486.0</ele>
<time>2020-06-02T16:49:51Z</time>
<speed>0.6</speed>
</trkpt>
<trkpt lat="48.823662" lon="8.954402">
<ele>486.0</ele>
<time>2020-06-02T16:49:56Z</time>
<speed>0.8</speed>
</trkpt>
<trkpt lat="48.823712" lon="8.954410">
<ele>486.4</ele>
<time>2020-06-02T16:50:01Z</time>
<speed>0.8</speed>
</trkpt>
<trkpt lat="48.823775" lon="8.954421">
<ele>486.9</ele>
<time>2020-06-02T16:50:06Z</time>
<speed>0.8</speed>
</trkpt>
<trkpt lat="48.823813" lon="8.954427">
<ele>487.2</ele>
<time>2020-06-02T16:50:11Z</time>
<speed>0.8</speed>
</trkpt>
<trkpt lat="48.823855" lon="8.954460">
<ele>488.5</ele>
<time>2020-06-02T16:50:16Z</time>
<speed>0.8</speed>
</trkpt>
<trkpt lat="48.823909" lon="8.954480">
<ele>491.2</ele>
<time>2020-06-02T16:50:21Z</time>
<speed>0.8</speed>
</trkpt>
<trkpt lat="48.823966" lon="8.954488">
<ele>492.3</ele>
<time>2020-06-02T16:50:26Z</time>
<speed>0.8</speed>
</trkpt>
<trkpt lat="48.824007" lon="8.954506">
<ele>494.9</ele>
<time>2020-06-02T16:50:31Z</time>
<speed>0.8</speed>
</trkpt>
<trkpt lat="48.824045" lon="8.954510">
<ele>496.6</ele>
<time>2020-06-02T16:50:36Z</time>
<speed>0.6</speed>
</trkpt>
<trkpt lat="48.824087" lon="8.954530">
<ele>497.8</ele>
<time>2020-06-02T16:50:41Z</time>
<speed>0.0</speed>
</trkpt>
<trkpt lat="48.824087" lon="8.954530">
<ele>497.8</ele>
<time>2020-06-02T16:50:46Z</time>
<speed>0.0</speed>
</trkpt>
<trkpt lat="48.824123" lon="8.954563">
<ele>498.3</ele>
<time>2020-06-02T16:50:51Z</time>
<speed>0.8</speed>
</trkpt>
<trkpt lat="48.824165" lon="8.954597">
<ele>499.5</ele>
<time>2020-06-02T16:50:56Z</time>
<speed>0.6</speed>
</trkpt>
<trkpt lat="48.824205" lon="8.954643">
<ele>500.9</ele>
<time>2020-06-02T16:51:01Z</time>
<speed>0.3</speed>
</trkpt>
<trkpt lat="48.824248" lon="8.954681">
<ele>499.4</ele>
<time>2020-06-02T16:51:06Z</time>
<speed>0.6</speed>
</trkpt>
<trkpt lat="48.824296" lon="8.954732">
<ele>498.7</ele>
<time>2020-06-02T16:51:11Z</time>
<speed>0.6</speed>
</trkpt>
<trkpt lat="48.824339" lon="8.954767">
<ele>498.5</ele>
<time>2020-06-02T16:51:16Z</time>
<speed>0.8</speed>
</trkpt>
<trkpt lat="48.824388" lon="8.954805">
<ele>497.8</ele>
<time>2020-06-02T16:51:21Z</time>
<speed>0.6</speed>
</trkpt>
<trkpt lat="48.824431" lon="8.954842">
<ele>496.2</ele>
<time>2020-06-02T16:51:26Z</time>
<speed>0.8</speed>
</trkpt>
<trkpt lat="48.824466" lon="8.954873">
<ele>498.1</ele>
<time>2020-06-02T16:51:31Z</time>
<speed>0.8</speed>
</trkpt>
<trkpt lat="48.824507" lon="8.954922">
<ele>498.1</ele>
<time>2020-06-02T16:51:36Z</time>
<speed>0.6</speed>
</trkpt>
<trkpt lat="48.824554" lon="8.955002">
<ele>496.2</ele>
<time>2020-06-02T16:51:41Z</time>
<speed>0.6</speed>
</trkpt>
<trkpt lat="48.824588" lon="8.955062">
<ele>496.9</ele>
<time>2020-06-02T16:51:46Z</time>
<speed>0.6</speed>
</trkpt>
<trkpt lat="48.824640" lon="8.955127">
<ele>497.1</ele>
<time>2020-06-02T16:51:51Z</time>
<speed>0.8</speed>
</trkpt>
<trkpt lat="48.824673" lon="8.955216">
<ele>496.6</ele>
<time>2020-06-02T16:51:56Z</time>
<speed>0.8</speed>
</trkpt>
<trkpt lat="48.824706" lon="8.955292">
<ele>496.0</ele>
<time>2020-06-02T16:52:01Z</time>
<speed>1.4</speed>
</trkpt>
<trkpt lat="48.824759" lon="8.955372">
<ele>494.9</ele>
<time>2020-06-02T16:52:06Z</time>
<speed>0.8</speed>
</trkpt>
<trkpt lat="48.824797" lon="8.955461">
<ele>495.2</ele>
<time>2020-06-02T16:52:11Z</time>
<speed>0.8</speed>
</trkpt>
<trkpt lat="48.824843" lon="8.955523">
<ele>496.0</ele>
<time>2020-06-02T16:52:16Z</time>
<speed>0.8</speed>
</trkpt>
<trkpt lat="48.824876" lon="8.955615">
<ele>494.1</ele>
<time>2020-06-02T16:52:21Z</time>
<speed>0.8</speed>
</trkpt>
<trkpt lat="48.824891" lon="8.955688">
<ele>492.7</ele>
<time>2020-06-02T16:52:26Z</time>
<speed>0.8</speed>
</trkpt>
<trkpt lat="48.824930" lon="8.955779">
<ele>491.5</ele>
<time>2020-06-02T16:52:31Z</time>
<speed>0.8</speed>
</trkpt>
<trkpt lat="48.824969" lon="8.955871">
<ele>490.4</ele>
<time>2020-06-02T16:52:36Z</time>
<speed>0.8</speed>
</trkpt>
<trkpt lat="48.824970" lon="8.955956">
<ele>489.0</ele>
<time>2020-06-02T16:52:41Z</time>
<speed>0.8</speed>
</trkpt>
<trkpt lat="48.824996" lon="8.956029">
<ele>489.0</ele>
<time>2020-06-02T16:52:46Z</time>
<speed>0.8</speed>
</trkpt>
<trkpt lat="48.825007" lon="8.956074">
<ele>488.0</ele>
<time>2020-06-02T16:52:51Z</time>
<speed>0.3</speed>
</trkpt>
<trkpt lat="48.825021" lon="8.956145">
<ele>488.0</ele>
<time>2020-06-02T16:52:56Z</time>
<speed>0.8</speed>
</trkpt>
<trkpt lat="48.825015" lon="8.956228">
<ele>487.2</ele>
<time>2020-06-02T16:53:01Z</time>
<speed>0.8</speed>
</trkpt>
<trkpt lat="48.825022" lon="8.956313">
<ele>486.5</ele>
<time>2020-06-02T16:53:06Z</time>
<speed>0.8</speed>
</trkpt>
<trkpt lat="48.825035" lon="8.956398">
<ele>486.6</ele>
<time>2020-06-02T16:53:11Z</time>
<speed>0.6</speed>
</trkpt>
<trkpt lat="48.825044" lon="8.956456">
<ele>485.7</ele>
<time>2020-06-02T16:53:16Z</time>
<speed>0.6</speed>
</trkpt>
<trkpt lat="48.825078" lon="8.956532">
<ele>485.1</ele>
<time>2020-06-02T16:53:21Z</time>
<speed>0.8</speed>
</trkpt>
<trkpt lat="48.825091" lon="8.956619">
<ele>483.8</ele>
<time>2020-06-02T16:53:26Z</time>
<speed>0.8</speed>
</trkpt>
<trkpt lat="48.825116" lon="8.956720">
<ele>484.1</ele>
<time>2020-06-02T16:53:31Z</time>
<speed>1.1</speed>
</trkpt>
<trkpt lat="48.825136" lon="8.956807">
<ele>483.5</ele>
<time>2020-06-02T16:53:36Z</time>
<speed>0.8</speed>
</trkpt>
<trkpt lat="48.825163" lon="8.956882">
<ele>482.1</ele>
<time>2020-06-02T16:53:41Z</time>
<speed>0.8</speed>
</trkpt>
<trkpt lat="48.825144" lon="8.956979">
<ele>479.9</ele>
<time>2020-06-02T16:53:46Z</time>
<speed>0.8</speed>
</trkpt>
<trkpt lat="48.825145" lon="8.957061">
<ele>479.9</ele>
<time>2020-06-02T16:53:51Z</time>
<speed>0.8</speed>
</trkpt>
<trkpt lat="48.825170" lon="8.957149">
<ele>480.1</ele>
<time>2020-06-02T16:53:56Z</time>
<speed>0.6</speed>
</trkpt>
<trkpt lat="48.825197" lon="8.957222">
<ele>480.1</ele>
<time>2020-06-02T16:54:01Z</time>
<speed>0.6</speed>
</trkpt>
<trkpt lat="48.825204" lon="8.957292">
<ele>480.8</ele>
<time>2020-06-02T16:54:06Z</time>
<speed>0.6</speed>
</trkpt>
<trkpt lat="48.825219" lon="8.957350">
<ele>480.6</ele>
<time>2020-06-02T16:54:11Z</time>
<speed>0.6</speed>
</trkpt>
<trkpt lat="48.825227" lon="8.957419">
<ele>481.2</ele>
<time>2020-06-02T16:54:16Z</time>
<speed>0.6</speed>
</trkpt>
<trkpt lat="48.825266" lon="8.957510">
<ele>480.1</ele>
<time>2020-06-02T16:54:21Z</time>
<speed>0.8</speed>
</trkpt>
<trkpt lat="48.825298" lon="8.957584">
<ele>480.9</ele>
<time>2020-06-02T16:54:26Z</time>
<speed>0.8</speed>
</trkpt>
<trkpt lat="48.825331" lon="8.957658">
<ele>481.7</ele>
<time>2020-06-02T16:54:31Z</time>
<speed>0.8</speed>
</trkpt>
<trkpt lat="48.825346" lon="8.957731">
<ele>480.3</ele>
<time>2020-06-02T16:54:36Z</time>
<speed>0.8</speed>
</trkpt>
<trkpt lat="48.825372" lon="8.957805">
<ele>480.4</ele>
<time>2020-06-02T16:54:41Z</time>
<speed>0.8</speed>
</trkpt>
<trkpt lat="48.825388" lon="8.957847">
<ele>481.5</ele>
<time>2020-06-02T16:54:46Z</time>
<speed>0.6</speed>
</trkpt>
<trkpt lat="48.825427" lon="8.957907">
<ele>483.0</ele>
<time>2020-06-02T16:54:51Z</time>
<speed>0.8</speed>
</trkpt>
<trkpt lat="48.825456" lon="8.957954">
<ele>482.9</ele>
<time>2020-06-02T16:54:56Z</time>
<speed>1.1</speed>
</trkpt>
<trkpt lat="48.825501" lon="8.958030">
<ele>483.8</ele>
<time>2020-06-02T16:55:01Z</time>
<speed>0.8</speed>
</trkpt>
<trkpt lat="48.825529" lon="8.958090">
<ele>483.8</ele>
<time>2020-06-02T16:55:06Z</time>
<speed>1.1</speed>
</trkpt>
<trkpt lat="48.825544" lon="8.958148">
<ele>483.6</ele>
<time>2020-06-02T16:55:11Z</time>
<speed>0.6</speed>
</trkpt>
<trkpt lat="48.825560" lon="8.958193">
<ele>483.4</ele>
<time>2020-06-02T16:55:16Z</time>
<speed>0.6</speed>
</trkpt>
<trkpt lat="48.825572" lon="8.958210">
<ele>482.2</ele>
<time>2020-06-02T16:55:21Z</time>
<speed>0.3</speed>
</trkpt>
<trkpt lat="48.825594" lon="8.958255">
<ele>482.7</ele>
<time>2020-06-02T16:55:26Z</time>
<speed>0.6</speed>
</trkpt>
<trkpt lat="48.825628" lon="8.958315">
<ele>483.4</ele>
<time>2020-06-02T16:55:31Z</time>
<speed>0.8</speed>
</trkpt>
<trkpt lat="48.825661" lon="8.958391">
<ele>482.8</ele>
<time>2020-06-02T16:55:36Z</time>
<speed>0.8</speed>
</trkpt>
<trkpt lat="48.825672" lon="8.958420">
<ele>483.1</ele>
<time>2020-06-02T16:55:41Z</time>
<speed>0.3</speed>
</trkpt>
<trkpt lat="48.825693" lon="8.958478">
<ele>483.7</ele>
<time>2020-06-02T16:55:46Z</time>
<speed>0.6</speed>
</trkpt>
<trkpt lat="48.825727" lon="8.958556">
<ele>481.8</ele>
<time>2020-06-02T16:55:51Z</time>
<speed>0.8</speed>
</trkpt>
<trkpt lat="48.825753" lon="8.958629">
<ele>481.8</ele>
<time>2020-06-02T16:55:56Z</time>
<speed>0.8</speed>
</trkpt>
<trkpt lat="48.825781" lon="8.958705">
<ele>480.5</ele>
<time>2020-06-02T16:56:01Z</time>
<speed>0.8</speed>
</trkpt>
<trkpt lat="48.825808" lon="8.958781">
<ele>479.2</ele>
<time>2020-06-02T16:56:06Z</time>
<speed>0.3</speed>
</trkpt>
<trkpt lat="48.825837" lon="8.958843">
<ele>477.7</ele>
<time>2020-06-02T16:56:11Z</time>
<speed>0.8</speed>
</trkpt>
<trkpt lat="48.825864" lon="8.958919">
<ele>476.4</ele>
<time>2020-06-02T16:56:16Z</time>
<speed>0.6</speed>
</trkpt>
<trkpt lat="48.825885" lon="8.958977">
<ele>477.0</ele>
<time>2020-06-02T16:56:21Z</time>
<speed>0.8</speed>
</trkpt>
<trkpt lat="48.825925" lon="8.959039">
<ele>477.1</ele>
<time>2020-06-02T16:56:26Z</time>
<speed>0.6</speed>
</trkpt>
<trkpt lat="48.825961" lon="8.959088">
<ele>476.3</ele>
<time>2020-06-02T16:56:31Z</time>
<speed>0.6</speed>
</trkpt>
<trkpt lat="48.825982" lon="8.959146">
<ele>476.9</ele>
<time>2020-06-02T16:56:36Z</time>
<speed>0.6</speed>
</trkpt>
<trkpt lat="48.825997" lon="8.959189">
<ele>478.1</ele>
<time>2020-06-02T16:56:41Z</time>
<speed>0.6</speed>
</trkpt>
<trkpt lat="48.826032" lon="8.959220">
<ele>480.0</ele>
<time>2020-06-02T16:56:46Z</time>
<speed>0.8</speed>
</trkpt>
<trkpt lat="48.826086" lon="8.959255">
<ele>481.3</ele>
<time>2020-06-02T16:56:51Z</time>
<speed>0.8</speed>
</trkpt>
<trkpt lat="48.826135" lon="8.959293">
<ele>480.5</ele>
<time>2020-06-02T16:56:56Z</time>
<speed>0.8</speed>
</trkpt>
<trkpt lat="48.826185" lon="8.959315">
<ele>481.1</ele>
<time>2020-06-02T16:57:01Z</time>
<speed>0.8</speed>
</trkpt>
<trkpt lat="48.826253" lon="8.959339">
<ele>482.4</ele>
<time>2020-06-02T16:57:06Z</time>
<speed>0.8</speed>
</trkpt>
<trkpt lat="48.826292" lon="8.959334">
<ele>481.2</ele>
<time>2020-06-02T16:57:11Z</time>
<speed>0.6</speed>
</trkpt>
<trkpt lat="48.826349" lon="8.959344">
<ele>481.0</ele>
<time>2020-06-02T16:57:16Z</time>
<speed>0.8</speed>
</trkpt>
<trkpt lat="48.826402" lon="8.959341">
<ele>479.9</ele>
<time>2020-06-02T16:57:21Z</time>
<speed>0.8</speed>
</trkpt>
<trkpt lat="48.826455" lon="8.959325">
<ele>478.7</ele>
<time>2020-06-02T16:57:26Z</time>
<speed>0.8</speed>
</trkpt>
<trkpt lat="48.826502" lon="8.959309">
<ele>476.7</ele>
<time>2020-06-02T16:57:31Z</time>
<speed>0.8</speed>
</trkpt>
<trkpt lat="48.826555" lon="8.959290">
<ele>476.9</ele>
<time>2020-06-02T16:57:36Z</time>
<speed>0.8</speed>
</trkpt>
<trkpt lat="48.826607" lon="8.959272">
<ele>477.2</ele>
<time>2020-06-02T16:57:41Z</time>
<speed>1.1</speed>
</trkpt>
<trkpt lat="48.826661" lon="8.959256">
<ele>476.0</ele>
<time>2020-06-02T16:57:46Z</time>
<speed>1.1</speed>
</trkpt>
<trkpt lat="48.826722" lon="8.959230">
<ele>472.6</ele>
<time>2020-06-02T16:57:51Z</time>
<speed>1.1</speed>
</trkpt>
<trkpt lat="48.826791" lon="8.959222">
<ele>467.3</ele>
<time>2020-06-02T16:57:56Z</time>
<speed>1.1</speed>
</trkpt>
<trkpt lat="48.826851" lon="8.959193">
<ele>466.7</ele>
<time>2020-06-02T16:58:01Z</time>
<speed>1.1</speed>
</trkpt>
<trkpt lat="48.826877" lon="8.959183">
<ele>466.8</ele>
<time>2020-06-02T16:58:06Z</time>
<speed>0.0</speed>
</trkpt>
<trkpt lat="48.826851" lon="8.959193">
<ele>466.7</ele>
<time>2020-06-02T16:58:11Z</time>
<speed>0.8</speed>
</trkpt>
<trkpt lat="48.826823" lon="8.959231">
<ele>465.4</ele>
<time>2020-06-02T16:58:16Z</time>
<speed>0.8</speed>
</trkpt>
<trkpt lat="48.826809" lon="8.959258">
<ele>464.1</ele>
<time>2020-06-02T16:58:21Z</time>
<speed>0.3</speed>
</trkpt>
<trkpt lat="48.826849" lon="8.959237">
<ele>464.2</ele>
<time>2020-06-02T16:58:26Z</time>
<speed>0.8</speed>
</trkpt>
<trkpt lat="48.826903" lon="8.959205">
<ele>464.3</ele>
<time>2020-06-02T16:58:31Z</time>
<speed>0.8</speed>
</trkpt>
<trkpt lat="48.826949" lon="8.959185">
<ele>465.2</ele>
<time>2020-06-02T16:58:36Z</time>
<speed>0.8</speed>
</trkpt>
<trkpt lat="48.827002" lon="8.959153">
<ele>465.3</ele>
<time>2020-06-02T16:58:41Z</time>
<speed>0.8</speed>
</trkpt>
<trkpt lat="48.827049" lon="8.959119">
<ele>466.1</ele>
<time>2020-06-02T16:58:46Z</time>
<speed>0.8</speed>
</trkpt>
<trkpt lat="48.827095" lon="8.959098">
<ele>466.9</ele>
<time>2020-06-02T16:58:51Z</time>
<speed>1.1</speed>
</trkpt>
<trkpt lat="48.827153" lon="8.959080">
<ele>467.9</ele>
<time>2020-06-02T16:58:56Z</time>
<speed>0.8</speed>
</trkpt>
<trkpt lat="48.827195" lon="8.959030">
<ele>469.2</ele>
<time>2020-06-02T16:59:01Z</time>
<speed>0.8</speed>
</trkpt>
<trkpt lat="48.827236" lon="8.958996">
<ele>469.2</ele>
<time>2020-06-02T16:59:06Z</time>
<speed>0.8</speed>
</trkpt>
<trkpt lat="48.827282" lon="8.958978">
<ele>468.6</ele>
<time>2020-06-02T16:59:11Z</time>
<speed>0.8</speed>
</trkpt>
<trkpt lat="48.827321" lon="8.958971">
<ele>468.8</ele>
<time>2020-06-02T16:59:16Z</time>
<speed>0.6</speed>
</trkpt>
<trkpt lat="48.827374" lon="8.958952">
<ele>469.0</ele>
<time>2020-06-02T16:59:21Z</time>
<speed>0.8</speed>
</trkpt>
<trkpt lat="48.827419" lon="8.958948">
<ele>468.6</ele>
<time>2020-06-02T16:59:26Z</time>
<speed>1.1</speed>
</trkpt>
<trkpt lat="48.827465" lon="8.958927">
<ele>469.4</ele>
<time>2020-06-02T16:59:31Z</time>
<speed>0.8</speed>
</trkpt>
<trkpt lat="48.827523" lon="8.958940">
<ele>467.8</ele>
<time>2020-06-02T16:59:36Z</time>
<speed>0.8</speed>
</trkpt>
<trkpt lat="48.827581" lon="8.958937">
<ele>467.5</ele>
<time>2020-06-02T16:59:41Z</time>
<speed>0.8</speed>
</trkpt>
<trkpt lat="48.827633" lon="8.958932">
<ele>467.8</ele>
<time>2020-06-02T16:59:46Z</time>
<speed>0.8</speed>
</trkpt>
<trkpt lat="48.827683" lon="8.958940">
<ele>468.2</ele>
<time>2020-06-02T16:59:51Z</time>
<speed>0.8</speed>
</trkpt>
<trkpt lat="48.827741" lon="8.958938">
<ele>467.8</ele>
<time>2020-06-02T16:59:56Z</time>
<speed>0.8</speed>
</trkpt>
<trkpt lat="48.827786" lon="8.958930">
<ele>468.8</ele>
<time>2020-06-02T17:00:01Z</time>
<speed>0.8</speed>
</trkpt>
<trkpt lat="48.827836" lon="8.958939">
<ele>469.2</ele>
<time>2020-06-02T17:00:06Z</time>
<speed>0.8</speed>
</trkpt>
<trkpt lat="48.827887" lon="8.958947">
<ele>469.6</ele>
<time>2020-06-02T17:00:11Z</time>
<speed>0.0</speed>
</trkpt>
<trkpt lat="48.827905" lon="8.958965">
<ele>469.2</ele>
<time>2020-06-02T17:00:16Z</time>
<speed>0.0</speed>
</trkpt>
<trkpt lat="48.827905" lon="8.958965">
<ele>469.2</ele>
<time>2020-06-02T17:00:21Z</time>
<speed>0.0</speed>
</trkpt>
<trkpt lat="48.827905" lon="8.958965">
<ele>469.2</ele>
<time>2020-06-02T17:00:26Z</time>
<speed>0.0</speed>
</trkpt>
<trkpt lat="48.827905" lon="8.958965">
<ele>469.2</ele>
<time>2020-06-02T17:00:31Z</time>
<speed>0.0</speed>
</trkpt>
<trkpt lat="48.827905" lon="8.958965">
<ele>469.2</ele>
<time>2020-06-02T17:00:36Z</time>
<speed>0.0</speed>
</trkpt>
<trkpt lat="48.827905" lon="8.958965">
<ele>469.2</ele>
<time>2020-06-02T17:00:41Z</time>
<speed>0.0</speed>
</trkpt>
<trkpt lat="48.827905" lon="8.958965">
<ele>469.2</ele>
<time>2020-06-02T17:00:46Z</time>
<speed>0.0</speed>
</trkpt>
<trkpt lat="48.827911" lon="8.958981">
<ele>468.6</ele>
<time>2020-06-02T17:00:51Z</time>
<speed>0.3</speed>
</trkpt>
<trkpt lat="48.827963" lon="8.958962">
<ele>468.8</ele>
<time>2020-06-02T17:00:56Z</time>
<speed>0.8</speed>
</trkpt>
<trkpt lat="48.828008" lon="8.958940">
<ele>471.1</ele>
<time>2020-06-02T17:01:01Z</time>
<speed>0.8</speed>
</trkpt>
<trkpt lat="48.828065" lon="8.958948">
<ele>472.2</ele>
<time>2020-06-02T17:01:06Z</time>
<speed>0.8</speed>
</trkpt>
<trkpt lat="48.828109" lon="8.958939">
<ele>474.6</ele>
<time>2020-06-02T17:01:11Z</time>
<speed>0.8</speed>
</trkpt>
<trkpt lat="48.828159" lon="8.958947">
<ele>475.0</ele>
<time>2020-06-02T17:01:16Z</time>
<speed>0.8</speed>
</trkpt>
<trkpt lat="48.828210" lon="8.958940">
<ele>476.7</ele>
<time>2020-06-02T17:01:21Z</time>
<speed>0.8</speed>
</trkpt>
<trkpt lat="48.828259" lon="8.958962">
<ele>477.2</ele>
<time>2020-06-02T17:01:26Z</time>
<speed>0.8</speed>
</trkpt>
<trkpt lat="48.828309" lon="8.958986">
<ele>476.3</ele>
<time>2020-06-02T17:01:31Z</time>
<speed>0.8</speed>
</trkpt>
<trkpt lat="48.828366" lon="8.958997">
<ele>476.1</ele>
<time>2020-06-02T17:01:36Z</time>
<speed>0.8</speed>
</trkpt>
<trkpt lat="48.828416" lon="8.959019">
<ele>476.6</ele>
<time>2020-06-02T17:01:41Z</time>
<speed>0.8</speed>
</trkpt>
<trkpt lat="48.828467" lon="8.959029">
<ele>475.6</ele>
<time>2020-06-02T17:01:46Z</time>
<speed>0.8</speed>
</trkpt>
<trkpt lat="48.828516" lon="8.959051">
<ele>476.1</ele>
<time>2020-06-02T17:01:51Z</time>
<speed>0.8</speed>
</trkpt>
<trkpt lat="48.828573" lon="8.959077">
<ele>474.6</ele>
<time>2020-06-02T17:01:56Z</time>
<speed>0.8</speed>
</trkpt>
<trkpt lat="48.828629" lon="8.959117">
<ele>473.2</ele>
<time>2020-06-02T17:02:01Z</time>
<speed>0.8</speed>
</trkpt>
<trkpt lat="48.828693" lon="8.959132">
<ele>470.9</ele>
<time>2020-06-02T17:02:06Z</time>
<speed>0.8</speed>
</trkpt>
<trkpt lat="48.828750" lon="8.959158">
<ele>469.3</ele>
<time>2020-06-02T17:02:11Z</time>
<speed>0.8</speed>
</trkpt>
<trkpt lat="48.828803" lon="8.959142">
<ele>468.1</ele>
<time>2020-06-02T17:02:16Z</time>
<speed>0.8</speed>
</trkpt>
<trkpt lat="48.828850" lon="8.959123">
<ele>467.6</ele>
<time>2020-06-02T17:02:21Z</time>
<speed>1.1</speed>
</trkpt>
<trkpt lat="48.828892" lon="8.959092">
<ele>466.2</ele>
<time>2020-06-02T17:02:26Z</time>
<speed>0.8</speed>
</trkpt>
<trkpt lat="48.828926" lon="8.959087">
<ele>464.2</ele>
<time>2020-06-02T17:02:31Z</time>
<speed>0.0</speed>
</trkpt>
<trkpt lat="48.828944" lon="8.959120">
<ele>462.5</ele>
<time>2020-06-02T17:02:36Z</time>
<speed>0.6</speed>
</trkpt>
<trkpt lat="48.828945" lon="8.959106">
<ele>462.4</ele>
<time>2020-06-02T17:02:41Z</time>
<speed>0.0</speed>
</trkpt>
<trkpt lat="48.828945" lon="8.959106">
<ele>462.4</ele>
<time>2020-06-02T17:02:46Z</time>
<speed>0.0</speed>
</trkpt>
<trkpt lat="48.828952" lon="8.959111">
<ele>460.3</ele>
<time>2020-06-02T17:02:51Z</time>
<speed>0.6</speed>
</trkpt>
<trkpt lat="48.828980" lon="8.959090">
<ele>458.9</ele>
<time>2020-06-02T17:02:56Z</time>
<speed>0.8</speed>
</trkpt>
<trkpt lat="48.829016" lon="8.959058">
<ele>456.8</ele>
<time>2020-06-02T17:03:01Z</time>
<speed>0.6</speed>
</trkpt>
<trkpt lat="48.829045" lon="8.959009">
<ele>456.6</ele>
<time>2020-06-02T17:03:06Z</time>
<speed>0.8</speed>
</trkpt>
<trkpt lat="48.829075" lon="8.958959">
<ele>456.3</ele>
<time>2020-06-02T17:03:11Z</time>
<speed>0.6</speed>
</trkpt>
<trkpt lat="48.829092" lon="8.958907">
<ele>456.0</ele>
<time>2020-06-02T17:03:16Z</time>
<speed>0.6</speed>
</trkpt>
<trkpt lat="48.829114" lon="8.958856">
<ele>456.5</ele>
<time>2020-06-02T17:03:21Z</time>
<speed>0.6</speed>
</trkpt>
<trkpt lat="48.829124" lon="8.958802">
<ele>456.8</ele>
<time>2020-06-02T17:03:26Z</time>
<speed>0.8</speed>
</trkpt>
<trkpt lat="48.829135" lon="8.958748">
<ele>457.2</ele>
<time>2020-06-02T17:03:31Z</time>
<speed>0.8</speed>
</trkpt>
<trkpt lat="48.829152" lon="8.958681">
<ele>458.2</ele>
<time>2020-06-02T17:03:36Z</time>
<speed>0.8</speed>
</trkpt>
<trkpt lat="48.829177" lon="8.958602">
<ele>458.4</ele>
<time>2020-06-02T17:03:41Z</time>
<speed>0.6</speed>
</trkpt>
<trkpt lat="48.829182" lon="8.958535">
<ele>457.9</ele>
<time>2020-06-02T17:03:46Z</time>
<speed>0.6</speed>
</trkpt>
<trkpt lat="48.829186" lon="8.958481">
<ele>457.5</ele>
<time>2020-06-02T17:03:51Z</time>
<speed>0.6</speed>
</trkpt>
<trkpt lat="48.829191" lon="8.958412">
<ele>458.4</ele>
<time>2020-06-02T17:03:56Z</time>
<speed>0.6</speed>
</trkpt>
<trkpt lat="48.829175" lon="8.958354">
<ele>458.5</ele>
<time>2020-06-02T17:04:01Z</time>
<speed>0.6</speed>
</trkpt>
<trkpt lat="48.829173" lon="8.958282">
<ele>460.0</ele>
<time>2020-06-02T17:04:06Z</time>
<speed>0.6</speed>
</trkpt>
<trkpt lat="48.829172" lon="8.958213">
<ele>460.2</ele>
<time>2020-06-02T17:04:11Z</time>
<speed>0.8</speed>
</trkpt>
<trkpt lat="48.829165" lon="8.958143">
<ele>459.6</ele>
<time>2020-06-02T17:04:16Z</time>
<speed>0.8</speed>
</trkpt>
<trkpt lat="48.829159" lon="8.958063">
<ele>457.5</ele>
<time>2020-06-02T17:04:21Z</time>
<speed>0.6</speed>
</trkpt>
<trkpt lat="48.829165" lon="8.957998">
<ele>455.5</ele>
<time>2020-06-02T17:04:26Z</time>
<speed>0.8</speed>
</trkpt>
<trkpt lat="48.829151" lon="8.957926">
<ele>455.6</ele>
<time>2020-06-02T17:04:31Z</time>
<speed>0.6</speed>
</trkpt>
<trkpt lat="48.829136" lon="8.957868">
<ele>455.7</ele>
<time>2020-06-02T17:04:36Z</time>
<speed>0.8</speed>
</trkpt>
<trkpt lat="48.829116" lon="8.957797">
<ele>455.0</ele>
<time>2020-06-02T17:04:41Z</time>
<speed>0.8</speed>
</trkpt>
<trkpt lat="48.829087" lon="8.957750">
<ele>455.1</ele>
<time>2020-06-02T17:04:46Z</time>
<speed>0.8</speed>
</trkpt>
<trkpt lat="48.829071" lon="8.957690">
<ele>456.7</ele>
<time>2020-06-02T17:04:51Z</time>
<speed>0.6</speed>
</trkpt>
<trkpt lat="48.829070" lon="8.957620">
<ele>456.8</ele>
<time>2020-06-02T17:04:56Z</time>
<speed>0.6</speed>
</trkpt>
<trkpt lat="48.829056" lon="8.957549">
<ele>456.8</ele>
<time>2020-06-02T17:05:01Z</time>
<speed>0.8</speed>
</trkpt>
<trkpt lat="48.829015" lon="8.957500">
<ele>456.9</ele>
<time>2020-06-02T17:05:06Z</time>
<speed>0.8</speed>
</trkpt>
<trkpt lat="48.828994" lon="8.957442">
<ele>456.3</ele>
<time>2020-06-02T17:05:11Z</time>
<speed>0.8</speed>
</trkpt>
<trkpt lat="48.828935" lon="8.957393">
<ele>454.0</ele>
<time>2020-06-02T17:05:16Z</time>
<speed>0.8</speed>
</trkpt>
<trkpt lat="48.828893" lon="8.957344">
<ele>454.1</ele>
<time>2020-06-02T17:05:21Z</time>
<speed>0.8</speed>
</trkpt>
<trkpt lat="48.828866" lon="8.957284">
<ele>454.1</ele>
<time>2020-06-02T17:05:26Z</time>
<speed>0.6</speed>
</trkpt>
<trkpt lat="48.828852" lon="8.957212">
<ele>454.1</ele>
<time>2020-06-02T17:05:31Z</time>
<speed>0.6</speed>
</trkpt>
<trkpt lat="48.828790" lon="8.957173">
<ele>454.8</ele>
<time>2020-06-02T17:05:36Z</time>
<speed>0.8</speed>
</trkpt>
<trkpt lat="48.828745" lon="8.957097">
<ele>453.9</ele>
<time>2020-06-02T17:05:41Z</time>
<speed>0.8</speed>
</trkpt>
<trkpt lat="48.828717" lon="8.957037">
<ele>453.9</ele>
<time>2020-06-02T17:05:46Z</time>
<speed>0.8</speed>
</trkpt>
<trkpt lat="48.828697" lon="8.956950">
<ele>454.5</ele>
<time>2020-06-02T17:05:51Z</time>
<speed>0.8</speed>
</trkpt>
<trkpt lat="48.828689" lon="8.956878">
<ele>455.3</ele>
<time>2020-06-02T17:05:56Z</time>
<speed>0.6</speed>
</trkpt>
<trkpt lat="48.828697" lon="8.956784">
<ele>454.6</ele>
<time>2020-06-02T17:06:01Z</time>
<speed>0.8</speed>
</trkpt>
<trkpt lat="48.828646" lon="8.956711">
<ele>451.5</ele>
<time>2020-06-02T17:06:06Z</time>
<speed>0.6</speed>
</trkpt>
<trkpt lat="48.828634" lon="8.956612">
<ele>451.4</ele>
<time>2020-06-02T17:06:11Z</time>
<speed>0.6</speed>
</trkpt>
<trkpt lat="48.828640" lon="8.956529">
<ele>452.1</ele>
<time>2020-06-02T17:06:16Z</time>
<speed>0.6</speed>
</trkpt>
<trkpt lat="48.828625" lon="8.956440">
<ele>454.9</ele>
<time>2020-06-02T17:06:21Z</time>
<speed>0.8</speed>
</trkpt>
<trkpt lat="48.828646" lon="8.956332">
<ele>455.6</ele>
<time>2020-06-02T17:06:26Z</time>
<speed>0.8</speed>
</trkpt>
<trkpt lat="48.828658" lon="8.956236">
<ele>457.0</ele>
<time>2020-06-02T17:06:31Z</time>
<speed>0.8</speed>
</trkpt>
<trkpt lat="48.828699" lon="8.956135">
<ele>455.7</ele>
<time>2020-06-02T17:06:36Z</time>
<speed>1.1</speed>
</trkpt>
<trkpt lat="48.828739" lon="8.956049">
<ele>453.2</ele>
<time>2020-06-02T17:06:41Z</time>
<speed>0.8</speed>
</trkpt>
<trkpt lat="48.828785" lon="8.955948">
<ele>452.7</ele>
<time>2020-06-02T17:06:46Z</time>
<speed>1.1</speed>
</trkpt>
<trkpt lat="48.828835" lon="8.955874">
<ele>453.1</ele>
<time>2020-06-02T17:06:51Z</time>
<speed>0.8</speed>
</trkpt>
<trkpt lat="48.828885" lon="8.955815">
<ele>452.2</ele>
<time>2020-06-02T17:06:56Z</time>
<speed>0.8</speed>
</trkpt>
<trkpt lat="48.828933" lon="8.955770">
<ele>451.5</ele>
<time>2020-06-02T17:07:01Z</time>
<speed>0.8</speed>
</trkpt>
<trkpt lat="48.828987" lon="8.955738">
<ele>451.6</ele>
<time>2020-06-02T17:07:06Z</time>
<speed>1.1</speed>
</trkpt>
<trkpt lat="48.829049" lon="8.955697">
<ele>449.5</ele>
<time>2020-06-02T17:07:11Z</time>
<speed>0.8</speed>
</trkpt>
<trkpt lat="48.829095" lon="8.955694">
<ele>447.7</ele>
<time>2020-06-02T17:07:16Z</time>
<speed>0.3</speed>
</trkpt>
<trkpt lat="48.829134" lon="8.955687">
<ele>447.9</ele>
<time>2020-06-02T17:07:21Z</time>
<speed>0.3</speed>
</trkpt>
<trkpt lat="48.829182" lon="8.955655">
<ele>447.3</ele>
<time>2020-06-02T17:07:26Z</time>
<speed>0.6</speed>
</trkpt>
<trkpt lat="48.829245" lon="8.955665">
<ele>447.8</ele>
<time>2020-06-02T17:07:31Z</time>
<speed>0.6</speed>
</trkpt>
<trkpt lat="48.829309" lon="8.955647">
<ele>449.5</ele>
<time>2020-06-02T17:07:36Z</time>
<speed>0.8</speed>
</trkpt>
<trkpt lat="48.829352" lon="8.955651">
<ele>451.9</ele>
<time>2020-06-02T17:07:41Z</time>
<speed>0.8</speed>
</trkpt>
<trkpt lat="48.829402" lon="8.955673">
<ele>452.4</ele>
<time>2020-06-02T17:07:46Z</time>
<speed>0.3</speed>
</trkpt>
<trkpt lat="48.829444" lon="8.955693">
<ele>453.6</ele>
<time>2020-06-02T17:07:51Z</time>
<speed>0.6</speed>
</trkpt>
<trkpt lat="48.829480" lon="8.955711">
<ele>455.4</ele>
<time>2020-06-02T17:07:56Z</time>
<speed>0.8</speed>
</trkpt>
<trkpt lat="48.829510" lon="8.955728">
<ele>456.5</ele>
<time>2020-06-02T17:08:01Z</time>
<speed>0.6</speed>
</trkpt>
<trkpt lat="48.829534" lon="8.955759">
<ele>456.9</ele>
<time>2020-06-02T17:08:06Z</time>
<speed>0.6</speed>
</trkpt>
<trkpt lat="48.829575" lon="8.955793">
<ele>458.2</ele>
<time>2020-06-02T17:08:11Z</time>
<speed>0.6</speed>
</trkpt>
<trkpt lat="48.829637" lon="8.955817">
<ele>458.8</ele>
<time>2020-06-02T17:08:16Z</time>
<speed>0.8</speed>
</trkpt>
<trkpt lat="48.829687" lon="8.955841">
<ele>457.9</ele>
<time>2020-06-02T17:08:21Z</time>
<speed>0.6</speed>
</trkpt>
<trkpt lat="48.829736" lon="8.955878">
<ele>457.1</ele>
<time>2020-06-02T17:08:26Z</time>
<speed>0.6</speed>
</trkpt>
<trkpt lat="48.829778" lon="8.955912">
<ele>458.4</ele>
<time>2020-06-02T17:08:31Z</time>
<speed>0.6</speed>
</trkpt>
<trkpt lat="48.829827" lon="8.955949">
<ele>457.6</ele>
<time>2020-06-02T17:08:36Z</time>
<speed>0.8</speed>
</trkpt>
<trkpt lat="48.829850" lon="8.955965">
<ele>459.3</ele>
<time>2020-06-02T17:08:41Z</time>
<speed>0.6</speed>
</trkpt>
<trkpt lat="48.829913" lon="8.955975">
<ele>459.8</ele>
<time>2020-06-02T17:08:46Z</time>
<speed>0.8</speed>
</trkpt>
<trkpt lat="48.829971" lon="8.955986">
<ele>459.6</ele>
<time>2020-06-02T17:08:51Z</time>
<speed>0.6</speed>
</trkpt>
<trkpt lat="48.830054" lon="8.956003">
<ele>458.1</ele>
<time>2020-06-02T17:08:56Z</time>
<speed>0.8</speed>
</trkpt>
<trkpt lat="48.830138" lon="8.955991">
<ele>457.9</ele>
<time>2020-06-02T17:09:01Z</time>
<speed>0.8</speed>
</trkpt>
<trkpt lat="48.830184" lon="8.955988">
<ele>456.0</ele>
<time>2020-06-02T17:09:06Z</time>
<speed>0.8</speed>
</trkpt>
<trkpt lat="48.830236" lon="8.956001">
<ele>453.6</ele>
<time>2020-06-02T17:09:11Z</time>
<speed>0.8</speed>
</trkpt>
<trkpt lat="48.830284" lon="8.955984">
<ele>451.7</ele>
<time>2020-06-02T17:09:16Z</time>
<speed>0.8</speed>
</trkpt>
<trkpt lat="48.830346" lon="8.955959">
<ele>448.3</ele>
<time>2020-06-02T17:09:21Z</time>
<speed>1.1</speed>
</trkpt>
<trkpt lat="48.830388" lon="8.955913">
<ele>446.8</ele>
<time>2020-06-02T17:09:26Z</time>
<speed>0.8</speed>
</trkpt>
<trkpt lat="48.830419" lon="8.955868">
<ele>443.8</ele>
<time>2020-06-02T17:09:31Z</time>
<speed>0.8</speed>
</trkpt>
<trkpt lat="48.830444" lon="8.955821">
<ele>441.5</ele>
<time>2020-06-02T17:09:36Z</time>
<speed>0.6</speed>
</trkpt>
<trkpt lat="48.830452" lon="8.955794">
<ele>442.0</ele>
<time>2020-06-02T17:09:41Z</time>
<speed>0.6</speed>
</trkpt>
<trkpt lat="48.830469" lon="8.955726">
<ele>443.0</ele>
<time>2020-06-02T17:09:46Z</time>
<speed>0.8</speed>
</trkpt>
<trkpt lat="48.830493" lon="8.955663">
<ele>441.9</ele>
<time>2020-06-02T17:09:51Z</time>
<speed>0.0</speed>
</trkpt>
<trkpt lat="48.830509" lon="8.955625">
<ele>441.7</ele>
<time>2020-06-02T17:09:56Z</time>
<speed>0.6</speed>
</trkpt>
<trkpt lat="48.830541" lon="8.955549">
<ele>441.3</ele>
<time>2020-06-02T17:10:01Z</time>
<speed>0.8</speed>
</trkpt>
<trkpt lat="48.830566" lon="8.955472">
<ele>440.2</ele>
<time>2020-06-02T17:10:06Z</time>
<speed>0.6</speed>
</trkpt>
<trkpt lat="48.830584" lon="8.955407">
<ele>439.7</ele>
<time>2020-06-02T17:10:11Z</time>
<speed>0.8</speed>
</trkpt>
<trkpt lat="48.830594" lon="8.955338">
<ele>441.4</ele>
<time>2020-06-02T17:10:16Z</time>
<speed>0.6</speed>
</trkpt>
<trkpt lat="48.830601" lon="8.955241">
<ele>442.1</ele>
<time>2020-06-02T17:10:21Z</time>
<speed>0.8</speed>
</trkpt>
<trkpt lat="48.830619" lon="8.955161">
<ele>443.0</ele>
<time>2020-06-02T17:10:26Z</time>
<speed>0.8</speed>
</trkpt>
<trkpt lat="48.830638" lon="8.955082">
<ele>442.5</ele>
<time>2020-06-02T17:10:31Z</time>
<speed>0.8</speed>
</trkpt>
<trkpt lat="48.830642" lon="8.955028">
<ele>442.0</ele>
<time>2020-06-02T17:10:36Z</time>
<speed>0.6</speed>
</trkpt>
<trkpt lat="48.830660" lon="8.954963">
<ele>441.6</ele>
<time>2020-06-02T17:10:41Z</time>
<speed>0.8</speed>
</trkpt>
<trkpt lat="48.830658" lon="8.954907">
<ele>441.9</ele>
<time>2020-06-02T17:10:46Z</time>
<speed>0.6</speed>
</trkpt>
<trkpt lat="48.830657" lon="8.954840">
<ele>440.6</ele>
<time>2020-06-02T17:10:51Z</time>
<speed>0.8</speed>
</trkpt>
<trkpt lat="48.830650" lon="8.954771">
<ele>440.0</ele>
<time>2020-06-02T17:10:56Z</time>
<speed>0.8</speed>
</trkpt>
<trkpt lat="48.830649" lon="8.954688">
<ele>440.0</ele>
<time>2020-06-02T17:11:01Z</time>
<speed>0.8</speed>
</trkpt>
<trkpt lat="48.830657" lon="8.954594">
<ele>439.3</ele>
<time>2020-06-02T17:11:06Z</time>
<speed>0.8</speed>
</trkpt>
<trkpt lat="48.830651" lon="8.954511">
<ele>438.6</ele>
<time>2020-06-02T17:11:11Z</time>
<speed>0.8</speed>
</trkpt>
<trkpt lat="48.830645" lon="8.954414">
<ele>437.8</ele>
<time>2020-06-02T17:11:16Z</time>
<speed>1.1</speed>
</trkpt>
<trkpt lat="48.830638" lon="8.954329">
<ele>438.5</ele>
<time>2020-06-02T17:11:21Z</time>
<speed>0.8</speed>
</trkpt>
<trkpt lat="48.830639" lon="8.954249">
<ele>437.1</ele>
<time>2020-06-02T17:11:26Z</time>
<speed>0.8</speed>
</trkpt>
<trkpt lat="48.830645" lon="8.954168">
<ele>436.5</ele>
<time>2020-06-02T17:11:31Z</time>
<speed>0.8</speed>
</trkpt>
<trkpt lat="48.830651" lon="8.954087">
<ele>435.9</ele>
<time>2020-06-02T17:11:36Z</time>
<speed>0.8</speed>
</trkpt>
<trkpt lat="48.830639" lon="8.954004">
<ele>434.4</ele>
<time>2020-06-02T17:11:41Z</time>
<speed>1.1</speed>
</trkpt>
<trkpt lat="48.830618" lon="8.953946">
<ele>433.8</ele>
<time>2020-06-02T17:11:46Z</time>
<speed>0.8</speed>
</trkpt>
<trkpt lat="48.830604" lon="8.953890">
<ele>432.5</ele>
<time>2020-06-02T17:11:51Z</time>
<speed>0.8</speed>
</trkpt>
<trkpt lat="48.830586" lon="8.953808">
<ele>430.3</ele>
<time>2020-06-02T17:11:56Z</time>
<speed>1.1</speed>
</trkpt>
<trkpt lat="48.830582" lon="8.953700">
<ele>428.0</ele>
<time>2020-06-02T17:12:01Z</time>
<speed>0.8</speed>
</trkpt>
<trkpt lat="48.830577" lon="8.953604">
<ele>427.1</ele>
<time>2020-06-02T17:12:06Z</time>
<speed>1.4</speed>
</trkpt>
<trkpt lat="48.830573" lon="8.953494">
<ele>426.2</ele>
<time>2020-06-02T17:12:11Z</time>
<speed>0.6</speed>
</trkpt>
<trkpt lat="48.830580" lon="8.953400">
<ele>425.5</ele>
<time>2020-06-02T17:12:16Z</time>
<speed>0.8</speed>
</trkpt>
<trkpt lat="48.830573" lon="8.953315">
<ele>426.2</ele>
<time>2020-06-02T17:12:21Z</time>
<speed>0.6</speed>
</trkpt>
<trkpt lat="48.830574" lon="8.953286">
<ele>427.4</ele>
<time>2020-06-02T17:12:26Z</time>
<speed>0.0</speed>
</trkpt>
<trkpt lat="48.830567" lon="8.953282">
<ele>429.4</ele>
<time>2020-06-02T17:12:31Z</time>
<speed>0.0</speed>
</trkpt>
<trkpt lat="48.830575" lon="8.953270">
<ele>428.7</ele>
<time>2020-06-02T17:12:36Z</time>
<speed>0.6</speed>
</trkpt>
<trkpt lat="48.830593" lon="8.953288">
<ele>428.2</ele>
<time>2020-06-02T17:12:41Z</time>
<speed>0.6</speed>
</trkpt>
<trkpt lat="48.830612" lon="8.953292">
<ele>427.7</ele>
<time>2020-06-02T17:12:46Z</time>
<speed>0.6</speed>
</trkpt>
<trkpt lat="48.830630" lon="8.953325">
<ele>426.0</ele>
<time>2020-06-02T17:12:51Z</time>
<speed>1.1</speed>
</trkpt>
<trkpt lat="48.830652" lon="8.953386">
<ele>425.2</ele>
<time>2020-06-02T17:12:56Z</time>
<speed>0.6</speed>
</trkpt>
<trkpt lat="48.830687" lon="8.953434">
<ele>424.4</ele>
<time>2020-06-02T17:13:01Z</time>
<speed>0.3</speed>
</trkpt>
<trkpt lat="48.830702" lon="8.953394">
<ele>425.6</ele>
<time>2020-06-02T17:13:06Z</time>
<speed>0.8</speed>
</trkpt>
<trkpt lat="48.830672" lon="8.953359">
<ele>427.2</ele>
<time>2020-06-02T17:13:11Z</time>
<speed>0.6</speed>
</trkpt>
<trkpt lat="48.830665" lon="8.953289">
<ele>426.6</ele>
<time>2020-06-02T17:13:16Z</time>
<speed>0.6</speed>
</trkpt>
<trkpt lat="48.830649" lon="8.953231">
<ele>426.7</ele>
<time>2020-06-02T17:13:21Z</time>
<speed>0.8</speed>
</trkpt>
<trkpt lat="48.830634" lon="8.953173">
<ele>426.9</ele>
<time>2020-06-02T17:13:26Z</time>
<speed>0.8</speed>
</trkpt>
<trkpt lat="48.830679" lon="8.953099">
<ele>426.6</ele>
<time>2020-06-02T17:13:31Z</time>
<speed>0.6</speed>
</trkpt>
<trkpt lat="48.830737" lon="8.953031">
<ele>423.6</ele>
<time>2020-06-02T17:13:36Z</time>
<speed>0.6</speed>
</trkpt>
<trkpt lat="48.830763" lon="8.953022">
<ele>423.7</ele>
<time>2020-06-02T17:13:41Z</time>
<speed>0.0</speed>
</trkpt>
<trkpt lat="48.830752" lon="8.953006">
<ele>423.5</ele>
<time>2020-06-02T17:13:46Z</time>
<speed>0.0</speed>
</trkpt>
<trkpt lat="48.830752" lon="8.953006">
<ele>423.5</ele>
<time>2020-06-02T17:13:51Z</time>
<speed>0.0</speed>
</trkpt>
<trkpt lat="48.830752" lon="8.953006">
<ele>423.5</ele>
<time>2020-06-02T17:13:56Z</time>
<speed>0.0</speed>
</trkpt>
<trkpt lat="48.830752" lon="8.953006">
<ele>423.5</ele>
<time>2020-06-02T17:14:01Z</time>
<speed>0.0</speed>
</trkpt>
<trkpt lat="48.830752" lon="8.953006">
<ele>423.5</ele>
<time>2020-06-02T17:14:06Z</time>
<speed>0.0</speed>
</trkpt>
<trkpt lat="48.830752" lon="8.953006">
<ele>423.5</ele>
<time>2020-06-02T17:14:11Z</time>
<speed>0.0</speed>
</trkpt>
<trkpt lat="48.830752" lon="8.953006">
<ele>423.5</ele>
<time>2020-06-02T17:14:16Z</time>
<speed>0.0</speed>
</trkpt>
<trkpt lat="48.830752" lon="8.953006">
<ele>423.5</ele>
<time>2020-06-02T17:14:21Z</time>
<speed>0.0</speed>
</trkpt>
<trkpt lat="48.830752" lon="8.953006">
<ele>423.5</ele>
<time>2020-06-02T17:14:26Z</time>
<speed>0.0</speed>
</trkpt>
<trkpt lat="48.830752" lon="8.953006">
<ele>423.5</ele>
<time>2020-06-02T17:14:31Z</time>
<speed>0.0</speed>
</trkpt>
<trkpt lat="48.830752" lon="8.953006">
<ele>423.5</ele>
<time>2020-06-02T17:14:36Z</time>
<speed>0.0</speed>
</trkpt>
<trkpt lat="48.830752" lon="8.953006">
<ele>423.5</ele>
<time>2020-06-02T17:14:41Z</time>
<speed>0.0</speed>
</trkpt>
<trkpt lat="48.830752" lon="8.953006">
<ele>423.5</ele>
<time>2020-06-02T17:14:46Z</time>
<speed>0.0</speed>
</trkpt>
<trkpt lat="48.830752" lon="8.953006">
<ele>423.5</ele>
<time>2020-06-02T17:14:51Z</time>
<speed>0.0</speed>
</trkpt>
<trkpt lat="48.830752" lon="8.953006">
<ele>423.5</ele>
<time>2020-06-02T17:14:56Z</time>
<speed>0.0</speed>
</trkpt>
<trkpt lat="48.830752" lon="8.953006">
<ele>423.5</ele>
<time>2020-06-02T17:15:01Z</time>
<speed>0.0</speed>
</trkpt>
<trkpt lat="48.830752" lon="8.953006">
<ele>423.5</ele>
<time>2020-06-02T17:15:06Z</time>
<speed>0.0</speed>
</trkpt>
<trkpt lat="48.830752" lon="8.953006">
<ele>423.5</ele>
<time>2020-06-02T17:15:11Z</time>
<speed>0.0</speed>
</trkpt>
<trkpt lat="48.830752" lon="8.953006">
<ele>423.5</ele>
<time>2020-06-02T17:15:16Z</time>
<speed>0.0</speed>
</trkpt>
<trkpt lat="48.830752" lon="8.953006">
<ele>423.5</ele>
<time>2020-06-02T17:15:21Z</time>
<speed>0.0</speed>
</trkpt>
<trkpt lat="48.830752" lon="8.953006">
<ele>423.5</ele>
<time>2020-06-02T17:15:26Z</time>
<speed>0.0</speed>
</trkpt>
<trkpt lat="48.830753" lon="8.952993">
<ele>423.4</ele>
<time>2020-06-02T17:15:31Z</time>
<speed>0.0</speed>
</trkpt>
<trkpt lat="48.830753" lon="8.952993">
<ele>423.4</ele>
<time>2020-06-02T17:15:36Z</time>
<speed>0.0</speed>
</trkpt>
<trkpt lat="48.830753" lon="8.952993">
<ele>423.4</ele>
<time>2020-06-02T17:15:41Z</time>
<speed>0.0</speed>
</trkpt>
<trkpt lat="48.830753" lon="8.952993">
<ele>423.4</ele>
<time>2020-06-02T17:15:46Z</time>
<speed>0.0</speed>
</trkpt>
<trkpt lat="48.830766" lon="8.952981">
<ele>423.4</ele>
<time>2020-06-02T17:15:51Z</time>
<speed>0.6</speed>
</trkpt>
<trkpt lat="48.830797" lon="8.953001">
<ele>423.0</ele>
<time>2020-06-02T17:15:56Z</time>
<speed>0.6</speed>
</trkpt>
<trkpt lat="48.830810" lon="8.953003">
<ele>423.1</ele>
<time>2020-06-02T17:16:01Z</time>
<speed>0.3</speed>
</trkpt>
<trkpt lat="48.830829" lon="8.953007">
<ele>422.6</ele>
<time>2020-06-02T17:16:06Z</time>
<speed>0.3</speed>
</trkpt>
<trkpt lat="48.830854" lon="8.953012">
<ele>422.8</ele>
<time>2020-06-02T17:16:11Z</time>
<speed>0.3</speed>
</trkpt>
<trkpt lat="48.830866" lon="8.953027">
<ele>423.0</ele>
<time>2020-06-02T17:16:16Z</time>
<speed>0.3</speed>
</trkpt>
<trkpt lat="48.830920" lon="8.953080">
<ele>421.6</ele>
<time>2020-06-02T17:16:21Z</time>
<speed>0.6</speed>
</trkpt>
<trkpt lat="48.831070" lon="8.953233">
<ele>420.3</ele>
<time>2020-06-02T17:16:26Z</time>
<speed>0.8</speed>
</trkpt>
<trkpt lat="48.831072" lon="8.953269">
<ele>424.2</ele>
<time>2020-06-02T17:16:31Z</time>
<speed>0.8</speed>
</trkpt>
<trkpt lat="48.831111" lon="8.953314">
<ele>427.0</ele>
<time>2020-06-02T17:16:36Z</time>
<speed>0.6</speed>
</trkpt>
<trkpt lat="48.831139" lon="8.953359">
<ele>428.2</ele>
<time>2020-06-02T17:16:41Z</time>
<speed>0.3</speed>
</trkpt>
<trkpt lat="48.831182" lon="8.953394">
<ele>428.1</ele>
<time>2020-06-02T17:16:46Z</time>
<speed>0.6</speed>
</trkpt>
<trkpt lat="48.831225" lon="8.953414">
<ele>429.3</ele>
<time>2020-06-02T17:16:51Z</time>
<speed>0.6</speed>
</trkpt>
<trkpt lat="48.831262" lon="8.953436">
<ele>428.3</ele>
<time>2020-06-02T17:16:56Z</time>
<speed>0.0</speed>
</trkpt>
<trkpt lat="48.831262" lon="8.953436">
<ele>428.3</ele>
<time>2020-06-02T17:17:01Z</time>
<speed>0.0</speed>
</trkpt>
<trkpt lat="48.831262" lon="8.953436">
<ele>428.3</ele>
<time>2020-06-02T17:17:06Z</time>
<speed>0.0</speed>
</trkpt>
<trkpt lat="48.831262" lon="8.953436">
<ele>428.3</ele>
<time>2020-06-02T17:17:11Z</time>
<speed>0.0</speed>
</trkpt>
<trkpt lat="48.831262" lon="8.953436">
<ele>428.3</ele>
<time>2020-06-02T17:17:16Z</time>
<speed>0.0</speed>
</trkpt>
<trkpt lat="48.831262" lon="8.953436">
<ele>428.3</ele>
<time>2020-06-02T17:17:21Z</time>
<speed>0.0</speed>
</trkpt>
<trkpt lat="48.831269" lon="8.953438">
<ele>427.6</ele>
<time>2020-06-02T17:17:26Z</time>
<speed>0.0</speed>
</trkpt>
<trkpt lat="48.831269" lon="8.953438">
<ele>427.6</ele>
<time>2020-06-02T17:17:31Z</time>
<speed>0.0</speed>
</trkpt>
<trkpt lat="48.831292" lon="8.953487">
<ele>425.3</ele>
<time>2020-06-02T17:17:36Z</time>
<speed>0.6</speed>
</trkpt>
<trkpt lat="48.831281" lon="8.953538">
<ele>426.4</ele>
<time>2020-06-02T17:17:41Z</time>
<speed>0.0</speed>
</trkpt>
<trkpt lat="48.831281" lon="8.953538">
<ele>426.4</ele>
<time>2020-06-02T17:17:46Z</time>
<speed>0.0</speed>
</trkpt>
<trkpt lat="48.831301" lon="8.953543">
<ele>425.8</ele>
<time>2020-06-02T17:17:51Z</time>
<speed>0.6</speed>
</trkpt>
<trkpt lat="48.831325" lon="8.953545">
<ele>427.4</ele>
<time>2020-06-02T17:17:56Z</time>
<speed>0.8</speed>
</trkpt>
<trkpt lat="48.831354" lon="8.953560">
<ele>429.9</ele>
<time>2020-06-02T17:18:01Z</time>
<speed>0.6</speed>
</trkpt>
<trkpt lat="48.831392" lon="8.953564">
<ele>431.6</ele>
<time>2020-06-02T17:18:06Z</time>
<speed>0.8</speed>
</trkpt>
<trkpt lat="48.831433" lon="8.953582">
<ele>434.2</ele>
<time>2020-06-02T17:18:11Z</time>
<speed>0.6</speed>
</trkpt>
<trkpt lat="48.831469" lon="8.953598">
<ele>437.4</ele>
<time>2020-06-02T17:18:16Z</time>
<speed>0.3</speed>
</trkpt>
<trkpt lat="48.831515" lon="8.953629">
<ele>440.8</ele>
<time>2020-06-02T17:18:21Z</time>
<speed>0.6</speed>
</trkpt>
<trkpt lat="48.831551" lon="8.953644">
<ele>444.0</ele>
<time>2020-06-02T17:18:26Z</time>
<speed>0.3</speed>
</trkpt>
<trkpt lat="48.831564" lon="8.953649">
<ele>442.7</ele>
<time>2020-06-02T17:18:31Z</time>
<speed>0.0</speed>
</trkpt>
<trkpt lat="48.831563" lon="8.953662">
<ele>442.8</ele>
<time>2020-06-02T17:18:36Z</time>
<speed>0.0</speed>
</trkpt>
<trkpt lat="48.831587" lon="8.953680">
<ele>443.2</ele>
<time>2020-06-02T17:18:41Z</time>
<speed>0.6</speed>
</trkpt>
<trkpt lat="48.831616" lon="8.953711">
<ele>444.3</ele>
<time>2020-06-02T17:18:46Z</time>
<speed>0.0</speed>
</trkpt>
<trkpt lat="48.831666" lon="8.953733">
<ele>444.8</ele>
<time>2020-06-02T17:18:51Z</time>
<speed>0.3</speed>
</trkpt>
<trkpt lat="48.831660" lon="8.953733">
<ele>444.1</ele>
<time>2020-06-02T17:18:56Z</time>
<speed>0.0</speed>
</trkpt>
<trkpt lat="48.831692" lon="8.953741">
<ele>442.2</ele>
<time>2020-06-02T17:19:01Z</time>
<speed>0.3</speed>
</trkpt>
<trkpt lat="48.831735" lon="8.953777">
<ele>442.1</ele>
<time>2020-06-02T17:19:06Z</time>
<speed>0.3</speed>
</trkpt>
<trkpt lat="48.831783" lon="8.953828">
<ele>441.4</ele>
<time>2020-06-02T17:19:11Z</time>
<speed>0.8</speed>
</trkpt>
<trkpt lat="48.831837" lon="8.953896">
<ele>438.8</ele>
<time>2020-06-02T17:19:16Z</time>
<speed>0.8</speed>
</trkpt>
<trkpt lat="48.831906" lon="8.953938">
<ele>437.4</ele>
<time>2020-06-02T17:19:21Z</time>
<speed>0.8</speed>
</trkpt>
<trkpt lat="48.831961" lon="8.953960">
<ele>438.7</ele>
<time>2020-06-02T17:19:26Z</time>
<speed>0.8</speed>
</trkpt>
<trkpt lat="48.832008" lon="8.954009">
<ele>439.4</ele>
<time>2020-06-02T17:19:31Z</time>
<speed>0.6</speed>
</trkpt>
<trkpt lat="48.832045" lon="8.954029">
<ele>439.8</ele>
<time>2020-06-02T17:19:36Z</time>
<speed>0.6</speed>
</trkpt>
<trkpt lat="48.832051" lon="8.954029">
<ele>440.6</ele>
<time>2020-06-02T17:19:41Z</time>
<speed>0.0</speed>
</trkpt>
<trkpt lat="48.832106" lon="8.954068">
<ele>439.1</ele>
<time>2020-06-02T17:19:46Z</time>
<speed>0.8</speed>
</trkpt>
<trkpt lat="48.832150" lon="8.954106">
<ele>437.6</ele>
<time>2020-06-02T17:19:51Z</time>
<speed>0.8</speed>
</trkpt>
<trkpt lat="48.832205" lon="8.954143">
<ele>437.6</ele>
<time>2020-06-02T17:19:56Z</time>
<speed>0.6</speed>
</trkpt>
<trkpt lat="48.832278" lon="8.954167">
<ele>439.7</ele>
<time>2020-06-02T17:20:01Z</time>
<speed>0.8</speed>
</trkpt>
<trkpt lat="48.832320" lon="8.954201">
<ele>440.9</ele>
<time>2020-06-02T17:20:06Z</time>
<speed>0.8</speed>
</trkpt>
<trkpt lat="48.832388" lon="8.954225">
<ele>442.3</ele>
<time>2020-06-02T17:20:11Z</time>
<speed>0.6</speed>
</trkpt>
<trkpt lat="48.832389" lon="8.954227">
<ele>440.9</ele>
<time>2020-06-02T17:20:16Z</time>
<speed>0.0</speed>
</trkpt>
<trkpt lat="48.832420" lon="8.954231">
<ele>441.9</ele>
<time>2020-06-02T17:20:21Z</time>
<speed>0.6</speed>
</trkpt>
<trkpt lat="48.832470" lon="8.954240">
<ele>442.3</ele>
<time>2020-06-02T17:20:26Z</time>
<speed>0.8</speed>
</trkpt>
<trkpt lat="48.832545" lon="8.954281">
<ele>441.7</ele>
<time>2020-06-02T17:20:31Z</time>
<speed>1.1</speed>
</trkpt>
<trkpt lat="48.832595" lon="8.954305">
<ele>440.8</ele>
<time>2020-06-02T17:20:36Z</time>
<speed>0.6</speed>
</trkpt>
<trkpt lat="48.832650" lon="8.954343">
<ele>440.8</ele>
<time>2020-06-02T17:20:41Z</time>
<speed>1.4</speed>
</trkpt>
<trkpt lat="48.832706" lon="8.954367">
<ele>440.6</ele>
<time>2020-06-02T17:20:46Z</time>
<speed>0.6</speed>
</trkpt>
<trkpt lat="48.832755" lon="8.954404">
<ele>439.8</ele>
<time>2020-06-02T17:20:51Z</time>
<speed>0.8</speed>
</trkpt>
<trkpt lat="48.832810" lon="8.954442">
<ele>439.8</ele>
<time>2020-06-02T17:20:56Z</time>
<speed>0.6</speed>
</trkpt>
<trkpt lat="48.832867" lon="8.954453">
<ele>439.6</ele>
<time>2020-06-02T17:21:01Z</time>
<speed>0.8</speed>
</trkpt>
<trkpt lat="48.832909" lon="8.954488">
<ele>439.4</ele>
<time>2020-06-02T17:21:06Z</time>
<speed>0.3</speed>
</trkpt>
<trkpt lat="48.832953" lon="8.954525">
<ele>437.9</ele>
<time>2020-06-02T17:21:11Z</time>
<speed>0.3</speed>
</trkpt>
<trkpt lat="48.832996" lon="8.954563">
<ele>436.4</ele>
<time>2020-06-02T17:21:16Z</time>
<speed>0.6</speed>
</trkpt>
<trkpt lat="48.833075" lon="8.954636">
<ele>433.9</ele>
<time>2020-06-02T17:21:21Z</time>
<speed>0.8</speed>
</trkpt>
<trkpt lat="48.833138" lon="8.954662">
<ele>433.1</ele>
<time>2020-06-02T17:21:26Z</time>
<speed>0.6</speed>
</trkpt>
<trkpt lat="48.833203" lon="8.954742">
<ele>433.5</ele>
<time>2020-06-02T17:21:31Z</time>
<speed>0.8</speed>
</trkpt>
<trkpt lat="48.833246" lon="8.954847">
<ele>433.2</ele>
<time>2020-06-02T17:21:36Z</time>
<speed>1.1</speed>
</trkpt>
<trkpt lat="48.833251" lon="8.954957">
<ele>434.2</ele>
<time>2020-06-02T17:21:41Z</time>
<speed>0.8</speed>
</trkpt>
<trkpt lat="48.833253" lon="8.955012">
<ele>433.9</ele>
<time>2020-06-02T17:21:46Z</time>
<speed>0.8</speed>
</trkpt>
<trkpt lat="48.833285" lon="8.955133">
<ele>430.8</ele>
<time>2020-06-02T17:21:51Z</time>
<speed>1.1</speed>
</trkpt>
<trkpt lat="48.833310" lon="8.955236">
<ele>429.7</ele>
<time>2020-06-02T17:21:56Z</time>
<speed>0.6</speed>
</trkpt>
<trkpt lat="48.833292" lon="8.955332">
<ele>427.5</ele>
<time>2020-06-02T17:22:01Z</time>
<speed>1.1</speed>
</trkpt>
<trkpt lat="48.833296" lon="8.955444">
<ele>427.0</ele>
<time>2020-06-02T17:22:06Z</time>
<speed>0.8</speed>
</trkpt>
<trkpt lat="48.833302" lon="8.955542">
<ele>426.4</ele>
<time>2020-06-02T17:22:11Z</time>
<speed>1.1</speed>
</trkpt>
<trkpt lat="48.833296" lon="8.955656">
<ele>423.1</ele>
<time>2020-06-02T17:22:16Z</time>
<speed>1.1</speed>
</trkpt>
<trkpt lat="48.833297" lon="8.955739">
<ele>423.0</ele>
<time>2020-06-02T17:22:21Z</time>
<speed>0.8</speed>
</trkpt>
<trkpt lat="48.833304" lon="8.955824">
<ele>422.3</ele>
<time>2020-06-02T17:22:26Z</time>
<speed>0.6</speed>
</trkpt>
<trkpt lat="48.833291" lon="8.955905">
<ele>422.2</ele>
<time>2020-06-02T17:22:31Z</time>
<speed>0.8</speed>
</trkpt>
<trkpt lat="48.833275" lon="8.955974">
<ele>419.8</ele>
<time>2020-06-02T17:22:36Z</time>
<speed>0.8</speed>
</trkpt>
<trkpt lat="48.833281" lon="8.956072">
<ele>419.2</ele>
<time>2020-06-02T17:22:41Z</time>
<speed>0.8</speed>
</trkpt>
<trkpt lat="48.833275" lon="8.956169">
<ele>418.5</ele>
<time>2020-06-02T17:22:46Z</time>
<speed>0.8</speed>
</trkpt>
<trkpt lat="48.833233" lon="8.956218">
<ele>417.2</ele>
<time>2020-06-02T17:22:51Z</time>
<speed>0.8</speed>
</trkpt>
<trkpt lat="48.833227" lon="8.956283">
<ele>419.1</ele>
<time>2020-06-02T17:22:56Z</time>
<speed>0.8</speed>
</trkpt>
<trkpt lat="48.833208" lon="8.956360">
<ele>421.1</ele>
<time>2020-06-02T17:23:01Z</time>
<speed>0.8</speed>
</trkpt>
<trkpt lat="48.833202" lon="8.956425">
<ele>423.0</ele>
<time>2020-06-02T17:23:06Z</time>
<speed>0.8</speed>
</trkpt>
<trkpt lat="48.833189" lon="8.956504">
<ele>424.2</ele>
<time>2020-06-02T17:23:11Z</time>
<speed>0.6</speed>
</trkpt>
<trkpt lat="48.833197" lon="8.956575">
<ele>423.5</ele>
<time>2020-06-02T17:23:16Z</time>
<speed>0.6</speed>
</trkpt>
<trkpt lat="48.833184" lon="8.956656">
<ele>423.3</ele>
<time>2020-06-02T17:23:21Z</time>
<speed>0.6</speed>
</trkpt>
<trkpt lat="48.833190" lon="8.956754">
<ele>422.7</ele>
<time>2020-06-02T17:23:26Z</time>
<speed>0.8</speed>
</trkpt>
<trkpt lat="48.833222" lon="8.956859">
<ele>421.0</ele>
<time>2020-06-02T17:23:31Z</time>
<speed>1.1</speed>
</trkpt>
<trkpt lat="48.833203" lon="8.956953">
<ele>420.2</ele>
<time>2020-06-02T17:23:36Z</time>
<speed>1.1</speed>
</trkpt>
<trkpt lat="48.833202" lon="8.957047">
<ele>421.6</ele>
<time>2020-06-02T17:23:41Z</time>
<speed>0.8</speed>
</trkpt>
<trkpt lat="48.833206" lon="8.957142">
<ele>423.9</ele>
<time>2020-06-02T17:23:46Z</time>
<speed>0.3</speed>
</trkpt>
<trkpt lat="48.833192" lon="8.957153">
<ele>423.9</ele>
<time>2020-06-02T17:23:51Z</time>
<speed>0.6</speed>
</trkpt>
<trkpt lat="48.833167" lon="8.957229">
<ele>425.0</ele>
<time>2020-06-02T17:23:56Z</time>
<speed>0.8</speed>
</trkpt>
<trkpt lat="48.833136" lon="8.957308">
<ele>424.0</ele>
<time>2020-06-02T17:24:01Z</time>
<speed>1.1</speed>
</trkpt>
<trkpt lat="48.833104" lon="8.957382">
<ele>425.8</ele>
<time>2020-06-02T17:24:06Z</time>
<speed>1.1</speed>
</trkpt>
<trkpt lat="48.833071" lon="8.957472">
<ele>426.4</ele>
<time>2020-06-02T17:24:11Z</time>
<speed>1.1</speed>
</trkpt>
<trkpt lat="48.833018" lon="8.957572">
<ele>427.5</ele>
<time>2020-06-02T17:24:16Z</time>
<speed>1.1</speed>
</trkpt>
<trkpt lat="48.833005" lon="8.957650">
<ele>428.8</ele>
<time>2020-06-02T17:24:21Z</time>
<speed>0.8</speed>
</trkpt>
<trkpt lat="48.832981" lon="8.957713">
<ele>429.8</ele>
<time>2020-06-02T17:24:26Z</time>
<speed>1.1</speed>
</trkpt>
<trkpt lat="48.832963" lon="8.957778">
<ele>430.3</ele>
<time>2020-06-02T17:24:31Z</time>
<speed>0.8</speed>
</trkpt>
<trkpt lat="48.832926" lon="8.957841">
<ele>429.8</ele>
<time>2020-06-02T17:24:36Z</time>
<speed>0.8</speed>
</trkpt>
<trkpt lat="48.832897" lon="8.957891">
<ele>430.0</ele>
<time>2020-06-02T17:24:41Z</time>
<speed>0.0</speed>
</trkpt>
<trkpt lat="48.832859" lon="8.957965">
<ele>431.1</ele>
<time>2020-06-02T17:24:46Z</time>
<speed>1.1</speed>
</trkpt>
<trkpt lat="48.832828" lon="8.958028">
<ele>431.4</ele>
<time>2020-06-02T17:24:51Z</time>
<speed>0.8</speed>
</trkpt>
<trkpt lat="48.832822" lon="8.958109">
<ele>432.0</ele>
<time>2020-06-02T17:24:56Z</time>
<speed>0.8</speed>
</trkpt>
<trkpt lat="48.832796" lon="8.958186">
<ele>433.2</ele>
<time>2020-06-02T17:25:01Z</time>
<speed>1.1</speed>
</trkpt>
<trkpt lat="48.832789" lon="8.958264">
<ele>435.2</ele>
<time>2020-06-02T17:25:06Z</time>
<speed>1.1</speed>
</trkpt>
<trkpt lat="48.832772" lon="8.958316">
<ele>435.5</ele>
<time>2020-06-02T17:25:11Z</time>
<speed>0.8</speed>
</trkpt>
<trkpt lat="48.832755" lon="8.958383">
<ele>434.5</ele>
<time>2020-06-02T17:25:16Z</time>
<speed>0.8</speed>
</trkpt>
<trkpt lat="48.832719" lon="8.958462">
<ele>432.7</ele>
<time>2020-06-02T17:25:21Z</time>
<speed>1.1</speed>
</trkpt>
<trkpt lat="48.832695" lon="8.958527">
<ele>432.4</ele>
<time>2020-06-02T17:25:26Z</time>
<speed>0.6</speed>
</trkpt>
<trkpt lat="48.832684" lon="8.958594">
<ele>432.2</ele>
<time>2020-06-02T17:25:31Z</time>
<speed>0.8</speed>
</trkpt>
<trkpt lat="48.832653" lon="8.958673">
<ele>431.2</ele>
<time>2020-06-02T17:25:36Z</time>
<speed>1.1</speed>
</trkpt>
<trkpt lat="48.832636" lon="8.958740">
<ele>430.2</ele>
<time>2020-06-02T17:25:41Z</time>
<speed>0.8</speed>
</trkpt>
<trkpt lat="48.832605" lon="8.958819">
<ele>429.2</ele>
<time>2020-06-02T17:25:46Z</time>
<speed>0.8</speed>
</trkpt>
<trkpt lat="48.832582" lon="8.958886">
<ele>427.4</ele>
<time>2020-06-02T17:25:51Z</time>
<speed>0.8</speed>
</trkpt>
<trkpt lat="48.832577" lon="8.958955">
<ele>426.5</ele>
<time>2020-06-02T17:25:56Z</time>
<speed>0.8</speed>
</trkpt>
<trkpt lat="48.832566" lon="8.959020">
<ele>427.7</ele>
<time>2020-06-02T17:26:01Z</time>
<speed>0.8</speed>
</trkpt>
<trkpt lat="48.832567" lon="8.959074">
<ele>428.9</ele>
<time>2020-06-02T17:26:06Z</time>
<speed>0.6</speed>
</trkpt>
<trkpt lat="48.832569" lon="8.959128">
<ele>430.0</ele>
<time>2020-06-02T17:26:11Z</time>
<speed>0.6</speed>
</trkpt>
<trkpt lat="48.832578" lon="8.959168">
<ele>431.8</ele>
<time>2020-06-02T17:26:16Z</time>
<speed>0.6</speed>
</trkpt>
<trkpt lat="48.832555" lon="8.959189">
<ele>434.0</ele>
<time>2020-06-02T17:26:21Z</time>
<speed>0.0</speed>
</trkpt>
<trkpt lat="48.832518" lon="8.959183">
<ele>433.7</ele>
<time>2020-06-02T17:26:26Z</time>
<speed>0.0</speed>
</trkpt>
<trkpt lat="48.832504" lon="8.959194">
<ele>433.7</ele>
<time>2020-06-02T17:26:31Z</time>
<speed>0.6</speed>
</trkpt>
<trkpt lat="48.832528" lon="8.959212">
<ele>434.0</ele>
<time>2020-06-02T17:26:36Z</time>
<speed>0.6</speed>
</trkpt>
<trkpt lat="48.832572" lon="8.959218">
<ele>435.1</ele>
<time>2020-06-02T17:26:41Z</time>
<speed>0.6</speed>
</trkpt>
<trkpt lat="48.832606" lon="8.959213">
<ele>433.1</ele>
<time>2020-06-02T17:26:46Z</time>
<speed>0.6</speed>
</trkpt>
<trkpt lat="48.832644" lon="8.959221">
<ele>432.0</ele>
<time>2020-06-02T17:26:51Z</time>
<speed>0.6</speed>
</trkpt>
<trkpt lat="48.832728" lon="8.959241">
<ele>429.2</ele>
<time>2020-06-02T17:26:56Z</time>
<speed>0.8</speed>
</trkpt>
<trkpt lat="48.832774" lon="8.959238">
<ele>427.3</ele>
<time>2020-06-02T17:27:01Z</time>
<speed>0.3</speed>
</trkpt>
<trkpt lat="48.832825" lon="8.959264">
<ele>425.0</ele>
<time>2020-06-02T17:27:06Z</time>
<speed>0.3</speed>
</trkpt>
<trkpt lat="48.832864" lon="8.959272">
<ele>423.9</ele>
<time>2020-06-02T17:27:11Z</time>
<speed>0.3</speed>
</trkpt>
<trkpt lat="48.832908" lon="8.959279">
<ele>425.0</ele>
<time>2020-06-02T17:27:16Z</time>
<speed>0.8</speed>
</trkpt>
<trkpt lat="48.832976" lon="8.959305">
<ele>425.0</ele>
<time>2020-06-02T17:27:21Z</time>
<speed>0.6</speed>
</trkpt>
<trkpt lat="48.833006" lon="8.959323">
<ele>426.0</ele>
<time>2020-06-02T17:27:26Z</time>
<speed>0.6</speed>
</trkpt>
<trkpt lat="48.833049" lon="8.959358">
<ele>425.9</ele>
<time>2020-06-02T17:27:31Z</time>
<speed>0.3</speed>
</trkpt>
<trkpt lat="48.833083" lon="8.959403">
<ele>427.9</ele>
<time>2020-06-02T17:27:36Z</time>
<speed>0.6</speed>
</trkpt>
<trkpt lat="48.833118" lon="8.959436">
<ele>428.4</ele>
<time>2020-06-02T17:27:41Z</time>
<speed>0.3</speed>
</trkpt>
<trkpt lat="48.833174" lon="8.959476">
<ele>427.0</ele>
<time>2020-06-02T17:27:46Z</time>
<speed>0.6</speed>
</trkpt>
<trkpt lat="48.833227" lon="8.959540">
<ele>427.1</ele>
<time>2020-06-02T17:27:51Z</time>
<speed>0.6</speed>
</trkpt>
<trkpt lat="48.833273" lon="8.959602">
<ele>428.0</ele>
<time>2020-06-02T17:27:56Z</time>
<speed>0.6</speed>
</trkpt>
<trkpt lat="48.833333" lon="8.959671">
<ele>426.1</ele>
<time>2020-06-02T17:28:01Z</time>
<speed>0.8</speed>
</trkpt>
<trkpt lat="48.833386" lon="8.959751">
<ele>425.0</ele>
<time>2020-06-02T17:28:06Z</time>
<speed>0.8</speed>
</trkpt>
<trkpt lat="48.833397" lon="8.959782">
<ele>423.9</ele>
<time>2020-06-02T17:28:11Z</time>
<speed>0.0</speed>
</trkpt>
<trkpt lat="48.833422" lon="8.959802">
<ele>422.8</ele>
<time>2020-06-02T17:28:16Z</time>
<speed>0.8</speed>
</trkpt>
<trkpt lat="48.833491" lon="8.959846">
<ele>420.0</ele>
<time>2020-06-02T17:28:21Z</time>
<speed>0.8</speed>
</trkpt>
<trkpt lat="48.833551" lon="8.959832">
<ele>418.2</ele>
<time>2020-06-02T17:28:26Z</time>
<speed>1.1</speed>
</trkpt>
<trkpt lat="48.833625" lon="8.959822">
<ele>415.0</ele>
<time>2020-06-02T17:28:31Z</time>
<speed>1.1</speed>
</trkpt>
<trkpt lat="48.833625" lon="8.959822">
<ele>415.0</ele>
<time>2020-06-02T17:28:36Z</time>
<speed>0.0</speed>
</trkpt>
<trkpt lat="48.833652" lon="8.959815">
<ele>413.7</ele>
<time>2020-06-02T17:28:41Z</time>
<speed>0.6</speed>
</trkpt>
<trkpt lat="48.833688" lon="8.959767">
<ele>412.9</ele>
<time>2020-06-02T17:28:46Z</time>
<speed>0.8</speed>
</trkpt>
<trkpt lat="48.833741" lon="8.959751">
<ele>411.7</ele>
<time>2020-06-02T17:28:51Z</time>
<speed>0.6</speed>
</trkpt>
<trkpt lat="48.833770" lon="8.959717">
<ele>410.2</ele>
<time>2020-06-02T17:28:56Z</time>
<speed>0.3</speed>
</trkpt>
<trkpt lat="48.833824" lon="8.959685">
<ele>410.3</ele>
<time>2020-06-02T17:29:01Z</time>
<speed>0.8</speed>
</trkpt>
<trkpt lat="48.833864" lon="8.959649">
<ele>411.7</ele>
<time>2020-06-02T17:29:06Z</time>
<speed>0.6</speed>
</trkpt>
<trkpt lat="48.833904" lon="8.959613">
<ele>413.1</ele>
<time>2020-06-02T17:29:11Z</time>
<speed>0.6</speed>
</trkpt>
<trkpt lat="48.833946" lon="8.959563">
<ele>414.4</ele>
<time>2020-06-02T17:29:16Z</time>
<speed>0.8</speed>
</trkpt>
<trkpt lat="48.834006" lon="8.959533">
<ele>413.8</ele>
<time>2020-06-02T17:29:21Z</time>
<speed>1.1</speed>
</trkpt>
<trkpt lat="48.834061" lon="8.959490">
<ele>412.4</ele>
<time>2020-06-02T17:29:26Z</time>
<speed>0.8</speed>
</trkpt>
<trkpt lat="48.834112" lon="8.959433">
<ele>410.2</ele>
<time>2020-06-02T17:29:31Z</time>
<speed>1.1</speed>
</trkpt>
<trkpt lat="48.834162" lon="8.959375">
<ele>409.3</ele>
<time>2020-06-02T17:29:36Z</time>
<speed>0.8</speed>
</trkpt>
<trkpt lat="48.834197" lon="8.959325">
<ele>409.9</ele>
<time>2020-06-02T17:29:41Z</time>
<speed>1.1</speed>
</trkpt>
<trkpt lat="48.834227" lon="8.959262">
<ele>409.6</ele>
<time>2020-06-02T17:29:46Z</time>
<speed>0.8</speed>
</trkpt>
<trkpt lat="48.834257" lon="8.959197">
<ele>410.7</ele>
<time>2020-06-02T17:29:51Z</time>
<speed>0.8</speed>
</trkpt>
<trkpt lat="48.834280" lon="8.959145">
<ele>411.1</ele>
<time>2020-06-02T17:29:56Z</time>
<speed>0.8</speed>
</trkpt>
<trkpt lat="48.834307" lon="8.959107">
<ele>412.4</ele>
<time>2020-06-02T17:30:01Z</time>
<speed>0.8</speed>
</trkpt>
<trkpt lat="48.834330" lon="8.959055">
<ele>412.8</ele>
<time>2020-06-02T17:30:06Z</time>
<speed>0.8</speed>
</trkpt>
<trkpt lat="48.834354" lon="8.958990">
<ele>413.2</ele>
<time>2020-06-02T17:30:11Z</time>
<speed>0.6</speed>
</trkpt>
<trkpt lat="48.834371" lon="8.958938">
<ele>412.9</ele>
<time>2020-06-02T17:30:16Z</time>
<speed>0.8</speed>
</trkpt>
<trkpt lat="48.834388" lon="8.958887">
<ele>412.6</ele>
<time>2020-06-02T17:30:21Z</time>
<speed>0.6</speed>
</trkpt>
<trkpt lat="48.834417" lon="8.958837">
<ele>412.4</ele>
<time>2020-06-02T17:30:26Z</time>
<speed>0.8</speed>
</trkpt>
<trkpt lat="48.834433" lon="8.958783">
<ele>413.5</ele>
<time>2020-06-02T17:30:31Z</time>
<speed>0.6</speed>
</trkpt>
<trkpt lat="48.834437" lon="8.958730">
<ele>413.1</ele>
<time>2020-06-02T17:30:36Z</time>
<speed>0.6</speed>
</trkpt>
<trkpt lat="48.834447" lon="8.958676">
<ele>413.4</ele>
<time>2020-06-02T17:30:41Z</time>
<speed>0.6</speed>
</trkpt>
<trkpt lat="48.834472" lon="8.958597">
<ele>413.6</ele>
<time>2020-06-02T17:30:46Z</time>
<speed>0.6</speed>
</trkpt>
<trkpt lat="48.834497" lon="8.958518">
<ele>413.9</ele>
<time>2020-06-02T17:30:51Z</time>
<speed>0.6</speed>
</trkpt>
<trkpt lat="48.834535" lon="8.958444">
<ele>412.8</ele>
<time>2020-06-02T17:30:56Z</time>
<speed>0.6</speed>
</trkpt>
<trkpt lat="48.834555" lon="8.958352">
<ele>412.2</ele>
<time>2020-06-02T17:31:01Z</time>
<speed>0.8</speed>
</trkpt>
<trkpt lat="48.834606" lon="8.958262">
<ele>414.0</ele>
<time>2020-06-02T17:31:06Z</time>
<speed>0.6</speed>
</trkpt>
<trkpt lat="48.834625" lon="8.958184">
<ele>413.4</ele>
<time>2020-06-02T17:31:11Z</time>
<speed>0.6</speed>
</trkpt>
<trkpt lat="48.834663" lon="8.958109">
<ele>412.4</ele>
<time>2020-06-02T17:31:16Z</time>
<speed>0.8</speed>
</trkpt>
<trkpt lat="48.834682" lon="8.958031">
<ele>411.9</ele>
<time>2020-06-02T17:31:21Z</time>
<speed>0.8</speed>
</trkpt>
<trkpt lat="48.834711" lon="8.957931">
<ele>407.7</ele>
<time>2020-06-02T17:31:26Z</time>
<speed>0.8</speed>
</trkpt>
<trkpt lat="48.834750" lon="8.957844">
<ele>406.5</ele>
<time>2020-06-02T17:31:31Z</time>
<speed>0.8</speed>
</trkpt>
<trkpt lat="48.834791" lon="8.957744">
<ele>403.9</ele>
<time>2020-06-02T17:31:36Z</time>
<speed>0.8</speed>
</trkpt>
<trkpt lat="48.834810" lon="8.957666">
<ele>403.3</ele>
<time>2020-06-02T17:31:41Z</time>
<speed>0.8</speed>
</trkpt>
<trkpt lat="48.834841" lon="8.957603">
<ele>403.0</ele>
<time>2020-06-02T17:31:46Z</time>
<speed>0.8</speed>
</trkpt>
<trkpt lat="48.834871" lon="8.957540">
<ele>402.7</ele>
<time>2020-06-02T17:31:51Z</time>
<speed>0.8</speed>
</trkpt>
<trkpt lat="48.834895" lon="8.957475">
<ele>403.1</ele>
<time>2020-06-02T17:31:56Z</time>
<speed>0.6</speed>
</trkpt>
<trkpt lat="48.834919" lon="8.957409">
<ele>403.4</ele>
<time>2020-06-02T17:32:01Z</time>
<speed>0.8</speed>
</trkpt>
<trkpt lat="48.834943" lon="8.957344">
<ele>403.8</ele>
<time>2020-06-02T17:32:06Z</time>
<speed>0.8</speed>
</trkpt>
<trkpt lat="48.834982" lon="8.957272">
<ele>401.3</ele>
<time>2020-06-02T17:32:11Z</time>
<speed>1.1</speed>
</trkpt>
<trkpt lat="48.834993" lon="8.957205">
<ele>401.5</ele>
<time>2020-06-02T17:32:16Z</time>
<speed>1.1</speed>
</trkpt>
<trkpt lat="48.835023" lon="8.957142">
<ele>401.2</ele>
<time>2020-06-02T17:32:21Z</time>
<speed>0.8</speed>
</trkpt>
<trkpt lat="48.835046" lon="8.957090">
<ele>401.7</ele>
<time>2020-06-02T17:32:26Z</time>
<speed>0.8</speed>
</trkpt>
<trkpt lat="48.835075" lon="8.957038">
<ele>402.9</ele>
<time>2020-06-02T17:32:31Z</time>
<speed>0.8</speed>
</trkpt>
<trkpt lat="48.835110" lon="8.956989">
<ele>403.4</ele>
<time>2020-06-02T17:32:36Z</time>
<speed>0.8</speed>
</trkpt>
<trkpt lat="48.835139" lon="8.956937">
<ele>404.6</ele>
<time>2020-06-02T17:32:41Z</time>
<speed>0.8</speed>
</trkpt>
<trkpt lat="48.835197" lon="8.956854">
<ele>402.9</ele>
<time>2020-06-02T17:32:46Z</time>
<speed>1.1</speed>
</trkpt>
<trkpt lat="48.835240" lon="8.956793">
<ele>402.7</ele>
<time>2020-06-02T17:32:51Z</time>
<speed>1.1</speed>
</trkpt>
<trkpt lat="48.835284" lon="8.956716">
<ele>403.8</ele>
<time>2020-06-02T17:32:56Z</time>
<speed>1.1</speed>
</trkpt>
<trkpt lat="48.835326" lon="8.956669">
<ele>403.7</ele>
<time>2020-06-02T17:33:01Z</time>
<speed>1.1</speed>
</trkpt>
<trkpt lat="48.835346" lon="8.956577">
<ele>403.1</ele>
<time>2020-06-02T17:33:06Z</time>
<speed>0.8</speed>
</trkpt>
<trkpt lat="48.835364" lon="8.956496">
<ele>404.0</ele>
<time>2020-06-02T17:33:11Z</time>
<speed>1.1</speed>
</trkpt>
<trkpt lat="48.835411" lon="8.956397">
<ele>402.1</ele>
<time>2020-06-02T17:33:16Z</time>
<speed>1.1</speed>
</trkpt>
<trkpt lat="48.835461" lon="8.956322">
<ele>402.5</ele>
<time>2020-06-02T17:33:21Z</time>
<speed>1.1</speed>
</trkpt>
<trkpt lat="48.835491" lon="8.956257">
<ele>403.6</ele>
<time>2020-06-02T17:33:26Z</time>
<speed>0.6</speed>
</trkpt>
<trkpt lat="48.835498" lon="8.956246">
<ele>402.9</ele>
<time>2020-06-02T17:33:31Z</time>
<speed>0.0</speed>
</trkpt>
<trkpt lat="48.835527" lon="8.956210">
<ele>402.8</ele>
<time>2020-06-02T17:33:36Z</time>
<speed>1.1</speed>
</trkpt>
<trkpt lat="48.835562" lon="8.956160">
<ele>403.3</ele>
<time>2020-06-02T17:33:41Z</time>
<speed>0.8</speed>
</trkpt>
<trkpt lat="48.835593" lon="8.956097">
<ele>403.0</ele>
<time>2020-06-02T17:33:46Z</time>
<speed>0.8</speed>
</trkpt>
<trkpt lat="48.835642" lon="8.956069">
<ele>399.5</ele>
<time>2020-06-02T17:33:51Z</time>
<speed>0.6</speed>
</trkpt>
<trkpt lat="48.835656" lon="8.956060">
<ele>398.1</ele>
<time>2020-06-02T17:33:56Z</time>
<speed>0.0</speed>
</trkpt>
<trkpt lat="48.835669" lon="8.956062">
<ele>398.2</ele>
<time>2020-06-02T17:34:01Z</time>
<speed>0.3</speed>
</trkpt>
<trkpt lat="48.835692" lon="8.956013">
<ele>397.3</ele>
<time>2020-06-02T17:34:06Z</time>
<speed>0.8</speed>
</trkpt>
<trkpt lat="48.835698" lon="8.955946">
<ele>396.8</ele>
<time>2020-06-02T17:34:11Z</time>
<speed>0.8</speed>
</trkpt>
<trkpt lat="48.835709" lon="8.955878">
<ele>397.0</ele>
<time>2020-06-02T17:34:16Z</time>
<speed>0.8</speed>
</trkpt>
<trkpt lat="48.835733" lon="8.955815">
<ele>395.9</ele>
<time>2020-06-02T17:34:21Z</time>
<speed>0.8</speed>
</trkpt>
<trkpt lat="48.835769" lon="8.955766">
<ele>396.5</ele>
<time>2020-06-02T17:34:26Z</time>
<speed>0.8</speed>
</trkpt>
<trkpt lat="48.835788" lon="8.955687">
<ele>396.0</ele>
<time>2020-06-02T17:34:31Z</time>
<speed>0.8</speed>
</trkpt>
<trkpt lat="48.835804" lon="8.955633">
<ele>397.1</ele>
<time>2020-06-02T17:34:36Z</time>
<speed>0.6</speed>
</trkpt>
<trkpt lat="48.835822" lon="8.955568">
<ele>396.7</ele>
<time>2020-06-02T17:34:41Z</time>
<speed>0.8</speed>
</trkpt>
<trkpt lat="48.835852" lon="8.955505">
<ele>396.4</ele>
<time>2020-06-02T17:34:46Z</time>
<speed>0.6</speed>
</trkpt>
<trkpt lat="48.835885" lon="8.955417">
<ele>394.4</ele>
<time>2020-06-02T17:34:51Z</time>
<speed>0.8</speed>
</trkpt>
<trkpt lat="48.835916" lon="8.955354">
<ele>394.1</ele>
<time>2020-06-02T17:34:56Z</time>
<speed>0.8</speed>
</trkpt>
<trkpt lat="48.835928" lon="8.955273">
<ele>394.3</ele>
<time>2020-06-02T17:35:01Z</time>
<speed>0.6</speed>
</trkpt>
<trkpt lat="48.835935" lon="8.955193">
<ele>393.7</ele>
<time>2020-06-02T17:35:06Z</time>
<speed>0.6</speed>
</trkpt>
<trkpt lat="48.835967" lon="8.955103">
<ele>393.2</ele>
<time>2020-06-02T17:35:11Z</time>
<speed>0.6</speed>
</trkpt>
<trkpt lat="48.835974" lon="8.955006">
<ele>393.8</ele>
<time>2020-06-02T17:35:16Z</time>
<speed>0.8</speed>
</trkpt>
<trkpt lat="48.835980" lon="8.954908">
<ele>395.9</ele>
<time>2020-06-02T17:35:21Z</time>
<speed>0.8</speed>
</trkpt>
<trkpt lat="48.835998" lon="8.954829">
<ele>395.4</ele>
<time>2020-06-02T17:35:26Z</time>
<speed>0.8</speed>
</trkpt>
<trkpt lat="48.836016" lon="8.954762">
<ele>396.4</ele>
<time>2020-06-02T17:35:31Z</time>
<speed>0.8</speed>
</trkpt>
<trkpt lat="48.836040" lon="8.954699">
<ele>395.3</ele>
<time>2020-06-02T17:35:36Z</time>
<speed>0.8</speed>
</trkpt>
<trkpt lat="48.836059" lon="8.954621">
<ele>394.8</ele>
<time>2020-06-02T17:35:41Z</time>
<speed>0.8</speed>
</trkpt>
<trkpt lat="48.836071" lon="8.954540">
<ele>395.0</ele>
<time>2020-06-02T17:35:46Z</time>
<speed>1.1</speed>
</trkpt>
<trkpt lat="48.836108" lon="8.954479">
<ele>394.0</ele>
<time>2020-06-02T17:35:51Z</time>
<speed>0.8</speed>
</trkpt>
<trkpt lat="48.836126" lon="8.954414">
<ele>393.6</ele>
<time>2020-06-02T17:35:56Z</time>
<speed>0.6</speed>
</trkpt>
<trkpt lat="48.836143" lon="8.954362">
<ele>393.3</ele>
<time>2020-06-02T17:36:01Z</time>
<speed>0.8</speed>
</trkpt>
<trkpt lat="48.836174" lon="8.954301">
<ele>391.6</ele>
<time>2020-06-02T17:36:06Z</time>
<speed>0.6</speed>
</trkpt>
<trkpt lat="48.836186" lon="8.954234">
<ele>391.8</ele>
<time>2020-06-02T17:36:11Z</time>
<speed>0.8</speed>
</trkpt>
<trkpt lat="48.836211" lon="8.954157">
<ele>390.7</ele>
<time>2020-06-02T17:36:16Z</time>
<speed>0.8</speed>
</trkpt>
<trkpt lat="48.836238" lon="8.954067">
<ele>389.4</ele>
<time>2020-06-02T17:36:21Z</time>
<speed>0.8</speed>
</trkpt>
<trkpt lat="48.836263" lon="8.953989">
<ele>389.6</ele>
<time>2020-06-02T17:36:26Z</time>
<speed>0.8</speed>
</trkpt>
<trkpt lat="48.836283" lon="8.953897">
<ele>389.0</ele>
<time>2020-06-02T17:36:31Z</time>
<speed>0.8</speed>
</trkpt>
<trkpt lat="48.836296" lon="8.953820">
<ele>386.4</ele>
<time>2020-06-02T17:36:36Z</time>
<speed>1.1</speed>
</trkpt>
<trkpt lat="48.836311" lon="8.953728">
<ele>385.0</ele>
<time>2020-06-02T17:36:41Z</time>
<speed>0.8</speed>
</trkpt>
<trkpt lat="48.836317" lon="8.953647">
<ele>384.4</ele>
<time>2020-06-02T17:36:46Z</time>
<speed>0.6</speed>
</trkpt>
<trkpt lat="48.836323" lon="8.953582">
<ele>382.5</ele>
<time>2020-06-02T17:36:51Z</time>
<speed>0.8</speed>
</trkpt>
<trkpt lat="48.836328" lon="8.953515">
<ele>382.0</ele>
<time>2020-06-02T17:36:56Z</time>
<speed>0.8</speed>
</trkpt>
<trkpt lat="48.836339" lon="8.953448">
<ele>382.2</ele>
<time>2020-06-02T17:37:01Z</time>
<speed>0.6</speed>
</trkpt>
<trkpt lat="48.836358" lon="8.953369">
<ele>381.7</ele>
<time>2020-06-02T17:37:06Z</time>
<speed>1.1</speed>
</trkpt>
<trkpt lat="48.836358" lon="8.953286">
<ele>381.7</ele>
<time>2020-06-02T17:37:11Z</time>
<speed>1.1</speed>
</trkpt>
<trkpt lat="48.836364" lon="8.953206">
<ele>381.1</ele>
<time>2020-06-02T17:37:16Z</time>
<speed>0.8</speed>
</trkpt>
<trkpt lat="48.836383" lon="8.953127">
<ele>380.6</ele>
<time>2020-06-02T17:37:21Z</time>
<speed>0.8</speed>
</trkpt>
<trkpt lat="48.836397" lon="8.953035">
<ele>379.2</ele>
<time>2020-06-02T17:37:26Z</time>
<speed>0.6</speed>
</trkpt>
<trkpt lat="48.836411" lon="8.952943">
<ele>377.9</ele>
<time>2020-06-02T17:37:31Z</time>
<speed>0.8</speed>
</trkpt>
<trkpt lat="48.836427" lon="8.952889">
<ele>379.0</ele>
<time>2020-06-02T17:37:36Z</time>
<speed>0.3</speed>
</trkpt>
<trkpt lat="48.836426" lon="8.952902">
<ele>379.1</ele>
<time>2020-06-02T17:37:41Z</time>
<speed>0.0</speed>
</trkpt>
<trkpt lat="48.836420" lon="8.952900">
<ele>379.7</ele>
<time>2020-06-02T17:37:46Z</time>
<speed>0.0</speed>
</trkpt>
<trkpt lat="48.836420" lon="8.952900">
<ele>379.7</ele>
<time>2020-06-02T17:37:51Z</time>
<speed>0.0</speed>
</trkpt>
<trkpt lat="48.836406" lon="8.952912">
<ele>379.7</ele>
<time>2020-06-02T17:37:56Z</time>
<speed>0.6</speed>
</trkpt>
<trkpt lat="48.836388" lon="8.952896">
<ele>378.7</ele>
<time>2020-06-02T17:38:01Z</time>
<speed>0.6</speed>
</trkpt>
<trkpt lat="48.836346" lon="8.952876">
<ele>377.6</ele>
<time>2020-06-02T17:38:06Z</time>
<speed>1.1</speed>
</trkpt>
<trkpt lat="48.836314" lon="8.952870">
<ele>378.0</ele>
<time>2020-06-02T17:38:11Z</time>
<speed>0.6</speed>
</trkpt>
<trkpt lat="48.836258" lon="8.952846">
<ele>378.2</ele>
<time>2020-06-02T17:38:16Z</time>
<speed>0.8</speed>
</trkpt>
<trkpt lat="48.836215" lon="8.952810">
<ele>378.3</ele>
<time>2020-06-02T17:38:21Z</time>
<speed>0.8</speed>
</trkpt>
<trkpt lat="48.836179" lon="8.952775">
<ele>379.2</ele>
<time>2020-06-02T17:38:26Z</time>
<speed>0.8</speed>
</trkpt>
<trkpt lat="48.836189" lon="8.952706">
<ele>380.8</ele>
<time>2020-06-02T17:38:31Z</time>
<speed>0.6</speed>
</trkpt>
<trkpt lat="48.836138" lon="8.952679">
<ele>383.1</ele>
<time>2020-06-02T17:38:36Z</time>
<speed>1.1</speed>
</trkpt>
<trkpt lat="48.836090" lon="8.952644">
<ele>382.5</ele>
<time>2020-06-02T17:38:41Z</time>
<speed>0.8</speed>
</trkpt>
<trkpt lat="48.836049" lon="8.952595">
<ele>382.5</ele>
<time>2020-06-02T17:38:46Z</time>
<speed>0.8</speed>
</trkpt>
<trkpt lat="48.836005" lon="8.952573">
<ele>382.8</ele>
<time>2020-06-02T17:38:51Z</time>
<speed>0.8</speed>
</trkpt>
<trkpt lat="48.835977" lon="8.952529">
<ele>381.5</ele>
<time>2020-06-02T17:38:56Z</time>
<speed>0.6</speed>
</trkpt>
<trkpt lat="48.835943" lon="8.952482">
<ele>380.9</ele>
<time>2020-06-02T17:39:01Z</time>
<speed>0.6</speed>
</trkpt>
<trkpt lat="48.835875" lon="8.952442">
<ele>380.8</ele>
<time>2020-06-02T17:39:06Z</time>
<speed>0.6</speed>
</trkpt>
<trkpt lat="48.835826" lon="8.952405">
<ele>381.6</ele>
<time>2020-06-02T17:39:11Z</time>
<speed>0.6</speed>
</trkpt>
<trkpt lat="48.835794" lon="8.952383">
<ele>383.4</ele>
<time>2020-06-02T17:39:16Z</time>
<speed>0.6</speed>
</trkpt>
<trkpt lat="48.835734" lon="8.952330">
<ele>384.0</ele>
<time>2020-06-02T17:39:21Z</time>
<speed>0.6</speed>
</trkpt>
<trkpt lat="48.835721" lon="8.952328">
<ele>383.9</ele>
<time>2020-06-02T17:39:26Z</time>
<speed>0.0</speed>
</trkpt>
<trkpt lat="48.835710" lon="8.952312">
<ele>383.6</ele>
<time>2020-06-02T17:39:31Z</time>
<speed>0.3</speed>
</trkpt>
<trkpt lat="48.835662" lon="8.952263">
<ele>382.9</ele>
<time>2020-06-02T17:39:36Z</time>
<speed>0.8</speed>
</trkpt>
<trkpt lat="48.835609" lon="8.952199">
<ele>382.8</ele>
<time>2020-06-02T17:39:41Z</time>
<speed>0.8</speed>
</trkpt>
<trkpt lat="48.835567" lon="8.952148">
<ele>384.2</ele>
<time>2020-06-02T17:39:46Z</time>
<speed>0.6</speed>
</trkpt>
<trkpt lat="48.835550" lon="8.952101">
<ele>385.8</ele>
<time>2020-06-02T17:39:51Z</time>
<speed>0.0</speed>
</trkpt>
<trkpt lat="48.835547" lon="8.952074">
<ele>384.9</ele>
<time>2020-06-02T17:39:56Z</time>
<speed>0.3</speed>
</trkpt>
<trkpt lat="48.835525" lon="8.952014">
<ele>385.7</ele>
<time>2020-06-02T17:40:01Z</time>
<speed>0.6</speed>
</trkpt>
<trkpt lat="48.835495" lon="8.951965">
<ele>387.2</ele>
<time>2020-06-02T17:40:06Z</time>
<speed>0.3</speed>
</trkpt>
<trkpt lat="48.835481" lon="8.951909">
<ele>385.9</ele>
<time>2020-06-02T17:40:11Z</time>
<speed>0.3</speed>
</trkpt>
<trkpt lat="48.835468" lon="8.951824">
<ele>385.9</ele>
<time>2020-06-02T17:40:16Z</time>
<speed>0.6</speed>
</trkpt>
<trkpt lat="48.835455" lon="8.951739">
<ele>385.8</ele>
<time>2020-06-02T17:40:21Z</time>
<speed>0.8</speed>
</trkpt>
<trkpt lat="48.835448" lon="8.951654">
<ele>386.5</ele>
<time>2020-06-02T17:40:26Z</time>
<speed>0.6</speed>
</trkpt>
<trkpt lat="48.835447" lon="8.951569">
<ele>387.9</ele>
<time>2020-06-02T17:40:31Z</time>
<speed>0.6</speed>
</trkpt>
<trkpt lat="48.835432" lon="8.951496">
<ele>389.4</ele>
<time>2020-06-02T17:40:36Z</time>
<speed>0.8</speed>
</trkpt>
<trkpt lat="48.835413" lon="8.951411">
<ele>388.6</ele>
<time>2020-06-02T17:40:41Z</time>
<speed>0.6</speed>
</trkpt>
<trkpt lat="48.835407" lon="8.951328">
<ele>387.8</ele>
<time>2020-06-02T17:40:46Z</time>
<speed>0.6</speed>
</trkpt>
<trkpt lat="48.835408" lon="8.951232">
<ele>387.8</ele>
<time>2020-06-02T17:40:51Z</time>
<speed>0.6</speed>
</trkpt>
<trkpt lat="48.835411" lon="8.951207">
<ele>386.2</ele>
<time>2020-06-02T17:40:56Z</time>
<speed>0.0</speed>
</trkpt>
<trkpt lat="48.835412" lon="8.951193">
<ele>386.1</ele>
<time>2020-06-02T17:41:01Z</time>
<speed>0.3</speed>
</trkpt>
<trkpt lat="48.835386" lon="8.951124">
<ele>383.2</ele>
<time>2020-06-02T17:41:06Z</time>
<speed>0.6</speed>
</trkpt>
<trkpt lat="48.835400" lon="8.951045">
<ele>381.9</ele>
<time>2020-06-02T17:41:11Z</time>
<speed>0.8</speed>
</trkpt>
<trkpt lat="48.835389" lon="8.950951">
<ele>379.0</ele>
<time>2020-06-02T17:41:16Z</time>
<speed>0.8</speed>
</trkpt>
<trkpt lat="48.835392" lon="8.950846">
<ele>376.0</ele>
<time>2020-06-02T17:41:21Z</time>
<speed>0.8</speed>
</trkpt>
<trkpt lat="48.835412" lon="8.950754">
<ele>375.4</ele>
<time>2020-06-02T17:41:26Z</time>
<speed>0.8</speed>
</trkpt>
<trkpt lat="48.835413" lon="8.950673">
<ele>374.0</ele>
<time>2020-06-02T17:41:31Z</time>
<speed>0.8</speed>
</trkpt>
<trkpt lat="48.835406" lon="8.950588">
<ele>374.7</ele>
<time>2020-06-02T17:41:36Z</time>
<speed>0.6</speed>
</trkpt>
<trkpt lat="48.835403" lon="8.950532">
<ele>374.9</ele>
<time>2020-06-02T17:41:41Z</time>
<speed>0.3</speed>
</trkpt>
<trkpt lat="48.835414" lon="8.950465">
<ele>375.2</ele>
<time>2020-06-02T17:41:46Z</time>
<speed>0.6</speed>
</trkpt>
<trkpt lat="48.835414" lon="8.950382">
<ele>375.2</ele>
<time>2020-06-02T17:41:51Z</time>
<speed>0.8</speed>
</trkpt>
<trkpt lat="48.835419" lon="8.950313">
<ele>376.1</ele>
<time>2020-06-02T17:41:56Z</time>
<speed>0.8</speed>
</trkpt>
<trkpt lat="48.835425" lon="8.950232">
<ele>375.5</ele>
<time>2020-06-02T17:42:01Z</time>
<speed>0.8</speed>
</trkpt>
<trkpt lat="48.835426" lon="8.950135">
<ele>375.4</ele>
<time>2020-06-02T17:42:06Z</time>
<speed>0.6</speed>
</trkpt>
<trkpt lat="48.835426" lon="8.950055">
<ele>374.0</ele>
<time>2020-06-02T17:42:11Z</time>
<speed>0.8</speed>
</trkpt>
<trkpt lat="48.835439" lon="8.949976">
<ele>372.8</ele>
<time>2020-06-02T17:42:16Z</time>
<speed>0.6</speed>
</trkpt>
<trkpt lat="48.835437" lon="8.949905">
<ele>374.3</ele>
<time>2020-06-02T17:42:21Z</time>
<speed>0.8</speed>
</trkpt>
<trkpt lat="48.835442" lon="8.949822">
<ele>375.1</ele>
<time>2020-06-02T17:42:26Z</time>
<speed>0.8</speed>
</trkpt>
<trkpt lat="48.835460" lon="8.949741">
<ele>376.0</ele>
<time>2020-06-02T17:42:31Z</time>
<speed>0.8</speed>
</trkpt>
<trkpt lat="48.835453" lon="8.949656">
<ele>376.7</ele>
<time>2020-06-02T17:42:36Z</time>
<speed>0.8</speed>
</trkpt>
<trkpt lat="48.835465" lon="8.949573">
<ele>378.2</ele>
<time>2020-06-02T17:42:41Z</time>
<speed>0.8</speed>
</trkpt>
<trkpt lat="48.835469" lon="8.949504">
<ele>379.1</ele>
<time>2020-06-02T17:42:46Z</time>
<speed>0.8</speed>
</trkpt>
<trkpt lat="48.835480" lon="8.949434">
<ele>380.8</ele>
<time>2020-06-02T17:42:51Z</time>
<speed>0.8</speed>
</trkpt>
<trkpt lat="48.835487" lon="8.949340">
<ele>380.0</ele>
<time>2020-06-02T17:42:56Z</time>
<speed>0.8</speed>
</trkpt>
<trkpt lat="48.835488" lon="8.949327">
<ele>379.9</ele>
<time>2020-06-02T17:43:01Z</time>
<speed>0.0</speed>
</trkpt>
<trkpt lat="48.835485" lon="8.949286">
<ele>378.9</ele>
<time>2020-06-02T17:43:06Z</time>
<speed>0.8</speed>
</trkpt>
<trkpt lat="48.835493" lon="8.949192">
<ele>378.2</ele>
<time>2020-06-02T17:43:11Z</time>
<speed>0.8</speed>
</trkpt>
<trkpt lat="48.835492" lon="8.949109">
<ele>378.2</ele>
<time>2020-06-02T17:43:16Z</time>
<speed>0.8</speed>
</trkpt>
<trkpt lat="48.835498" lon="8.949027">
<ele>379.0</ele>
<time>2020-06-02T17:43:21Z</time>
<speed>0.8</speed>
</trkpt>
<trkpt lat="48.835508" lon="8.948973">
<ele>379.3</ele>
<time>2020-06-02T17:43:26Z</time>
<speed>0.8</speed>
</trkpt>
<trkpt lat="48.835508" lon="8.948890">
<ele>379.4</ele>
<time>2020-06-02T17:43:31Z</time>
<speed>0.8</speed>
</trkpt>
<trkpt lat="48.835500" lon="8.948821">
<ele>378.8</ele>
<time>2020-06-02T17:43:36Z</time>
<speed>0.8</speed>
</trkpt>
<trkpt lat="48.835493" lon="8.948736">
<ele>379.4</ele>
<time>2020-06-02T17:43:41Z</time>
<speed>0.8</speed>
</trkpt>
<trkpt lat="48.835501" lon="8.948641">
<ele>378.7</ele>
<time>2020-06-02T17:43:46Z</time>
<speed>0.8</speed>
</trkpt>
<trkpt lat="48.835508" lon="8.948547">
<ele>378.0</ele>
<time>2020-06-02T17:43:51Z</time>
<speed>0.8</speed>
</trkpt>
<trkpt lat="48.835508" lon="8.948464">
<ele>378.0</ele>
<time>2020-06-02T17:43:56Z</time>
<speed>1.1</speed>
</trkpt>
<trkpt lat="48.835515" lon="8.948370">
<ele>377.3</ele>
<time>2020-06-02T17:44:01Z</time>
<speed>1.1</speed>
</trkpt>
<trkpt lat="48.835515" lon="8.948287">
<ele>377.4</ele>
<time>2020-06-02T17:44:06Z</time>
<speed>1.1</speed>
</trkpt>
<trkpt lat="48.835508" lon="8.948202">
<ele>378.0</ele>
<time>2020-06-02T17:44:11Z</time>
<speed>1.1</speed>
</trkpt>
<trkpt lat="48.835507" lon="8.948119">
<ele>378.1</ele>
<time>2020-06-02T17:44:16Z</time>
<speed>1.1</speed>
</trkpt>
<trkpt lat="48.835506" lon="8.948050">
<ele>378.2</ele>
<time>2020-06-02T17:44:21Z</time>
<speed>0.8</speed>
</trkpt>
<trkpt lat="48.835504" lon="8.947981">
<ele>378.4</ele>
<time>2020-06-02T17:44:26Z</time>
<speed>1.1</speed>
</trkpt>
<trkpt lat="48.835497" lon="8.947896">
<ele>379.0</ele>
<time>2020-06-02T17:44:31Z</time>
<speed>0.8</speed>
</trkpt>
<trkpt lat="48.835496" lon="8.947826">
<ele>379.2</ele>
<time>2020-06-02T17:44:36Z</time>
<speed>1.1</speed>
</trkpt>
<trkpt lat="48.835501" lon="8.947757">
<ele>380.1</ele>
<time>2020-06-02T17:44:41Z</time>
<speed>0.8</speed>
</trkpt>
<trkpt lat="48.835492" lon="8.947685">
<ele>380.9</ele>
<time>2020-06-02T17:44:46Z</time>
<speed>1.1</speed>
</trkpt>
<trkpt lat="48.835485" lon="8.947600">
<ele>381.5</ele>
<time>2020-06-02T17:44:51Z</time>
<speed>0.8</speed>
</trkpt>
<trkpt lat="48.835491" lon="8.947518">
<ele>382.3</ele>
<time>2020-06-02T17:44:56Z</time>
<speed>0.8</speed>
</trkpt>
<trkpt lat="48.835496" lon="8.947435">
<ele>383.1</ele>
<time>2020-06-02T17:45:01Z</time>
<speed>1.1</speed>
</trkpt>
<trkpt lat="48.835495" lon="8.947365">
<ele>383.3</ele>
<time>2020-06-02T17:45:06Z</time>
<speed>0.8</speed>
</trkpt>
<trkpt lat="48.835496" lon="8.947269">
<ele>383.2</ele>
<time>2020-06-02T17:45:11Z</time>
<speed>0.8</speed>
</trkpt>
<trkpt lat="48.835483" lon="8.947184">
<ele>383.1</ele>
<time>2020-06-02T17:45:16Z</time>
<speed>0.8</speed>
</trkpt>
<trkpt lat="48.835488" lon="8.947117">
<ele>382.6</ele>
<time>2020-06-02T17:45:21Z</time>
<speed>0.6</speed>
</trkpt>
<trkpt lat="48.835481" lon="8.947032">
<ele>383.3</ele>
<time>2020-06-02T17:45:26Z</time>
<speed>0.8</speed>
</trkpt>
<trkpt lat="48.835471" lon="8.946922">
<ele>381.6</ele>
<time>2020-06-02T17:45:31Z</time>
<speed>0.8</speed>
</trkpt>
<trkpt lat="48.835472" lon="8.946909">
<ele>381.5</ele>
<time>2020-06-02T17:45:36Z</time>
<speed>0.0</speed>
</trkpt>
<trkpt lat="48.835472" lon="8.946909">
<ele>381.5</ele>
<time>2020-06-02T17:45:41Z</time>
<speed>0.0</speed>
</trkpt>
<trkpt lat="48.835472" lon="8.946909">
<ele>381.5</ele>
<time>2020-06-02T17:45:46Z</time>
<speed>0.0</speed>
</trkpt>
<trkpt lat="48.835469" lon="8.946853">
<ele>381.8</ele>
<time>2020-06-02T17:45:51Z</time>
<speed>0.6</speed>
</trkpt>
<trkpt lat="48.835462" lon="8.946768">
<ele>382.5</ele>
<time>2020-06-02T17:45:56Z</time>
<speed>0.8</speed>
</trkpt>
<trkpt lat="48.835457" lon="8.946671">
<ele>381.6</ele>
<time>2020-06-02T17:46:01Z</time>
<speed>0.8</speed>
</trkpt>
<trkpt lat="48.835443" lon="8.946600">
<ele>381.7</ele>
<time>2020-06-02T17:46:06Z</time>
<speed>0.8</speed>
</trkpt>
<trkpt lat="48.835440" lon="8.946560">
<ele>380.6</ele>
<time>2020-06-02T17:46:11Z</time>
<speed>0.0</speed>
</trkpt>
<trkpt lat="48.835437" lon="8.946533">
<ele>379.7</ele>
<time>2020-06-02T17:46:16Z</time>
<speed>0.6</speed>
</trkpt>
<trkpt lat="48.835422" lon="8.946443">
<ele>382.4</ele>
<time>2020-06-02T17:46:21Z</time>
<speed>0.8</speed>
</trkpt>
<trkpt lat="48.835414" lon="8.946372">
<ele>383.2</ele>
<time>2020-06-02T17:46:26Z</time>
<speed>1.1</speed>
</trkpt>
<trkpt lat="48.835407" lon="8.946303">
<ele>382.6</ele>
<time>2020-06-02T17:46:31Z</time>
<speed>1.1</speed>
</trkpt>
<trkpt lat="48.835398" lon="8.946231">
<ele>383.4</ele>
<time>2020-06-02T17:46:36Z</time>
<speed>1.1</speed>
</trkpt>
<trkpt lat="48.835390" lon="8.946159">
<ele>384.1</ele>
<time>2020-06-02T17:46:41Z</time>
<speed>0.8</speed>
</trkpt>
<trkpt lat="48.835397" lon="8.946079">
<ele>383.5</ele>
<time>2020-06-02T17:46:46Z</time>
<speed>0.8</speed>
</trkpt>
<trkpt lat="48.835389" lon="8.946009">
<ele>382.9</ele>
<time>2020-06-02T17:46:51Z</time>
<speed>1.1</speed>
</trkpt>
<trkpt lat="48.835383" lon="8.945927">
<ele>382.2</ele>
<time>2020-06-02T17:46:56Z</time>
<speed>0.6</speed>
</trkpt>
<trkpt lat="48.835389" lon="8.945844">
<ele>383.0</ele>
<time>2020-06-02T17:47:01Z</time>
<speed>0.8</speed>
</trkpt>
<trkpt lat="48.835381" lon="8.945774">
<ele>382.4</ele>
<time>2020-06-02T17:47:06Z</time>
<speed>0.8</speed>
</trkpt>
<trkpt lat="48.835389" lon="8.945763">
<ele>381.6</ele>
<time>2020-06-02T17:47:11Z</time>
<speed>0.0</speed>
</trkpt>
<trkpt lat="48.835402" lon="8.945684">
<ele>380.4</ele>
<time>2020-06-02T17:47:16Z</time>
<speed>0.8</speed>
</trkpt>
<trkpt lat="48.835408" lon="8.945601">
<ele>381.1</ele>
<time>2020-06-02T17:47:21Z</time>
<speed>0.8</speed>
</trkpt>
<trkpt lat="48.835400" lon="8.945517">
<ele>381.8</ele>
<time>2020-06-02T17:47:26Z</time>
<speed>0.8</speed>
</trkpt>
<trkpt lat="48.835392" lon="8.945445">
<ele>382.6</ele>
<time>2020-06-02T17:47:31Z</time>
<speed>0.6</speed>
</trkpt>
<trkpt lat="48.835399" lon="8.945364">
<ele>382.0</ele>
<time>2020-06-02T17:47:36Z</time>
<speed>0.8</speed>
</trkpt>
<trkpt lat="48.835391" lon="8.945293">
<ele>382.8</ele>
<time>2020-06-02T17:47:41Z</time>
<speed>0.8</speed>
</trkpt>
<trkpt lat="48.835403" lon="8.945212">
<ele>382.9</ele>
<time>2020-06-02T17:47:46Z</time>
<speed>0.8</speed>
</trkpt>
<trkpt lat="48.835396" lon="8.945129">
<ele>382.2</ele>
<time>2020-06-02T17:47:51Z</time>
<speed>1.1</speed>
</trkpt>
<trkpt lat="48.835396" lon="8.945046">
<ele>382.3</ele>
<time>2020-06-02T17:47:56Z</time>
<speed>0.8</speed>
</trkpt>
<trkpt lat="48.835383" lon="8.944961">
<ele>382.2</ele>
<time>2020-06-02T17:48:01Z</time>
<speed>0.8</speed>
</trkpt>
<trkpt lat="48.835385" lon="8.944867">
<ele>380.7</ele>
<time>2020-06-02T17:48:06Z</time>
<speed>1.1</speed>
</trkpt>
<trkpt lat="48.835376" lon="8.944796">
<ele>381.5</ele>
<time>2020-06-02T17:48:11Z</time>
<speed>0.8</speed>
</trkpt>
<trkpt lat="48.835376" lon="8.944713">
<ele>381.5</ele>
<time>2020-06-02T17:48:16Z</time>
<speed>0.8</speed>
</trkpt>
<trkpt lat="48.835375" lon="8.944628">
<ele>383.0</ele>
<time>2020-06-02T17:48:21Z</time>
<speed>0.8</speed>
</trkpt>
<trkpt lat="48.835369" lon="8.944545">
<ele>382.3</ele>
<time>2020-06-02T17:48:26Z</time>
<speed>0.3</speed>
</trkpt>
<trkpt lat="48.835369" lon="8.944547">
<ele>380.9</ele>
<time>2020-06-02T17:48:31Z</time>
<speed>0.0</speed>
</trkpt>
<trkpt lat="48.835368" lon="8.944460">
<ele>383.7</ele>
<time>2020-06-02T17:48:37Z</time>
<speed>0.6</speed>
</trkpt>
<trkpt lat="48.835339" lon="8.944398">
<ele>385.1</ele>
<time>2020-06-02T17:48:42Z</time>
<speed>0.8</speed>
</trkpt>
<trkpt lat="48.835325" lon="8.944311">
<ele>386.5</ele>
<time>2020-06-02T17:48:47Z</time>
<speed>0.8</speed>
</trkpt>
<trkpt lat="48.835298" lon="8.944235">
<ele>387.8</ele>
<time>2020-06-02T17:48:52Z</time>
<speed>0.8</speed>
</trkpt>
<trkpt lat="48.835277" lon="8.944161">
<ele>388.5</ele>
<time>2020-06-02T17:48:57Z</time>
<speed>0.8</speed>
</trkpt>
<trkpt lat="48.835258" lon="8.944074">
<ele>389.1</ele>
<time>2020-06-02T17:49:02Z</time>
<speed>0.8</speed>
</trkpt>
<trkpt lat="48.835248" lon="8.944016">
<ele>390.0</ele>
<time>2020-06-02T17:49:07Z</time>
<speed>0.6</speed>
</trkpt>
<trkpt lat="48.835240" lon="8.943945">
<ele>390.8</ele>
<time>2020-06-02T17:49:12Z</time>
<speed>0.8</speed>
</trkpt>
<trkpt lat="48.835240" lon="8.943877">
<ele>389.5</ele>
<time>2020-06-02T17:49:17Z</time>
<speed>1.1</speed>
</trkpt>
<trkpt lat="48.835240" lon="8.943797">
<ele>388.1</ele>
<time>2020-06-02T17:49:22Z</time>
<speed>0.8</speed>
</trkpt>
<trkpt lat="48.835221" lon="8.943712">
<ele>387.3</ele>
<time>2020-06-02T17:49:27Z</time>
<speed>1.1</speed>
</trkpt>
<trkpt lat="48.835208" lon="8.943627">
<ele>387.3</ele>
<time>2020-06-02T17:49:32Z</time>
<speed>1.1</speed>
</trkpt>
<trkpt lat="48.835213" lon="8.943557">
<ele>388.1</ele>
<time>2020-06-02T17:49:37Z</time>
<speed>0.8</speed>
</trkpt>
<trkpt lat="48.835203" lon="8.943499">
<ele>389.0</ele>
<time>2020-06-02T17:49:42Z</time>
<speed>0.8</speed>
</trkpt>
<trkpt lat="48.835211" lon="8.943405">
<ele>388.3</ele>
<time>2020-06-02T17:49:47Z</time>
<speed>0.8</speed>
</trkpt>
<trkpt lat="48.835223" lon="8.943324">
<ele>388.5</ele>
<time>2020-06-02T17:49:52Z</time>
<speed>0.8</speed>
</trkpt>
<trkpt lat="48.835205" lon="8.943291">
<ele>390.2</ele>
<time>2020-06-02T17:49:57Z</time>
<speed>0.0</speed>
</trkpt>
<trkpt lat="48.835205" lon="8.943291">
<ele>390.2</ele>
<time>2020-06-02T17:50:02Z</time>
<speed>0.0</speed>
</trkpt>
<trkpt lat="48.835217" lon="8.943307">
<ele>390.4</ele>
<time>2020-06-02T17:50:07Z</time>
<speed>0.0</speed>
</trkpt>
<trkpt lat="48.835224" lon="8.943295">
<ele>389.7</ele>
<time>2020-06-02T17:50:12Z</time>
<speed>0.0</speed>
</trkpt>
<trkpt lat="48.835233" lon="8.943271">
<ele>388.8</ele>
<time>2020-06-02T17:50:17Z</time>
<speed>0.0</speed>
</trkpt>
<trkpt lat="48.835233" lon="8.943271">
<ele>388.8</ele>
<time>2020-06-02T17:50:22Z</time>
<speed>0.0</speed>
</trkpt>
<trkpt lat="48.835233" lon="8.943271">
<ele>388.8</ele>
<time>2020-06-02T17:50:27Z</time>
<speed>0.0</speed>
</trkpt>
<trkpt lat="48.835233" lon="8.943271">
<ele>388.8</ele>
<time>2020-06-02T17:50:32Z</time>
<speed>0.0</speed>
</trkpt>
<trkpt lat="48.835227" lon="8.943271">
<ele>388.0</ele>
<time>2020-06-02T17:50:37Z</time>
<speed>0.0</speed>
</trkpt>
<trkpt lat="48.835227" lon="8.943271">
<ele>388.0</ele>
<time>2020-06-02T17:50:42Z</time>
<speed>0.0</speed>
</trkpt>
<trkpt lat="48.835227" lon="8.943271">
<ele>388.0</ele>
<time>2020-06-02T17:50:47Z</time>
<speed>0.0</speed>
</trkpt>
<trkpt lat="48.835227" lon="8.943271">
<ele>388.0</ele>
<time>2020-06-02T17:50:52Z</time>
<speed>0.0</speed>
</trkpt>
<trkpt lat="48.835227" lon="8.943271">
<ele>388.0</ele>
<time>2020-06-02T17:50:57Z</time>
<speed>0.0</speed>
</trkpt>
<trkpt lat="48.835227" lon="8.943271">
<ele>388.0</ele>
<time>2020-06-02T17:51:02Z</time>
<speed>0.0</speed>
</trkpt>
<trkpt lat="48.835227" lon="8.943271">
<ele>388.0</ele>
<time>2020-06-02T17:51:07Z</time>
<speed>0.0</speed>
</trkpt>
<trkpt lat="48.835227" lon="8.943271">
<ele>388.0</ele>
<time>2020-06-02T17:51:12Z</time>
<speed>0.0</speed>
</trkpt>
<trkpt lat="48.835227" lon="8.943271">
<ele>388.0</ele>
<time>2020-06-02T17:51:17Z</time>
<speed>0.0</speed>
</trkpt>
<trkpt lat="48.835228" lon="8.943257">
<ele>387.9</ele>
<time>2020-06-02T17:51:22Z</time>
<speed>0.0</speed>
</trkpt>
<trkpt lat="48.835228" lon="8.943257">
<ele>387.9</ele>
<time>2020-06-02T17:51:27Z</time>
<speed>0.0</speed>
</trkpt>
<trkpt lat="48.835228" lon="8.943257">
<ele>387.9</ele>
<time>2020-06-02T17:51:32Z</time>
<speed>0.0</speed>
</trkpt>
<trkpt lat="48.835228" lon="8.943257">
<ele>387.9</ele>
<time>2020-06-02T17:51:37Z</time>
<speed>0.0</speed>
</trkpt>
<trkpt lat="48.835235" lon="8.943259">
<ele>387.3</ele>
<time>2020-06-02T17:51:42Z</time>
<speed>0.0</speed>
</trkpt>
<trkpt lat="48.835235" lon="8.943259">
<ele>387.3</ele>
<time>2020-06-02T17:51:47Z</time>
<speed>0.0</speed>
</trkpt>
<trkpt lat="48.835235" lon="8.943259">
<ele>387.3</ele>
<time>2020-06-02T17:51:52Z</time>
<speed>0.0</speed>
</trkpt>
<trkpt lat="48.835235" lon="8.943259">
<ele>387.3</ele>
<time>2020-06-02T17:51:57Z</time>
<speed>0.0</speed>
</trkpt>
<trkpt lat="48.835235" lon="8.943259">
<ele>387.3</ele>
<time>2020-06-02T17:52:02Z</time>
<speed>0.0</speed>
</trkpt>
<trkpt lat="48.835235" lon="8.943259">
<ele>387.3</ele>
<time>2020-06-02T17:52:07Z</time>
<speed>0.0</speed>
</trkpt>
<trkpt lat="48.835235" lon="8.943259">
<ele>387.3</ele>
<time>2020-06-02T17:52:12Z</time>
<speed>0.0</speed>
</trkpt>
<trkpt lat="48.835235" lon="8.943259">
<ele>387.3</ele>
<time>2020-06-02T17:52:17Z</time>
<speed>0.0</speed>
</trkpt>
<trkpt lat="48.835235" lon="8.943259">
<ele>387.3</ele>
<time>2020-06-02T17:52:22Z</time>
<speed>0.0</speed>
</trkpt>
<trkpt lat="48.835235" lon="8.943259">
<ele>387.3</ele>
<time>2020-06-02T17:52:27Z</time>
<speed>0.0</speed>
</trkpt>
<trkpt lat="48.835235" lon="8.943259">
<ele>387.3</ele>
<time>2020-06-02T17:52:32Z</time>
<speed>0.0</speed>
</trkpt>
<trkpt lat="48.835235" lon="8.943259">
<ele>387.3</ele>
<time>2020-06-02T17:52:37Z</time>
<speed>0.0</speed>
</trkpt>
<trkpt lat="48.835235" lon="8.943259">
<ele>387.3</ele>
<time>2020-06-02T17:52:42Z</time>
<speed>0.0</speed>
</trkpt>
<trkpt lat="48.835235" lon="8.943259">
<ele>387.3</ele>
<time>2020-06-02T17:52:47Z</time>
<speed>0.0</speed>
</trkpt>
<trkpt lat="48.835229" lon="8.943259">
<ele>386.5</ele>
<time>2020-06-02T17:52:52Z</time>
<speed>0.0</speed>
</trkpt>
<trkpt lat="48.835236" lon="8.943246">
<ele>387.2</ele>
<time>2020-06-02T17:52:57Z</time>
<speed>0.6</speed>
</trkpt>
<trkpt lat="48.835222" lon="8.943257">
<ele>387.2</ele>
<time>2020-06-02T17:53:02Z</time>
<speed>0.6</speed>
</trkpt>
<trkpt lat="48.835179" lon="8.943235">
<ele>387.4</ele>
<time>2020-06-02T17:53:07Z</time>
<speed>0.6</speed>
</trkpt>
<trkpt lat="48.835168" lon="8.943206">
<ele>387.1</ele>
<time>2020-06-02T17:53:12Z</time>
<speed>0.3</speed>
</trkpt>
<trkpt lat="48.835152" lon="8.943161">
<ele>387.4</ele>
<time>2020-06-02T17:53:17Z</time>
<speed>0.6</speed>
</trkpt>
<trkpt lat="48.835128" lon="8.943061">
<ele>387.1</ele>
<time>2020-06-02T17:53:22Z</time>
<speed>0.0</speed>
</trkpt>
<trkpt lat="48.835100" lon="8.943016">
<ele>385.8</ele>
<time>2020-06-02T17:53:27Z</time>
<speed>0.6</speed>
</trkpt>
<trkpt lat="48.835075" lon="8.942981">
<ele>388.2</ele>
<time>2020-06-02T17:53:32Z</time>
<speed>0.6</speed>
</trkpt>
<trkpt lat="48.835064" lon="8.942934">
<ele>390.6</ele>
<time>2020-06-02T17:53:37Z</time>
<speed>0.8</speed>
</trkpt>
<trkpt lat="48.835042" lon="8.942874">
<ele>391.4</ele>
<time>2020-06-02T17:53:42Z</time>
<speed>0.8</speed>
</trkpt>
<trkpt lat="48.835032" lon="8.942829">
<ele>392.4</ele>
<time>2020-06-02T17:53:47Z</time>
<speed>0.6</speed>
</trkpt>
<trkpt lat="48.834996" lon="8.942779">
<ele>394.6</ele>
<time>2020-06-02T17:53:52Z</time>
<speed>0.6</speed>
</trkpt>
<trkpt lat="48.834967" lon="8.942732">
<ele>394.7</ele>
<time>2020-06-02T17:53:57Z</time>
<speed>0.6</speed>
</trkpt>
<trkpt lat="48.834931" lon="8.942681">
<ele>396.9</ele>
<time>2020-06-02T17:54:02Z</time>
<speed>0.6</speed>
</trkpt>
<trkpt lat="48.834910" lon="8.942623">
<ele>396.3</ele>
<time>2020-06-02T17:54:07Z</time>
<speed>0.8</speed>
</trkpt>
<trkpt lat="48.834882" lon="8.942563">
<ele>396.3</ele>
<time>2020-06-02T17:54:12Z</time>
<speed>0.6</speed>
</trkpt>
<trkpt lat="48.834873" lon="8.942505">
<ele>397.2</ele>
<time>2020-06-02T17:54:17Z</time>
<speed>0.8</speed>
</trkpt>
<trkpt lat="48.834843" lon="8.942469">
<ele>398.9</ele>
<time>2020-06-02T17:54:22Z</time>
<speed>0.8</speed>
</trkpt>
<trkpt lat="48.834813" lon="8.942420">
<ele>400.4</ele>
<time>2020-06-02T17:54:27Z</time>
<speed>0.8</speed>
</trkpt>
<trkpt lat="48.834791" lon="8.942360">
<ele>401.2</ele>
<time>2020-06-02T17:54:32Z</time>
<speed>0.6</speed>
</trkpt>
<trkpt lat="48.834762" lon="8.942311">
<ele>402.8</ele>
<time>2020-06-02T17:54:37Z</time>
<speed>0.8</speed>
</trkpt>
<trkpt lat="48.834732" lon="8.942263">
<ele>404.3</ele>
<time>2020-06-02T17:54:42Z</time>
<speed>0.6</speed>
</trkpt>
<trkpt lat="48.834703" lon="8.942229">
<ele>404.5</ele>
<time>2020-06-02T17:54:47Z</time>
<speed>0.6</speed>
</trkpt>
<trkpt lat="48.834672" lon="8.942194">
<ele>406.2</ele>
<time>2020-06-02T17:54:52Z</time>
<speed>0.3</speed>
</trkpt>
<trkpt lat="48.834646" lon="8.942172">
<ele>408.7</ele>
<time>2020-06-02T17:54:57Z</time>
<speed>0.6</speed>
</trkpt>
<trkpt lat="48.834617" lon="8.942139">
<ele>408.9</ele>
<time>2020-06-02T17:55:02Z</time>
<speed>0.6</speed>
</trkpt>
<trkpt lat="48.834568" lon="8.942088">
<ele>409.6</ele>
<time>2020-06-02T17:55:07Z</time>
<speed>0.6</speed>
</trkpt>
<trkpt lat="48.834540" lon="8.942041">
<ele>409.7</ele>
<time>2020-06-02T17:55:12Z</time>
<speed>0.8</speed>
</trkpt>
<trkpt lat="48.834498" lon="8.941992">
<ele>409.8</ele>
<time>2020-06-02T17:55:17Z</time>
<speed>0.6</speed>
</trkpt>
<trkpt lat="48.834470" lon="8.941945">
<ele>409.9</ele>
<time>2020-06-02T17:55:22Z</time>
<speed>0.6</speed>
</trkpt>
<trkpt lat="48.834445" lon="8.941910">
<ele>412.3</ele>
<time>2020-06-02T17:55:27Z</time>
<speed>0.6</speed>
</trkpt>
<trkpt lat="48.834403" lon="8.941859">
<ele>413.7</ele>
<time>2020-06-02T17:55:32Z</time>
<speed>0.6</speed>
</trkpt>
<trkpt lat="48.834358" lon="8.941849">
<ele>415.5</ele>
<time>2020-06-02T17:55:37Z</time>
<speed>0.6</speed>
</trkpt>
<trkpt lat="48.834327" lon="8.941798">
<ele>418.4</ele>
<time>2020-06-02T17:55:42Z</time>
<speed>0.8</speed>
</trkpt>
<trkpt lat="48.834299" lon="8.941751">
<ele>418.6</ele>
<time>2020-06-02T17:55:47Z</time>
<speed>0.6</speed>
</trkpt>
<trkpt lat="48.834270" lon="8.941704">
<ele>418.7</ele>
<time>2020-06-02T17:55:52Z</time>
<speed>0.6</speed>
</trkpt>
<trkpt lat="48.834243" lon="8.941646">
<ele>417.3</ele>
<time>2020-06-02T17:55:57Z</time>
<speed>0.6</speed>
</trkpt>
<trkpt lat="48.834209" lon="8.941602">
<ele>415.3</ele>
<time>2020-06-02T17:56:02Z</time>
<speed>0.6</speed>
</trkpt>
<trkpt lat="48.834175" lon="8.941539">
<ele>416.0</ele>
<time>2020-06-02T17:56:07Z</time>
<speed>0.3</speed>
</trkpt>
<trkpt lat="48.834176" lon="8.941528">
<ele>414.5</ele>
<time>2020-06-02T17:56:12Z</time>
<speed>0.0</speed>
</trkpt>
<trkpt lat="48.834173" lon="8.941501">
<ele>413.6</ele>
<time>2020-06-02T17:56:17Z</time>
<speed>0.0</speed>
</trkpt>
<trkpt lat="48.834171" lon="8.941432">
<ele>413.7</ele>
<time>2020-06-02T17:56:22Z</time>
<speed>0.6</speed>
</trkpt>
<trkpt lat="48.834142" lon="8.941383">
<ele>415.2</ele>
<time>2020-06-02T17:56:27Z</time>
<speed>0.6</speed>
</trkpt>
<trkpt lat="48.834096" lon="8.941323">
<ele>413.0</ele>
<time>2020-06-02T17:56:32Z</time>
<speed>0.8</speed>
</trkpt>
<trkpt lat="48.834071" lon="8.941238">
<ele>411.4</ele>
<time>2020-06-02T17:56:37Z</time>
<speed>0.8</speed>
</trkpt>
<trkpt lat="48.834044" lon="8.941162">
<ele>412.8</ele>
<time>2020-06-02T17:56:42Z</time>
<speed>0.6</speed>
</trkpt>
<trkpt lat="48.834016" lon="8.941102">
<ele>412.8</ele>
<time>2020-06-02T17:56:47Z</time>
<speed>0.8</speed>
</trkpt>
<trkpt lat="48.833988" lon="8.941039">
<ele>414.3</ele>
<time>2020-06-02T17:56:52Z</time>
<speed>0.6</speed>
</trkpt>
<trkpt lat="48.833944" lon="8.941018">
<ele>414.5</ele>
<time>2020-06-02T17:56:57Z</time>
<speed>0.8</speed>
</trkpt>
<trkpt lat="48.833917" lon="8.940957">
<ele>414.5</ele>
<time>2020-06-02T17:57:02Z</time>
<speed>0.3</speed>
</trkpt>
<trkpt lat="48.833890" lon="8.940884">
<ele>414.5</ele>
<time>2020-06-02T17:57:07Z</time>
<speed>0.6</speed>
</trkpt>
<trkpt lat="48.833857" lon="8.940808">
<ele>415.0</ele>
<time>2020-06-02T17:57:12Z</time>
<speed>0.8</speed>
</trkpt>
<trkpt lat="48.833828" lon="8.940746">
<ele>416.5</ele>
<time>2020-06-02T17:57:17Z</time>
<speed>0.8</speed>
</trkpt>
<trkpt lat="48.833799" lon="8.940697">
<ele>418.0</ele>
<time>2020-06-02T17:57:22Z</time>
<speed>0.8</speed>
</trkpt>
<trkpt lat="48.833769" lon="8.940648">
<ele>419.6</ele>
<time>2020-06-02T17:57:27Z</time>
<speed>0.6</speed>
</trkpt>
<trkpt lat="48.833739" lon="8.940613">
<ele>421.2</ele>
<time>2020-06-02T17:57:32Z</time>
<speed>0.0</speed>
</trkpt>
<trkpt lat="48.833717" lon="8.940568">
<ele>420.7</ele>
<time>2020-06-02T17:57:37Z</time>
<speed>0.6</speed>
</trkpt>
<trkpt lat="48.833668" lon="8.940531">
<ele>421.5</ele>
<time>2020-06-02T17:57:42Z</time>
<speed>0.6</speed>
</trkpt>
<trkpt lat="48.833623" lon="8.940507">
<ele>423.1</ele>
<time>2020-06-02T17:57:47Z</time>
<speed>0.8</speed>
</trkpt>
<trkpt lat="48.833592" lon="8.940500">
<ele>423.6</ele>
<time>2020-06-02T17:57:52Z</time>
<speed>0.3</speed>
</trkpt>
<trkpt lat="48.833553" lon="8.940476">
<ele>426.0</ele>
<time>2020-06-02T17:57:57Z</time>
<speed>0.6</speed>
</trkpt>
<trkpt lat="48.833522" lon="8.940456">
<ele>426.3</ele>
<time>2020-06-02T17:58:02Z</time>
<speed>0.6</speed>
</trkpt>
<trkpt lat="48.833485" lon="8.940419">
<ele>428.6</ele>
<time>2020-06-02T17:58:07Z</time>
<speed>0.8</speed>
</trkpt>
<trkpt lat="48.833447" lon="8.940395">
<ele>431.0</ele>
<time>2020-06-02T17:58:12Z</time>
<speed>0.8</speed>
</trkpt>
<trkpt lat="48.833404" lon="8.940342">
<ele>433.8</ele>
<time>2020-06-02T17:58:17Z</time>
<speed>0.3</speed>
</trkpt>
<trkpt lat="48.833370" lon="8.940282">
<ele>433.1</ele>
<time>2020-06-02T17:58:22Z</time>
<speed>0.3</speed>
</trkpt>
<trkpt lat="48.833336" lon="8.940235">
<ele>432.5</ele>
<time>2020-06-02T17:58:27Z</time>
<speed>0.8</speed>
</trkpt>
<trkpt lat="48.833301" lon="8.940188">
<ele>431.9</ele>
<time>2020-06-02T17:58:32Z</time>
<speed>0.6</speed>
</trkpt>
<trkpt lat="48.833292" lon="8.940146">
<ele>431.5</ele>
<time>2020-06-02T17:58:37Z</time>
<speed>0.0</speed>
</trkpt>
<trkpt lat="48.833292" lon="8.940146">
<ele>431.5</ele>
<time>2020-06-02T17:58:42Z</time>
<speed>0.0</speed>
</trkpt>
<trkpt lat="48.833294" lon="8.940119">
<ele>431.3</ele>
<time>2020-06-02T17:58:48Z</time>
<speed>0.0</speed>
</trkpt>
<trkpt lat="48.833273" lon="8.940061">
<ele>430.7</ele>
<time>2020-06-02T17:58:53Z</time>
<speed>0.3</speed>
</trkpt>
<trkpt lat="48.833243" lon="8.940027">
<ele>430.9</ele>
<time>2020-06-02T17:58:58Z</time>
<speed>0.0</speed>
</trkpt>
<trkpt lat="48.833218" lon="8.940008">
<ele>432.0</ele>
<time>2020-06-02T17:59:03Z</time>
<speed>0.6</speed>
</trkpt>
<trkpt lat="48.833177" lon="8.939961">
<ele>430.6</ele>
<time>2020-06-02T17:59:08Z</time>
<speed>0.3</speed>
</trkpt>
<trkpt lat="48.833153" lon="8.939928">
<ele>431.6</ele>
<time>2020-06-02T17:59:13Z</time>
<speed>0.3</speed>
</trkpt>
<trkpt lat="48.833129" lon="8.939910">
<ele>431.3</ele>
<time>2020-06-02T17:59:18Z</time>
<speed>0.6</speed>
</trkpt>
<trkpt lat="48.833094" lon="8.939861">
<ele>432.1</ele>
<time>2020-06-02T17:59:23Z</time>
<speed>0.8</speed>
</trkpt>
<trkpt lat="48.833041" lon="8.939812">
<ele>430.6</ele>
<time>2020-06-02T17:59:28Z</time>
<speed>0.8</speed>
</trkpt>
<trkpt lat="48.833005" lon="8.939763">
<ele>431.4</ele>
<time>2020-06-02T17:59:33Z</time>
<speed>0.3</speed>
</trkpt>
<trkpt lat="48.832965" lon="8.939701">
<ele>431.4</ele>
<time>2020-06-02T17:59:38Z</time>
<speed>0.8</speed>
</trkpt>
<trkpt lat="48.832923" lon="8.939666">
<ele>431.5</ele>
<time>2020-06-02T17:59:43Z</time>
<speed>0.6</speed>
</trkpt>
<trkpt lat="48.832879" lon="8.939644">
<ele>431.7</ele>
<time>2020-06-02T17:59:48Z</time>
<speed>0.6</speed>
</trkpt>
<trkpt lat="48.832831" lon="8.939609">
<ele>431.1</ele>
<time>2020-06-02T17:59:53Z</time>
<speed>0.8</speed>
</trkpt>
<trkpt lat="48.832800" lon="8.939589">
<ele>431.5</ele>
<time>2020-06-02T17:59:58Z</time>
<speed>0.6</speed>
</trkpt>
<trkpt lat="48.832749" lon="8.939596">
<ele>429.8</ele>
<time>2020-06-02T18:00:03Z</time>
<speed>0.8</speed>
</trkpt>
<trkpt lat="48.832694" lon="8.939589">
<ele>427.2</ele>
<time>2020-06-02T18:00:08Z</time>
<speed>0.6</speed>
</trkpt>
<trkpt lat="48.832643" lon="8.939581">
<ele>426.8</ele>
<time>2020-06-02T18:00:13Z</time>
<speed>0.8</speed>
</trkpt>
<trkpt lat="48.832577" lon="8.939530">
<ele>425.2</ele>
<time>2020-06-02T18:00:18Z</time>
<speed>0.8</speed>
</trkpt>
<trkpt lat="48.832554" lon="8.939497">
<ele>426.2</ele>
<time>2020-06-02T18:00:23Z</time>
<speed>0.8</speed>
</trkpt>
<trkpt lat="48.832548" lon="8.939481">
<ele>426.8</ele>
<time>2020-06-02T18:00:28Z</time>
<speed>0.6</speed>
</trkpt>
<trkpt lat="48.832510" lon="8.939459">
<ele>427.7</ele>
<time>2020-06-02T18:00:33Z</time>
<speed>0.8</speed>
</trkpt>
<trkpt lat="48.832460" lon="8.939435">
<ele>428.6</ele>
<time>2020-06-02T18:00:38Z</time>
<speed>0.8</speed>
</trkpt>
<trkpt lat="48.832405" lon="8.939398">
<ele>428.7</ele>
<time>2020-06-02T18:00:43Z</time>
<speed>0.8</speed>
</trkpt>
<trkpt lat="48.832352" lon="8.939333">
<ele>428.5</ele>
<time>2020-06-02T18:00:48Z</time>
<speed>0.8</speed>
</trkpt>
<trkpt lat="48.832310" lon="8.939282">
<ele>429.9</ele>
<time>2020-06-02T18:00:53Z</time>
<speed>0.6</speed>
</trkpt>
<trkpt lat="48.832275" lon="8.939234">
<ele>430.7</ele>
<time>2020-06-02T18:00:58Z</time>
<speed>0.6</speed>
</trkpt>
<trkpt lat="48.832231" lon="8.939210">
<ele>432.4</ele>
<time>2020-06-02T18:01:03Z</time>
<speed>0.8</speed>
</trkpt>
<trkpt lat="48.832218" lon="8.939207">
<ele>432.3</ele>
<time>2020-06-02T18:01:08Z</time>
<speed>0.0</speed>
</trkpt>
<trkpt lat="48.832218" lon="8.939207">
<ele>432.3</ele>
<time>2020-06-02T18:01:13Z</time>
<speed>0.0</speed>
</trkpt>
<trkpt lat="48.832225" lon="8.939194">
<ele>432.9</ele>
<time>2020-06-02T18:01:18Z</time>
<speed>0.0</speed>
</trkpt>
<trkpt lat="48.832197" lon="8.939149">
<ele>431.7</ele>
<time>2020-06-02T18:01:23Z</time>
<speed>0.6</speed>
</trkpt>
<trkpt lat="48.832161" lon="8.939114">
<ele>432.6</ele>
<time>2020-06-02T18:01:28Z</time>
<speed>0.6</speed>
</trkpt>
<trkpt lat="48.832108" lon="8.939132">
<ele>432.3</ele>
<time>2020-06-02T18:01:33Z</time>
<speed>0.6</speed>
</trkpt>
<trkpt lat="48.832067" lon="8.939084">
<ele>432.4</ele>
<time>2020-06-02T18:01:38Z</time>
<speed>0.8</speed>
</trkpt>
<trkpt lat="48.832029" lon="8.939046">
<ele>434.7</ele>
<time>2020-06-02T18:01:43Z</time>
<speed>0.6</speed>
</trkpt>
<trkpt lat="48.831999" lon="8.939011">
<ele>436.3</ele>
<time>2020-06-02T18:01:48Z</time>
<speed>0.6</speed>
</trkpt>
<trkpt lat="48.831973" lon="8.938989">
<ele>438.8</ele>
<time>2020-06-02T18:01:53Z</time>
<speed>0.6</speed>
</trkpt>
<trkpt lat="48.831942" lon="8.938951">
<ele>441.9</ele>
<time>2020-06-02T18:01:58Z</time>
<speed>0.8</speed>
</trkpt>
<trkpt lat="48.831915" lon="8.938893">
<ele>440.5</ele>
<time>2020-06-02T18:02:03Z</time>
<speed>0.3</speed>
</trkpt>
<trkpt lat="48.831881" lon="8.938833">
<ele>439.8</ele>
<time>2020-06-02T18:02:08Z</time>
<speed>0.8</speed>
</trkpt>
<trkpt lat="48.831838" lon="8.938746">
<ele>437.4</ele>
<time>2020-06-02T18:02:13Z</time>
<speed>1.1</speed>
</trkpt>
<trkpt lat="48.831803" lon="8.938697">
<ele>438.1</ele>
<time>2020-06-02T18:02:18Z</time>
<speed>0.6</speed>
</trkpt>
<trkpt lat="48.831761" lon="8.938648">
<ele>438.2</ele>
<time>2020-06-02T18:02:23Z</time>
<speed>0.3</speed>
</trkpt>
<trkpt lat="48.831743" lon="8.938615">
<ele>439.9</ele>
<time>2020-06-02T18:02:28Z</time>
<speed>0.6</speed>
</trkpt>
<trkpt lat="48.831705" lon="8.938591">
<ele>442.3</ele>
<time>2020-06-02T18:02:33Z</time>
<speed>0.6</speed>
</trkpt>
<trkpt lat="48.831656" lon="8.938554">
<ele>443.1</ele>
<time>2020-06-02T18:02:38Z</time>
<speed>0.6</speed>
</trkpt>
<trkpt lat="48.831615" lon="8.938507">
<ele>441.7</ele>
<time>2020-06-02T18:02:43Z</time>
<speed>0.6</speed>
</trkpt>
<trkpt lat="48.831561" lon="8.938456">
<ele>441.7</ele>
<time>2020-06-02T18:02:48Z</time>
<speed>0.6</speed>
</trkpt>
<trkpt lat="48.831526" lon="8.938425">
<ele>439.8</ele>
<time>2020-06-02T18:02:53Z</time>
<speed>0.8</speed>
</trkpt>
<trkpt lat="48.831465" lon="8.938403">
<ele>437.7</ele>
<time>2020-06-02T18:02:58Z</time>
<speed>0.8</speed>
</trkpt>
<trkpt lat="48.831459" lon="8.938403">
<ele>437.0</ele>
<time>2020-06-02T18:03:03Z</time>
<speed>0.0</speed>
</trkpt>
<trkpt lat="48.831446" lon="8.938399">
<ele>438.3</ele>
<time>2020-06-02T18:03:08Z</time>
<speed>0.6</speed>
</trkpt>
<trkpt lat="48.831391" lon="8.938377">
<ele>437.0</ele>
<time>2020-06-02T18:03:13Z</time>
<speed>0.8</speed>
</trkpt>
<trkpt lat="48.831333" lon="8.938364">
<ele>438.7</ele>
<time>2020-06-02T18:03:18Z</time>
<speed>0.8</speed>
</trkpt>
<trkpt lat="48.831287" lon="8.938369">
<ele>439.1</ele>
<time>2020-06-02T18:03:23Z</time>
<speed>0.8</speed>
</trkpt>
<trkpt lat="48.831251" lon="8.938334">
<ele>440.0</ele>
<time>2020-06-02T18:03:28Z</time>
<speed>0.6</speed>
</trkpt>
<trkpt lat="48.831196" lon="8.938296">
<ele>440.0</ele>
<time>2020-06-02T18:03:33Z</time>
<speed>1.1</speed>
</trkpt>
<trkpt lat="48.831141" lon="8.938261">
<ele>438.7</ele>
<time>2020-06-02T18:03:38Z</time>
<speed>0.8</speed>
</trkpt>
<trkpt lat="48.831116" lon="8.938257">
<ele>438.5</ele>
<time>2020-06-02T18:03:43Z</time>
<speed>0.6</speed>
</trkpt>
<trkpt lat="48.831074" lon="8.938221">
<ele>438.6</ele>
<time>2020-06-02T18:03:48Z</time>
<speed>0.8</speed>
</trkpt>
<trkpt lat="48.831033" lon="8.938175">
<ele>437.2</ele>
<time>2020-06-02T18:03:53Z</time>
<speed>0.6</speed>
</trkpt>
<trkpt lat="48.831003" lon="8.938139">
<ele>438.9</ele>
<time>2020-06-02T18:03:58Z</time>
<speed>0.6</speed>
</trkpt>
<trkpt lat="48.830974" lon="8.938092">
<ele>439.0</ele>
<time>2020-06-02T18:04:03Z</time>
<speed>0.6</speed>
</trkpt>
<trkpt lat="48.830905" lon="8.938082">
<ele>437.8</ele>
<time>2020-06-02T18:04:08Z</time>
<speed>0.8</speed>
</trkpt>
<trkpt lat="48.830869" lon="8.938064">
<ele>435.9</ele>
<time>2020-06-02T18:04:13Z</time>
<speed>0.8</speed>
</trkpt>
<trkpt lat="48.830805" lon="8.938067">
<ele>435.5</ele>
<time>2020-06-02T18:04:18Z</time>
<speed>0.6</speed>
</trkpt>
<trkpt lat="48.830772" lon="8.938025">
<ele>432.1</ele>
<time>2020-06-02T18:04:23Z</time>
<speed>0.6</speed>
</trkpt>
<trkpt lat="48.830743" lon="8.937993">
<ele>431.0</ele>
<time>2020-06-02T18:04:28Z</time>
<speed>0.6</speed>
</trkpt>
<trkpt lat="48.830716" lon="8.937985">
<ele>433.6</ele>
<time>2020-06-02T18:04:33Z</time>
<speed>0.8</speed>
</trkpt>
<trkpt lat="48.830685" lon="8.937981">
<ele>432.6</ele>
<time>2020-06-02T18:04:38Z</time>
<speed>0.8</speed>
</trkpt>
<trkpt lat="48.830642" lon="8.937961">
<ele>431.4</ele>
<time>2020-06-02T18:04:43Z</time>
<speed>0.6</speed>
</trkpt>
<trkpt lat="48.830599" lon="8.937939">
<ele>431.7</ele>
<time>2020-06-02T18:04:48Z</time>
<speed>0.6</speed>
</trkpt>
<trkpt lat="48.830555" lon="8.937915">
<ele>433.3</ele>
<time>2020-06-02T18:04:53Z</time>
<speed>0.6</speed>
</trkpt>
<trkpt lat="48.830529" lon="8.937909">
<ele>434.5</ele>
<time>2020-06-02T18:04:58Z</time>
<speed>0.6</speed>
</trkpt>
<trkpt lat="48.830534" lon="8.937907">
<ele>436.7</ele>
<time>2020-06-02T18:05:03Z</time>
<speed>0.3</speed>
</trkpt>
<trkpt lat="48.830489" lon="8.937883">
<ele>438.3</ele>
<time>2020-06-02T18:05:08Z</time>
<speed>0.6</speed>
</trkpt>
<trkpt lat="48.830450" lon="8.937838">
<ele>435.5</ele>
<time>2020-06-02T18:05:13Z</time>
<speed>0.0</speed>
</trkpt>
<trkpt lat="48.830423" lon="8.937847">
<ele>435.4</ele>
<time>2020-06-02T18:05:18Z</time>
<speed>0.6</speed>
</trkpt>
<trkpt lat="48.830355" lon="8.937839">
<ele>432.8</ele>
<time>2020-06-02T18:05:23Z</time>
<speed>0.6</speed>
</trkpt>
<trkpt lat="48.830310" lon="8.937846">
<ele>431.8</ele>
<time>2020-06-02T18:05:28Z</time>
<speed>0.6</speed>
</trkpt>
<trkpt lat="48.830280" lon="8.937826">
<ele>432.2</ele>
<time>2020-06-02T18:05:33Z</time>
<speed>0.6</speed>
</trkpt>
<trkpt lat="48.830248" lon="8.937822">
<ele>431.2</ele>
<time>2020-06-02T18:05:38Z</time>
<speed>0.6</speed>
</trkpt>
<trkpt lat="48.830206" lon="8.937802">
<ele>430.0</ele>
<time>2020-06-02T18:05:43Z</time>
<speed>0.6</speed>
</trkpt>
<trkpt lat="48.830156" lon="8.937796">
<ele>428.2</ele>
<time>2020-06-02T18:05:48Z</time>
<speed>0.6</speed>
</trkpt>
<trkpt lat="48.830096" lon="8.937810">
<ele>430.1</ele>
<time>2020-06-02T18:05:53Z</time>
<speed>0.6</speed>
</trkpt>
<trkpt lat="48.830043" lon="8.937826">
<ele>431.3</ele>
<time>2020-06-02T18:05:58Z</time>
<speed>1.1</speed>
</trkpt>
<trkpt lat="48.829989" lon="8.937840">
<ele>433.9</ele>
<time>2020-06-02T18:06:03Z</time>
<speed>0.8</speed>
</trkpt>
<trkpt lat="48.829943" lon="8.937845">
<ele>434.3</ele>
<time>2020-06-02T18:06:08Z</time>
<speed>0.6</speed>
</trkpt>
<trkpt lat="48.829935" lon="8.937855">
<ele>436.5</ele>
<time>2020-06-02T18:06:13Z</time>
<speed>0.0</speed>
</trkpt>
<trkpt lat="48.829908" lon="8.937864">
<ele>436.4</ele>
<time>2020-06-02T18:06:18Z</time>
<speed>0.3</speed>
</trkpt>
<trkpt lat="48.829894" lon="8.937873">
<ele>437.8</ele>
<time>2020-06-02T18:06:23Z</time>
<speed>0.6</speed>
</trkpt>
<trkpt lat="48.829861" lon="8.937880">
<ele>438.3</ele>
<time>2020-06-02T18:06:28Z</time>
<speed>0.6</speed>
</trkpt>
<trkpt lat="48.829795" lon="8.937910">
<ele>438.1</ele>
<time>2020-06-02T18:06:33Z</time>
<speed>0.6</speed>
</trkpt>
<trkpt lat="48.829756" lon="8.937917">
<ele>437.9</ele>
<time>2020-06-02T18:06:38Z</time>
<speed>0.0</speed>
</trkpt>
<trkpt lat="48.829756" lon="8.937917">
<ele>437.9</ele>
<time>2020-06-02T18:06:43Z</time>
<speed>0.0</speed>
</trkpt>
<trkpt lat="48.829756" lon="8.937917">
<ele>437.9</ele>
<time>2020-06-02T18:06:48Z</time>
<speed>0.0</speed>
</trkpt>
<trkpt lat="48.829699" lon="8.937891">
<ele>439.5</ele>
<time>2020-06-02T18:06:53Z</time>
<speed>0.3</speed>
</trkpt>
<trkpt lat="48.829680" lon="8.937902">
<ele>438.7</ele>
<time>2020-06-02T18:06:58Z</time>
<speed>0.0</speed>
</trkpt>
<trkpt lat="48.829640" lon="8.937907">
<ele>439.9</ele>
<time>2020-06-02T18:07:03Z</time>
<speed>0.6</speed>
</trkpt>
<trkpt lat="48.829597" lon="8.937903">
<ele>437.4</ele>
<time>2020-06-02T18:07:08Z</time>
<speed>0.8</speed>
</trkpt>
<trkpt lat="48.829552" lon="8.937892">
<ele>439.2</ele>
<time>2020-06-02T18:07:13Z</time>
<speed>0.3</speed>
</trkpt>
<trkpt lat="48.829538" lon="8.937888">
<ele>440.5</ele>
<time>2020-06-02T18:07:18Z</time>
<speed>0.0</speed>
</trkpt>
<trkpt lat="48.829538" lon="8.937888">
<ele>440.5</ele>
<time>2020-06-02T18:07:23Z</time>
<speed>0.0</speed>
</trkpt>
<trkpt lat="48.829505" lon="8.937895">
<ele>441.0</ele>
<time>2020-06-02T18:07:28Z</time>
<speed>0.6</speed>
</trkpt>
<trkpt lat="48.829473" lon="8.937887">
<ele>442.9</ele>
<time>2020-06-02T18:07:33Z</time>
<speed>0.3</speed>
</trkpt>
<trkpt lat="48.829439" lon="8.937892">
<ele>444.8</ele>
<time>2020-06-02T18:07:38Z</time>
<speed>0.3</speed>
</trkpt>
<trkpt lat="48.829387" lon="8.937863">
<ele>448.5</ele>
<time>2020-06-02T18:07:43Z</time>
<speed>0.6</speed>
</trkpt>
<trkpt lat="48.829318" lon="8.937835">
<ele>450.0</ele>
<time>2020-06-02T18:07:48Z</time>
<speed>0.6</speed>
</trkpt>
<trkpt lat="48.829280" lon="8.937813">
<ele>451.0</ele>
<time>2020-06-02T18:07:53Z</time>
<speed>0.6</speed>
</trkpt>
<trkpt lat="48.829223" lon="8.937801">
<ele>452.6</ele>
<time>2020-06-02T18:07:58Z</time>
<speed>0.8</speed>
</trkpt>
<trkpt lat="48.829177" lon="8.937788">
<ele>455.8</ele>
<time>2020-06-02T18:08:03Z</time>
<speed>0.6</speed>
</trkpt>
<trkpt lat="48.829131" lon="8.937777">
<ele>457.5</ele>
<time>2020-06-02T18:08:08Z</time>
<speed>0.6</speed>
</trkpt>
<trkpt lat="48.829085" lon="8.937780">
<ele>459.3</ele>
<time>2020-06-02T18:08:13Z</time>
<speed>0.6</speed>
</trkpt>
<trkpt lat="48.829041" lon="8.937758">
<ele>459.6</ele>
<time>2020-06-02T18:08:18Z</time>
<speed>0.0</speed>
</trkpt>
<trkpt lat="48.829036" lon="8.937758">
<ele>458.8</ele>
<time>2020-06-02T18:08:23Z</time>
<speed>0.0</speed>
</trkpt>
<trkpt lat="48.829037" lon="8.937747">
<ele>457.3</ele>
<time>2020-06-02T18:08:28Z</time>
<speed>0.0</speed>
</trkpt>
<trkpt lat="48.829037" lon="8.937747">
<ele>457.3</ele>
<time>2020-06-02T18:08:33Z</time>
<speed>0.0</speed>
</trkpt>
<trkpt lat="48.829051" lon="8.937751">
<ele>456.0</ele>
<time>2020-06-02T18:08:38Z</time>
<speed>0.0</speed>
</trkpt>
<trkpt lat="48.829061" lon="8.937713">
<ele>455.1</ele>
<time>2020-06-02T18:08:43Z</time>
<speed>0.0</speed>
</trkpt>
<trkpt lat="48.829061" lon="8.937713">
<ele>455.1</ele>
<time>2020-06-02T18:08:48Z</time>
<speed>0.0</speed>
</trkpt>
<trkpt lat="48.829063" lon="8.937688">
<ele>453.5</ele>
<time>2020-06-02T18:08:53Z</time>
<speed>0.0</speed>
</trkpt>
<trkpt lat="48.829052" lon="8.937673">
<ele>453.3</ele>
<time>2020-06-02T18:08:58Z</time>
<speed>0.0</speed>
</trkpt>
<trkpt lat="48.828995" lon="8.937646">
<ele>454.8</ele>
<time>2020-06-02T18:09:03Z</time>
<speed>0.6</speed>
</trkpt>
<trkpt lat="48.828951" lon="8.937638">
<ele>455.1</ele>
<time>2020-06-02T18:09:08Z</time>
<speed>0.8</speed>
</trkpt>
<trkpt lat="48.828908" lon="8.937587">
<ele>456.6</ele>
<time>2020-06-02T18:09:13Z</time>
<speed>0.3</speed>
</trkpt>
<trkpt lat="48.828866" lon="8.937567">
<ele>455.4</ele>
<time>2020-06-02T18:09:18Z</time>
<speed>0.6</speed>
</trkpt>
<trkpt lat="48.828830" lon="8.937550">
<ele>453.6</ele>
<time>2020-06-02T18:09:23Z</time>
<speed>0.0</speed>
</trkpt>
<trkpt lat="48.828830" lon="8.937550">
<ele>453.6</ele>
<time>2020-06-02T18:09:28Z</time>
<speed>0.0</speed>
</trkpt>
<trkpt lat="48.828829" lon="8.937565">
<ele>452.3</ele>
<time>2020-06-02T18:09:33Z</time>
<speed>0.3</speed>
</trkpt>
<trkpt lat="48.828799" lon="8.937547">
<ele>451.2</ele>
<time>2020-06-02T18:09:38Z</time>
<speed>0.8</speed>
</trkpt>
<trkpt lat="48.828749" lon="8.937523">
<ele>452.1</ele>
<time>2020-06-02T18:09:43Z</time>
<speed>0.8</speed>
</trkpt>
<trkpt lat="48.828705" lon="8.937515">
<ele>452.5</ele>
<time>2020-06-02T18:09:48Z</time>
<speed>0.6</speed>
</trkpt>
<trkpt lat="48.828656" lon="8.937495">
<ele>450.6</ele>
<time>2020-06-02T18:09:53Z</time>
<speed>0.8</speed>
</trkpt>
<trkpt lat="48.828615" lon="8.937446">
<ele>450.6</ele>
<time>2020-06-02T18:09:58Z</time>
<speed>0.8</speed>
</trkpt>
<trkpt lat="48.828585" lon="8.937413">
<ele>450.8</ele>
<time>2020-06-02T18:10:03Z</time>
<speed>0.6</speed>
</trkpt>
<trkpt lat="48.828549" lon="8.937362">
<ele>453.0</ele>
<time>2020-06-02T18:10:08Z</time>
<speed>0.6</speed>
</trkpt>
<trkpt lat="48.828528" lon="8.937289">
<ele>453.7</ele>
<time>2020-06-02T18:10:13Z</time>
<speed>0.6</speed>
</trkpt>
<trkpt lat="48.828504" lon="8.937190">
<ele>452.0</ele>
<time>2020-06-02T18:10:18Z</time>
<speed>0.8</speed>
</trkpt>
<trkpt lat="48.828482" lon="8.937143">
<ele>452.9</ele>
<time>2020-06-02T18:10:23Z</time>
<speed>0.6</speed>
</trkpt>
<trkpt lat="48.828461" lon="8.937070">
<ele>453.6</ele>
<time>2020-06-02T18:10:28Z</time>
<speed>0.8</speed>
</trkpt>
<trkpt lat="48.828441" lon="8.936998">
<ele>452.9</ele>
<time>2020-06-02T18:10:33Z</time>
<speed>0.8</speed>
</trkpt>
<trkpt lat="48.828424" lon="8.936952">
<ele>454.6</ele>
<time>2020-06-02T18:10:38Z</time>
<speed>0.0</speed>
</trkpt>
<trkpt lat="48.828416" lon="8.936963">
<ele>455.3</ele>
<time>2020-06-02T18:10:43Z</time>
<speed>0.0</speed>
</trkpt>
<trkpt lat="48.828416" lon="8.936963">
<ele>455.3</ele>
<time>2020-06-02T18:10:48Z</time>
<speed>0.0</speed>
</trkpt>
<trkpt lat="48.828389" lon="8.936903">
<ele>455.3</ele>
<time>2020-06-02T18:10:53Z</time>
<speed>0.8</speed>
</trkpt>
<trkpt lat="48.828359" lon="8.936838">
<ele>458.2</ele>
<time>2020-06-02T18:10:58Z</time>
<speed>0.3</speed>
</trkpt>
<trkpt lat="48.828331" lon="8.936792">
<ele>458.3</ele>
<time>2020-06-02T18:11:03Z</time>
<speed>0.8</speed>
</trkpt>
<trkpt lat="48.828302" lon="8.936745">
<ele>458.5</ele>
<time>2020-06-02T18:11:08Z</time>
<speed>0.8</speed>
</trkpt>
<trkpt lat="48.828275" lon="8.936687">
<ele>457.1</ele>
<time>2020-06-02T18:11:13Z</time>
<speed>0.6</speed>
</trkpt>
<trkpt lat="48.828256" lon="8.936618">
<ele>455.0</ele>
<time>2020-06-02T18:11:18Z</time>
<speed>0.8</speed>
</trkpt>
<trkpt lat="48.828258" lon="8.936591">
<ele>454.8</ele>
<time>2020-06-02T18:11:23Z</time>
<speed>0.0</speed>
</trkpt>
<trkpt lat="48.828253" lon="8.936577">
<ele>453.9</ele>
<time>2020-06-02T18:11:28Z</time>
<speed>0.6</speed>
</trkpt>
<trkpt lat="48.828216" lon="8.936542">
<ele>454.8</ele>
<time>2020-06-02T18:11:33Z</time>
<speed>0.8</speed>
</trkpt>
<trkpt lat="48.828204" lon="8.936459">
<ele>453.3</ele>
<time>2020-06-02T18:11:38Z</time>
<speed>0.8</speed>
</trkpt>
<trkpt lat="48.828236" lon="8.936382">
<ele>452.9</ele>
<time>2020-06-02T18:11:43Z</time>
<speed>0.6</speed>
</trkpt>
<trkpt lat="48.828245" lon="8.936327">
<ele>454.7</ele>
<time>2020-06-02T18:11:48Z</time>
<speed>0.3</speed>
</trkpt>
<trkpt lat="48.828260" lon="8.936237">
<ele>451.9</ele>
<time>2020-06-02T18:11:53Z</time>
<speed>0.6</speed>
</trkpt>
<trkpt lat="48.828288" lon="8.936133">
<ele>450.5</ele>
<time>2020-06-02T18:11:58Z</time>
<speed>0.6</speed>
</trkpt>
<trkpt lat="48.828295" lon="8.936039">
<ele>449.8</ele>
<time>2020-06-02T18:12:03Z</time>
<speed>0.8</speed>
</trkpt>
<trkpt lat="48.828294" lon="8.935954">
<ele>451.3</ele>
<time>2020-06-02T18:12:08Z</time>
<speed>0.8</speed>
</trkpt>
<trkpt lat="48.828305" lon="8.935871">
<ele>452.8</ele>
<time>2020-06-02T18:12:13Z</time>
<speed>0.6</speed>
</trkpt>
<trkpt lat="48.828330" lon="8.935808">
<ele>451.8</ele>
<time>2020-06-02T18:12:18Z</time>
<speed>0.6</speed>
</trkpt>
<trkpt lat="48.828366" lon="8.935745">
<ele>452.2</ele>
<time>2020-06-02T18:12:23Z</time>
<speed>0.6</speed>
</trkpt>
<trkpt lat="48.828380" lon="8.935669">
<ele>449.5</ele>
<time>2020-06-02T18:12:28Z</time>
<speed>0.8</speed>
</trkpt>
<trkpt lat="48.828435" lon="8.935625">
<ele>448.1</ele>
<time>2020-06-02T18:12:33Z</time>
<speed>0.8</speed>
</trkpt>
<trkpt lat="48.828502" lon="8.935598">
<ele>446.9</ele>
<time>2020-06-02T18:12:38Z</time>
<speed>0.6</speed>
</trkpt>
<trkpt lat="48.828538" lon="8.935550">
<ele>446.1</ele>
<time>2020-06-02T18:12:43Z</time>
<speed>0.8</speed>
</trkpt>
<trkpt lat="48.828598" lon="8.935534">
<ele>445.6</ele>
<time>2020-06-02T18:12:48Z</time>
<speed>0.8</speed>
</trkpt>
<trkpt lat="48.828651" lon="8.935518">
<ele>444.4</ele>
<time>2020-06-02T18:12:53Z</time>
<speed>0.6</speed>
</trkpt>
<trkpt lat="48.828692" lon="8.935484">
<ele>444.4</ele>
<time>2020-06-02T18:12:58Z</time>
<speed>0.8</speed>
</trkpt>
<trkpt lat="48.828745" lon="8.935452">
<ele>444.5</ele>
<time>2020-06-02T18:13:03Z</time>
<speed>0.6</speed>
</trkpt>
<trkpt lat="48.828775" lon="8.935402">
<ele>444.3</ele>
<time>2020-06-02T18:13:08Z</time>
<speed>0.6</speed>
</trkpt>
<trkpt lat="48.828827" lon="8.935384">
<ele>444.5</ele>
<time>2020-06-02T18:13:13Z</time>
<speed>0.8</speed>
</trkpt>
<trkpt lat="48.828863" lon="8.935334">
<ele>445.1</ele>
<time>2020-06-02T18:13:18Z</time>
<speed>0.8</speed>
</trkpt>
<trkpt lat="48.828905" lon="8.935287">
<ele>445.0</ele>
<time>2020-06-02T18:13:23Z</time>
<speed>0.6</speed>
</trkpt>
<trkpt lat="48.828946" lon="8.935253">
<ele>445.0</ele>
<time>2020-06-02T18:13:28Z</time>
<speed>0.8</speed>
</trkpt>
<trkpt lat="48.828996" lon="8.935246">
<ele>446.7</ele>
<time>2020-06-02T18:13:33Z</time>
<speed>0.6</speed>
</trkpt>
<trkpt lat="48.829054" lon="8.935225">
<ele>449.1</ele>
<time>2020-06-02T18:13:38Z</time>
<speed>0.8</speed>
</trkpt>
<trkpt lat="48.829113" lon="8.935207">
<ele>450.0</ele>
<time>2020-06-02T18:13:43Z</time>
<speed>0.8</speed>
</trkpt>
<trkpt lat="48.829195" lon="8.935141">
<ele>448.6</ele>
<time>2020-06-02T18:13:48Z</time>
<speed>1.1</speed>
</trkpt>
<trkpt lat="48.829223" lon="8.935120">
<ele>447.2</ele>
<time>2020-06-02T18:13:53Z</time>
<speed>0.0</speed>
</trkpt>
<trkpt lat="48.829241" lon="8.935151">
<ele>446.9</ele>
<time>2020-06-02T18:13:58Z</time>
<speed>0.0</speed>
</trkpt>
<trkpt lat="48.829237" lon="8.935192">
<ele>447.2</ele>
<time>2020-06-02T18:14:03Z</time>
<speed>0.0</speed>
</trkpt>
<trkpt lat="48.829244" lon="8.935194">
<ele>446.5</ele>
<time>2020-06-02T18:14:08Z</time>
<speed>0.0</speed>
</trkpt>
<trkpt lat="48.829244" lon="8.935194">
<ele>446.5</ele>
<time>2020-06-02T18:14:13Z</time>
<speed>0.0</speed>
</trkpt>
<trkpt lat="48.829244" lon="8.935194">
<ele>446.5</ele>
<time>2020-06-02T18:14:18Z</time>
<speed>0.0</speed>
</trkpt>
<trkpt lat="48.829244" lon="8.935194">
<ele>446.5</ele>
<time>2020-06-02T18:14:23Z</time>
<speed>0.0</speed>
</trkpt>
<trkpt lat="48.829262" lon="8.935211">
<ele>446.1</ele>
<time>2020-06-02T18:14:28Z</time>
<speed>0.6</speed>
</trkpt>
<trkpt lat="48.829269" lon="8.935198">
<ele>446.7</ele>
<time>2020-06-02T18:14:33Z</time>
<speed>0.0</speed>
</trkpt>
<trkpt lat="48.829298" lon="8.935162">
<ele>446.6</ele>
<time>2020-06-02T18:14:38Z</time>
<speed>0.8</speed>
</trkpt>
<trkpt lat="48.829340" lon="8.935114">
<ele>446.5</ele>
<time>2020-06-02T18:14:43Z</time>
<speed>0.8</speed>
</trkpt>
<trkpt lat="48.829388" lon="8.935069">
<ele>445.8</ele>
<time>2020-06-02T18:14:48Z</time>
<speed>0.8</speed>
</trkpt>
<trkpt lat="48.829424" lon="8.935021">
<ele>444.9</ele>
<time>2020-06-02T18:14:53Z</time>
<speed>0.8</speed>
</trkpt>
<trkpt lat="48.829467" lon="8.934974">
<ele>444.8</ele>
<time>2020-06-02T18:14:58Z</time>
<speed>0.8</speed>
</trkpt>
<trkpt lat="48.829515" lon="8.934929">
<ele>444.1</ele>
<time>2020-06-02T18:15:03Z</time>
<speed>0.8</speed>
</trkpt>
<trkpt lat="48.829550" lon="8.934895">
<ele>443.3</ele>
<time>2020-06-02T18:15:08Z</time>
<speed>0.3</speed>
</trkpt>
<trkpt lat="48.829587" lon="8.934948">
<ele>439.7</ele>
<time>2020-06-02T18:15:13Z</time>
<speed>0.0</speed>
</trkpt>
<trkpt lat="48.829615" lon="8.934927">
<ele>438.3</ele>
<time>2020-06-02T18:15:18Z</time>
<speed>0.0</speed>
</trkpt>
<trkpt lat="48.829609" lon="8.934927">
<ele>437.6</ele>
<time>2020-06-02T18:15:23Z</time>
<speed>0.0</speed>
</trkpt>
<trkpt lat="48.829617" lon="8.934916">
<ele>436.8</ele>
<time>2020-06-02T18:15:28Z</time>
<speed>0.0</speed>
</trkpt>
<trkpt lat="48.829623" lon="8.934916">
<ele>437.6</ele>
<time>2020-06-02T18:15:33Z</time>
<speed>0.0</speed>
</trkpt>
<trkpt lat="48.829654" lon="8.934855">
<ele>435.9</ele>
<time>2020-06-02T18:15:38Z</time>
<speed>0.8</speed>
</trkpt>
<trkpt lat="48.829692" lon="8.934780">
<ele>434.8</ele>
<time>2020-06-02T18:15:43Z</time>
<speed>0.8</speed>
</trkpt>
<trkpt lat="48.829730" lon="8.934720">
<ele>433.8</ele>
<time>2020-06-02T18:15:48Z</time>
<speed>0.8</speed>
</trkpt>
<trkpt lat="48.829760" lon="8.934657">
<ele>433.5</ele>
<time>2020-06-02T18:15:53Z</time>
<speed>0.8</speed>
</trkpt>
<trkpt lat="48.829797" lon="8.934596">
<ele>432.6</ele>
<time>2020-06-02T18:15:58Z</time>
<speed>0.8</speed>
</trkpt>
<trkpt lat="48.829827" lon="8.934546">
<ele>432.4</ele>
<time>2020-06-02T18:16:03Z</time>
<speed>0.8</speed>
</trkpt>
<trkpt lat="48.829857" lon="8.934483">
<ele>432.1</ele>
<time>2020-06-02T18:16:08Z</time>
<speed>0.8</speed>
</trkpt>
<trkpt lat="48.829894" lon="8.934422">
<ele>431.1</ele>
<time>2020-06-02T18:16:13Z</time>
<speed>1.1</speed>
</trkpt>
<trkpt lat="48.829924" lon="8.934357">
<ele>432.2</ele>
<time>2020-06-02T18:16:18Z</time>
<speed>0.8</speed>
</trkpt>
<trkpt lat="48.829953" lon="8.934307">
<ele>432.0</ele>
<time>2020-06-02T18:16:23Z</time>
<speed>0.8</speed>
</trkpt>
<trkpt lat="48.829964" lon="8.934253">
<ele>432.3</ele>
<time>2020-06-02T18:16:28Z</time>
<speed>0.8</speed>
</trkpt>
<trkpt lat="48.829992" lon="8.934202">
<ele>433.5</ele>
<time>2020-06-02T18:16:33Z</time>
<speed>0.8</speed>
</trkpt>
<trkpt lat="48.830015" lon="8.934150">
<ele>434.0</ele>
<time>2020-06-02T18:16:38Z</time>
<speed>0.8</speed>
</trkpt>
<trkpt lat="48.830031" lon="8.934096">
<ele>435.1</ele>
<time>2020-06-02T18:16:43Z</time>
<speed>0.6</speed>
</trkpt>
<trkpt lat="48.830054" lon="8.934045">
<ele>435.5</ele>
<time>2020-06-02T18:16:48Z</time>
<speed>0.8</speed>
</trkpt>
<trkpt lat="48.830076" lon="8.933993">
<ele>436.0</ele>
<time>2020-06-02T18:16:53Z</time>
<speed>0.8</speed>
</trkpt>
<trkpt lat="48.830098" lon="8.933955">
<ele>436.5</ele>
<time>2020-06-02T18:16:58Z</time>
<speed>0.8</speed>
</trkpt>
<trkpt lat="48.830121" lon="8.933903">
<ele>437.0</ele>
<time>2020-06-02T18:17:03Z</time>
<speed>0.8</speed>
</trkpt>
<trkpt lat="48.830130" lon="8.933863">
<ele>437.4</ele>
<time>2020-06-02T18:17:08Z</time>
<speed>0.0</speed>
</trkpt>
<trkpt lat="48.830129" lon="8.933876">
<ele>437.5</ele>
<time>2020-06-02T18:17:13Z</time>
<speed>0.0</speed>
</trkpt>
<trkpt lat="48.830144" lon="8.933851">
<ele>437.4</ele>
<time>2020-06-02T18:17:18Z</time>
<speed>0.3</speed>
</trkpt>
<trkpt lat="48.830164" lon="8.933826">
<ele>438.1</ele>
<time>2020-06-02T18:17:23Z</time>
<speed>0.0</speed>
</trkpt>
<trkpt lat="48.830164" lon="8.933826">
<ele>438.1</ele>
<time>2020-06-02T18:17:28Z</time>
<speed>0.0</speed>
</trkpt>
<trkpt lat="48.830164" lon="8.933826">
<ele>438.1</ele>
<time>2020-06-02T18:17:33Z</time>
<speed>0.0</speed>
</trkpt>
<trkpt lat="48.830164" lon="8.933826">
<ele>438.1</ele>
<time>2020-06-02T18:17:38Z</time>
<speed>0.0</speed>
</trkpt>
<trkpt lat="48.830165" lon="8.933813">
<ele>438.0</ele>
<time>2020-06-02T18:17:43Z</time>
<speed>0.6</speed>
</trkpt>
<trkpt lat="48.830174" lon="8.933773">
<ele>438.4</ele>
<time>2020-06-02T18:17:48Z</time>
<speed>0.6</speed>
</trkpt>
<trkpt lat="48.830203" lon="8.933736">
<ele>438.3</ele>
<time>2020-06-02T18:17:53Z</time>
<speed>0.8</speed>
</trkpt>
<trkpt lat="48.830219" lon="8.933683">
<ele>439.4</ele>
<time>2020-06-02T18:17:58Z</time>
<speed>0.6</speed>
</trkpt>
<trkpt lat="48.830240" lon="8.933644">
<ele>440.0</ele>
<time>2020-06-02T18:18:03Z</time>
<speed>0.0</speed>
</trkpt>
<trkpt lat="48.830240" lon="8.933644">
<ele>440.0</ele>
<time>2020-06-02T18:18:08Z</time>
<speed>0.6</speed>
</trkpt>
<trkpt lat="48.830256" lon="8.933591">
<ele>441.1</ele>
<time>2020-06-02T18:18:13Z</time>
<speed>0.8</speed>
</trkpt>
<trkpt lat="48.830285" lon="8.933539">
<ele>442.3</ele>
<time>2020-06-02T18:18:18Z</time>
<speed>0.8</speed>
</trkpt>
<trkpt lat="48.830308" lon="8.933487">
<ele>442.7</ele>
<time>2020-06-02T18:18:23Z</time>
<speed>0.8</speed>
</trkpt>
<trkpt lat="48.830331" lon="8.933435">
<ele>443.1</ele>
<time>2020-06-02T18:18:28Z</time>
<speed>0.8</speed>
</trkpt>
<trkpt lat="48.830331" lon="8.933435">
<ele>443.1</ele>
<time>2020-06-02T18:18:33Z</time>
<speed>0.3</speed>
</trkpt>
<trkpt lat="48.830347" lon="8.933382">
<ele>444.2</ele>
<time>2020-06-02T18:18:38Z</time>
<speed>0.6</speed>
</trkpt>
<trkpt lat="48.830381" lon="8.933346">
<ele>444.9</ele>
<time>2020-06-02T18:18:43Z</time>
<speed>0.8</speed>
</trkpt>
<trkpt lat="48.830404" lon="8.933294">
<ele>445.3</ele>
<time>2020-06-02T18:18:48Z</time>
<speed>0.6</speed>
</trkpt>
<trkpt lat="48.830425" lon="8.933256">
<ele>445.9</ele>
<time>2020-06-02T18:18:53Z</time>
<speed>0.8</speed>
</trkpt>
<trkpt lat="48.830461" lon="8.933206">
<ele>446.4</ele>
<time>2020-06-02T18:18:58Z</time>
<speed>0.8</speed>
</trkpt>
<trkpt lat="48.830482" lon="8.933168">
<ele>447.0</ele>
<time>2020-06-02T18:19:03Z</time>
<speed>0.8</speed>
</trkpt>
<trkpt lat="48.830518" lon="8.933118">
<ele>447.5</ele>
<time>2020-06-02T18:19:08Z</time>
<speed>0.8</speed>
</trkpt>
<trkpt lat="48.830547" lon="8.933069">
<ele>447.3</ele>
<time>2020-06-02T18:19:13Z</time>
<speed>0.8</speed>
</trkpt>
<trkpt lat="48.830575" lon="8.933030">
<ele>448.6</ele>
<time>2020-06-02T18:19:18Z</time>
<speed>0.6</speed>
</trkpt>
<trkpt lat="48.830588" lon="8.933019">
<ele>448.6</ele>
<time>2020-06-02T18:19:23Z</time>
<speed>0.0</speed>
</trkpt>
<trkpt lat="48.830589" lon="8.933006">
<ele>448.5</ele>
<time>2020-06-02T18:19:28Z</time>
<speed>0.0</speed>
</trkpt>
<trkpt lat="48.830589" lon="8.933006">
<ele>448.5</ele>
<time>2020-06-02T18:19:33Z</time>
<speed>0.0</speed>
</trkpt>
<trkpt lat="48.830589" lon="8.933006">
<ele>448.5</ele>
<time>2020-06-02T18:19:38Z</time>
<speed>0.0</speed>
</trkpt>
<trkpt lat="48.830589" lon="8.933006">
<ele>448.5</ele>
<time>2020-06-02T18:19:43Z</time>
<speed>0.0</speed>
</trkpt>
<trkpt lat="48.830604" lon="8.932981">
<ele>448.4</ele>
<time>2020-06-02T18:19:48Z</time>
<speed>0.6</speed>
</trkpt>
<trkpt lat="48.830626" lon="8.932942">
<ele>449.0</ele>
<time>2020-06-02T18:19:53Z</time>
<speed>0.6</speed>
</trkpt>
<trkpt lat="48.830647" lon="8.932904">
<ele>449.5</ele>
<time>2020-06-02T18:19:58Z</time>
<speed>0.8</speed>
</trkpt>
<trkpt lat="48.830669" lon="8.932866">
<ele>450.1</ele>
<time>2020-06-02T18:20:03Z</time>
<speed>0.8</speed>
</trkpt>
<trkpt lat="48.830691" lon="8.932828">
<ele>450.6</ele>
<time>2020-06-02T18:20:08Z</time>
<speed>0.8</speed>
</trkpt>
<trkpt lat="48.830725" lon="8.932792">
<ele>451.3</ele>
<time>2020-06-02T18:20:13Z</time>
<speed>0.6</speed>
</trkpt>
<trkpt lat="48.830748" lon="8.932740">
<ele>451.7</ele>
<time>2020-06-02T18:20:18Z</time>
<speed>0.8</speed>
</trkpt>
<trkpt lat="48.830775" lon="8.932702">
<ele>453.0</ele>
<time>2020-06-02T18:20:23Z</time>
<speed>0.6</speed>
</trkpt>
<trkpt lat="48.830783" lon="8.932690">
<ele>452.3</ele>
<time>2020-06-02T18:20:28Z</time>
<speed>0.0</speed>
</trkpt>
<trkpt lat="48.830783" lon="8.932690">
<ele>452.3</ele>
<time>2020-06-02T18:20:33Z</time>
<speed>0.0</speed>
</trkpt>
<trkpt lat="48.830789" lon="8.932690">
<ele>453.0</ele>
<time>2020-06-02T18:20:38Z</time>
<speed>0.6</speed>
</trkpt>
<trkpt lat="48.830823" lon="8.932654">
<ele>453.7</ele>
<time>2020-06-02T18:20:43Z</time>
<speed>0.8</speed>
</trkpt>
<trkpt lat="48.830852" lon="8.932602">
<ele>454.9</ele>
<time>2020-06-02T18:20:48Z</time>
<speed>0.8</speed>
</trkpt>
<trkpt lat="48.830880" lon="8.932566">
<ele>454.8</ele>
<time>2020-06-02T18:20:53Z</time>
<speed>0.8</speed>
</trkpt>
<trkpt lat="48.830908" lon="8.932528">
<ele>456.1</ele>
<time>2020-06-02T18:20:58Z</time>
<speed>0.8</speed>
</trkpt>
<trkpt lat="48.830937" lon="8.932479">
<ele>455.9</ele>
<time>2020-06-02T18:21:03Z</time>
<speed>0.8</speed>
</trkpt>
<trkpt lat="48.830966" lon="8.932427">
<ele>457.1</ele>
<time>2020-06-02T18:21:08Z</time>
<speed>0.8</speed>
</trkpt>
<trkpt lat="48.831000" lon="8.932391">
<ele>457.7</ele>
<time>2020-06-02T18:21:13Z</time>
<speed>0.8</speed>
</trkpt>
<trkpt lat="48.831002" lon="8.932364">
<ele>457.5</ele>
<time>2020-06-02T18:21:18Z</time>
<speed>0.0</speed>
</trkpt>
<trkpt lat="48.831002" lon="8.932364">
<ele>457.5</ele>
<time>2020-06-02T18:21:23Z</time>
<speed>0.0</speed>
</trkpt>
<trkpt lat="48.831002" lon="8.932364">
<ele>457.5</ele>
<time>2020-06-02T18:21:28Z</time>
<speed>0.0</speed>
</trkpt>
<trkpt lat="48.831002" lon="8.932364">
<ele>457.5</ele>
<time>2020-06-02T18:21:33Z</time>
<speed>0.0</speed>
</trkpt>
<trkpt lat="48.831031" lon="8.932328">
<ele>457.4</ele>
<time>2020-06-02T18:21:38Z</time>
<speed>0.8</speed>
</trkpt>
<trkpt lat="48.831052" lon="8.932289">
<ele>458.0</ele>
<time>2020-06-02T18:21:43Z</time>
<speed>0.6</speed>
</trkpt>
<trkpt lat="48.831082" lon="8.932240">
<ele>457.8</ele>
<time>2020-06-02T18:21:48Z</time>
<speed>0.8</speed>
</trkpt>
<trkpt lat="48.831116" lon="8.932204">
<ele>458.4</ele>
<time>2020-06-02T18:21:53Z</time>
<speed>0.8</speed>
</trkpt>
<trkpt lat="48.831139" lon="8.932152">
<ele>458.9</ele>
<time>2020-06-02T18:21:58Z</time>
<speed>0.6</speed>
</trkpt>
<trkpt lat="48.831174" lon="8.932102">
<ele>459.4</ele>
<time>2020-06-02T18:22:03Z</time>
<speed>0.8</speed>
</trkpt>
<trkpt lat="48.831203" lon="8.932066">
<ele>459.3</ele>
<time>2020-06-02T18:22:08Z</time>
<speed>0.8</speed>
</trkpt>
<trkpt lat="48.831225" lon="8.932015">
<ele>459.7</ele>
<time>2020-06-02T18:22:13Z</time>
<speed>0.8</speed>
</trkpt>
<trkpt lat="48.831255" lon="8.931965">
<ele>459.5</ele>
<time>2020-06-02T18:22:18Z</time>
<speed>0.8</speed>
</trkpt>
<trkpt lat="48.831277" lon="8.931913">
<ele>460.0</ele>
<time>2020-06-02T18:22:23Z</time>
<speed>0.8</speed>
</trkpt>
<trkpt lat="48.831276" lon="8.931844">
<ele>460.1</ele>
<time>2020-06-02T18:22:28Z</time>
<speed>0.8</speed>
</trkpt>
<trkpt lat="48.831277" lon="8.931830">
<ele>460.0</ele>
<time>2020-06-02T18:22:33Z</time>
<speed>0.0</speed>
</trkpt>
<trkpt lat="48.831267" lon="8.931786">
<ele>461.0</ele>
<time>2020-06-02T18:22:38Z</time>
<speed>0.8</speed>
</trkpt>
<trkpt lat="48.831259" lon="8.931714">
<ele>461.8</ele>
<time>2020-06-02T18:22:43Z</time>
<speed>0.8</speed>
</trkpt>
<trkpt lat="48.831245" lon="8.931643">
<ele>461.8</ele>
<time>2020-06-02T18:22:48Z</time>
<speed>0.8</speed>
</trkpt>
<trkpt lat="48.831242" lon="8.931587">
<ele>462.1</ele>
<time>2020-06-02T18:22:53Z</time>
<speed>0.8</speed>
</trkpt>
<trkpt lat="48.831228" lon="8.931515">
<ele>462.1</ele>
<time>2020-06-02T18:22:58Z</time>
<speed>0.8</speed>
</trkpt>
<trkpt lat="48.831226" lon="8.931459">
<ele>462.4</ele>
<time>2020-06-02T18:23:03Z</time>
<speed>0.8</speed>
</trkpt>
<trkpt lat="48.831218" lon="8.931388">
<ele>463.2</ele>
<time>2020-06-02T18:23:08Z</time>
<speed>0.8</speed>
</trkpt>
<trkpt lat="48.831209" lon="8.931316">
<ele>463.9</ele>
<time>2020-06-02T18:23:13Z</time>
<speed>0.8</speed>
</trkpt>
<trkpt lat="48.831202" lon="8.931247">
<ele>463.3</ele>
<time>2020-06-02T18:23:18Z</time>
<speed>0.8</speed>
</trkpt>
<trkpt lat="48.831194" lon="8.931176">
<ele>464.1</ele>
<time>2020-06-02T18:23:23Z</time>
<speed>0.8</speed>
</trkpt>
<trkpt lat="48.831180" lon="8.931104">
<ele>464.2</ele>
<time>2020-06-02T18:23:28Z</time>
<speed>0.8</speed>
</trkpt>
<trkpt lat="48.831178" lon="8.931035">
<ele>464.3</ele>
<time>2020-06-02T18:23:33Z</time>
<speed>0.8</speed>
</trkpt>
<trkpt lat="48.831169" lon="8.930977">
<ele>465.2</ele>
<time>2020-06-02T18:23:38Z</time>
<speed>0.8</speed>
</trkpt>
<trkpt lat="48.831168" lon="8.930907">
<ele>465.3</ele>
<time>2020-06-02T18:23:43Z</time>
<speed>0.8</speed>
</trkpt>
<trkpt lat="48.831154" lon="8.930836">
<ele>465.4</ele>
<time>2020-06-02T18:23:48Z</time>
<speed>0.8</speed>
</trkpt>
<trkpt lat="48.831141" lon="8.930751">
<ele>465.3</ele>
<time>2020-06-02T18:23:53Z</time>
<speed>0.8</speed>
</trkpt>
<trkpt lat="48.831139" lon="8.930681">
<ele>465.4</ele>
<time>2020-06-02T18:23:58Z</time>
<speed>0.8</speed>
</trkpt>
<trkpt lat="48.831130" lon="8.930623">
<ele>466.3</ele>
<time>2020-06-02T18:24:03Z</time>
<speed>0.0</speed>
</trkpt>
<trkpt lat="48.831124" lon="8.930623">
<ele>465.6</ele>
<time>2020-06-02T18:24:08Z</time>
<speed>0.0</speed>
</trkpt>
<trkpt lat="48.831124" lon="8.930623">
<ele>465.6</ele>
<time>2020-06-02T18:24:13Z</time>
<speed>0.0</speed>
</trkpt>
<trkpt lat="48.831124" lon="8.930623">
<ele>465.6</ele>
<time>2020-06-02T18:24:18Z</time>
<speed>0.6</speed>
</trkpt>
<trkpt lat="48.831110" lon="8.930552">
<ele>465.6</ele>
<time>2020-06-02T18:24:23Z</time>
<speed>1.1</speed>
</trkpt>
<trkpt lat="48.831109" lon="8.930482">
<ele>465.8</ele>
<time>2020-06-02T18:24:28Z</time>
<speed>0.8</speed>
</trkpt>
<trkpt lat="48.831107" lon="8.930413">
<ele>465.9</ele>
<time>2020-06-02T18:24:33Z</time>
<speed>0.8</speed>
</trkpt>
<trkpt lat="48.831094" lon="8.930328">
<ele>465.8</ele>
<time>2020-06-02T18:24:38Z</time>
<speed>0.8</speed>
</trkpt>
<trkpt lat="48.831093" lon="8.930259">
<ele>466.0</ele>
<time>2020-06-02T18:24:43Z</time>
<speed>0.8</speed>
</trkpt>
<trkpt lat="48.831085" lon="8.930187">
<ele>466.8</ele>
<time>2020-06-02T18:24:48Z</time>
<speed>0.8</speed>
</trkpt>
<trkpt lat="48.831070" lon="8.930114">
<ele>468.2</ele>
<time>2020-06-02T18:24:53Z</time>
<speed>0.8</speed>
</trkpt>
<trkpt lat="48.831048" lon="8.930053">
<ele>469.0</ele>
<time>2020-06-02T18:24:58Z</time>
<speed>0.8</speed>
</trkpt>
<trkpt lat="48.831040" lon="8.929982">
<ele>469.8</ele>
<time>2020-06-02T18:25:03Z</time>
<speed>0.8</speed>
</trkpt>
<trkpt lat="48.831018" lon="8.929922">
<ele>470.6</ele>
<time>2020-06-02T18:25:08Z</time>
<speed>0.8</speed>
</trkpt>
<trkpt lat="48.831010" lon="8.929850">
<ele>471.4</ele>
<time>2020-06-02T18:25:13Z</time>
<speed>0.8</speed>
</trkpt>
<trkpt lat="48.830984" lon="8.929777">
<ele>471.3</ele>
<time>2020-06-02T18:25:18Z</time>
<speed>0.8</speed>
</trkpt>
<trkpt lat="48.830981" lon="8.929721">
<ele>471.5</ele>
<time>2020-06-02T18:25:23Z</time>
<speed>0.8</speed>
</trkpt>
<trkpt lat="48.830968" lon="8.929636">
<ele>471.5</ele>
<time>2020-06-02T18:25:28Z</time>
<speed>0.8</speed>
</trkpt>
<trkpt lat="48.830962" lon="8.929553">
<ele>470.8</ele>
<time>2020-06-02T18:25:33Z</time>
<speed>0.8</speed>
</trkpt>
<trkpt lat="48.830948" lon="8.929481">
<ele>470.8</ele>
<time>2020-06-02T18:25:38Z</time>
<speed>0.8</speed>
</trkpt>
<trkpt lat="48.830948" lon="8.929401">
<ele>469.4</ele>
<time>2020-06-02T18:25:43Z</time>
<speed>0.8</speed>
</trkpt>
<trkpt lat="48.830934" lon="8.929329">
<ele>469.5</ele>
<time>2020-06-02T18:25:48Z</time>
<speed>0.8</speed>
</trkpt>
<trkpt lat="48.830934" lon="8.929246">
<ele>469.5</ele>
<time>2020-06-02T18:25:53Z</time>
<speed>0.8</speed>
</trkpt>
<trkpt lat="48.830926" lon="8.929177">
<ele>468.9</ele>
<time>2020-06-02T18:25:58Z</time>
<speed>0.8</speed>
</trkpt>
<trkpt lat="48.830913" lon="8.929092">
<ele>468.8</ele>
<time>2020-06-02T18:26:03Z</time>
<speed>0.8</speed>
</trkpt>
<trkpt lat="48.830912" lon="8.929023">
<ele>469.0</ele>
<time>2020-06-02T18:26:08Z</time>
<speed>0.8</speed>
</trkpt>
<trkpt lat="48.830899" lon="8.928938">
<ele>468.9</ele>
<time>2020-06-02T18:26:13Z</time>
<speed>1.1</speed>
</trkpt>
<trkpt lat="48.830892" lon="8.928868">
<ele>468.3</ele>
<time>2020-06-02T18:26:18Z</time>
<speed>0.8</speed>
</trkpt>
<trkpt lat="48.830885" lon="8.928783">
<ele>469.0</ele>
<time>2020-06-02T18:26:23Z</time>
<speed>1.1</speed>
</trkpt>
<trkpt lat="48.830877" lon="8.928714">
<ele>468.4</ele>
<time>2020-06-02T18:26:28Z</time>
<speed>0.8</speed>
</trkpt>
<trkpt lat="48.830864" lon="8.928629">
<ele>468.3</ele>
<time>2020-06-02T18:26:33Z</time>
<speed>0.8</speed>
</trkpt>
<trkpt lat="48.830862" lon="8.928573">
<ele>468.5</ele>
<time>2020-06-02T18:26:38Z</time>
<speed>0.8</speed>
</trkpt>
<trkpt lat="48.830848" lon="8.928502">
<ele>468.6</ele>
<time>2020-06-02T18:26:43Z</time>
<speed>0.8</speed>
</trkpt>
<trkpt lat="48.830834" lon="8.928430">
<ele>468.6</ele>
<time>2020-06-02T18:26:48Z</time>
<speed>0.8</speed>
</trkpt>
<trkpt lat="48.830820" lon="8.928359">
<ele>468.6</ele>
<time>2020-06-02T18:26:53Z</time>
<speed>0.8</speed>
</trkpt>
<trkpt lat="48.830807" lon="8.928274">
<ele>468.6</ele>
<time>2020-06-02T18:26:58Z</time>
<speed>1.1</speed>
</trkpt>
<trkpt lat="48.830793" lon="8.928202">
<ele>468.6</ele>
<time>2020-06-02T18:27:03Z</time>
<speed>0.8</speed>
</trkpt>
<trkpt lat="48.830779" lon="8.928131">
<ele>468.6</ele>
<time>2020-06-02T18:27:08Z</time>
<speed>0.8</speed>
</trkpt>
<trkpt lat="48.830744" lon="8.928084">
<ele>468.0</ele>
<time>2020-06-02T18:27:13Z</time>
<speed>0.8</speed>
</trkpt>
<trkpt lat="48.830699" lon="8.928075">
<ele>468.4</ele>
<time>2020-06-02T18:27:18Z</time>
<speed>0.8</speed>
</trkpt>
<trkpt lat="48.830650" lon="8.928054">
<ele>467.9</ele>
<time>2020-06-02T18:27:23Z</time>
<speed>0.8</speed>
</trkpt>
<trkpt lat="48.830604" lon="8.928059">
<ele>468.3</ele>
<time>2020-06-02T18:27:28Z</time>
<speed>0.8</speed>
</trkpt>
<trkpt lat="48.830559" lon="8.928064">
<ele>468.8</ele>
<time>2020-06-02T18:27:33Z</time>
<speed>0.8</speed>
</trkpt>
<trkpt lat="48.830501" lon="8.928066">
<ele>469.1</ele>
<time>2020-06-02T18:27:38Z</time>
<speed>1.1</speed>
</trkpt>
<trkpt lat="48.830450" lon="8.928058">
<ele>468.7</ele>
<time>2020-06-02T18:27:43Z</time>
<speed>1.1</speed>
</trkpt>
<trkpt lat="48.830392" lon="8.928061">
<ele>469.0</ele>
<time>2020-06-02T18:27:48Z</time>
<speed>1.1</speed>
</trkpt>
<trkpt lat="48.830341" lon="8.928050">
<ele>470.0</ele>
<time>2020-06-02T18:27:53Z</time>
<speed>1.1</speed>
</trkpt>
<trkpt lat="48.830291" lon="8.928042">
<ele>469.6</ele>
<time>2020-06-02T18:27:58Z</time>
<speed>1.1</speed>
</trkpt>
<trkpt lat="48.830233" lon="8.928031">
<ele>469.9</ele>
<time>2020-06-02T18:28:03Z</time>
<speed>1.1</speed>
</trkpt>
<trkpt lat="48.830177" lon="8.928007">
<ele>470.0</ele>
<time>2020-06-02T18:28:08Z</time>
<speed>1.1</speed>
</trkpt>
<trkpt lat="48.830128" lon="8.927985">
<ele>469.5</ele>
<time>2020-06-02T18:28:13Z</time>
<speed>1.1</speed>
</trkpt>
<trkpt lat="48.830073" lon="8.927948">
<ele>469.5</ele>
<time>2020-06-02T18:28:18Z</time>
<speed>1.1</speed>
</trkpt>
<trkpt lat="48.830030" lon="8.927926">
<ele>469.8</ele>
<time>2020-06-02T18:28:23Z</time>
<speed>0.8</speed>
</trkpt>
<trkpt lat="48.830017" lon="8.927924">
<ele>469.7</ele>
<time>2020-06-02T18:28:28Z</time>
<speed>0.0</speed>
</trkpt>
<trkpt lat="48.830017" lon="8.927924">
<ele>469.7</ele>
<time>2020-06-02T18:28:33Z</time>
<speed>0.0</speed>
</trkpt>
<trkpt lat="48.830017" lon="8.927924">
<ele>469.7</ele>
<time>2020-06-02T18:28:38Z</time>
<speed>0.0</speed>
</trkpt>
<trkpt lat="48.830016" lon="8.927922">
<ele>471.1</ele>
<time>2020-06-02T18:28:43Z</time>
<speed>0.8</speed>
</trkpt>
<trkpt lat="48.829979" lon="8.927900">
<ele>472.1</ele>
<time>2020-06-02T18:28:48Z</time>
<speed>0.8</speed>
</trkpt>
<trkpt lat="48.829936" lon="8.927865">
<ele>472.2</ele>
<time>2020-06-02T18:28:53Z</time>
<speed>1.1</speed>
</trkpt>
<trkpt lat="48.829892" lon="8.927840">
<ele>473.8</ele>
<time>2020-06-02T18:28:58Z</time>
<speed>1.1</speed>
</trkpt>
<trkpt lat="48.829843" lon="8.927819">
<ele>473.3</ele>
<time>2020-06-02T18:29:03Z</time>
<speed>1.1</speed>
</trkpt>
<trkpt lat="48.829812" lon="8.927799">
<ele>473.7</ele>
<time>2020-06-02T18:29:08Z</time>
<speed>0.0</speed>
</trkpt>
<trkpt lat="48.829812" lon="8.927799">
<ele>473.7</ele>
<time>2020-06-02T18:29:13Z</time>
<speed>0.0</speed>
</trkpt>
<trkpt lat="48.829812" lon="8.927799">
<ele>473.7</ele>
<time>2020-06-02T18:29:18Z</time>
<speed>0.0</speed>
</trkpt>
<trkpt lat="48.829789" lon="8.927768">
<ele>473.3</ele>
<time>2020-06-02T18:29:23Z</time>
<speed>0.8</speed>
</trkpt>
<trkpt lat="48.829745" lon="8.927746">
<ele>473.5</ele>
<time>2020-06-02T18:29:28Z</time>
<speed>0.8</speed>
</trkpt>
<trkpt lat="48.829703" lon="8.927710">
<ele>473.6</ele>
<time>2020-06-02T18:29:33Z</time>
<speed>0.8</speed>
</trkpt>
<trkpt lat="48.829659" lon="8.927688">
<ele>473.9</ele>
<time>2020-06-02T18:29:38Z</time>
<speed>0.8</speed>
</trkpt>
<trkpt lat="48.829617" lon="8.927653">
<ele>474.0</ele>
<time>2020-06-02T18:29:43Z</time>
<speed>0.8</speed>
</trkpt>
<trkpt lat="48.829580" lon="8.927633">
<ele>473.6</ele>
<time>2020-06-02T18:29:48Z</time>
<speed>0.8</speed>
</trkpt>
<trkpt lat="48.829544" lon="8.927598">
<ele>474.5</ele>
<time>2020-06-02T18:29:53Z</time>
<speed>0.8</speed>
</trkpt>
<trkpt lat="48.829500" lon="8.927576">
<ele>474.7</ele>
<time>2020-06-02T18:29:58Z</time>
<speed>0.8</speed>
</trkpt>
<trkpt lat="48.829469" lon="8.927556">
<ele>475.1</ele>
<time>2020-06-02T18:30:03Z</time>
<speed>0.6</speed>
</trkpt>
<trkpt lat="48.829433" lon="8.927521">
<ele>476.0</ele>
<time>2020-06-02T18:30:08Z</time>
<speed>0.8</speed>
</trkpt>
<trkpt lat="48.829395" lon="8.927499">
<ele>477.0</ele>
<time>2020-06-02T18:30:13Z</time>
<speed>0.8</speed>
</trkpt>
<trkpt lat="48.829389" lon="8.927497">
<ele>477.6</ele>
<time>2020-06-02T18:30:18Z</time>
<speed>0.0</speed>
</trkpt>
<trkpt lat="48.829389" lon="8.927497">
<ele>477.6</ele>
<time>2020-06-02T18:30:23Z</time>
<speed>0.0</speed>
</trkpt>
<trkpt lat="48.829389" lon="8.927497">
<ele>477.6</ele>
<time>2020-06-02T18:30:28Z</time>
<speed>0.0</speed>
</trkpt>
<trkpt lat="48.829371" lon="8.927479">
<ele>478.1</ele>
<time>2020-06-02T18:30:33Z</time>
<speed>0.6</speed>
</trkpt>
<trkpt lat="48.829339" lon="8.927457">
<ele>479.8</ele>
<time>2020-06-02T18:30:38Z</time>
<speed>0.6</speed>
</trkpt>
<trkpt lat="48.829308" lon="8.927437">
<ele>480.2</ele>
<time>2020-06-02T18:30:43Z</time>
<speed>0.8</speed>
</trkpt>
<trkpt lat="48.829264" lon="8.927429">
<ele>480.5</ele>
<time>2020-06-02T18:30:48Z</time>
<speed>0.6</speed>
</trkpt>
<trkpt lat="48.829234" lon="8.927396">
<ele>480.7</ele>
<time>2020-06-02T18:30:53Z</time>
<speed>0.6</speed>
</trkpt>
<trkpt lat="48.829184" lon="8.927372">
<ele>481.6</ele>
<time>2020-06-02T18:30:58Z</time>
<speed>0.8</speed>
</trkpt>
<trkpt lat="48.829154" lon="8.927339">
<ele>481.9</ele>
<time>2020-06-02T18:31:03Z</time>
<speed>0.3</speed>
</trkpt>
<trkpt lat="48.829154" lon="8.927339">
<ele>481.9</ele>
<time>2020-06-02T18:31:08Z</time>
<speed>0.0</speed>
</trkpt>
<trkpt lat="48.829149" lon="8.927309">
<ele>482.3</ele>
<time>2020-06-02T18:31:13Z</time>
<speed>0.8</speed>
</trkpt>
<trkpt lat="48.829115" lon="8.927263">
<ele>481.7</ele>
<time>2020-06-02T18:31:18Z</time>
<speed>0.6</speed>
</trkpt>
<trkpt lat="48.829091" lon="8.927230">
<ele>482.7</ele>
<time>2020-06-02T18:31:23Z</time>
<speed>0.6</speed>
</trkpt>
<trkpt lat="48.829067" lon="8.927196">
<ele>483.7</ele>
<time>2020-06-02T18:31:28Z</time>
<speed>0.6</speed>
</trkpt>
<trkpt lat="48.829035" lon="8.927174">
<ele>485.4</ele>
<time>2020-06-02T18:31:33Z</time>
<speed>0.6</speed>
</trkpt>
<trkpt lat="48.829005" lon="8.927139">
<ele>487.1</ele>
<time>2020-06-02T18:31:38Z</time>
<speed>0.6</speed>
</trkpt>
<trkpt lat="48.828975" lon="8.927106">
<ele>487.3</ele>
<time>2020-06-02T18:31:43Z</time>
<speed>0.8</speed>
</trkpt>
<trkpt lat="48.828968" lon="8.927104">
<ele>488.0</ele>
<time>2020-06-02T18:31:48Z</time>
<speed>0.0</speed>
</trkpt>
<trkpt lat="48.828945" lon="8.927073">
<ele>487.6</ele>
<time>2020-06-02T18:31:53Z</time>
<speed>0.6</speed>
</trkpt>
<trkpt lat="48.828913" lon="8.927051">
<ele>489.3</ele>
<time>2020-06-02T18:31:58Z</time>
<speed>0.6</speed>
</trkpt>
<trkpt lat="48.828877" lon="8.927015">
<ele>490.2</ele>
<time>2020-06-02T18:32:03Z</time>
<speed>0.8</speed>
</trkpt>
<trkpt lat="48.828855" lon="8.926971">
<ele>489.7</ele>
<time>2020-06-02T18:32:08Z</time>
<speed>0.8</speed>
</trkpt>
<trkpt lat="48.828825" lon="8.926937">
<ele>489.9</ele>
<time>2020-06-02T18:32:13Z</time>
<speed>0.8</speed>
</trkpt>
<trkpt lat="48.828796" lon="8.926891">
<ele>490.1</ele>
<time>2020-06-02T18:32:18Z</time>
<speed>0.8</speed>
</trkpt>
<trkpt lat="48.828762" lon="8.926844">
<ele>489.5</ele>
<time>2020-06-02T18:32:23Z</time>
<speed>0.8</speed>
</trkpt>
<trkpt lat="48.828731" lon="8.926809">
<ele>491.1</ele>
<time>2020-06-02T18:32:28Z</time>
<speed>0.8</speed>
</trkpt>
<trkpt lat="48.828706" lon="8.926789">
<ele>492.2</ele>
<time>2020-06-02T18:32:33Z</time>
<speed>0.6</speed>
</trkpt>
<trkpt lat="48.828685" lon="8.926746">
<ele>490.3</ele>
<time>2020-06-02T18:32:38Z</time>
<speed>0.0</speed>
</trkpt>
<trkpt lat="48.828685" lon="8.926746">
<ele>490.3</ele>
<time>2020-06-02T18:32:43Z</time>
<speed>0.0</speed>
</trkpt>
<trkpt lat="48.828680" lon="8.926733">
<ele>489.4</ele>
<time>2020-06-02T18:32:48Z</time>
<speed>0.0</speed>
</trkpt>
<trkpt lat="48.828665" lon="8.926690">
<ele>488.3</ele>
<time>2020-06-02T18:32:53Z</time>
<speed>0.8</speed>
</trkpt>
<trkpt lat="48.828618" lon="8.926644">
<ele>486.1</ele>
<time>2020-06-02T18:32:58Z</time>
<speed>0.8</speed>
</trkpt>
<trkpt lat="48.828575" lon="8.926624">
<ele>485.0</ele>
<time>2020-06-02T18:33:03Z</time>
<speed>0.8</speed>
</trkpt>
<trkpt lat="48.828529" lon="8.926577">
<ele>482.9</ele>
<time>2020-06-02T18:33:08Z</time>
<speed>0.8</speed>
</trkpt>
<trkpt lat="48.828483" lon="8.926533">
<ele>479.3</ele>
<time>2020-06-02T18:33:13Z</time>
<speed>0.8</speed>
</trkpt>
<trkpt lat="48.828468" lon="8.926459">
<ele>480.8</ele>
<time>2020-06-02T18:33:18Z</time>
<speed>0.8</speed>
</trkpt>
<trkpt lat="48.828477" lon="8.926401">
<ele>483.9</ele>
<time>2020-06-02T18:33:23Z</time>
<speed>0.8</speed>
</trkpt>
<trkpt lat="48.828504" lon="8.926378">
<ele>483.9</ele>
<time>2020-06-02T18:33:28Z</time>
<speed>0.8</speed>
</trkpt>
<trkpt lat="48.828511" lon="8.926365">
<ele>484.6</ele>
<time>2020-06-02T18:33:33Z</time>
<speed>0.8</speed>
</trkpt>
<trkpt lat="48.828523" lon="8.926282">
<ele>486.1</ele>
<time>2020-06-02T18:33:38Z</time>
<speed>0.8</speed>
</trkpt>
<trkpt lat="48.828526" lon="8.926226">
<ele>487.1</ele>
<time>2020-06-02T18:33:43Z</time>
<speed>0.8</speed>
</trkpt>
<trkpt lat="48.828529" lon="8.926168">
<ele>489.5</ele>
<time>2020-06-02T18:33:48Z</time>
<speed>0.8</speed>
</trkpt>
<trkpt lat="48.828532" lon="8.926112">
<ele>490.5</ele>
<time>2020-06-02T18:33:53Z</time>
<speed>0.8</speed>
</trkpt>
<trkpt lat="48.828550" lon="8.926047">
<ele>490.1</ele>
<time>2020-06-02T18:33:58Z</time>
<speed>0.8</speed>
</trkpt>
<trkpt lat="48.828569" lon="8.925968">
<ele>489.6</ele>
<time>2020-06-02T18:34:03Z</time>
<speed>0.8</speed>
</trkpt>
<trkpt lat="48.828587" lon="8.925888">
<ele>490.5</ele>
<time>2020-06-02T18:34:08Z</time>
<speed>0.6</speed>
</trkpt>
<trkpt lat="48.828600" lon="8.925809">
<ele>489.2</ele>
<time>2020-06-02T18:34:13Z</time>
<speed>0.8</speed>
</trkpt>
<trkpt lat="48.828617" lon="8.925742">
<ele>490.2</ele>
<time>2020-06-02T18:34:18Z</time>
<speed>0.6</speed>
</trkpt>
<trkpt lat="48.828648" lon="8.925679">
<ele>489.9</ele>
<time>2020-06-02T18:34:23Z</time>
<speed>0.8</speed>
</trkpt>
<trkpt lat="48.828673" lon="8.925600">
<ele>490.2</ele>
<time>2020-06-02T18:34:28Z</time>
<speed>0.8</speed>
</trkpt>
<trkpt lat="48.828690" lon="8.925535">
<ele>489.8</ele>
<time>2020-06-02T18:34:33Z</time>
<speed>0.8</speed>
</trkpt>
<trkpt lat="48.828710" lon="8.925458">
<ele>487.8</ele>
<time>2020-06-02T18:34:38Z</time>
<speed>0.8</speed>
</trkpt>
<trkpt lat="48.828722" lon="8.925393">
<ele>486.7</ele>
<time>2020-06-02T18:34:43Z</time>
<speed>0.8</speed>
</trkpt>
<trkpt lat="48.828727" lon="8.925326">
<ele>486.2</ele>
<time>2020-06-02T18:34:48Z</time>
<speed>0.8</speed>
</trkpt>
<trkpt lat="48.828732" lon="8.925259">
<ele>485.7</ele>
<time>2020-06-02T18:34:53Z</time>
<speed>0.8</speed>
</trkpt>
<trkpt lat="48.828762" lon="8.925194">
<ele>486.8</ele>
<time>2020-06-02T18:34:58Z</time>
<speed>0.8</speed>
</trkpt>
<trkpt lat="48.828780" lon="8.925128">
<ele>486.3</ele>
<time>2020-06-02T18:35:03Z</time>
<speed>0.3</speed>
</trkpt>
<trkpt lat="48.828790" lon="8.925075">
<ele>486.7</ele>
<time>2020-06-02T18:35:08Z</time>
<speed>0.8</speed>
</trkpt>
<trkpt lat="48.828802" lon="8.924994">
<ele>486.8</ele>
<time>2020-06-02T18:35:13Z</time>
<speed>0.8</speed>
</trkpt>
<trkpt lat="48.828807" lon="8.924925">
<ele>487.7</ele>
<time>2020-06-02T18:35:18Z</time>
<speed>0.8</speed>
</trkpt>
<trkpt lat="48.828825" lon="8.924859">
<ele>487.3</ele>
<time>2020-06-02T18:35:23Z</time>
<speed>0.8</speed>
</trkpt>
<trkpt lat="48.828857" lon="8.924785">
<ele>485.5</ele>
<time>2020-06-02T18:35:28Z</time>
<speed>0.8</speed>
</trkpt>
<trkpt lat="48.828867" lon="8.924731">
<ele>485.8</ele>
<time>2020-06-02T18:35:33Z</time>
<speed>0.8</speed>
</trkpt>
<trkpt lat="48.828892" lon="8.924668">
<ele>484.8</ele>
<time>2020-06-02T18:35:38Z</time>
<speed>0.6</speed>
</trkpt>
<trkpt lat="48.828915" lon="8.924603">
<ele>485.1</ele>
<time>2020-06-02T18:35:43Z</time>
<speed>0.6</speed>
</trkpt>
<trkpt lat="48.828958" lon="8.924542">
<ele>484.9</ele>
<time>2020-06-02T18:35:48Z</time>
<speed>0.6</speed>
</trkpt>
<trkpt lat="48.828996" lon="8.924481">
<ele>484.0</ele>
<time>2020-06-02T18:35:53Z</time>
<speed>0.8</speed>
</trkpt>
<trkpt lat="48.829018" lon="8.924445">
<ele>483.1</ele>
<time>2020-06-02T18:35:58Z</time>
<speed>0.8</speed>
</trkpt>
<trkpt lat="48.829050" lon="8.924353">
<ele>484.0</ele>
<time>2020-06-02T18:36:03Z</time>
<speed>0.8</speed>
</trkpt>
<trkpt lat="48.829086" lon="8.924290">
<ele>484.5</ele>
<time>2020-06-02T18:36:08Z</time>
<speed>0.8</speed>
</trkpt>
<trkpt lat="48.829131" lon="8.924218">
<ele>482.7</ele>
<time>2020-06-02T18:36:13Z</time>
<speed>0.8</speed>
</trkpt>
<trkpt lat="48.829168" lon="8.924157">
<ele>481.8</ele>
<time>2020-06-02T18:36:18Z</time>
<speed>0.8</speed>
</trkpt>
<trkpt lat="48.829199" lon="8.924094">
<ele>481.5</ele>
<time>2020-06-02T18:36:23Z</time>
<speed>0.8</speed>
</trkpt>
<trkpt lat="48.829229" lon="8.924031">
<ele>481.2</ele>
<time>2020-06-02T18:36:28Z</time>
<speed>1.1</speed>
</trkpt>
<trkpt lat="48.829261" lon="8.923954">
<ele>480.8</ele>
<time>2020-06-02T18:36:33Z</time>
<speed>1.1</speed>
</trkpt>
<trkpt lat="48.829284" lon="8.923889">
<ele>481.1</ele>
<time>2020-06-02T18:36:38Z</time>
<speed>1.1</speed>
</trkpt>
<trkpt lat="48.829328" lon="8.923828">
<ele>480.9</ele>
<time>2020-06-02T18:36:43Z</time>
<speed>1.1</speed>
</trkpt>
<trkpt lat="48.829365" lon="8.923767">
<ele>480.0</ele>
<time>2020-06-02T18:36:48Z</time>
<speed>1.1</speed>
</trkpt>
<trkpt lat="48.829403" lon="8.923693">
<ele>478.9</ele>
<time>2020-06-02T18:36:53Z</time>
<speed>0.8</speed>
</trkpt>
<trkpt lat="48.829415" lon="8.923612">
<ele>479.0</ele>
<time>2020-06-02T18:36:58Z</time>
<speed>1.1</speed>
</trkpt>
<trkpt lat="48.829446" lon="8.923551">
<ele>477.3</ele>
<time>2020-06-02T18:37:03Z</time>
<speed>1.1</speed>
</trkpt>
<trkpt lat="48.829478" lon="8.923475">
<ele>476.9</ele>
<time>2020-06-02T18:37:08Z</time>
<speed>1.1</speed>
</trkpt>
<trkpt lat="48.829531" lon="8.923443">
<ele>477.0</ele>
<time>2020-06-02T18:37:13Z</time>
<speed>0.8</speed>
</trkpt>
<trkpt lat="48.829569" lon="8.923382">
<ele>476.1</ele>
<time>2020-06-02T18:37:18Z</time>
<speed>1.1</speed>
</trkpt>
<trkpt lat="48.829600" lon="8.923305">
<ele>475.7</ele>
<time>2020-06-02T18:37:23Z</time>
<speed>0.8</speed>
</trkpt>
<trkpt lat="48.829631" lon="8.923242">
<ele>475.4</ele>
<time>2020-06-02T18:37:28Z</time>
<speed>0.8</speed>
</trkpt>
<trkpt lat="48.829662" lon="8.923166">
<ele>474.9</ele>
<time>2020-06-02T18:37:33Z</time>
<speed>1.1</speed>
</trkpt>
<trkpt lat="48.829694" lon="8.923089">
<ele>474.5</ele>
<time>2020-06-02T18:37:38Z</time>
<speed>1.1</speed>
</trkpt>
<trkpt lat="48.829733" lon="8.923001">
<ele>473.4</ele>
<time>2020-06-02T18:37:43Z</time>
<speed>1.1</speed>
</trkpt>
<trkpt lat="48.829771" lon="8.922927">
<ele>472.3</ele>
<time>2020-06-02T18:37:48Z</time>
<speed>0.8</speed>
</trkpt>
<trkpt lat="48.829794" lon="8.922875">
<ele>472.8</ele>
<time>2020-06-02T18:37:53Z</time>
<speed>0.8</speed>
</trkpt>
<trkpt lat="48.829825" lon="8.922799">
<ele>472.4</ele>
<time>2020-06-02T18:37:58Z</time>
<speed>0.8</speed>
</trkpt>
<trkpt lat="48.829856" lon="8.922736">
<ele>472.1</ele>
<time>2020-06-02T18:38:03Z</time>
<speed>1.1</speed>
</trkpt>
<trkpt lat="48.829893" lon="8.922659">
<ele>472.4</ele>
<time>2020-06-02T18:38:08Z</time>
<speed>1.1</speed>
</trkpt>
<trkpt lat="48.829931" lon="8.922583">
<ele>472.7</ele>
<time>2020-06-02T18:38:13Z</time>
<speed>1.1</speed>
</trkpt>
<trkpt lat="48.829968" lon="8.922522">
<ele>471.8</ele>
<time>2020-06-02T18:38:18Z</time>
<speed>1.1</speed>
</trkpt>
<trkpt lat="48.830005" lon="8.922445">
<ele>472.1</ele>
<time>2020-06-02T18:38:23Z</time>
<speed>0.8</speed>
</trkpt>
<trkpt lat="48.830030" lon="8.922382">
<ele>471.1</ele>
<time>2020-06-02T18:38:28Z</time>
<speed>1.1</speed>
</trkpt>
<trkpt lat="48.830060" lon="8.922319">
<ele>470.8</ele>
<time>2020-06-02T18:38:33Z</time>
<speed>1.1</speed>
</trkpt>
<trkpt lat="48.830098" lon="8.922243">
<ele>471.1</ele>
<time>2020-06-02T18:38:38Z</time>
<speed>0.8</speed>
</trkpt>
<trkpt lat="48.830121" lon="8.922177">
<ele>471.5</ele>
<time>2020-06-02T18:38:43Z</time>
<speed>1.1</speed>
</trkpt>
<trkpt lat="48.830159" lon="8.922101">
<ele>471.8</ele>
<time>2020-06-02T18:38:48Z</time>
<speed>0.8</speed>
</trkpt>
<trkpt lat="48.830189" lon="8.922038">
<ele>471.5</ele>
<time>2020-06-02T18:38:53Z</time>
<speed>1.1</speed>
</trkpt>
<trkpt lat="48.830220" lon="8.921975">
<ele>471.2</ele>
<time>2020-06-02T18:38:58Z</time>
<speed>0.8</speed>
</trkpt>
<trkpt lat="48.830257" lon="8.921898">
<ele>471.5</ele>
<time>2020-06-02T18:39:03Z</time>
<speed>1.1</speed>
</trkpt>
<trkpt lat="48.830288" lon="8.921835">
<ele>471.2</ele>
<time>2020-06-02T18:39:08Z</time>
<speed>1.1</speed>
</trkpt>
<trkpt lat="48.830326" lon="8.921761">
<ele>470.2</ele>
<time>2020-06-02T18:39:13Z</time>
<speed>1.1</speed>
</trkpt>
<trkpt lat="48.830362" lon="8.921698">
<ele>470.6</ele>
<time>2020-06-02T18:39:18Z</time>
<speed>1.1</speed>
</trkpt>
<trkpt lat="48.830393" lon="8.921635">
<ele>470.3</ele>
<time>2020-06-02T18:39:23Z</time>
<speed>1.1</speed>
</trkpt>
<trkpt lat="48.830418" lon="8.921558">
<ele>469.2</ele>
<time>2020-06-02T18:39:28Z</time>
<speed>1.1</speed>
</trkpt>
<trkpt lat="48.830445" lon="8.921468">
<ele>467.9</ele>
<time>2020-06-02T18:39:33Z</time>
<speed>1.1</speed>
</trkpt>
<trkpt lat="48.830470" lon="8.921390">
<ele>468.1</ele>
<time>2020-06-02T18:39:38Z</time>
<speed>1.1</speed>
</trkpt>
<trkpt lat="48.830507" lon="8.921313">
<ele>468.5</ele>
<time>2020-06-02T18:39:43Z</time>
<speed>1.1</speed>
</trkpt>
<trkpt lat="48.830538" lon="8.921250">
<ele>468.2</ele>
<time>2020-06-02T18:39:48Z</time>
<speed>1.1</speed>
</trkpt>
<trkpt lat="48.830574" lon="8.921187">
<ele>468.6</ele>
<time>2020-06-02T18:39:53Z</time>
<speed>0.8</speed>
</trkpt>
<trkpt lat="48.830605" lon="8.921109">
<ele>469.6</ele>
<time>2020-06-02T18:39:58Z</time>
<speed>1.1</speed>
</trkpt>
<trkpt lat="48.830635" lon="8.921045">
<ele>469.3</ele>
<time>2020-06-02T18:40:03Z</time>
<speed>1.1</speed>
</trkpt>
<trkpt lat="48.830660" lon="8.920967">
<ele>469.6</ele>
<time>2020-06-02T18:40:08Z</time>
<speed>1.1</speed>
</trkpt>
<trkpt lat="48.830685" lon="8.920904">
<ele>468.5</ele>
<time>2020-06-02T18:40:13Z</time>
<speed>0.8</speed>
</trkpt>
<trkpt lat="48.830703" lon="8.920825">
<ele>468.0</ele>
<time>2020-06-02T18:40:18Z</time>
<speed>1.1</speed>
</trkpt>
<trkpt lat="48.830713" lon="8.920787">
<ele>467.0</ele>
<time>2020-06-02T18:40:23Z</time>
<speed>0.0</speed>
</trkpt>
<trkpt lat="48.830720" lon="8.920773">
<ele>467.7</ele>
<time>2020-06-02T18:40:28Z</time>
<speed>0.8</speed>
</trkpt>
<trkpt lat="48.830751" lon="8.920710">
<ele>467.4</ele>
<time>2020-06-02T18:40:33Z</time>
<speed>1.1</speed>
</trkpt>
<trkpt lat="48.830770" lon="8.920632">
<ele>466.9</ele>
<time>2020-06-02T18:40:38Z</time>
<speed>0.8</speed>
</trkpt>
<trkpt lat="48.830813" lon="8.920573">
<ele>465.3</ele>
<time>2020-06-02T18:40:43Z</time>
<speed>0.8</speed>
</trkpt>
<trkpt lat="48.830856" lon="8.920512">
<ele>465.1</ele>
<time>2020-06-02T18:40:48Z</time>
<speed>0.8</speed>
</trkpt>
<trkpt lat="48.830900" lon="8.920451">
<ele>464.9</ele>
<time>2020-06-02T18:40:53Z</time>
<speed>0.8</speed>
</trkpt>
<trkpt lat="48.830936" lon="8.920404">
<ele>464.0</ele>
<time>2020-06-02T18:40:58Z</time>
<speed>0.8</speed>
</trkpt>
<trkpt lat="48.830991" lon="8.920345">
<ele>463.9</ele>
<time>2020-06-02T18:41:03Z</time>
<speed>0.8</speed>
</trkpt>
<trkpt lat="48.831039" lon="8.920297">
<ele>464.6</ele>
<time>2020-06-02T18:41:08Z</time>
<speed>0.8</speed>
</trkpt>
<trkpt lat="48.831080" lon="8.920248">
<ele>465.9</ele>
<time>2020-06-02T18:41:13Z</time>
<speed>0.8</speed>
</trkpt>
<trkpt lat="48.831117" lon="8.920185">
<ele>466.3</ele>
<time>2020-06-02T18:41:18Z</time>
<speed>0.8</speed>
</trkpt>
<trkpt lat="48.831159" lon="8.920137">
<ele>466.2</ele>
<time>2020-06-02T18:41:23Z</time>
<speed>1.1</speed>
</trkpt>
<trkpt lat="48.831209" lon="8.920146">
<ele>466.6</ele>
<time>2020-06-02T18:41:28Z</time>
<speed>0.8</speed>
</trkpt>
<trkpt lat="48.831259" lon="8.920168">
<ele>467.1</ele>
<time>2020-06-02T18:41:33Z</time>
<speed>0.8</speed>
</trkpt>
<trkpt lat="48.831311" lon="8.920149">
<ele>467.3</ele>
<time>2020-06-02T18:41:38Z</time>
<speed>1.1</speed>
</trkpt>
<trkpt lat="48.831362" lon="8.920158">
<ele>467.7</ele>
<time>2020-06-02T18:41:43Z</time>
<speed>1.1</speed>
</trkpt>
<trkpt lat="48.831411" lon="8.920179">
<ele>468.3</ele>
<time>2020-06-02T18:41:48Z</time>
<speed>1.1</speed>
</trkpt>
<trkpt lat="48.831476" lon="8.920194">
<ele>466.0</ele>
<time>2020-06-02T18:41:53Z</time>
<speed>1.1</speed>
</trkpt>
<trkpt lat="48.831525" lon="8.920232">
<ele>465.2</ele>
<time>2020-06-02T18:41:58Z</time>
<speed>1.1</speed>
</trkpt>
<trkpt lat="48.831581" lon="8.920258">
<ele>463.6</ele>
<time>2020-06-02T18:42:03Z</time>
<speed>1.1</speed>
</trkpt>
<trkpt lat="48.831638" lon="8.920282">
<ele>463.5</ele>
<time>2020-06-02T18:42:08Z</time>
<speed>1.1</speed>
</trkpt>
<trkpt lat="48.831688" lon="8.920306">
<ele>462.6</ele>
<time>2020-06-02T18:42:13Z</time>
<speed>1.1</speed>
</trkpt>
<trkpt lat="48.831737" lon="8.920343">
<ele>461.8</ele>
<time>2020-06-02T18:42:18Z</time>
<speed>1.1</speed>
</trkpt>
<trkpt lat="48.831780" lon="8.920365">
<ele>461.6</ele>
<time>2020-06-02T18:42:23Z</time>
<speed>1.1</speed>
</trkpt>
<trkpt lat="48.831836" lon="8.920389">
<ele>461.4</ele>
<time>2020-06-02T18:42:28Z</time>
<speed>1.1</speed>
</trkpt>
<trkpt lat="48.831882" lon="8.920384">
<ele>461.0</ele>
<time>2020-06-02T18:42:33Z</time>
<speed>1.1</speed>
</trkpt>
<trkpt lat="48.831932" lon="8.920408">
<ele>460.1</ele>
<time>2020-06-02T18:42:38Z</time>
<speed>1.1</speed>
</trkpt>
<trkpt lat="48.831982" lon="8.920432">
<ele>459.2</ele>
<time>2020-06-02T18:42:43Z</time>
<speed>0.3</speed>
</trkpt>
<trkpt lat="48.832027" lon="8.920441">
<ele>458.9</ele>
<time>2020-06-02T18:42:48Z</time>
<speed>1.1</speed>
</trkpt>
<trkpt lat="48.832077" lon="8.920465">
<ele>458.0</ele>
<time>2020-06-02T18:42:53Z</time>
<speed>1.1</speed>
</trkpt>
<trkpt lat="48.832127" lon="8.920489">
<ele>457.1</ele>
<time>2020-06-02T18:42:58Z</time>
<speed>1.1</speed>
</trkpt>
<trkpt lat="48.832184" lon="8.920499">
<ele>456.8</ele>
<time>2020-06-02T18:43:03Z</time>
<speed>1.1</speed>
</trkpt>
<trkpt lat="48.832230" lon="8.920494">
<ele>456.4</ele>
<time>2020-06-02T18:43:08Z</time>
<speed>1.1</speed>
</trkpt>
<trkpt lat="48.832293" lon="8.920507">
<ele>455.5</ele>
<time>2020-06-02T18:43:13Z</time>
<speed>1.1</speed>
</trkpt>
<trkpt lat="48.832345" lon="8.920518">
<ele>454.5</ele>
<time>2020-06-02T18:43:18Z</time>
<speed>1.1</speed>
</trkpt>
<trkpt lat="48.832396" lon="8.920528">
<ele>453.5</ele>
<time>2020-06-02T18:43:23Z</time>
<speed>1.1</speed>
</trkpt>
<trkpt lat="48.832452" lon="8.920552">
<ele>453.4</ele>
<time>2020-06-02T18:43:28Z</time>
<speed>1.1</speed>
</trkpt>
<trkpt lat="48.832497" lon="8.920547">
<ele>452.9</ele>
<time>2020-06-02T18:43:33Z</time>
<speed>1.1</speed>
</trkpt>
<trkpt lat="48.832553" lon="8.920571">
<ele>452.8</ele>
<time>2020-06-02T18:43:38Z</time>
<speed>0.8</speed>
</trkpt>
<trkpt lat="48.832604" lon="8.920580">
<ele>453.2</ele>
<time>2020-06-02T18:43:43Z</time>
<speed>1.4</speed>
</trkpt>
<trkpt lat="48.832661" lon="8.920590">
<ele>453.0</ele>
<time>2020-06-02T18:43:48Z</time>
<speed>1.1</speed>
</trkpt>
<trkpt lat="48.832705" lon="8.920599">
<ele>452.6</ele>
<time>2020-06-02T18:43:53Z</time>
<speed>0.8</speed>
</trkpt>
<trkpt lat="48.832756" lon="8.920607">
<ele>453.0</ele>
<time>2020-06-02T18:43:58Z</time>
<speed>1.1</speed>
</trkpt>
<trkpt lat="48.832813" lon="8.920618">
<ele>452.8</ele>
<time>2020-06-02T18:44:03Z</time>
<speed>1.1</speed>
</trkpt>
<trkpt lat="48.832859" lon="8.920613">
<ele>452.3</ele>
<time>2020-06-02T18:44:08Z</time>
<speed>1.1</speed>
</trkpt>
<trkpt lat="48.832921" lon="8.920639">
<ele>451.6</ele>
<time>2020-06-02T18:44:13Z</time>
<speed>1.1</speed>
</trkpt>
<trkpt lat="48.832971" lon="8.920661">
<ele>452.1</ele>
<time>2020-06-02T18:44:18Z</time>
<speed>1.1</speed>
</trkpt>
<trkpt lat="48.833027" lon="8.920685">
<ele>451.9</ele>
<time>2020-06-02T18:44:23Z</time>
<speed>1.1</speed>
</trkpt>
<trkpt lat="48.833092" lon="8.920684">
<ele>450.9</ele>
<time>2020-06-02T18:44:28Z</time>
<speed>1.1</speed>
</trkpt>
<trkpt lat="48.833138" lon="8.920665">
<ele>450.4</ele>
<time>2020-06-02T18:44:33Z</time>
<speed>1.1</speed>
</trkpt>
<trkpt lat="48.833162" lon="8.920600">
<ele>450.7</ele>
<time>2020-06-02T18:44:38Z</time>
<speed>1.1</speed>
</trkpt>
<trkpt lat="48.833173" lon="8.920533">
<ele>451.0</ele>
<time>2020-06-02T18:44:43Z</time>
<speed>1.1</speed>
</trkpt>
<trkpt lat="48.833185" lon="8.920452">
<ele>451.1</ele>
<time>2020-06-02T18:44:48Z</time>
<speed>0.8</speed>
</trkpt>
<trkpt lat="48.833190" lon="8.920383">
<ele>452.0</ele>
<time>2020-06-02T18:44:53Z</time>
<speed>1.1</speed>
</trkpt>
<trkpt lat="48.833196" lon="8.920302">
<ele>451.4</ele>
<time>2020-06-02T18:44:58Z</time>
<speed>1.1</speed>
</trkpt>
<trkpt lat="48.833197" lon="8.920221">
<ele>450.0</ele>
<time>2020-06-02T18:45:03Z</time>
<speed>1.1</speed>
</trkpt>
<trkpt lat="48.833188" lon="8.920150">
<ele>450.8</ele>
<time>2020-06-02T18:45:08Z</time>
<speed>1.1</speed>
</trkpt>
<trkpt lat="48.833182" lon="8.920067">
<ele>450.1</ele>
<time>2020-06-02T18:45:13Z</time>
<speed>0.8</speed>
</trkpt>
<trkpt lat="48.833181" lon="8.919998">
<ele>450.2</ele>
<time>2020-06-02T18:45:18Z</time>
<speed>1.1</speed>
</trkpt>
<trkpt lat="48.833187" lon="8.919917">
<ele>449.6</ele>
<time>2020-06-02T18:45:23Z</time>
<speed>0.8</speed>
</trkpt>
<trkpt lat="48.833185" lon="8.919847">
<ele>449.8</ele>
<time>2020-06-02T18:45:28Z</time>
<speed>1.1</speed>
</trkpt>
<trkpt lat="48.833192" lon="8.919767">
<ele>449.2</ele>
<time>2020-06-02T18:45:33Z</time>
<speed>1.1</speed>
</trkpt>
<trkpt lat="48.833184" lon="8.919697">
<ele>448.6</ele>
<time>2020-06-02T18:45:38Z</time>
<speed>0.8</speed>
</trkpt>
<trkpt lat="48.833176" lon="8.919626">
<ele>449.3</ele>
<time>2020-06-02T18:45:43Z</time>
<speed>0.8</speed>
</trkpt>
<trkpt lat="48.833169" lon="8.919556">
<ele>448.7</ele>
<time>2020-06-02T18:45:48Z</time>
<speed>0.8</speed>
</trkpt>
<trkpt lat="48.833162" lon="8.919471">
<ele>449.4</ele>
<time>2020-06-02T18:45:53Z</time>
<speed>1.1</speed>
</trkpt>
<trkpt lat="48.833160" lon="8.919402">
<ele>449.6</ele>
<time>2020-06-02T18:45:58Z</time>
<speed>0.8</speed>
</trkpt>
<trkpt lat="48.833159" lon="8.919333">
<ele>449.7</ele>
<time>2020-06-02T18:46:03Z</time>
<speed>0.8</speed>
</trkpt>
<trkpt lat="48.833165" lon="8.919250">
<ele>450.5</ele>
<time>2020-06-02T18:46:08Z</time>
<speed>1.1</speed>
</trkpt>
<trkpt lat="48.833169" lon="8.919180">
<ele>451.4</ele>
<time>2020-06-02T18:46:13Z</time>
<speed>0.8</speed>
</trkpt>
<trkpt lat="48.833175" lon="8.919100">
<ele>450.8</ele>
<time>2020-06-02T18:46:18Z</time>
<speed>1.1</speed>
</trkpt>
<trkpt lat="48.833188" lon="8.919021">
<ele>449.5</ele>
<time>2020-06-02T18:46:23Z</time>
<speed>0.8</speed>
</trkpt>
<trkpt lat="48.833194" lon="8.918938">
<ele>450.3</ele>
<time>2020-06-02T18:46:28Z</time>
<speed>0.8</speed>
</trkpt>
<trkpt lat="48.833205" lon="8.918871">
<ele>450.5</ele>
<time>2020-06-02T18:46:33Z</time>
<speed>0.8</speed>
</trkpt>
<trkpt lat="48.833217" lon="8.918806">
<ele>449.4</ele>
<time>2020-06-02T18:46:38Z</time>
<speed>1.1</speed>
</trkpt>
<trkpt lat="48.833212" lon="8.918712">
<ele>447.2</ele>
<time>2020-06-02T18:46:43Z</time>
<speed>1.1</speed>
</trkpt>
<trkpt lat="48.833237" lon="8.918633">
<ele>447.4</ele>
<time>2020-06-02T18:46:48Z</time>
<speed>1.1</speed>
</trkpt>
<trkpt lat="48.833249" lon="8.918552">
<ele>447.5</ele>
<time>2020-06-02T18:46:53Z</time>
<speed>0.8</speed>
</trkpt>
<trkpt lat="48.833267" lon="8.918487">
<ele>447.1</ele>
<time>2020-06-02T18:46:58Z</time>
<speed>0.8</speed>
</trkpt>
<trkpt lat="48.833286" lon="8.918409">
<ele>446.6</ele>
<time>2020-06-02T18:47:03Z</time>
<speed>0.8</speed>
</trkpt>
<trkpt lat="48.833286" lon="8.918326">
<ele>446.7</ele>
<time>2020-06-02T18:47:08Z</time>
<speed>0.8</speed>
</trkpt>
<trkpt lat="48.833285" lon="8.918243">
<ele>446.7</ele>
<time>2020-06-02T18:47:13Z</time>
<speed>0.8</speed>
</trkpt>
<trkpt lat="48.833297" lon="8.918176">
<ele>446.9</ele>
<time>2020-06-02T18:47:18Z</time>
<speed>0.8</speed>
</trkpt>
<trkpt lat="48.833314" lon="8.918108">
<ele>447.9</ele>
<time>2020-06-02T18:47:23Z</time>
<speed>0.8</speed>
</trkpt>
<trkpt lat="48.833338" lon="8.918030">
<ele>448.2</ele>
<time>2020-06-02T18:47:28Z</time>
<speed>0.8</speed>
</trkpt>
<trkpt lat="48.833355" lon="8.917978">
<ele>447.9</ele>
<time>2020-06-02T18:47:33Z</time>
<speed>0.8</speed>
</trkpt>
<trkpt lat="48.833369" lon="8.917886">
<ele>446.5</ele>
<time>2020-06-02T18:47:38Z</time>
<speed>0.8</speed>
</trkpt>
<trkpt lat="48.833375" lon="8.917819">
<ele>446.0</ele>
<time>2020-06-02T18:47:43Z</time>
<speed>0.8</speed>
</trkpt>
<trkpt lat="48.833381" lon="8.917738">
<ele>445.4</ele>
<time>2020-06-02T18:47:48Z</time>
<speed>0.8</speed>
</trkpt>
<trkpt lat="48.833379" lon="8.917668">
<ele>445.5</ele>
<time>2020-06-02T18:47:53Z</time>
<speed>0.6</speed>
</trkpt>
<trkpt lat="48.833386" lon="8.917588">
<ele>444.9</ele>
<time>2020-06-02T18:47:58Z</time>
<speed>0.8</speed>
</trkpt>
<trkpt lat="48.833391" lon="8.917520">
<ele>444.4</ele>
<time>2020-06-02T18:48:03Z</time>
<speed>0.8</speed>
</trkpt>
<trkpt lat="48.833405" lon="8.917428">
<ele>443.0</ele>
<time>2020-06-02T18:48:08Z</time>
<speed>1.1</speed>
</trkpt>
<trkpt lat="48.833437" lon="8.917354">
<ele>441.2</ele>
<time>2020-06-02T18:48:13Z</time>
<speed>1.1</speed>
</trkpt>
<trkpt lat="48.833469" lon="8.917295">
<ele>438.1</ele>
<time>2020-06-02T18:48:18Z</time>
<speed>0.8</speed>
</trkpt>
<trkpt lat="48.833526" lon="8.917238">
<ele>436.6</ele>
<time>2020-06-02T18:48:23Z</time>
<speed>1.1</speed>
</trkpt>
<trkpt lat="48.833544" lon="8.917173">
<ele>436.2</ele>
<time>2020-06-02T18:48:28Z</time>
<speed>1.1</speed>
</trkpt>
<trkpt lat="48.833561" lon="8.917106">
<ele>437.2</ele>
<time>2020-06-02T18:48:33Z</time>
<speed>0.8</speed>
</trkpt>
<trkpt lat="48.833574" lon="8.917027">
<ele>435.9</ele>
<time>2020-06-02T18:48:38Z</time>
<speed>0.8</speed>
</trkpt>
<trkpt lat="48.833584" lon="8.916974">
<ele>436.3</ele>
<time>2020-06-02T18:48:43Z</time>
<speed>0.8</speed>
</trkpt>
<trkpt lat="48.833581" lon="8.916918">
<ele>436.5</ele>
<time>2020-06-02T18:48:48Z</time>
<speed>0.6</speed>
</trkpt>
<trkpt lat="48.833588" lon="8.916837">
<ele>435.9</ele>
<time>2020-06-02T18:48:53Z</time>
<speed>0.8</speed>
</trkpt>
<trkpt lat="48.833611" lon="8.916772">
<ele>436.3</ele>
<time>2020-06-02T18:48:58Z</time>
<speed>0.8</speed>
</trkpt>
<trkpt lat="48.833641" lon="8.916707">
<ele>437.4</ele>
<time>2020-06-02T18:49:03Z</time>
<speed>0.8</speed>
</trkpt>
<trkpt lat="48.833665" lon="8.916626">
<ele>439.0</ele>
<time>2020-06-02T18:49:08Z</time>
<speed>0.8</speed>
</trkpt>
<trkpt lat="48.833670" lon="8.916559">
<ele>438.5</ele>
<time>2020-06-02T18:49:13Z</time>
<speed>0.8</speed>
</trkpt>
<trkpt lat="48.833673" lon="8.916466">
<ele>435.6</ele>
<time>2020-06-02T18:49:18Z</time>
<speed>0.8</speed>
</trkpt>
<trkpt lat="48.833691" lon="8.916388">
<ele>435.1</ele>
<time>2020-06-02T18:49:23Z</time>
<speed>0.8</speed>
</trkpt>
<trkpt lat="48.833704" lon="8.916309">
<ele>433.9</ele>
<time>2020-06-02T18:49:28Z</time>
<speed>0.8</speed>
</trkpt>
<trkpt lat="48.833710" lon="8.916242">
<ele>433.3</ele>
<time>2020-06-02T18:49:33Z</time>
<speed>0.8</speed>
</trkpt>
<trkpt lat="48.833723" lon="8.916163">
<ele>432.1</ele>
<time>2020-06-02T18:49:38Z</time>
<speed>0.8</speed>
</trkpt>
<trkpt lat="48.833741" lon="8.916100">
<ele>430.3</ele>
<time>2020-06-02T18:49:43Z</time>
<speed>0.8</speed>
</trkpt>
<trkpt lat="48.833766" lon="8.916037">
<ele>429.2</ele>
<time>2020-06-02T18:49:48Z</time>
<speed>0.8</speed>
</trkpt>
<trkpt lat="48.833778" lon="8.915972">
<ele>428.1</ele>
<time>2020-06-02T18:49:53Z</time>
<speed>0.8</speed>
</trkpt>
<trkpt lat="48.833796" lon="8.915907">
<ele>427.6</ele>
<time>2020-06-02T18:49:58Z</time>
<speed>0.8</speed>
</trkpt>
<trkpt lat="48.833798" lon="8.915880">
<ele>427.4</ele>
<time>2020-06-02T18:50:03Z</time>
<speed>0.0</speed>
</trkpt>
<trkpt lat="48.833821" lon="8.915815">
<ele>427.8</ele>
<time>2020-06-02T18:50:08Z</time>
<speed>0.8</speed>
</trkpt>
<trkpt lat="48.833807" lon="8.915759">
<ele>426.5</ele>
<time>2020-06-02T18:50:13Z</time>
<speed>0.8</speed>
</trkpt>
<trkpt lat="48.833795" lon="8.915676">
<ele>425.1</ele>
<time>2020-06-02T18:50:18Z</time>
<speed>0.8</speed>
</trkpt>
<trkpt lat="48.833794" lon="8.915609">
<ele>423.8</ele>
<time>2020-06-02T18:50:23Z</time>
<speed>0.8</speed>
</trkpt>
<trkpt lat="48.833831" lon="8.915546">
<ele>424.2</ele>
<time>2020-06-02T18:50:28Z</time>
<speed>0.8</speed>
</trkpt>
<trkpt lat="48.833862" lon="8.915485">
<ele>422.5</ele>
<time>2020-06-02T18:50:33Z</time>
<speed>0.8</speed>
</trkpt>
<trkpt lat="48.833887" lon="8.915408">
<ele>421.4</ele>
<time>2020-06-02T18:50:38Z</time>
<speed>0.8</speed>
</trkpt>
<trkpt lat="48.833924" lon="8.915345">
<ele>421.8</ele>
<time>2020-06-02T18:50:43Z</time>
<speed>0.8</speed>
</trkpt>
<trkpt lat="48.833948" lon="8.915282">
<ele>420.8</ele>
<time>2020-06-02T18:50:48Z</time>
<speed>0.8</speed>
</trkpt>
<trkpt lat="48.833980" lon="8.915221">
<ele>419.1</ele>
<time>2020-06-02T18:50:53Z</time>
<speed>0.8</speed>
</trkpt>
<trkpt lat="48.834012" lon="8.915162">
<ele>415.9</ele>
<time>2020-06-02T18:50:58Z</time>
<speed>0.8</speed>
</trkpt>
<trkpt lat="48.834060" lon="8.915117">
<ele>415.2</ele>
<time>2020-06-02T18:51:03Z</time>
<speed>0.8</speed>
</trkpt>
<trkpt lat="48.834094" lon="8.915081">
<ele>415.8</ele>
<time>2020-06-02T18:51:08Z</time>
<speed>0.8</speed>
</trkpt>
<trkpt lat="48.834137" lon="8.915033">
<ele>415.7</ele>
<time>2020-06-02T18:51:13Z</time>
<speed>0.8</speed>
</trkpt>
<trkpt lat="48.834170" lon="8.914995">
<ele>417.8</ele>
<time>2020-06-02T18:51:18Z</time>
<speed>0.8</speed>
</trkpt>
<trkpt lat="48.834205" lon="8.914945">
<ele>418.3</ele>
<time>2020-06-02T18:51:23Z</time>
<speed>0.8</speed>
</trkpt>
<trkpt lat="48.834236" lon="8.914898">
<ele>416.7</ele>
<time>2020-06-02T18:51:28Z</time>
<speed>0.8</speed>
</trkpt>
<trkpt lat="48.834265" lon="8.914866">
<ele>413.8</ele>
<time>2020-06-02T18:51:33Z</time>
<speed>0.8</speed>
</trkpt>
<trkpt lat="48.834312" lon="8.914832">
<ele>414.6</ele>
<time>2020-06-02T18:51:38Z</time>
<speed>0.8</speed>
</trkpt>
<trkpt lat="48.834331" lon="8.914753">
<ele>414.1</ele>
<time>2020-06-02T18:51:43Z</time>
<speed>1.1</speed>
</trkpt>
<trkpt lat="48.834376" lon="8.914681">
<ele>412.4</ele>
<time>2020-06-02T18:51:48Z</time>
<speed>0.8</speed>
</trkpt>
<trkpt lat="48.834401" lon="8.914602">
<ele>412.6</ele>
<time>2020-06-02T18:51:53Z</time>
<speed>1.1</speed>
</trkpt>
<trkpt lat="48.834433" lon="8.914528">
<ele>410.8</ele>
<time>2020-06-02T18:51:58Z</time>
<speed>1.1</speed>
</trkpt>
<trkpt lat="48.834471" lon="8.914469">
<ele>408.4</ele>
<time>2020-06-02T18:52:03Z</time>
<speed>1.1</speed>
</trkpt>
<trkpt lat="48.834484" lon="8.914391">
<ele>407.2</ele>
<time>2020-06-02T18:52:08Z</time>
<speed>0.8</speed>
</trkpt>
<trkpt lat="48.834514" lon="8.914325">
<ele>408.3</ele>
<time>2020-06-02T18:52:13Z</time>
<speed>0.8</speed>
</trkpt>
<trkpt lat="48.834526" lon="8.914245">
<ele>408.4</ele>
<time>2020-06-02T18:52:18Z</time>
<speed>1.1</speed>
</trkpt>
<trkpt lat="48.834545" lon="8.914166">
<ele>407.9</ele>
<time>2020-06-02T18:52:23Z</time>
<speed>1.1</speed>
</trkpt>
<trkpt lat="48.834557" lon="8.914085">
<ele>408.1</ele>
<time>2020-06-02T18:52:28Z</time>
<speed>1.1</speed>
</trkpt>
<trkpt lat="48.834569" lon="8.914005">
<ele>408.2</ele>
<time>2020-06-02T18:52:33Z</time>
<speed>1.1</speed>
</trkpt>
<trkpt lat="48.834580" lon="8.913935">
<ele>409.8</ele>
<time>2020-06-02T18:52:38Z</time>
<speed>0.8</speed>
</trkpt>
<trkpt lat="48.834575" lon="8.913841">
<ele>407.6</ele>
<time>2020-06-02T18:52:43Z</time>
<speed>0.8</speed>
</trkpt>
<trkpt lat="48.834581" lon="8.913760">
<ele>407.0</ele>
<time>2020-06-02T18:52:48Z</time>
<speed>0.8</speed>
</trkpt>
<trkpt lat="48.834572" lon="8.913718">
<ele>406.6</ele>
<time>2020-06-02T18:52:53Z</time>
<speed>0.0</speed>
</trkpt>
<trkpt lat="48.834585" lon="8.913720">
<ele>406.7</ele>
<time>2020-06-02T18:52:58Z</time>
<speed>0.3</speed>
</trkpt>
<trkpt lat="48.834585" lon="8.913720">
<ele>406.7</ele>
<time>2020-06-02T18:53:03Z</time>
<speed>0.0</speed>
</trkpt>
<trkpt lat="48.834579" lon="8.913722">
<ele>404.5</ele>
<time>2020-06-02T18:53:08Z</time>
<speed>0.0</speed>
</trkpt>
<trkpt lat="48.834579" lon="8.913722">
<ele>404.5</ele>
<time>2020-06-02T18:53:13Z</time>
<speed>0.0</speed>
</trkpt>
<trkpt lat="48.834579" lon="8.913722">
<ele>404.5</ele>
<time>2020-06-02T18:53:18Z</time>
<speed>0.0</speed>
</trkpt>
<trkpt lat="48.834579" lon="8.913722">
<ele>404.5</ele>
<time>2020-06-02T18:53:23Z</time>
<speed>0.0</speed>
</trkpt>
<trkpt lat="48.834579" lon="8.913722">
<ele>404.5</ele>
<time>2020-06-02T18:53:28Z</time>
<speed>0.0</speed>
</trkpt>
<trkpt lat="48.834579" lon="8.913722">
<ele>404.5</ele>
<time>2020-06-02T18:53:33Z</time>
<speed>0.0</speed>
</trkpt>
<trkpt lat="48.834579" lon="8.913722">
<ele>404.5</ele>
<time>2020-06-02T18:53:38Z</time>
<speed>0.0</speed>
</trkpt>
<trkpt lat="48.834573" lon="8.913735">
<ele>403.9</ele>
<time>2020-06-02T18:53:43Z</time>
<speed>0.0</speed>
</trkpt>
<trkpt lat="48.834573" lon="8.913735">
<ele>403.9</ele>
<time>2020-06-02T18:53:48Z</time>
<speed>0.0</speed>
</trkpt>
<trkpt lat="48.834566" lon="8.913751">
<ele>401.8</ele>
<time>2020-06-02T18:53:53Z</time>
<speed>0.3</speed>
</trkpt>
<trkpt lat="48.834609" lon="8.913721">
<ele>399.0</ele>
<time>2020-06-02T18:53:58Z</time>
<speed>0.3</speed>
</trkpt>
<trkpt lat="48.834623" lon="8.913694">
<ele>400.3</ele>
<time>2020-06-02T18:54:03Z</time>
<speed>0.3</speed>
</trkpt>
<trkpt lat="48.834617" lon="8.913679">
<ele>400.9</ele>
<time>2020-06-02T18:54:08Z</time>
<speed>0.0</speed>
</trkpt>
<trkpt lat="48.834611" lon="8.913679">
<ele>400.1</ele>
<time>2020-06-02T18:54:13Z</time>
<speed>0.0</speed>
</trkpt>
<trkpt lat="48.834611" lon="8.913679">
<ele>400.1</ele>
<time>2020-06-02T18:54:18Z</time>
<speed>0.0</speed>
</trkpt>
<trkpt lat="48.834611" lon="8.913679">
<ele>400.1</ele>
<time>2020-06-02T18:54:23Z</time>
<speed>0.0</speed>
</trkpt>
<trkpt lat="48.834611" lon="8.913679">
<ele>400.1</ele>
<time>2020-06-02T18:54:28Z</time>
<speed>0.0</speed>
</trkpt>
<trkpt lat="48.834611" lon="8.913663">
<ele>401.4</ele>
<time>2020-06-02T18:54:33Z</time>
<speed>0.8</speed>
</trkpt>
<trkpt lat="48.834588" lon="8.913614">
<ele>403.7</ele>
<time>2020-06-02T18:54:38Z</time>
<speed>0.8</speed>
</trkpt>
<trkpt lat="48.834644" lon="8.913558">
<ele>402.2</ele>
<time>2020-06-02T18:54:43Z</time>
<speed>1.1</speed>
</trkpt>
<trkpt lat="48.834707" lon="8.913568">
<ele>402.7</ele>
<time>2020-06-02T18:54:48Z</time>
<speed>1.1</speed>
</trkpt>
<trkpt lat="48.834756" lon="8.913604">
<ele>403.4</ele>
<time>2020-06-02T18:54:53Z</time>
<speed>0.8</speed>
</trkpt>
<trkpt lat="48.834816" lon="8.913654">
<ele>404.2</ele>
<time>2020-06-02T18:54:58Z</time>
<speed>1.1</speed>
</trkpt>
<trkpt lat="48.834889" lon="8.913644">
<ele>401.0</ele>
<time>2020-06-02T18:55:03Z</time>
<speed>0.6</speed>
</trkpt>
<trkpt lat="48.834938" lon="8.913666">
<ele>401.5</ele>
<time>2020-06-02T18:55:08Z</time>
<speed>0.8</speed>
</trkpt>
<trkpt lat="48.834990" lon="8.913729">
<ele>403.1</ele>
<time>2020-06-02T18:55:13Z</time>
<speed>1.1</speed>
</trkpt>
<trkpt lat="48.835025" lon="8.913775">
<ele>403.7</ele>
<time>2020-06-02T18:55:18Z</time>
<speed>0.8</speed>
</trkpt>
<trkpt lat="48.835068" lon="8.913795">
<ele>404.9</ele>
<time>2020-06-02T18:55:23Z</time>
<speed>1.1</speed>
</trkpt>
<trkpt lat="48.835102" lon="8.913842">
<ele>405.5</ele>
<time>2020-06-02T18:55:28Z</time>
<speed>1.1</speed>
</trkpt>
<trkpt lat="48.835144" lon="8.913891">
<ele>405.5</ele>
<time>2020-06-02T18:55:33Z</time>
<speed>1.1</speed>
</trkpt>
<trkpt lat="48.835186" lon="8.913926">
<ele>405.3</ele>
<time>2020-06-02T18:55:38Z</time>
<speed>1.1</speed>
</trkpt>
<trkpt lat="48.835222" lon="8.913959">
<ele>405.8</ele>
<time>2020-06-02T18:55:43Z</time>
<speed>0.8</speed>
</trkpt>
<trkpt lat="48.835262" lon="8.914021">
<ele>405.9</ele>
<time>2020-06-02T18:55:48Z</time>
<speed>1.1</speed>
</trkpt>
<trkpt lat="48.835303" lon="8.914084">
<ele>406.0</ele>
<time>2020-06-02T18:55:53Z</time>
<speed>1.1</speed>
</trkpt>
<trkpt lat="48.835332" lon="8.914115">
<ele>407.1</ele>
<time>2020-06-02T18:55:58Z</time>
<speed>1.1</speed>
</trkpt>
<trkpt lat="48.835374" lon="8.914135">
<ele>408.3</ele>
<time>2020-06-02T18:56:03Z</time>
<speed>1.1</speed>
</trkpt>
<trkpt lat="48.835422" lon="8.914183">
<ele>409.0</ele>
<time>2020-06-02T18:56:08Z</time>
<speed>1.4</speed>
</trkpt>
<trkpt lat="48.835479" lon="8.914178">
<ele>410.1</ele>
<time>2020-06-02T18:56:13Z</time>
<speed>1.1</speed>
</trkpt>
<trkpt lat="48.835522" lon="8.914200">
<ele>409.8</ele>
<time>2020-06-02T18:56:18Z</time>
<speed>0.8</speed>
</trkpt>
<trkpt lat="48.835577" lon="8.914253">
<ele>408.5</ele>
<time>2020-06-02T18:56:23Z</time>
<speed>1.1</speed>
</trkpt>
<trkpt lat="48.835631" lon="8.914320">
<ele>407.3</ele>
<time>2020-06-02T18:56:28Z</time>
<speed>0.8</speed>
</trkpt>
<trkpt lat="48.835694" lon="8.914348">
<ele>405.1</ele>
<time>2020-06-02T18:56:33Z</time>
<speed>0.8</speed>
</trkpt>
<trkpt lat="48.835751" lon="8.914374">
<ele>403.5</ele>
<time>2020-06-02T18:56:38Z</time>
<speed>1.1</speed>
</trkpt>
<trkpt lat="48.835796" lon="8.914383">
<ele>403.2</ele>
<time>2020-06-02T18:56:43Z</time>
<speed>0.8</speed>
</trkpt>
<trkpt lat="48.835847" lon="8.914393">
<ele>402.2</ele>
<time>2020-06-02T18:56:48Z</time>
<speed>1.1</speed>
</trkpt>
<trkpt lat="48.835888" lon="8.914375">
<ele>400.9</ele>
<time>2020-06-02T18:56:53Z</time>
<speed>0.8</speed>
</trkpt>
<trkpt lat="48.835941" lon="8.914358">
<ele>399.7</ele>
<time>2020-06-02T18:56:58Z</time>
<speed>1.1</speed>
</trkpt>
<trkpt lat="48.835982" lon="8.914324">
<ele>399.7</ele>
<time>2020-06-02T18:57:03Z</time>
<speed>0.8</speed>
</trkpt>
<trkpt lat="48.836022" lon="8.914306">
<ele>398.4</ele>
<time>2020-06-02T18:57:08Z</time>
<speed>0.8</speed>
</trkpt>
<trkpt lat="48.836057" lon="8.914270">
<ele>399.0</ele>
<time>2020-06-02T18:57:13Z</time>
<speed>0.6</speed>
</trkpt>
<trkpt lat="48.836084" lon="8.914247">
<ele>399.0</ele>
<time>2020-06-02T18:57:18Z</time>
<speed>0.0</speed>
</trkpt>
<trkpt lat="48.836143" lon="8.914231">
<ele>398.6</ele>
<time>2020-06-02T18:57:23Z</time>
<speed>0.8</speed>
</trkpt>
<trkpt lat="48.836202" lon="8.914214">
<ele>398.2</ele>
<time>2020-06-02T18:57:28Z</time>
<speed>0.8</speed>
</trkpt>
<trkpt lat="48.836261" lon="8.914213">
<ele>396.4</ele>
<time>2020-06-02T18:57:33Z</time>
<speed>1.1</speed>
</trkpt>
<trkpt lat="48.836319" lon="8.914224">
<ele>396.2</ele>
<time>2020-06-02T18:57:38Z</time>
<speed>1.1</speed>
</trkpt>
<trkpt lat="48.836376" lon="8.914235">
<ele>395.9</ele>
<time>2020-06-02T18:57:43Z</time>
<speed>0.8</speed>
</trkpt>
<trkpt lat="48.836413" lon="8.914241">
<ele>396.2</ele>
<time>2020-06-02T18:57:48Z</time>
<speed>0.8</speed>
</trkpt>
<trkpt lat="48.836426" lon="8.914243">
<ele>396.3</ele>
<time>2020-06-02T18:57:53Z</time>
<speed>0.0</speed>
</trkpt>
<trkpt lat="48.836459" lon="8.914236">
<ele>395.8</ele>
<time>2020-06-02T18:57:58Z</time>
<speed>0.8</speed>
</trkpt>
<trkpt lat="48.836505" lon="8.914231">
<ele>395.4</ele>
<time>2020-06-02T18:58:03Z</time>
<speed>0.8</speed>
</trkpt>
<trkpt lat="48.836543" lon="8.914224">
<ele>395.6</ele>
<time>2020-06-02T18:58:08Z</time>
<speed>1.1</speed>
</trkpt>
<trkpt lat="48.836587" lon="8.914246">
<ele>395.3</ele>
<time>2020-06-02T18:58:13Z</time>
<speed>0.6</speed>
</trkpt>
<trkpt lat="48.836617" lon="8.914279">
<ele>395.1</ele>
<time>2020-06-02T18:58:18Z</time>
<speed>0.6</speed>
</trkpt>
<trkpt lat="48.836653" lon="8.914299">
<ele>395.5</ele>
<time>2020-06-02T18:58:23Z</time>
<speed>0.8</speed>
</trkpt>
<trkpt lat="48.836695" lon="8.914348">
<ele>395.4</ele>
<time>2020-06-02T18:58:28Z</time>
<speed>0.8</speed>
</trkpt>
<trkpt lat="48.836743" lon="8.914398">
<ele>394.8</ele>
<time>2020-06-02T18:58:33Z</time>
<speed>0.8</speed>
</trkpt>
<trkpt lat="48.836797" lon="8.914465">
<ele>393.5</ele>
<time>2020-06-02T18:58:38Z</time>
<speed>0.8</speed>
</trkpt>
<trkpt lat="48.836840" lon="8.914487">
<ele>393.3</ele>
<time>2020-06-02T18:58:43Z</time>
<speed>0.6</speed>
</trkpt>
<trkpt lat="48.836870" lon="8.914505">
<ele>394.3</ele>
<time>2020-06-02T18:58:48Z</time>
<speed>0.8</speed>
</trkpt>
<trkpt lat="48.836895" lon="8.914507">
<ele>396.0</ele>
<time>2020-06-02T18:58:53Z</time>
<speed>0.8</speed>
</trkpt>
<trkpt lat="48.836889" lon="8.914491">
<ele>396.5</ele>
<time>2020-06-02T18:58:58Z</time>
<speed>0.3</speed>
</trkpt>
<trkpt lat="48.836876" lon="8.914487">
<ele>397.8</ele>
<time>2020-06-02T18:59:03Z</time>
<speed>0.3</speed>
</trkpt>
<trkpt lat="48.836857" lon="8.914469">
<ele>398.2</ele>
<time>2020-06-02T18:59:08Z</time>
<speed>0.3</speed>
</trkpt>
<trkpt lat="48.836847" lon="8.914440">
<ele>397.9</ele>
<time>2020-06-02T18:59:13Z</time>
<speed>0.3</speed>
</trkpt>
<trkpt lat="48.836835" lon="8.914409">
<ele>399.0</ele>
<time>2020-06-02T18:59:18Z</time>
<speed>0.6</speed>
</trkpt>
<trkpt lat="48.836858" lon="8.914373">
<ele>398.2</ele>
<time>2020-06-02T18:59:23Z</time>
<speed>0.8</speed>
</trkpt>
<trkpt lat="48.836900" lon="8.914325">
<ele>398.1</ele>
<time>2020-06-02T18:59:28Z</time>
<speed>0.8</speed>
</trkpt>
<trkpt lat="48.836954" lon="8.914293">
<ele>398.2</ele>
<time>2020-06-02T18:59:33Z</time>
<speed>0.8</speed>
</trkpt>
<trkpt lat="48.836983" lon="8.914244">
<ele>398.0</ele>
<time>2020-06-02T18:59:38Z</time>
<speed>1.1</speed>
</trkpt>
<trkpt lat="48.836994" lon="8.914177">
<ele>398.2</ele>
<time>2020-06-02T18:59:43Z</time>
<speed>0.8</speed>
</trkpt>
<trkpt lat="48.837011" lon="8.914109">
<ele>399.2</ele>
<time>2020-06-02T18:59:48Z</time>
<speed>1.1</speed>
</trkpt>
<trkpt lat="48.837022" lon="8.914042">
<ele>399.5</ele>
<time>2020-06-02T18:59:53Z</time>
<speed>0.8</speed>
</trkpt>
<trkpt lat="48.837064" lon="8.913994">
<ele>399.4</ele>
<time>2020-06-02T18:59:58Z</time>
<speed>0.8</speed>
</trkpt>
<trkpt lat="48.837098" lon="8.913989">
<ele>397.4</ele>
<time>2020-06-02T19:00:03Z</time>
<speed>0.0</speed>
</trkpt>
<trkpt lat="48.837120" lon="8.913969">
<ele>395.3</ele>
<time>2020-06-02T19:00:08Z</time>
<speed>0.8</speed>
</trkpt>
<trkpt lat="48.837148" lon="8.913946">
<ele>395.3</ele>
<time>2020-06-02T19:00:13Z</time>
<speed>0.0</speed>
</trkpt>
<trkpt lat="48.837152" lon="8.913960">
<ele>396.1</ele>
<time>2020-06-02T19:00:18Z</time>
<speed>0.0</speed>
</trkpt>
</trkseg>
</trk>
<wpt lat="48.837029" lon="8.914111">
<ele>390.8</ele>
<time>2020-06-02T15:32:24Z</time>
<name>POI1</name>
<speed>0.0</speed>
</wpt>
</gpx>
